<?xml version="1.0" encoding="UTF-8" standalone="no" ?>
<gpx xmlns="http://www.topografix.com/GPX/1/1" xmlns:xsi="http://www.w3.org/2001/XMLSchema-instance" xsi:schemaLocation="http://www.topografix.com/GPX/1/1 http://www.topografix.com/GPX/1/1/gpx.xsd" version="1.1" creator="VisuGPX - https://www.visugpx.com">
  <metadata>
    <name>Circuit équestre dans le Queyras</name>
    <desc><![CDATA[Six étapes dans le Queyras en juillet 2014]]></desc>
  </metadata>
  <trk>
    <name><![CDATA[Queyras GPX]]></name>
    <trkseg>
      <trkpt lat="44.64741" lon="6.99783">
        <ele>1813.6</ele>
        <time>2014-07-12T07:09:47Z</time>
      </trkpt>
      <trkpt lat="44.64741" lon="6.99783">
        <ele>1813.6</ele>
        <time>2014-07-12T07:09:48Z</time>
      </trkpt>
      <trkpt lat="44.64741" lon="6.99783">
        <ele>1813.5</ele>
        <time>2014-07-12T07:09:48Z</time>
      </trkpt>
      <trkpt lat="44.64775" lon="6.99744">
        <ele>1817.6</ele>
        <time>2014-07-12T07:23:30Z</time>
      </trkpt>
      <trkpt lat="44.64776" lon="6.99743">
        <ele>1817.8</ele>
        <time>2014-07-12T07:23:31Z</time>
      </trkpt>
      <trkpt lat="44.64811" lon="6.99701">
        <ele>1820.9</ele>
        <time>2014-07-12T07:24:44Z</time>
      </trkpt>
      <trkpt lat="44.64849" lon="6.9967">
        <ele>1820.9</ele>
        <time>2014-07-12T07:27:35Z</time>
      </trkpt>
      <trkpt lat="44.64922" lon="6.99617">
        <ele>1819</ele>
        <time>2014-07-12T07:28:35Z</time>
      </trkpt>
      <trkpt lat="44.64925" lon="6.99613">
        <ele>1819.1</ele>
        <time>2014-07-12T07:28:36Z</time>
      </trkpt>
      <trkpt lat="44.64986" lon="6.99551">
        <ele>1823.6</ele>
        <time>2014-07-12T07:29:31Z</time>
      </trkpt>
      <trkpt lat="44.65002" lon="6.99499">
        <ele>1824.5</ele>
        <time>2014-07-12T07:30:04Z</time>
      </trkpt>
      <trkpt lat="44.64999" lon="6.99448">
        <ele>1823</ele>
        <time>2014-07-12T07:30:05Z</time>
      </trkpt>
      <trkpt lat="44.65002" lon="6.99376">
        <ele>1822.6</ele>
        <time>2014-07-12T07:31:07Z</time>
      </trkpt>
      <trkpt lat="44.65003" lon="6.99371">
        <ele>1822.9</ele>
        <time>2014-07-12T07:31:08Z</time>
      </trkpt>
      <trkpt lat="44.65012" lon="6.99291">
        <ele>1829.3</ele>
        <time>2014-07-12T07:31:47Z</time>
      </trkpt>
      <trkpt lat="44.65018" lon="6.99253">
        <ele>1835.9</ele>
        <time>2014-07-12T07:32:22Z</time>
      </trkpt>
      <trkpt lat="44.65006" lon="6.99205">
        <ele>1840.1</ele>
        <time>2014-07-12T07:32:23Z</time>
      </trkpt>
      <trkpt lat="44.65005" lon="6.99144">
        <ele>1844.5</ele>
        <time>2014-07-12T07:33:26Z</time>
      </trkpt>
      <trkpt lat="44.65011" lon="6.99095">
        <ele>1854.4</ele>
        <time>2014-07-12T07:33:27Z</time>
      </trkpt>
      <trkpt lat="44.65026" lon="6.99032">
        <ele>1861</ele>
        <time>2014-07-12T07:33:55Z</time>
      </trkpt>
      <trkpt lat="44.65034" lon="6.98998">
        <ele>1864.3</ele>
        <time>2014-07-12T07:34:33Z</time>
      </trkpt>
      <trkpt lat="44.65035" lon="6.98947">
        <ele>1865.8</ele>
        <time>2014-07-12T07:34:34Z</time>
      </trkpt>
      <trkpt lat="44.65036" lon="6.98886">
        <ele>1870.5</ele>
        <time>2014-07-12T07:35:39Z</time>
      </trkpt>
      <trkpt lat="44.65044" lon="6.98839">
        <ele>1884</ele>
        <time>2014-07-12T07:35:40Z</time>
      </trkpt>
      <trkpt lat="44.65044" lon="6.98764">
        <ele>1886.3</ele>
        <time>2014-07-12T07:36:53Z</time>
      </trkpt>
      <trkpt lat="44.65044" lon="6.98759">
        <ele>1886.1</ele>
        <time>2014-07-12T07:36:54Z</time>
      </trkpt>
      <trkpt lat="44.6503" lon="6.98687">
        <ele>1886.3</ele>
        <time>2014-07-12T07:37:28Z</time>
      </trkpt>
      <trkpt lat="44.65014" lon="6.98633">
        <ele>1886</ele>
        <time>2014-07-12T07:38:03Z</time>
      </trkpt>
      <trkpt lat="44.64994" lon="6.98589">
        <ele>1884.1</ele>
        <time>2014-07-12T07:38:04Z</time>
      </trkpt>
      <trkpt lat="44.64987" lon="6.98521">
        <ele>1901.3</ele>
        <time>2014-07-12T07:39:42Z</time>
      </trkpt>
      <trkpt lat="44.64986" lon="6.98517">
        <ele>1902.3</ele>
        <time>2014-07-12T07:39:43Z</time>
      </trkpt>
      <trkpt lat="44.64985" lon="6.984">
        <ele>1933.1</ele>
        <time>2014-07-12T07:42:01Z</time>
      </trkpt>
      <trkpt lat="44.64985" lon="6.98395">
        <ele>1933.9</ele>
        <time>2014-07-12T07:42:02Z</time>
      </trkpt>
      <trkpt lat="44.65008" lon="6.98285">
        <ele>1945</ele>
        <time>2014-07-12T07:43:18Z</time>
      </trkpt>
      <trkpt lat="44.65008" lon="6.9828">
        <ele>1945</ele>
        <time>2014-07-12T07:43:19Z</time>
      </trkpt>
      <trkpt lat="44.65017" lon="6.98167">
        <ele>1968</ele>
        <time>2014-07-12T07:44:34Z</time>
      </trkpt>
      <trkpt lat="44.65016" lon="6.98162">
        <ele>1968.4</ele>
        <time>2014-07-12T07:44:35Z</time>
      </trkpt>
      <trkpt lat="44.65002" lon="6.98048">
        <ele>1987.4</ele>
        <time>2014-07-12T07:45:47Z</time>
      </trkpt>
      <trkpt lat="44.65002" lon="6.98044">
        <ele>1988.4</ele>
        <time>2014-07-12T07:45:48Z</time>
      </trkpt>
      <trkpt lat="44.65005" lon="6.97978">
        <ele>2008</ele>
        <time>2014-07-12T07:47:16Z</time>
      </trkpt>
      <trkpt lat="44.65094" lon="6.97807">
        <ele>2001.3</ele>
        <time>2014-07-12T07:50:34Z</time>
      </trkpt>
      <trkpt lat="44.65084" lon="6.97772">
        <ele>2029.1</ele>
        <time>2014-07-12T07:51:34Z</time>
      </trkpt>
      <trkpt lat="44.65063" lon="6.97697">
        <ele>2054.5</ele>
        <time>2014-07-12T07:52:43Z</time>
      </trkpt>
      <trkpt lat="44.65058" lon="6.97685">
        <ele>2062.5</ele>
        <time>2014-07-12T07:53:15Z</time>
      </trkpt>
      <trkpt lat="44.65028" lon="6.97485">
        <ele>2092.3</ele>
        <time>2014-07-12T07:56:04Z</time>
      </trkpt>
      <trkpt lat="44.64956" lon="6.97376">
        <ele>2128.3</ele>
        <time>2014-07-12T08:03:26Z</time>
      </trkpt>
      <trkpt lat="44.64951" lon="6.97362">
        <ele>2133.3</ele>
        <time>2014-07-12T08:03:45Z</time>
      </trkpt>
      <trkpt lat="44.64916" lon="6.97305">
        <ele>2155.3</ele>
        <time>2014-07-12T08:05:07Z</time>
      </trkpt>
      <trkpt lat="44.64871" lon="6.97298">
        <ele>2168</ele>
        <time>2014-07-12T08:06:17Z</time>
      </trkpt>
      <trkpt lat="44.64869" lon="6.97298">
        <ele>2168.3</ele>
        <time>2014-07-12T08:06:18Z</time>
      </trkpt>
      <trkpt lat="44.6483" lon="6.97267">
        <ele>2175.6</ele>
        <time>2014-07-12T08:08:13Z</time>
      </trkpt>
      <trkpt lat="44.64817" lon="6.97201">
        <ele>2195.3</ele>
        <time>2014-07-12T08:10:01Z</time>
      </trkpt>
      <trkpt lat="44.6477" lon="6.97157">
        <ele>2219.8</ele>
        <time>2014-07-12T08:11:47Z</time>
      </trkpt>
      <trkpt lat="44.64725" lon="6.97124">
        <ele>2232.1</ele>
        <time>2014-07-12T08:15:27Z</time>
      </trkpt>
      <trkpt lat="44.64721" lon="6.97123">
        <ele>2233.6</ele>
        <time>2014-07-12T08:15:28Z</time>
      </trkpt>
      <trkpt lat="44.64715" lon="6.97059">
        <ele>2256</ele>
        <time>2014-07-12T08:16:44Z</time>
      </trkpt>
      <trkpt lat="44.64757" lon="6.96959">
        <ele>2283.8</ele>
        <time>2014-07-12T08:18:16Z</time>
      </trkpt>
      <trkpt lat="44.64759" lon="6.96955">
        <ele>2284.8</ele>
        <time>2014-07-12T08:18:17Z</time>
      </trkpt>
      <trkpt lat="44.64822" lon="6.96881">
        <ele>2303.5</ele>
        <time>2014-07-12T08:19:54Z</time>
      </trkpt>
      <trkpt lat="44.64825" lon="6.9688">
        <ele>2304.6</ele>
        <time>2014-07-12T08:19:55Z</time>
      </trkpt>
      <trkpt lat="44.64885" lon="6.96795">
        <ele>2316.8</ele>
        <time>2014-07-12T08:21:33Z</time>
      </trkpt>
      <trkpt lat="44.64887" lon="6.96791">
        <ele>2317.5</ele>
        <time>2014-07-12T08:21:34Z</time>
      </trkpt>
      <trkpt lat="44.64838" lon="6.96796">
        <ele>2333.3</ele>
        <time>2014-07-12T08:23:53Z</time>
      </trkpt>
      <trkpt lat="44.6478" lon="6.96821">
        <ele>2335.8</ele>
        <time>2014-07-12T08:25:14Z</time>
      </trkpt>
      <trkpt lat="44.64747" lon="6.96844">
        <ele>2337.8</ele>
        <time>2014-07-12T08:25:15Z</time>
      </trkpt>
      <trkpt lat="44.64706" lon="6.96861">
        <ele>2338.3</ele>
        <time>2014-07-12T08:26:33Z</time>
      </trkpt>
      <trkpt lat="44.64668" lon="6.96877">
        <ele>2339.5</ele>
        <time>2014-07-12T08:26:43Z</time>
      </trkpt>
      <trkpt lat="44.64661" lon="6.9687">
        <ele>2347.6</ele>
        <time>2014-07-12T08:29:50Z</time>
      </trkpt>
      <trkpt lat="44.64686" lon="6.96817">
        <ele>2375.8</ele>
        <time>2014-07-12T08:31:20Z</time>
      </trkpt>
      <trkpt lat="44.64712" lon="6.96765">
        <ele>2389.1</ele>
        <time>2014-07-12T08:34:21Z</time>
      </trkpt>
      <trkpt lat="44.64719" lon="6.96699">
        <ele>2411.1</ele>
        <time>2014-07-12T08:36:58Z</time>
      </trkpt>
      <trkpt lat="44.64718" lon="6.96695">
        <ele>2412.3</ele>
        <time>2014-07-12T08:36:59Z</time>
      </trkpt>
      <trkpt lat="44.64658" lon="6.96663">
        <ele>2437.6</ele>
        <time>2014-07-12T08:38:13Z</time>
      </trkpt>
      <trkpt lat="44.64632" lon="6.96623">
        <ele>2450.6</ele>
        <time>2014-07-12T08:40:14Z</time>
      </trkpt>
      <trkpt lat="44.64617" lon="6.96581">
        <ele>2465.6</ele>
        <time>2014-07-12T08:40:15Z</time>
      </trkpt>
      <trkpt lat="44.64571" lon="6.96561">
        <ele>2479.8</ele>
        <time>2014-07-12T08:42:10Z</time>
      </trkpt>
      <trkpt lat="44.64569" lon="6.96558">
        <ele>2480.6</ele>
        <time>2014-07-12T08:42:11Z</time>
      </trkpt>
      <trkpt lat="44.64491" lon="6.96525">
        <ele>2489.8</ele>
        <time>2014-07-12T08:43:51Z</time>
      </trkpt>
      <trkpt lat="44.64487" lon="6.96524">
        <ele>2490.6</ele>
        <time>2014-07-12T08:43:52Z</time>
      </trkpt>
      <trkpt lat="44.64429" lon="6.96493">
        <ele>2506.1</ele>
        <time>2014-07-12T08:46:19Z</time>
      </trkpt>
      <trkpt lat="44.64389" lon="6.9649">
        <ele>2518.3</ele>
        <time>2014-07-12T08:47:46Z</time>
      </trkpt>
      <trkpt lat="44.64357" lon="6.96466">
        <ele>2528.3</ele>
        <time>2014-07-12T08:47:47Z</time>
      </trkpt>
      <trkpt lat="44.64332" lon="6.96425">
        <ele>2540.1</ele>
        <time>2014-07-12T08:53:48Z</time>
      </trkpt>
      <trkpt lat="44.64299" lon="6.96397">
        <ele>2553.6</ele>
        <time>2014-07-12T08:54:55Z</time>
      </trkpt>
      <trkpt lat="44.64364" lon="6.96377">
        <ele>2548.8</ele>
        <time>2014-07-12T08:56:11Z</time>
      </trkpt>
      <trkpt lat="44.64763" lon="6.9587">
        <ele>2609.5</ele>
        <time>2014-07-12T09:11:02Z</time>
      </trkpt>
      <trkpt lat="44.64803" lon="6.95895">
        <ele>2619.1</ele>
        <time>2014-07-12T09:12:06Z</time>
      </trkpt>
      <trkpt lat="44.64806" lon="6.95894">
        <ele>2619.8</ele>
        <time>2014-07-12T09:12:07Z</time>
      </trkpt>
      <trkpt lat="44.64878" lon="6.9584">
        <ele>2631.3</ele>
        <time>2014-07-12T09:13:38Z</time>
      </trkpt>
      <trkpt lat="44.64881" lon="6.95837">
        <ele>2631.6</ele>
        <time>2014-07-12T09:13:39Z</time>
      </trkpt>
      <trkpt lat="44.64935" lon="6.95746">
        <ele>2649.1</ele>
        <time>2014-07-12T09:15:16Z</time>
      </trkpt>
      <trkpt lat="44.64937" lon="6.95743">
        <ele>2649.8</ele>
        <time>2014-07-12T09:15:17Z</time>
      </trkpt>
      <trkpt lat="44.6501" lon="6.95689">
        <ele>2667.8</ele>
        <time>2014-07-12T09:16:44Z</time>
      </trkpt>
      <trkpt lat="44.65013" lon="6.95687">
        <ele>2668.3</ele>
        <time>2014-07-12T09:16:45Z</time>
      </trkpt>
      <trkpt lat="44.6509" lon="6.95638">
        <ele>2685</ele>
        <time>2014-07-12T09:18:45Z</time>
      </trkpt>
      <trkpt lat="44.65093" lon="6.95638">
        <ele>2686.1</ele>
        <time>2014-07-12T09:18:46Z</time>
      </trkpt>
      <trkpt lat="44.65131" lon="6.95667">
        <ele>2704.8</ele>
        <time>2014-07-12T09:26:39Z</time>
      </trkpt>
      <trkpt lat="44.65211" lon="6.95636">
        <ele>2725</ele>
        <time>2014-07-12T09:28:07Z</time>
      </trkpt>
      <trkpt lat="44.65214" lon="6.95636">
        <ele>2725.8</ele>
        <time>2014-07-12T09:28:08Z</time>
      </trkpt>
      <trkpt lat="44.65297" lon="6.95644">
        <ele>2742.1</ele>
        <time>2014-07-12T09:30:51Z</time>
      </trkpt>
      <trkpt lat="44.653" lon="6.95641">
        <ele>2742.8</ele>
        <time>2014-07-12T09:30:52Z</time>
      </trkpt>
      <trkpt lat="44.65371" lon="6.9558">
        <ele>2753.8</ele>
        <time>2014-07-12T09:32:17Z</time>
      </trkpt>
      <trkpt lat="44.65375" lon="6.95579">
        <ele>2754.1</ele>
        <time>2014-07-12T09:32:18Z</time>
      </trkpt>
      <trkpt lat="44.65408" lon="6.95537">
        <ele>2759.3</ele>
        <time>2014-07-12T09:33:20Z</time>
      </trkpt>
      <trkpt lat="44.65461" lon="6.95492">
        <ele>2770.8</ele>
        <time>2014-07-12T09:34:25Z</time>
      </trkpt>
      <trkpt lat="44.65496" lon="6.95487">
        <ele>2780.1</ele>
        <time>2014-07-12T09:34:26Z</time>
      </trkpt>
      <trkpt lat="44.65536" lon="6.95472">
        <ele>2787.6</ele>
        <time>2014-07-12T09:35:42Z</time>
      </trkpt>
      <trkpt lat="44.65565" lon="6.95474">
        <ele>2793.1</ele>
        <time>2014-07-12T09:35:43Z</time>
      </trkpt>
      <trkpt lat="44.65589" lon="6.95413">
        <ele>2799.8</ele>
        <time>2014-07-12T09:37:04Z</time>
      </trkpt>
      <trkpt lat="44.65621" lon="6.9538">
        <ele>2802.3</ele>
        <time>2014-07-12T09:37:05Z</time>
      </trkpt>
      <trkpt lat="44.65661" lon="6.95374">
        <ele>2806.6</ele>
        <time>2014-07-12T09:39:30Z</time>
      </trkpt>
      <trkpt lat="44.65682" lon="6.95376">
        <ele>2806.8</ele>
        <time>2014-07-12T09:39:31Z</time>
      </trkpt>
      <trkpt lat="44.65697" lon="6.95377">
        <ele>2817.5</ele>
        <time>2014-07-12T09:40:44Z</time>
      </trkpt>
      <trkpt lat="44.65743" lon="6.95369">
        <ele>2836</ele>
        <time>2014-07-12T09:41:48Z</time>
      </trkpt>
      <trkpt lat="44.65769" lon="6.95368">
        <ele>2846.1</ele>
        <time>2014-07-12T09:43:25Z</time>
      </trkpt>
      <trkpt lat="44.658" lon="6.95363">
        <ele>2868.3</ele>
        <time>2014-07-12T09:46:04Z</time>
      </trkpt>
      <trkpt lat="44.6586" lon="6.95414">
        <ele>2881.8</ele>
        <time>2014-07-12T09:47:38Z</time>
      </trkpt>
      <trkpt lat="44.65887" lon="6.95408">
        <ele>2893.1</ele>
        <time>2014-07-12T09:48:51Z</time>
      </trkpt>
      <trkpt lat="44.65954" lon="6.95449">
        <ele>2893.6</ele>
        <time>2014-07-12T09:48:52Z</time>
      </trkpt>
      <trkpt lat="44.6602" lon="6.95435">
        <ele>2903</ele>
        <time>2014-07-12T09:52:17Z</time>
      </trkpt>
      <trkpt lat="44.66039" lon="6.95401">
        <ele>2902.3</ele>
        <time>2014-07-12T09:52:18Z</time>
      </trkpt>
      <trkpt lat="44.66046" lon="6.95365">
        <ele>2891</ele>
        <time>2014-07-12T09:53:47Z</time>
      </trkpt>
      <trkpt lat="44.66109" lon="6.9532">
        <ele>2872.8</ele>
        <time>2014-07-12T09:58:13Z</time>
      </trkpt>
      <trkpt lat="44.66127" lon="6.95276">
        <ele>2872.3</ele>
        <time>2014-07-12T09:58:14Z</time>
      </trkpt>
      <trkpt lat="44.66155" lon="6.953">
        <ele>2853.8</ele>
        <time>2014-07-12T10:00:15Z</time>
      </trkpt>
      <trkpt lat="44.66178" lon="6.95189">
        <ele>2847.8</ele>
        <time>2014-07-12T10:01:19Z</time>
      </trkpt>
      <trkpt lat="44.66188" lon="6.95141">
        <ele>2833</ele>
        <time>2014-07-12T10:03:32Z</time>
      </trkpt>
      <trkpt lat="44.66189" lon="6.95104">
        <ele>2826.3</ele>
        <time>2014-07-12T10:04:46Z</time>
      </trkpt>
      <trkpt lat="44.66193" lon="6.95049">
        <ele>2804.3</ele>
        <time>2014-07-12T10:06:20Z</time>
      </trkpt>
      <trkpt lat="44.66194" lon="6.94974">
        <ele>2790.1</ele>
        <time>2014-07-12T10:07:52Z</time>
      </trkpt>
      <trkpt lat="44.66204" lon="6.94885">
        <ele>2771.8</ele>
        <time>2014-07-12T10:09:33Z</time>
      </trkpt>
      <trkpt lat="44.66205" lon="6.9488">
        <ele>2771.3</ele>
        <time>2014-07-12T10:09:34Z</time>
      </trkpt>
      <trkpt lat="44.66179" lon="6.94772">
        <ele>2756.6</ele>
        <time>2014-07-12T10:11:12Z</time>
      </trkpt>
      <trkpt lat="44.66178" lon="6.94768">
        <ele>2755.8</ele>
        <time>2014-07-12T10:11:13Z</time>
      </trkpt>
      <trkpt lat="44.66146" lon="6.94659">
        <ele>2734.8</ele>
        <time>2014-07-12T10:12:57Z</time>
      </trkpt>
      <trkpt lat="44.66145" lon="6.94654">
        <ele>2734.3</ele>
        <time>2014-07-12T10:12:58Z</time>
      </trkpt>
      <trkpt lat="44.66131" lon="6.94596">
        <ele>2725.1</ele>
        <time>2014-07-12T10:18:31Z</time>
      </trkpt>
      <trkpt lat="44.66125" lon="6.94533">
        <ele>2707.1</ele>
        <time>2014-07-12T10:20:16Z</time>
      </trkpt>
      <trkpt lat="44.66139" lon="6.94454">
        <ele>2672.6</ele>
        <time>2014-07-12T10:23:15Z</time>
      </trkpt>
      <trkpt lat="44.66149" lon="6.94441">
        <ele>2658.1</ele>
        <time>2014-07-12T10:24:03Z</time>
      </trkpt>
      <trkpt lat="44.66341" lon="6.94264">
        <ele>2572.3</ele>
        <time>2014-07-12T10:31:42Z</time>
      </trkpt>
      <trkpt lat="44.66341" lon="6.94264">
        <ele>2572.3</ele>
        <time>2014-07-12T10:32:00Z</time>
      </trkpt>
      <trkpt lat="44.66437" lon="6.94187">
        <ele>2529.1</ele>
        <time>2014-07-12T10:34:39Z</time>
      </trkpt>
      <trkpt lat="44.6648" lon="6.94185">
        <ele>2519.1</ele>
        <time>2014-07-12T10:39:48Z</time>
      </trkpt>
      <trkpt lat="44.66484" lon="6.94184">
        <ele>2518.6</ele>
        <time>2014-07-12T10:39:49Z</time>
      </trkpt>
      <trkpt lat="44.66549" lon="6.94118">
        <ele>2511.3</ele>
        <time>2014-07-12T10:40:39Z</time>
      </trkpt>
      <trkpt lat="44.66545" lon="6.94063">
        <ele>2505.5</ele>
        <time>2014-07-12T10:41:44Z</time>
      </trkpt>
      <trkpt lat="44.66556" lon="6.9401">
        <ele>2496.1</ele>
        <time>2014-07-12T10:42:32Z</time>
      </trkpt>
      <trkpt lat="44.66553" lon="6.93974">
        <ele>2489.3</ele>
        <time>2014-07-12T11:16:58Z</time>
      </trkpt>
      <trkpt lat="44.66541" lon="6.93934">
        <ele>2503.5</ele>
        <time>2014-07-12T11:16:59Z</time>
      </trkpt>
      <trkpt lat="44.66543" lon="6.9389">
        <ele>2494.8</ele>
        <time>2014-07-12T11:32:33Z</time>
      </trkpt>
      <trkpt lat="44.66534" lon="6.93734">
        <ele>2480.6</ele>
        <time>2014-07-12T11:34:17Z</time>
      </trkpt>
      <trkpt lat="44.66536" lon="6.93715">
        <ele>2482.1</ele>
        <time>2014-07-12T11:34:45Z</time>
      </trkpt>
      <trkpt lat="44.66547" lon="6.93662">
        <ele>2483.1</ele>
        <time>2014-07-12T11:35:23Z</time>
      </trkpt>
      <trkpt lat="44.66571" lon="6.93624">
        <ele>2477.6</ele>
        <time>2014-07-12T11:35:24Z</time>
      </trkpt>
      <trkpt lat="44.66584" lon="6.93562">
        <ele>2471.5</ele>
        <time>2014-07-12T11:37:01Z</time>
      </trkpt>
      <trkpt lat="44.66583" lon="6.93557">
        <ele>2470.8</ele>
        <time>2014-07-12T11:37:02Z</time>
      </trkpt>
      <trkpt lat="44.66582" lon="6.93491">
        <ele>2465.1</ele>
        <time>2014-07-12T11:37:43Z</time>
      </trkpt>
      <trkpt lat="44.66594" lon="6.93437">
        <ele>2468</ele>
        <time>2014-07-12T11:38:14Z</time>
      </trkpt>
      <trkpt lat="44.66607" lon="6.93389">
        <ele>2469</ele>
        <time>2014-07-12T11:38:15Z</time>
      </trkpt>
      <trkpt lat="44.66623" lon="6.93331">
        <ele>2469.3</ele>
        <time>2014-07-12T11:39:18Z</time>
      </trkpt>
      <trkpt lat="44.66637" lon="6.93282">
        <ele>2468.3</ele>
        <time>2014-07-12T11:39:19Z</time>
      </trkpt>
      <trkpt lat="44.66656" lon="6.9322">
        <ele>2466</ele>
        <time>2014-07-12T11:40:28Z</time>
      </trkpt>
      <trkpt lat="44.66666" lon="6.93171">
        <ele>2463.5</ele>
        <time>2014-07-12T11:40:29Z</time>
      </trkpt>
      <trkpt lat="44.66695" lon="6.93118">
        <ele>2470.6</ele>
        <time>2014-07-12T11:41:06Z</time>
      </trkpt>
      <trkpt lat="44.66704" lon="6.93101">
        <ele>2473.6</ele>
        <time>2014-07-12T11:41:45Z</time>
      </trkpt>
      <trkpt lat="44.66733" lon="6.9307">
        <ele>2468</ele>
        <time>2014-07-12T11:41:46Z</time>
      </trkpt>
      <trkpt lat="44.66769" lon="6.93018">
        <ele>2467.8</ele>
        <time>2014-07-12T11:42:23Z</time>
      </trkpt>
      <trkpt lat="44.66799" lon="6.92973">
        <ele>2480.5</ele>
        <time>2014-07-12T11:42:52Z</time>
      </trkpt>
      <trkpt lat="44.668" lon="6.92972">
        <ele>2479.8</ele>
        <time>2014-07-12T11:42:53Z</time>
      </trkpt>
      <trkpt lat="44.66846" lon="6.92887">
        <ele>2464.1</ele>
        <time>2014-07-12T11:43:55Z</time>
      </trkpt>
      <trkpt lat="44.66846" lon="6.92885">
        <ele>2464.8</ele>
        <time>2014-07-12T11:43:56Z</time>
      </trkpt>
      <trkpt lat="44.66877" lon="6.92812">
        <ele>2453.8</ele>
        <time>2014-07-12T11:45:14Z</time>
      </trkpt>
      <trkpt lat="44.66896" lon="6.92769">
        <ele>2452.3</ele>
        <time>2014-07-12T11:45:15Z</time>
      </trkpt>
      <trkpt lat="44.6691" lon="6.92736">
        <ele>2451.1</ele>
        <time>2014-07-12T11:46:04Z</time>
      </trkpt>
      <trkpt lat="44.66928" lon="6.92685">
        <ele>2449.1</ele>
        <time>2014-07-12T11:46:43Z</time>
      </trkpt>
      <trkpt lat="44.66928" lon="6.92635">
        <ele>2442.8</ele>
        <time>2014-07-12T11:46:44Z</time>
      </trkpt>
      <trkpt lat="44.66918" lon="6.92603">
        <ele>2440.8</ele>
        <time>2014-07-12T11:47:34Z</time>
      </trkpt>
      <trkpt lat="44.66925" lon="6.92544">
        <ele>2441.6</ele>
        <time>2014-07-12T11:48:09Z</time>
      </trkpt>
      <trkpt lat="44.66928" lon="6.92541">
        <ele>2441.3</ele>
        <time>2014-07-12T11:48:10Z</time>
      </trkpt>
      <trkpt lat="44.66997" lon="6.92475">
        <ele>2428.6</ele>
        <time>2014-07-12T11:49:19Z</time>
      </trkpt>
      <trkpt lat="44.67" lon="6.92472">
        <ele>2428.1</ele>
        <time>2014-07-12T11:49:20Z</time>
      </trkpt>
      <trkpt lat="44.67042" lon="6.92428">
        <ele>2421.5</ele>
        <time>2014-07-12T11:50:07Z</time>
      </trkpt>
      <trkpt lat="44.67079" lon="6.92396">
        <ele>2416.1</ele>
        <time>2014-07-12T11:50:40Z</time>
      </trkpt>
      <trkpt lat="44.67082" lon="6.92395">
        <ele>2415.8</ele>
        <time>2014-07-12T11:50:41Z</time>
      </trkpt>
      <trkpt lat="44.67159" lon="6.92353">
        <ele>2407.1</ele>
        <time>2014-07-12T11:51:55Z</time>
      </trkpt>
      <trkpt lat="44.67162" lon="6.9235">
        <ele>2406.8</ele>
        <time>2014-07-12T11:51:56Z</time>
      </trkpt>
      <trkpt lat="44.67227" lon="6.92281">
        <ele>2392.3</ele>
        <time>2014-07-12T11:53:05Z</time>
      </trkpt>
      <trkpt lat="44.67229" lon="6.92278">
        <ele>2391.8</ele>
        <time>2014-07-12T11:53:06Z</time>
      </trkpt>
      <trkpt lat="44.67293" lon="6.92204">
        <ele>2379.3</ele>
        <time>2014-07-12T11:54:13Z</time>
      </trkpt>
      <trkpt lat="44.67296" lon="6.92201">
        <ele>2378.8</ele>
        <time>2014-07-12T11:54:14Z</time>
      </trkpt>
      <trkpt lat="44.67372" lon="6.92154">
        <ele>2367.8</ele>
        <time>2014-07-12T11:55:28Z</time>
      </trkpt>
      <trkpt lat="44.67375" lon="6.92153">
        <ele>2367.3</ele>
        <time>2014-07-12T11:55:29Z</time>
      </trkpt>
      <trkpt lat="44.67454" lon="6.92181">
        <ele>2356.3</ele>
        <time>2014-07-12T11:56:46Z</time>
      </trkpt>
      <trkpt lat="44.67457" lon="6.92184">
        <ele>2355.8</ele>
        <time>2014-07-12T11:56:47Z</time>
      </trkpt>
      <trkpt lat="44.67528" lon="6.92196">
        <ele>2351.3</ele>
        <time>2014-07-12T11:58:33Z</time>
      </trkpt>
      <trkpt lat="44.6753" lon="6.92191">
        <ele>2351.3</ele>
        <time>2014-07-12T11:58:34Z</time>
      </trkpt>
      <trkpt lat="44.6757" lon="6.92089">
        <ele>2348.5</ele>
        <time>2014-07-12T11:59:54Z</time>
      </trkpt>
      <trkpt lat="44.67573" lon="6.92086">
        <ele>2347.8</ele>
        <time>2014-07-12T11:59:55Z</time>
      </trkpt>
      <trkpt lat="44.67613" lon="6.92004">
        <ele>2322.8</ele>
        <time>2014-07-12T12:02:31Z</time>
      </trkpt>
      <trkpt lat="44.67616" lon="6.92001">
        <ele>2321.6</ele>
        <time>2014-07-12T12:02:32Z</time>
      </trkpt>
      <trkpt lat="44.67674" lon="6.91929">
        <ele>2308.5</ele>
        <time>2014-07-12T12:03:50Z</time>
      </trkpt>
      <trkpt lat="44.67676" lon="6.91924">
        <ele>2308.1</ele>
        <time>2014-07-12T12:03:51Z</time>
      </trkpt>
      <trkpt lat="44.67704" lon="6.91832">
        <ele>2301.8</ele>
        <time>2014-07-12T12:11:33Z</time>
      </trkpt>
      <trkpt lat="44.67726" lon="6.91768">
        <ele>2293.3</ele>
        <time>2014-07-12T12:12:46Z</time>
      </trkpt>
      <trkpt lat="44.67728" lon="6.91763">
        <ele>2292.6</ele>
        <time>2014-07-12T12:12:47Z</time>
      </trkpt>
      <trkpt lat="44.67775" lon="6.9167">
        <ele>2281.6</ele>
        <time>2014-07-12T12:14:04Z</time>
      </trkpt>
      <trkpt lat="44.67788" lon="6.91623">
        <ele>2279.8</ele>
        <time>2014-07-12T12:14:05Z</time>
      </trkpt>
      <trkpt lat="44.678" lon="6.91558">
        <ele>2277.8</ele>
        <time>2014-07-12T12:16:21Z</time>
      </trkpt>
      <trkpt lat="44.67822" lon="6.91518">
        <ele>2274.3</ele>
        <time>2014-07-12T12:16:22Z</time>
      </trkpt>
      <trkpt lat="44.67822" lon="6.91448">
        <ele>2271.6</ele>
        <time>2014-07-12T12:17:54Z</time>
      </trkpt>
      <trkpt lat="44.67822" lon="6.91443">
        <ele>2271.5</ele>
        <time>2014-07-12T12:17:55Z</time>
      </trkpt>
      <trkpt lat="44.67845" lon="6.91332">
        <ele>2265.8</ele>
        <time>2014-07-12T12:19:14Z</time>
      </trkpt>
      <trkpt lat="44.67851" lon="6.91285">
        <ele>2264.8</ele>
        <time>2014-07-12T12:19:15Z</time>
      </trkpt>
      <trkpt lat="44.67849" lon="6.9122">
        <ele>2261.5</ele>
        <time>2014-07-12T12:19:51Z</time>
      </trkpt>
      <trkpt lat="44.67848" lon="6.91206">
        <ele>2260.8</ele>
        <time>2014-07-12T12:20:25Z</time>
      </trkpt>
      <trkpt lat="44.67844" lon="6.91155">
        <ele>2256.8</ele>
        <time>2014-07-12T12:20:26Z</time>
      </trkpt>
      <trkpt lat="44.6782" lon="6.91097">
        <ele>2255.3</ele>
        <time>2014-07-12T12:21:00Z</time>
      </trkpt>
      <trkpt lat="44.67787" lon="6.91055">
        <ele>2253.3</ele>
        <time>2014-07-12T12:21:32Z</time>
      </trkpt>
      <trkpt lat="44.67786" lon="6.91054">
        <ele>2253.3</ele>
        <time>2014-07-12T12:21:33Z</time>
      </trkpt>
      <trkpt lat="44.67757" lon="6.91004">
        <ele>2250.8</ele>
        <time>2014-07-12T12:22:29Z</time>
      </trkpt>
      <trkpt lat="44.67726" lon="6.90958">
        <ele>2250.1</ele>
        <time>2014-07-12T12:22:45Z</time>
      </trkpt>
      <trkpt lat="44.67703" lon="6.90912">
        <ele>2250.6</ele>
        <time>2014-07-12T12:23:38Z</time>
      </trkpt>
      <trkpt lat="44.677" lon="6.90849">
        <ele>2251.1</ele>
        <time>2014-07-12T12:24:12Z</time>
      </trkpt>
      <trkpt lat="44.67694" lon="6.90799">
        <ele>2251.1</ele>
        <time>2014-07-12T12:24:13Z</time>
      </trkpt>
      <trkpt lat="44.67711" lon="6.90737">
        <ele>2242.8</ele>
        <time>2014-07-12T12:25:15Z</time>
      </trkpt>
      <trkpt lat="44.67712" lon="6.90732">
        <ele>2242.6</ele>
        <time>2014-07-12T12:25:16Z</time>
      </trkpt>
      <trkpt lat="44.67708" lon="6.90616">
        <ele>2240.8</ele>
        <time>2014-07-12T12:25:56Z</time>
      </trkpt>
      <trkpt lat="44.67706" lon="6.90557">
        <ele>2240.3</ele>
        <time>2014-07-12T12:26:43Z</time>
      </trkpt>
      <trkpt lat="44.67706" lon="6.90552">
        <ele>2240.3</ele>
        <time>2014-07-12T12:26:44Z</time>
      </trkpt>
      <trkpt lat="44.67698" lon="6.90434">
        <ele>2239.6</ele>
        <time>2014-07-12T12:27:49Z</time>
      </trkpt>
      <trkpt lat="44.67698" lon="6.90428">
        <ele>2240.1</ele>
        <time>2014-07-12T12:27:50Z</time>
      </trkpt>
      <trkpt lat="44.67698" lon="6.90351">
        <ele>2244.5</ele>
        <time>2014-07-12T12:28:07Z</time>
      </trkpt>
      <trkpt lat="44.67703" lon="6.90292">
        <ele>2241</ele>
        <time>2014-07-12T12:29:04Z</time>
      </trkpt>
      <trkpt lat="44.67704" lon="6.90286">
        <ele>2240.8</ele>
        <time>2014-07-12T12:29:05Z</time>
      </trkpt>
      <trkpt lat="44.67723" lon="6.90176">
        <ele>2238.6</ele>
        <time>2014-07-12T12:30:06Z</time>
      </trkpt>
      <trkpt lat="44.67724" lon="6.90171">
        <ele>2238.8</ele>
        <time>2014-07-12T12:30:07Z</time>
      </trkpt>
      <trkpt lat="44.67727" lon="6.90057">
        <ele>2240.1</ele>
        <time>2014-07-12T12:30:59Z</time>
      </trkpt>
      <trkpt lat="44.67734" lon="6.9002">
        <ele>2238.8</ele>
        <time>2014-07-12T12:31:22Z</time>
      </trkpt>
      <trkpt lat="44.6774" lon="6.89987">
        <ele>2237.6</ele>
        <time>2014-07-12T12:31:23Z</time>
      </trkpt>
      <trkpt lat="44.67765" lon="6.89905">
        <ele>2234.5</ele>
        <time>2014-07-12T12:32:05Z</time>
      </trkpt>
      <trkpt lat="44.67792" lon="6.89862">
        <ele>2235.3</ele>
        <time>2014-07-12T12:33:58Z</time>
      </trkpt>
      <trkpt lat="44.67795" lon="6.89859">
        <ele>2235.5</ele>
        <time>2014-07-12T12:33:59Z</time>
      </trkpt>
      <trkpt lat="44.67847" lon="6.89766">
        <ele>2237.6</ele>
        <time>2014-07-12T12:35:10Z</time>
      </trkpt>
      <trkpt lat="44.67849" lon="6.89761">
        <ele>2237.6</ele>
        <time>2014-07-12T12:35:11Z</time>
      </trkpt>
      <trkpt lat="44.67877" lon="6.89694">
        <ele>2240.1</ele>
        <time>2014-07-12T12:36:51Z</time>
      </trkpt>
      <trkpt lat="44.67889" lon="6.89651">
        <ele>2238.1</ele>
        <time>2014-07-12T12:37:44Z</time>
      </trkpt>
      <trkpt lat="44.67901" lon="6.89591">
        <ele>2235.1</ele>
        <time>2014-07-12T12:38:18Z</time>
      </trkpt>
      <trkpt lat="44.67903" lon="6.89587">
        <ele>2234.8</ele>
        <time>2014-07-12T12:38:19Z</time>
      </trkpt>
      <trkpt lat="44.67931" lon="6.8948">
        <ele>2232.1</ele>
        <time>2014-07-12T12:39:14Z</time>
      </trkpt>
      <trkpt lat="44.67953" lon="6.89426">
        <ele>2231.3</ele>
        <time>2014-07-12T12:39:50Z</time>
      </trkpt>
      <trkpt lat="44.67956" lon="6.89422">
        <ele>2231.3</ele>
        <time>2014-07-12T12:39:51Z</time>
      </trkpt>
      <trkpt lat="44.68002" lon="6.89327">
        <ele>2224.8</ele>
        <time>2014-07-12T12:40:36Z</time>
      </trkpt>
      <trkpt lat="44.6803" lon="6.89278">
        <ele>2223.1</ele>
        <time>2014-07-12T12:41:10Z</time>
      </trkpt>
      <trkpt lat="44.68031" lon="6.89275">
        <ele>2223</ele>
        <time>2014-07-12T12:41:11Z</time>
      </trkpt>
      <trkpt lat="44.68081" lon="6.89179">
        <ele>2211.8</ele>
        <time>2014-07-12T12:42:06Z</time>
      </trkpt>
      <trkpt lat="44.68113" lon="6.89136">
        <ele>2207.8</ele>
        <time>2014-07-12T12:42:31Z</time>
      </trkpt>
      <trkpt lat="44.68114" lon="6.89134">
        <ele>2207.8</ele>
        <time>2014-07-12T12:42:32Z</time>
      </trkpt>
      <trkpt lat="44.68183" lon="6.8906">
        <ele>2199.8</ele>
        <time>2014-07-12T12:43:32Z</time>
      </trkpt>
      <trkpt lat="44.68184" lon="6.89059">
        <ele>2199.8</ele>
        <time>2014-07-12T12:43:33Z</time>
      </trkpt>
      <trkpt lat="44.68235" lon="6.88971">
        <ele>2190.1</ele>
        <time>2014-07-12T12:44:31Z</time>
      </trkpt>
      <trkpt lat="44.68238" lon="6.88909">
        <ele>2188.6</ele>
        <time>2014-07-12T12:45:01Z</time>
      </trkpt>
      <trkpt lat="44.68239" lon="6.88907">
        <ele>2188.6</ele>
        <time>2014-07-12T12:45:02Z</time>
      </trkpt>
      <trkpt lat="44.6828" lon="6.88799">
        <ele>2180.1</ele>
        <time>2014-07-12T12:46:04Z</time>
      </trkpt>
      <trkpt lat="44.68281" lon="6.88797">
        <ele>2180</ele>
        <time>2014-07-12T12:46:05Z</time>
      </trkpt>
      <trkpt lat="44.68355" lon="6.88732">
        <ele>2169.3</ele>
        <time>2014-07-12T12:47:07Z</time>
      </trkpt>
      <trkpt lat="44.68356" lon="6.88731">
        <ele>2169.3</ele>
        <time>2014-07-12T12:47:08Z</time>
      </trkpt>
      <trkpt lat="44.6843" lon="6.8867">
        <ele>2162.6</ele>
        <time>2014-07-12T12:48:28Z</time>
      </trkpt>
      <trkpt lat="44.68433" lon="6.88667">
        <ele>2162.3</ele>
        <time>2014-07-12T12:48:29Z</time>
      </trkpt>
      <trkpt lat="44.68507" lon="6.8861">
        <ele>2154.8</ele>
        <time>2014-07-12T12:49:13Z</time>
      </trkpt>
      <trkpt lat="44.68539" lon="6.88569">
        <ele>2151.1</ele>
        <time>2014-07-12T12:49:39Z</time>
      </trkpt>
      <trkpt lat="44.6854" lon="6.88567">
        <ele>2151.1</ele>
        <time>2014-07-12T12:49:40Z</time>
      </trkpt>
      <trkpt lat="44.68623" lon="6.88536">
        <ele>2145.3</ele>
        <time>2014-07-12T12:50:39Z</time>
      </trkpt>
      <trkpt lat="44.68664" lon="6.88515">
        <ele>2143</ele>
        <time>2014-07-12T12:51:08Z</time>
      </trkpt>
      <trkpt lat="44.68665" lon="6.88514">
        <ele>2142.8</ele>
        <time>2014-07-12T12:51:09Z</time>
      </trkpt>
      <trkpt lat="44.68737" lon="6.88444">
        <ele>2134</ele>
        <time>2014-07-12T12:52:10Z</time>
      </trkpt>
      <trkpt lat="44.68738" lon="6.88443">
        <ele>2133.8</ele>
        <time>2014-07-12T12:52:11Z</time>
      </trkpt>
      <trkpt lat="44.68825" lon="6.88432">
        <ele>2128.5</ele>
        <time>2014-07-12T12:53:09Z</time>
      </trkpt>
      <trkpt lat="44.68868" lon="6.88417">
        <ele>2124.6</ele>
        <time>2014-07-12T12:53:39Z</time>
      </trkpt>
      <trkpt lat="44.68869" lon="6.88416">
        <ele>2124.6</ele>
        <time>2014-07-12T12:53:40Z</time>
      </trkpt>
      <trkpt lat="44.68942" lon="6.88355">
        <ele>2115.8</ele>
        <time>2014-07-12T12:54:53Z</time>
      </trkpt>
      <trkpt lat="44.68945" lon="6.88353">
        <ele>2115.6</ele>
        <time>2014-07-12T12:54:54Z</time>
      </trkpt>
      <trkpt lat="44.6902" lon="6.88304">
        <ele>2111.8</ele>
        <time>2014-07-12T12:55:43Z</time>
      </trkpt>
      <trkpt lat="44.69053" lon="6.88262">
        <ele>2108.6</ele>
        <time>2014-07-12T12:56:18Z</time>
      </trkpt>
      <trkpt lat="44.69054" lon="6.8826">
        <ele>2108.3</ele>
        <time>2014-07-12T12:56:19Z</time>
      </trkpt>
      <trkpt lat="44.69072" lon="6.88147">
        <ele>2101.6</ele>
        <time>2014-07-12T12:57:21Z</time>
      </trkpt>
      <trkpt lat="44.69073" lon="6.88144">
        <ele>2101.6</ele>
        <time>2014-07-12T12:57:22Z</time>
      </trkpt>
      <trkpt lat="44.69106" lon="6.88037">
        <ele>2094.5</ele>
        <time>2014-07-12T12:58:22Z</time>
      </trkpt>
      <trkpt lat="44.69108" lon="6.88033">
        <ele>2094.1</ele>
        <time>2014-07-12T12:58:23Z</time>
      </trkpt>
      <trkpt lat="44.69163" lon="6.87941">
        <ele>2086</ele>
        <time>2014-07-12T12:59:11Z</time>
      </trkpt>
      <trkpt lat="44.69201" lon="6.8791">
        <ele>2079.3</ele>
        <time>2014-07-12T12:59:43Z</time>
      </trkpt>
      <trkpt lat="44.69202" lon="6.87908">
        <ele>2079.1</ele>
        <time>2014-07-12T12:59:44Z</time>
      </trkpt>
      <trkpt lat="44.6926" lon="6.87818">
        <ele>2068.8</ele>
        <time>2014-07-12T13:00:42Z</time>
      </trkpt>
      <trkpt lat="44.69302" lon="6.87809">
        <ele>2061.6</ele>
        <time>2014-07-12T13:01:17Z</time>
      </trkpt>
      <trkpt lat="44.69304" lon="6.87809">
        <ele>2061.3</ele>
        <time>2014-07-12T13:01:18Z</time>
      </trkpt>
      <trkpt lat="44.69379" lon="6.87773">
        <ele>2055.8</ele>
        <time>2014-07-12T13:02:39Z</time>
      </trkpt>
      <trkpt lat="44.69379" lon="6.87768">
        <ele>2055.8</ele>
        <time>2014-07-12T13:02:40Z</time>
      </trkpt>
      <trkpt lat="44.69375" lon="6.87652">
        <ele>2052.1</ele>
        <time>2014-07-12T13:03:29Z</time>
      </trkpt>
      <trkpt lat="44.69394" lon="6.87595">
        <ele>2043.4</ele>
        <time>2014-07-12T13:03:53Z</time>
      </trkpt>
      <trkpt lat="44.69395" lon="6.87593">
        <ele>2043</ele>
        <time>2014-07-12T13:03:54Z</time>
      </trkpt>
      <trkpt lat="44.69452" lon="6.87503">
        <ele>2029.8</ele>
        <time>2014-07-12T13:04:52Z</time>
      </trkpt>
      <trkpt lat="44.69489" lon="6.8747">
        <ele>2026.3</ele>
        <time>2014-07-12T13:05:24Z</time>
      </trkpt>
      <trkpt lat="44.6949" lon="6.87469">
        <ele>2026</ele>
        <time>2014-07-12T13:05:25Z</time>
      </trkpt>
      <trkpt lat="44.69574" lon="6.87456">
        <ele>2018</ele>
        <time>2014-07-12T13:06:30Z</time>
      </trkpt>
      <trkpt lat="44.69576" lon="6.87454">
        <ele>2018</ele>
        <time>2014-07-12T13:06:31Z</time>
      </trkpt>
      <trkpt lat="44.69634" lon="6.87372">
        <ele>2017.5</ele>
        <time>2014-07-12T13:07:51Z</time>
      </trkpt>
      <trkpt lat="44.69637" lon="6.87369">
        <ele>2017.5</ele>
        <time>2014-07-12T13:07:52Z</time>
      </trkpt>
      <trkpt lat="44.69704" lon="6.87296">
        <ele>2015.9</ele>
        <time>2014-07-12T13:08:36Z</time>
      </trkpt>
      <trkpt lat="44.69739" lon="6.87259">
        <ele>2015.4</ele>
        <time>2014-07-12T13:09:05Z</time>
      </trkpt>
      <trkpt lat="44.6974" lon="6.87258">
        <ele>2015.1</ele>
        <time>2014-07-12T13:09:06Z</time>
      </trkpt>
      <trkpt lat="44.69804" lon="6.87188">
        <ele>2016</ele>
        <time>2014-07-12T13:09:57Z</time>
      </trkpt>
      <trkpt lat="44.69819" lon="6.87168">
        <ele>2012.9</ele>
        <time>2014-07-12T13:10:11Z</time>
      </trkpt>
      <trkpt lat="44.69843" lon="6.87148">
        <ele>2011.6</ele>
        <time>2014-07-12T13:10:30Z</time>
      </trkpt>
      <trkpt lat="44.69873" lon="6.87075">
        <ele>2014</ele>
        <time>2014-07-12T13:11:29Z</time>
      </trkpt>
      <trkpt lat="44.69884" lon="6.87015">
        <ele>2009.1</ele>
        <time>2014-07-12T13:12:15Z</time>
      </trkpt>
      <trkpt lat="44.69884" lon="6.8701">
        <ele>2008.5</ele>
        <time>2014-07-12T13:12:16Z</time>
      </trkpt>
      <trkpt lat="44.699" lon="6.86894">
        <ele>1997.3</ele>
        <time>2014-07-12T13:13:24Z</time>
      </trkpt>
      <trkpt lat="44.69901" lon="6.86889">
        <ele>1997.3</ele>
        <time>2014-07-12T13:13:25Z</time>
      </trkpt>
      <trkpt lat="44.6991" lon="6.86775">
        <ele>1991</ele>
        <time>2014-07-12T13:15:15Z</time>
      </trkpt>
      <trkpt lat="44.6991" lon="6.8677">
        <ele>1990.5</ele>
        <time>2014-07-12T13:15:16Z</time>
      </trkpt>
      <trkpt lat="44.69926" lon="6.86617">
        <ele>1923</ele>
        <time>2014-07-12T13:42:24Z</time>
      </trkpt>
      <trkpt lat="44.69929" lon="6.86621">
        <ele>1990.5</ele>
        <time>2014-07-12T13:55:22Z</time>
      </trkpt>
      <trkpt lat="44.6993" lon="6.8662">
        <ele>1992</ele>
        <time>2014-07-12T13:55:23Z</time>
      </trkpt>
      <trkpt lat="44.69913" lon="6.86546">
        <ele>2018.4</ele>
        <time>2014-07-12T13:57:45Z</time>
      </trkpt>
      <trkpt lat="44.69937" lon="6.86502">
        <ele>1985.5</ele>
        <time>2014-07-12T14:06:54Z</time>
      </trkpt>
      <trkpt lat="44.69913" lon="6.86452">
        <ele>1972.4</ele>
        <time>2014-07-12T14:09:27Z</time>
      </trkpt>
      <trkpt lat="44.69845" lon="6.86387">
        <ele>1947.3</ele>
        <time>2014-07-12T14:11:43Z</time>
      </trkpt>
      <trkpt lat="44.69842" lon="6.86386">
        <ele>1946</ele>
        <time>2014-07-12T14:11:44Z</time>
      </trkpt>
      <trkpt lat="44.69798" lon="6.86296">
        <ele>1930</ele>
        <time>2014-07-12T14:14:11Z</time>
      </trkpt>
      <trkpt lat="44.69797" lon="6.86291">
        <ele>1929.5</ele>
        <time>2014-07-12T14:14:12Z</time>
      </trkpt>
      <trkpt lat="44.69796" lon="6.86176">
        <ele>1916.6</ele>
        <time>2014-07-12T14:15:48Z</time>
      </trkpt>
      <trkpt lat="44.69796" lon="6.86172">
        <ele>1915.9</ele>
        <time>2014-07-12T14:15:49Z</time>
      </trkpt>
      <trkpt lat="44.69793" lon="6.86111">
        <ele>1907.3</ele>
        <time>2014-07-12T14:16:53Z</time>
      </trkpt>
      <trkpt lat="44.69807" lon="6.85997">
        <ele>1891</ele>
        <time>2014-07-12T14:18:39Z</time>
      </trkpt>
      <trkpt lat="44.69808" lon="6.85993">
        <ele>1890.4</ele>
        <time>2014-07-12T14:18:40Z</time>
      </trkpt>
      <trkpt lat="44.69819" lon="6.85935">
        <ele>1882.5</ele>
        <time>2014-07-12T14:19:55Z</time>
      </trkpt>
      <trkpt lat="44.69779" lon="6.8588">
        <ele>1897.1</ele>
        <time>2014-07-12T15:09:38Z</time>
      </trkpt>
      <trkpt lat="44.69747" lon="6.85878">
        <ele>1863.5</ele>
        <time>2014-07-12T15:39:48Z</time>
      </trkpt>
      <trkpt lat="44.69756" lon="6.85895">
        <ele>1866.7</ele>
        <time>2014-07-13T07:16:32Z</time>
      </trkpt>
      <trkpt lat="44.69757" lon="6.85895">
        <ele>1866.7</ele>
        <time>2014-07-13T07:16:33Z</time>
      </trkpt>
      <trkpt lat="44.69769" lon="6.85834">
        <ele>1860.6</ele>
        <time>2014-07-13T07:34:11Z</time>
      </trkpt>
      <trkpt lat="44.69826" lon="6.85749">
        <ele>1868</ele>
        <time>2014-07-13T07:35:23Z</time>
      </trkpt>
      <trkpt lat="44.69829" lon="6.85746">
        <ele>1868.4</ele>
        <time>2014-07-13T07:35:24Z</time>
      </trkpt>
      <trkpt lat="44.69885" lon="6.85679">
        <ele>1870.4</ele>
        <time>2014-07-13T07:36:34Z</time>
      </trkpt>
      <trkpt lat="44.69912" lon="6.85644">
        <ele>1870</ele>
        <time>2014-07-13T07:36:35Z</time>
      </trkpt>
      <trkpt lat="44.6995" lon="6.85601">
        <ele>1874.5</ele>
        <time>2014-07-13T07:37:32Z</time>
      </trkpt>
      <trkpt lat="44.69981" lon="6.85558">
        <ele>1874.1</ele>
        <time>2014-07-13T07:37:43Z</time>
      </trkpt>
      <trkpt lat="44.69982" lon="6.85556">
        <ele>1874.1</ele>
        <time>2014-07-13T07:37:44Z</time>
      </trkpt>
      <trkpt lat="44.70019" lon="6.85496">
        <ele>1879</ele>
        <time>2014-07-13T07:38:40Z</time>
      </trkpt>
      <trkpt lat="44.70023" lon="6.85436">
        <ele>1870</ele>
        <time>2014-07-13T07:39:20Z</time>
      </trkpt>
      <trkpt lat="44.70024" lon="6.85432">
        <ele>1869.5</ele>
        <time>2014-07-13T07:39:21Z</time>
      </trkpt>
      <trkpt lat="44.70052" lon="6.85383">
        <ele>1853.6</ele>
        <time>2014-07-13T07:40:30Z</time>
      </trkpt>
      <trkpt lat="44.70131" lon="6.85345">
        <ele>1843.1</ele>
        <time>2014-07-13T07:41:40Z</time>
      </trkpt>
      <trkpt lat="44.70135" lon="6.85343">
        <ele>1842.6</ele>
        <time>2014-07-13T07:41:41Z</time>
      </trkpt>
      <trkpt lat="44.70216" lon="6.85311">
        <ele>1839.1</ele>
        <time>2014-07-13T07:42:47Z</time>
      </trkpt>
      <trkpt lat="44.7022" lon="6.85309">
        <ele>1839</ele>
        <time>2014-07-13T07:42:48Z</time>
      </trkpt>
      <trkpt lat="44.70295" lon="6.85257">
        <ele>1832</ele>
        <time>2014-07-13T07:43:59Z</time>
      </trkpt>
      <trkpt lat="44.70299" lon="6.85255">
        <ele>1831.6</ele>
        <time>2014-07-13T07:44:00Z</time>
      </trkpt>
      <trkpt lat="44.70375" lon="6.85212">
        <ele>1822.3</ele>
        <time>2014-07-13T07:45:13Z</time>
      </trkpt>
      <trkpt lat="44.70378" lon="6.85209">
        <ele>1821.9</ele>
        <time>2014-07-13T07:45:14Z</time>
      </trkpt>
      <trkpt lat="44.70427" lon="6.85149">
        <ele>1815.5</ele>
        <time>2014-07-13T07:46:12Z</time>
      </trkpt>
      <trkpt lat="44.70453" lon="6.85108">
        <ele>1809.5</ele>
        <time>2014-07-13T07:46:41Z</time>
      </trkpt>
      <trkpt lat="44.70489" lon="6.85097">
        <ele>1806.9</ele>
        <time>2014-07-13T07:46:42Z</time>
      </trkpt>
      <trkpt lat="44.7054" lon="6.85095">
        <ele>1803.5</ele>
        <time>2014-07-13T07:47:44Z</time>
      </trkpt>
      <trkpt lat="44.70543" lon="6.85093">
        <ele>1803</ele>
        <time>2014-07-13T07:47:45Z</time>
      </trkpt>
      <trkpt lat="44.70616" lon="6.85044">
        <ele>1794.5</ele>
        <time>2014-07-13T07:48:53Z</time>
      </trkpt>
      <trkpt lat="44.70619" lon="6.85041">
        <ele>1794</ele>
        <time>2014-07-13T07:48:54Z</time>
      </trkpt>
      <trkpt lat="44.70693" lon="6.84982">
        <ele>1791.5</ele>
        <time>2014-07-13T07:49:53Z</time>
      </trkpt>
      <trkpt lat="44.70732" lon="6.84955">
        <ele>1786.4</ele>
        <time>2014-07-13T07:50:26Z</time>
      </trkpt>
      <trkpt lat="44.70735" lon="6.84954">
        <ele>1785.9</ele>
        <time>2014-07-13T07:50:27Z</time>
      </trkpt>
      <trkpt lat="44.70816" lon="6.84923">
        <ele>1786.1</ele>
        <time>2014-07-13T07:51:33Z</time>
      </trkpt>
      <trkpt lat="44.7082" lon="6.84921">
        <ele>1786.1</ele>
        <time>2014-07-13T07:51:34Z</time>
      </trkpt>
      <trkpt lat="44.70895" lon="6.84863">
        <ele>1783.4</ele>
        <time>2014-07-13T07:52:40Z</time>
      </trkpt>
      <trkpt lat="44.70898" lon="6.84861">
        <ele>1783.3</ele>
        <time>2014-07-13T07:52:41Z</time>
      </trkpt>
      <trkpt lat="44.7098" lon="6.84865">
        <ele>1776.4</ele>
        <time>2014-07-13T07:53:53Z</time>
      </trkpt>
      <trkpt lat="44.70984" lon="6.84866">
        <ele>1776</ele>
        <time>2014-07-13T07:53:54Z</time>
      </trkpt>
      <trkpt lat="44.71064" lon="6.84839">
        <ele>1773.5</ele>
        <time>2014-07-13T07:55:04Z</time>
      </trkpt>
      <trkpt lat="44.71067" lon="6.84837">
        <ele>1773.5</ele>
        <time>2014-07-13T07:55:05Z</time>
      </trkpt>
      <trkpt lat="44.71148" lon="6.84878">
        <ele>1771.9</ele>
        <time>2014-07-13T07:56:16Z</time>
      </trkpt>
      <trkpt lat="44.71149" lon="6.84878">
        <ele>1771.8</ele>
        <time>2014-07-13T07:56:17Z</time>
      </trkpt>
      <trkpt lat="44.71123" lon="6.84806">
        <ele>1776.8</ele>
        <time>2014-07-13T08:02:39Z</time>
      </trkpt>
      <trkpt lat="44.71203" lon="6.84802">
        <ele>1771</ele>
        <time>2014-07-13T08:03:58Z</time>
      </trkpt>
      <trkpt lat="44.71205" lon="6.84802">
        <ele>1771</ele>
        <time>2014-07-13T08:03:59Z</time>
      </trkpt>
      <trkpt lat="44.71287" lon="6.84788">
        <ele>1775.5</ele>
        <time>2014-07-13T08:05:27Z</time>
      </trkpt>
      <trkpt lat="44.71292" lon="6.84786">
        <ele>1776</ele>
        <time>2014-07-13T08:05:28Z</time>
      </trkpt>
      <trkpt lat="44.71372" lon="6.84759">
        <ele>1783.5</ele>
        <time>2014-07-13T08:06:28Z</time>
      </trkpt>
      <trkpt lat="44.71413" lon="6.84737">
        <ele>1782.5</ele>
        <time>2014-07-13T08:06:57Z</time>
      </trkpt>
      <trkpt lat="44.71416" lon="6.84734">
        <ele>1782</ele>
        <time>2014-07-13T08:06:58Z</time>
      </trkpt>
      <trkpt lat="44.71499" lon="6.84738">
        <ele>1773.3</ele>
        <time>2014-07-13T08:08:28Z</time>
      </trkpt>
      <trkpt lat="44.71503" lon="6.84738">
        <ele>1772.8</ele>
        <time>2014-07-13T08:08:29Z</time>
      </trkpt>
      <trkpt lat="44.71586" lon="6.84719">
        <ele>1764.5</ele>
        <time>2014-07-13T08:09:16Z</time>
      </trkpt>
      <trkpt lat="44.71628" lon="6.84716">
        <ele>1759.1</ele>
        <time>2014-07-13T08:10:12Z</time>
      </trkpt>
      <trkpt lat="44.71632" lon="6.84716">
        <ele>1758.4</ele>
        <time>2014-07-13T08:10:13Z</time>
      </trkpt>
      <trkpt lat="44.71714" lon="6.8473">
        <ele>1754.9</ele>
        <time>2014-07-13T08:11:01Z</time>
      </trkpt>
      <trkpt lat="44.71759" lon="6.84736">
        <ele>1756.4</ele>
        <time>2014-07-13T08:11:29Z</time>
      </trkpt>
      <trkpt lat="44.7176" lon="6.84736">
        <ele>1756.5</ele>
        <time>2014-07-13T08:11:30Z</time>
      </trkpt>
      <trkpt lat="44.71841" lon="6.84692">
        <ele>1753.5</ele>
        <time>2014-07-13T08:12:22Z</time>
      </trkpt>
      <trkpt lat="44.7188" lon="6.84666">
        <ele>1751.1</ele>
        <time>2014-07-13T08:12:52Z</time>
      </trkpt>
      <trkpt lat="44.71882" lon="6.84666">
        <ele>1751.1</ele>
        <time>2014-07-13T08:12:53Z</time>
      </trkpt>
      <trkpt lat="44.71928" lon="6.84671">
        <ele>1749.5</ele>
        <time>2014-07-13T08:14:33Z</time>
      </trkpt>
      <trkpt lat="44.7201" lon="6.84653">
        <ele>1757.1</ele>
        <time>2014-07-13T08:15:32Z</time>
      </trkpt>
      <trkpt lat="44.72052" lon="6.84635">
        <ele>1754.8</ele>
        <time>2014-07-13T08:16:04Z</time>
      </trkpt>
      <trkpt lat="44.72056" lon="6.84634">
        <ele>1754.6</ele>
        <time>2014-07-13T08:16:05Z</time>
      </trkpt>
      <trkpt lat="44.72138" lon="6.84614">
        <ele>1773.1</ele>
        <time>2014-07-13T08:17:19Z</time>
      </trkpt>
      <trkpt lat="44.72141" lon="6.84613">
        <ele>1772.8</ele>
        <time>2014-07-13T08:17:20Z</time>
      </trkpt>
      <trkpt lat="44.72223" lon="6.84629">
        <ele>1755.5</ele>
        <time>2014-07-13T08:18:33Z</time>
      </trkpt>
      <trkpt lat="44.72225" lon="6.84634">
        <ele>1755.3</ele>
        <time>2014-07-13T08:18:34Z</time>
      </trkpt>
      <trkpt lat="44.72283" lon="6.8471">
        <ele>1750.8</ele>
        <time>2014-07-13T08:19:27Z</time>
      </trkpt>
      <trkpt lat="44.72326" lon="6.84723">
        <ele>1749</ele>
        <time>2014-07-13T08:19:47Z</time>
      </trkpt>
      <trkpt lat="44.72328" lon="6.84723">
        <ele>1748.9</ele>
        <time>2014-07-13T08:19:48Z</time>
      </trkpt>
      <trkpt lat="44.72414" lon="6.8474">
        <ele>1747.3</ele>
        <time>2014-07-13T08:20:44Z</time>
      </trkpt>
      <trkpt lat="44.72458" lon="6.84742">
        <ele>1746.6</ele>
        <time>2014-07-13T08:21:12Z</time>
      </trkpt>
      <trkpt lat="44.7246" lon="6.84742">
        <ele>1746.6</ele>
        <time>2014-07-13T08:21:13Z</time>
      </trkpt>
      <trkpt lat="44.72541" lon="6.84705">
        <ele>1744.9</ele>
        <time>2014-07-13T08:22:11Z</time>
      </trkpt>
      <trkpt lat="44.72579" lon="6.84673">
        <ele>1744.5</ele>
        <time>2014-07-13T08:22:42Z</time>
      </trkpt>
      <trkpt lat="44.7258" lon="6.84672">
        <ele>1744.5</ele>
        <time>2014-07-13T08:22:43Z</time>
      </trkpt>
      <trkpt lat="44.72654" lon="6.84608">
        <ele>1745.5</ele>
        <time>2014-07-13T08:23:43Z</time>
      </trkpt>
      <trkpt lat="44.72693" lon="6.84578">
        <ele>1746.5</ele>
        <time>2014-07-13T08:24:14Z</time>
      </trkpt>
      <trkpt lat="44.72694" lon="6.84577">
        <ele>1746.5</ele>
        <time>2014-07-13T08:24:15Z</time>
      </trkpt>
      <trkpt lat="44.72769" lon="6.84516">
        <ele>1747.9</ele>
        <time>2014-07-13T08:25:15Z</time>
      </trkpt>
      <trkpt lat="44.72807" lon="6.84483">
        <ele>1748.8</ele>
        <time>2014-07-13T08:25:45Z</time>
      </trkpt>
      <trkpt lat="44.72808" lon="6.84482">
        <ele>1748.8</ele>
        <time>2014-07-13T08:25:46Z</time>
      </trkpt>
      <trkpt lat="44.7287" lon="6.844">
        <ele>1749</ele>
        <time>2014-07-13T08:26:49Z</time>
      </trkpt>
      <trkpt lat="44.72871" lon="6.84398">
        <ele>1749</ele>
        <time>2014-07-13T08:26:50Z</time>
      </trkpt>
      <trkpt lat="44.72933" lon="6.8431">
        <ele>1746.5</ele>
        <time>2014-07-13T08:28:09Z</time>
      </trkpt>
      <trkpt lat="44.72935" lon="6.84308">
        <ele>1746.4</ele>
        <time>2014-07-13T08:28:10Z</time>
      </trkpt>
      <trkpt lat="44.72922" lon="6.84247">
        <ele>1739.9</ele>
        <time>2014-07-13T08:32:01Z</time>
      </trkpt>
      <trkpt lat="44.72841" lon="6.84224">
        <ele>1723.8</ele>
        <time>2014-07-13T08:33:23Z</time>
      </trkpt>
      <trkpt lat="44.72837" lon="6.84224">
        <ele>1723.4</ele>
        <time>2014-07-13T08:33:24Z</time>
      </trkpt>
      <trkpt lat="44.72754" lon="6.84218">
        <ele>1716.5</ele>
        <time>2014-07-13T08:34:35Z</time>
      </trkpt>
      <trkpt lat="44.72752" lon="6.84214">
        <ele>1716.8</ele>
        <time>2014-07-13T08:34:36Z</time>
      </trkpt>
      <trkpt lat="44.72723" lon="6.84104">
        <ele>1728.5</ele>
        <time>2014-07-13T08:36:12Z</time>
      </trkpt>
      <trkpt lat="44.72723" lon="6.84099">
        <ele>1729.4</ele>
        <time>2014-07-13T08:36:13Z</time>
      </trkpt>
      <trkpt lat="44.72741" lon="6.83982">
        <ele>1762.4</ele>
        <time>2014-07-13T08:37:34Z</time>
      </trkpt>
      <trkpt lat="44.72742" lon="6.83978">
        <ele>1763</ele>
        <time>2014-07-13T08:37:35Z</time>
      </trkpt>
      <trkpt lat="44.72769" lon="6.8387">
        <ele>1779.5</ele>
        <time>2014-07-13T08:38:29Z</time>
      </trkpt>
      <trkpt lat="44.72782" lon="6.83811">
        <ele>1783.9</ele>
        <time>2014-07-13T08:39:12Z</time>
      </trkpt>
      <trkpt lat="44.72783" lon="6.83806">
        <ele>1784.4</ele>
        <time>2014-07-13T08:39:13Z</time>
      </trkpt>
      <trkpt lat="44.7281" lon="6.83694">
        <ele>1787.4</ele>
        <time>2014-07-13T08:40:10Z</time>
      </trkpt>
      <trkpt lat="44.72818" lon="6.83632">
        <ele>1799</ele>
        <time>2014-07-13T08:40:55Z</time>
      </trkpt>
      <trkpt lat="44.72819" lon="6.83628">
        <ele>1800.6</ele>
        <time>2014-07-13T08:40:56Z</time>
      </trkpt>
      <trkpt lat="44.72836" lon="6.83515">
        <ele>1849.1</ele>
        <time>2014-07-13T08:42:12Z</time>
      </trkpt>
      <trkpt lat="44.72837" lon="6.8351">
        <ele>1850</ele>
        <time>2014-07-13T08:42:13Z</time>
      </trkpt>
      <trkpt lat="44.72841" lon="6.83392">
        <ele>1858.5</ele>
        <time>2014-07-13T08:44:42Z</time>
      </trkpt>
      <trkpt lat="44.72841" lon="6.83386">
        <ele>1858.6</ele>
        <time>2014-07-13T08:44:43Z</time>
      </trkpt>
      <trkpt lat="44.72873" lon="6.83345">
        <ele>1873</ele>
        <time>2014-07-13T08:47:01Z</time>
      </trkpt>
      <trkpt lat="44.72937" lon="6.83266">
        <ele>1892.1</ele>
        <time>2014-07-13T08:48:14Z</time>
      </trkpt>
      <trkpt lat="44.72939" lon="6.83264">
        <ele>1892.8</ele>
        <time>2014-07-13T08:48:15Z</time>
      </trkpt>
      <trkpt lat="44.72982" lon="6.83163">
        <ele>1908</ele>
        <time>2014-07-13T08:49:37Z</time>
      </trkpt>
      <trkpt lat="44.72984" lon="6.83158">
        <ele>1908</ele>
        <time>2014-07-13T08:49:38Z</time>
      </trkpt>
      <trkpt lat="44.72991" lon="6.83043">
        <ele>1913.4</ele>
        <time>2014-07-13T08:50:58Z</time>
      </trkpt>
      <trkpt lat="44.72992" lon="6.83039">
        <ele>1914</ele>
        <time>2014-07-13T08:50:59Z</time>
      </trkpt>
      <trkpt lat="44.72963" lon="6.82928">
        <ele>1915.5</ele>
        <time>2014-07-13T08:52:34Z</time>
      </trkpt>
      <trkpt lat="44.72962" lon="6.82924">
        <ele>1915.9</ele>
        <time>2014-07-13T08:52:35Z</time>
      </trkpt>
      <trkpt lat="44.7292" lon="6.82822">
        <ele>1933</ele>
        <time>2014-07-13T08:53:43Z</time>
      </trkpt>
      <trkpt lat="44.72918" lon="6.82818">
        <ele>1934</ele>
        <time>2014-07-13T08:53:44Z</time>
      </trkpt>
      <trkpt lat="44.72908" lon="6.82702">
        <ele>1943.3</ele>
        <time>2014-07-13T08:54:53Z</time>
      </trkpt>
      <trkpt lat="44.72908" lon="6.82697">
        <ele>1943.1</ele>
        <time>2014-07-13T08:54:54Z</time>
      </trkpt>
      <trkpt lat="44.72912" lon="6.82584">
        <ele>1967.5</ele>
        <time>2014-07-13T08:56:59Z</time>
      </trkpt>
      <trkpt lat="44.73328" lon="6.81962">
        <ele>2035.1</ele>
        <time>2014-07-13T09:07:34Z</time>
      </trkpt>
      <trkpt lat="44.73298" lon="6.81917">
        <ele>2055.8</ele>
        <time>2014-07-13T09:08:20Z</time>
      </trkpt>
      <trkpt lat="44.7326" lon="6.81893">
        <ele>2077.6</ele>
        <time>2014-07-13T09:09:02Z</time>
      </trkpt>
      <trkpt lat="44.73257" lon="6.81891">
        <ele>2078.8</ele>
        <time>2014-07-13T09:09:03Z</time>
      </trkpt>
      <trkpt lat="44.73178" lon="6.8187">
        <ele>2094.1</ele>
        <time>2014-07-13T09:10:23Z</time>
      </trkpt>
      <trkpt lat="44.73175" lon="6.81871">
        <ele>2094.6</ele>
        <time>2014-07-13T09:10:24Z</time>
      </trkpt>
      <trkpt lat="44.73135" lon="6.81889">
        <ele>2091.8</ele>
        <time>2014-07-13T09:12:33Z</time>
      </trkpt>
      <trkpt lat="44.73191" lon="6.81844">
        <ele>2090.6</ele>
        <time>2014-07-13T09:14:56Z</time>
      </trkpt>
      <trkpt lat="44.73193" lon="6.81741">
        <ele>2113.8</ele>
        <time>2014-07-13T09:16:38Z</time>
      </trkpt>
      <trkpt lat="44.73192" lon="6.81736">
        <ele>2115</ele>
        <time>2014-07-13T09:16:39Z</time>
      </trkpt>
      <trkpt lat="44.73173" lon="6.81624">
        <ele>2134</ele>
        <time>2014-07-13T09:17:50Z</time>
      </trkpt>
      <trkpt lat="44.73172" lon="6.81619">
        <ele>2134.6</ele>
        <time>2014-07-13T09:17:51Z</time>
      </trkpt>
      <trkpt lat="44.73132" lon="6.81518">
        <ele>2149</ele>
        <time>2014-07-13T09:19:02Z</time>
      </trkpt>
      <trkpt lat="44.7313" lon="6.81514">
        <ele>2149.6</ele>
        <time>2014-07-13T09:19:03Z</time>
      </trkpt>
      <trkpt lat="44.73102" lon="6.81471">
        <ele>2155.3</ele>
        <time>2014-07-13T09:21:36Z</time>
      </trkpt>
      <trkpt lat="44.73042" lon="6.81391">
        <ele>2154.8</ele>
        <time>2014-07-13T09:22:48Z</time>
      </trkpt>
      <trkpt lat="44.73039" lon="6.81387">
        <ele>2155</ele>
        <time>2014-07-13T09:22:49Z</time>
      </trkpt>
      <trkpt lat="44.72989" lon="6.81298">
        <ele>2157.6</ele>
        <time>2014-07-13T09:24:03Z</time>
      </trkpt>
      <trkpt lat="44.72986" lon="6.81294">
        <ele>2157.6</ele>
        <time>2014-07-13T09:24:04Z</time>
      </trkpt>
      <trkpt lat="44.72922" lon="6.81225">
        <ele>2160.8</ele>
        <time>2014-07-13T09:25:08Z</time>
      </trkpt>
      <trkpt lat="44.72918" lon="6.81222">
        <ele>2161.1</ele>
        <time>2014-07-13T09:25:09Z</time>
      </trkpt>
      <trkpt lat="44.72845" lon="6.8117">
        <ele>2166.3</ele>
        <time>2014-07-13T09:26:14Z</time>
      </trkpt>
      <trkpt lat="44.72841" lon="6.81169">
        <ele>2166.5</ele>
        <time>2014-07-13T09:26:15Z</time>
      </trkpt>
      <trkpt lat="44.72762" lon="6.81137">
        <ele>2171.1</ele>
        <time>2014-07-13T09:27:26Z</time>
      </trkpt>
      <trkpt lat="44.72759" lon="6.81137">
        <ele>2171</ele>
        <time>2014-07-13T09:27:27Z</time>
      </trkpt>
      <trkpt lat="44.7268" lon="6.81097">
        <ele>2176.3</ele>
        <time>2014-07-13T09:28:42Z</time>
      </trkpt>
      <trkpt lat="44.72677" lon="6.81095">
        <ele>2176.5</ele>
        <time>2014-07-13T09:28:43Z</time>
      </trkpt>
      <trkpt lat="44.72611" lon="6.81028">
        <ele>2174.3</ele>
        <time>2014-07-13T09:29:50Z</time>
      </trkpt>
      <trkpt lat="44.72608" lon="6.81025">
        <ele>2174.1</ele>
        <time>2014-07-13T09:29:51Z</time>
      </trkpt>
      <trkpt lat="44.72541" lon="6.80956">
        <ele>2170.6</ele>
        <time>2014-07-13T09:31:12Z</time>
      </trkpt>
      <trkpt lat="44.72538" lon="6.80953">
        <ele>2170.6</ele>
        <time>2014-07-13T09:31:13Z</time>
      </trkpt>
      <trkpt lat="44.72468" lon="6.80897">
        <ele>2164.8</ele>
        <time>2014-07-13T09:32:20Z</time>
      </trkpt>
      <trkpt lat="44.72464" lon="6.80895">
        <ele>2164.5</ele>
        <time>2014-07-13T09:32:21Z</time>
      </trkpt>
      <trkpt lat="44.72395" lon="6.80838">
        <ele>2160.1</ele>
        <time>2014-07-13T09:33:30Z</time>
      </trkpt>
      <trkpt lat="44.72392" lon="6.80836">
        <ele>2159.6</ele>
        <time>2014-07-13T09:33:31Z</time>
      </trkpt>
      <trkpt lat="44.72313" lon="6.80788">
        <ele>2152.5</ele>
        <time>2014-07-13T09:34:44Z</time>
      </trkpt>
      <trkpt lat="44.7231" lon="6.80786">
        <ele>2152.1</ele>
        <time>2014-07-13T09:34:45Z</time>
      </trkpt>
      <trkpt lat="44.7224" lon="6.80724">
        <ele>2143.1</ele>
        <time>2014-07-13T09:36:15Z</time>
      </trkpt>
      <trkpt lat="44.72237" lon="6.80721">
        <ele>2142.3</ele>
        <time>2014-07-13T09:36:16Z</time>
      </trkpt>
      <trkpt lat="44.7217" lon="6.80659">
        <ele>2130</ele>
        <time>2014-07-13T09:37:25Z</time>
      </trkpt>
      <trkpt lat="44.72167" lon="6.80656">
        <ele>2129.5</ele>
        <time>2014-07-13T09:37:26Z</time>
      </trkpt>
      <trkpt lat="44.72097" lon="6.80595">
        <ele>2128.3</ele>
        <time>2014-07-13T09:38:34Z</time>
      </trkpt>
      <trkpt lat="44.72093" lon="6.80591">
        <ele>2128</ele>
        <time>2014-07-13T09:38:35Z</time>
      </trkpt>
      <trkpt lat="44.72024" lon="6.80525">
        <ele>2125.6</ele>
        <time>2014-07-13T09:39:39Z</time>
      </trkpt>
      <trkpt lat="44.72021" lon="6.80522">
        <ele>2125.6</ele>
        <time>2014-07-13T09:39:40Z</time>
      </trkpt>
      <trkpt lat="44.71944" lon="6.80474">
        <ele>2123</ele>
        <time>2014-07-13T09:40:46Z</time>
      </trkpt>
      <trkpt lat="44.71941" lon="6.80472">
        <ele>2122.8</ele>
        <time>2014-07-13T09:40:47Z</time>
      </trkpt>
      <trkpt lat="44.7186" lon="6.80445">
        <ele>2130.3</ele>
        <time>2014-07-13T09:43:38Z</time>
      </trkpt>
      <trkpt lat="44.71856" lon="6.80444">
        <ele>2130.1</ele>
        <time>2014-07-13T09:43:39Z</time>
      </trkpt>
      <trkpt lat="44.71771" lon="6.8044">
        <ele>2130.3</ele>
        <time>2014-07-13T09:44:46Z</time>
      </trkpt>
      <trkpt lat="44.71767" lon="6.8044">
        <ele>2130.1</ele>
        <time>2014-07-13T09:44:47Z</time>
      </trkpt>
      <trkpt lat="44.71686" lon="6.8045">
        <ele>2130.5</ele>
        <time>2014-07-13T09:45:55Z</time>
      </trkpt>
      <trkpt lat="44.71682" lon="6.8045">
        <ele>2130.8</ele>
        <time>2014-07-13T09:45:56Z</time>
      </trkpt>
      <trkpt lat="44.71603" lon="6.80443">
        <ele>2140.8</ele>
        <time>2014-07-13T09:47:34Z</time>
      </trkpt>
      <trkpt lat="44.71599" lon="6.80443">
        <ele>2141.3</ele>
        <time>2014-07-13T09:47:35Z</time>
      </trkpt>
      <trkpt lat="44.71519" lon="6.80447">
        <ele>2155.8</ele>
        <time>2014-07-13T09:48:52Z</time>
      </trkpt>
      <trkpt lat="44.71515" lon="6.80448">
        <ele>2156.1</ele>
        <time>2014-07-13T09:48:53Z</time>
      </trkpt>
      <trkpt lat="44.71432" lon="6.80458">
        <ele>2171.6</ele>
        <time>2014-07-13T09:50:15Z</time>
      </trkpt>
      <trkpt lat="44.71429" lon="6.80458">
        <ele>2172.3</ele>
        <time>2014-07-13T09:50:16Z</time>
      </trkpt>
      <trkpt lat="44.71346" lon="6.80466">
        <ele>2186.3</ele>
        <time>2014-07-13T09:51:29Z</time>
      </trkpt>
      <trkpt lat="44.71342" lon="6.80467">
        <ele>2187</ele>
        <time>2014-07-13T09:51:30Z</time>
      </trkpt>
      <trkpt lat="44.71262" lon="6.80484">
        <ele>2203.3</ele>
        <time>2014-07-13T09:52:41Z</time>
      </trkpt>
      <trkpt lat="44.71258" lon="6.80486">
        <ele>2204</ele>
        <time>2014-07-13T09:52:42Z</time>
      </trkpt>
      <trkpt lat="44.71178" lon="6.805">
        <ele>2221.3</ele>
        <time>2014-07-13T09:53:59Z</time>
      </trkpt>
      <trkpt lat="44.71174" lon="6.805">
        <ele>2222.3</ele>
        <time>2014-07-13T09:54:00Z</time>
      </trkpt>
      <trkpt lat="44.71172" lon="6.80436">
        <ele>2239.3</ele>
        <time>2014-07-13T09:55:39Z</time>
      </trkpt>
      <trkpt lat="44.71174" lon="6.80329">
        <ele>2264.8</ele>
        <time>2014-07-13T09:58:28Z</time>
      </trkpt>
      <trkpt lat="44.7117" lon="6.80327">
        <ele>2266.1</ele>
        <time>2014-07-13T09:58:29Z</time>
      </trkpt>
      <trkpt lat="44.71125" lon="6.80309">
        <ele>2282.8</ele>
        <time>2014-07-13T09:59:15Z</time>
      </trkpt>
      <trkpt lat="44.71089" lon="6.80298">
        <ele>2287.3</ele>
        <time>2014-07-13T09:59:54Z</time>
      </trkpt>
      <trkpt lat="44.71052" lon="6.80301">
        <ele>2292.6</ele>
        <time>2014-07-13T09:59:55Z</time>
      </trkpt>
      <trkpt lat="44.71011" lon="6.80295">
        <ele>2288.1</ele>
        <time>2014-07-13T10:01:10Z</time>
      </trkpt>
      <trkpt lat="44.70974" lon="6.80293">
        <ele>2287.1</ele>
        <time>2014-07-13T10:01:11Z</time>
      </trkpt>
      <trkpt lat="44.70926" lon="6.8029">
        <ele>2287.6</ele>
        <time>2014-07-13T10:02:18Z</time>
      </trkpt>
      <trkpt lat="44.70923" lon="6.80291">
        <ele>2287.3</ele>
        <time>2014-07-13T10:02:19Z</time>
      </trkpt>
      <trkpt lat="44.70839" lon="6.80295">
        <ele>2291.1</ele>
        <time>2014-07-13T10:03:35Z</time>
      </trkpt>
      <trkpt lat="44.70835" lon="6.80293">
        <ele>2292.3</ele>
        <time>2014-07-13T10:03:36Z</time>
      </trkpt>
      <trkpt lat="44.70757" lon="6.80305">
        <ele>2302.8</ele>
        <time>2014-07-13T10:05:05Z</time>
      </trkpt>
      <trkpt lat="44.70754" lon="6.80308">
        <ele>2302.8</ele>
        <time>2014-07-13T10:05:06Z</time>
      </trkpt>
      <trkpt lat="44.707" lon="6.80394">
        <ele>2294.8</ele>
        <time>2014-07-13T10:06:28Z</time>
      </trkpt>
      <trkpt lat="44.70698" lon="6.80398">
        <ele>2294.8</ele>
        <time>2014-07-13T10:06:29Z</time>
      </trkpt>
      <trkpt lat="44.70637" lon="6.80474">
        <ele>2305</ele>
        <time>2014-07-13T10:07:39Z</time>
      </trkpt>
      <trkpt lat="44.70635" lon="6.80476">
        <ele>2305.8</ele>
        <time>2014-07-13T10:07:40Z</time>
      </trkpt>
      <trkpt lat="44.70568" lon="6.80547">
        <ele>2298.3</ele>
        <time>2014-07-13T10:09:08Z</time>
      </trkpt>
      <trkpt lat="44.70565" lon="6.80547">
        <ele>2299.1</ele>
        <time>2014-07-13T10:09:09Z</time>
      </trkpt>
      <trkpt lat="44.70482" lon="6.80558">
        <ele>2297.3</ele>
        <time>2014-07-13T10:10:46Z</time>
      </trkpt>
      <trkpt lat="44.70479" lon="6.80559">
        <ele>2296.8</ele>
        <time>2014-07-13T10:10:47Z</time>
      </trkpt>
      <trkpt lat="44.70398" lon="6.80564">
        <ele>2298</ele>
        <time>2014-07-13T10:11:50Z</time>
      </trkpt>
      <trkpt lat="44.70394" lon="6.80564">
        <ele>2297.8</ele>
        <time>2014-07-13T10:11:51Z</time>
      </trkpt>
      <trkpt lat="44.70312" lon="6.80583">
        <ele>2290.8</ele>
        <time>2014-07-13T10:13:05Z</time>
      </trkpt>
      <trkpt lat="44.70309" lon="6.80585">
        <ele>2290.3</ele>
        <time>2014-07-13T10:13:06Z</time>
      </trkpt>
      <trkpt lat="44.70233" lon="6.80635">
        <ele>2282.8</ele>
        <time>2014-07-13T10:14:28Z</time>
      </trkpt>
      <trkpt lat="44.70229" lon="6.80635">
        <ele>2283</ele>
        <time>2014-07-13T10:14:29Z</time>
      </trkpt>
      <trkpt lat="44.70151" lon="6.80669">
        <ele>2290.6</ele>
        <time>2014-07-13T10:15:39Z</time>
      </trkpt>
      <trkpt lat="44.70147" lon="6.80671">
        <ele>2291</ele>
        <time>2014-07-13T10:15:40Z</time>
      </trkpt>
      <trkpt lat="44.70067" lon="6.80711">
        <ele>2289.8</ele>
        <time>2014-07-13T10:16:33Z</time>
      </trkpt>
      <trkpt lat="44.70024" lon="6.80725">
        <ele>2290.6</ele>
        <time>2014-07-13T10:17:27Z</time>
      </trkpt>
      <trkpt lat="44.70021" lon="6.80725">
        <ele>2290.5</ele>
        <time>2014-07-13T10:17:28Z</time>
      </trkpt>
      <trkpt lat="44.69978" lon="6.80725">
        <ele>2289.5</ele>
        <time>2014-07-13T10:18:17Z</time>
      </trkpt>
      <trkpt lat="44.6994" lon="6.80709">
        <ele>2289.1</ele>
        <time>2014-07-13T10:18:51Z</time>
      </trkpt>
      <trkpt lat="44.69906" lon="6.80691">
        <ele>2294.1</ele>
        <time>2014-07-13T10:18:52Z</time>
      </trkpt>
      <trkpt lat="44.69862" lon="6.80692">
        <ele>2301.8</ele>
        <time>2014-07-13T10:19:55Z</time>
      </trkpt>
      <trkpt lat="44.69828" lon="6.80709">
        <ele>2309.8</ele>
        <time>2014-07-13T10:19:56Z</time>
      </trkpt>
      <trkpt lat="44.6978" lon="6.80723">
        <ele>2312.3</ele>
        <time>2014-07-13T10:21:07Z</time>
      </trkpt>
      <trkpt lat="44.69745" lon="6.80738">
        <ele>2315.6</ele>
        <time>2014-07-13T10:21:08Z</time>
      </trkpt>
      <trkpt lat="44.69713" lon="6.80778">
        <ele>2309.8</ele>
        <time>2014-07-13T10:21:57Z</time>
      </trkpt>
      <trkpt lat="44.69697" lon="6.80809">
        <ele>2306.1</ele>
        <time>2014-07-13T10:22:39Z</time>
      </trkpt>
      <trkpt lat="44.69679" lon="6.80852">
        <ele>2302.3</ele>
        <time>2014-07-13T10:22:40Z</time>
      </trkpt>
      <trkpt lat="44.69639" lon="6.80871">
        <ele>2306.3</ele>
        <time>2014-07-13T10:23:52Z</time>
      </trkpt>
      <trkpt lat="44.69603" lon="6.80874">
        <ele>2304.5</ele>
        <time>2014-07-13T10:23:53Z</time>
      </trkpt>
      <trkpt lat="44.6956" lon="6.80872">
        <ele>2303.1</ele>
        <time>2014-07-13T10:24:49Z</time>
      </trkpt>
      <trkpt lat="44.69521" lon="6.80864">
        <ele>2302.6</ele>
        <time>2014-07-13T10:25:20Z</time>
      </trkpt>
      <trkpt lat="44.69491" lon="6.80828">
        <ele>2305.1</ele>
        <time>2014-07-13T10:25:53Z</time>
      </trkpt>
      <trkpt lat="44.69452" lon="6.80817">
        <ele>2304.6</ele>
        <time>2014-07-13T10:26:42Z</time>
      </trkpt>
      <trkpt lat="44.69124" lon="6.80714">
        <ele>2297.1</ele>
        <time>2014-07-13T10:33:10Z</time>
      </trkpt>
      <trkpt lat="44.69102" lon="6.80692">
        <ele>2298.1</ele>
        <time>2014-07-13T10:33:40Z</time>
      </trkpt>
      <trkpt lat="44.69002" lon="6.80631">
        <ele>2306</ele>
        <time>2014-07-13T10:35:25Z</time>
      </trkpt>
      <trkpt lat="44.6896" lon="6.80622">
        <ele>2308.3</ele>
        <time>2014-07-13T10:36:56Z</time>
      </trkpt>
      <trkpt lat="44.68957" lon="6.80622">
        <ele>2308.3</ele>
        <time>2014-07-13T10:36:57Z</time>
      </trkpt>
      <trkpt lat="44.68915" lon="6.80619">
        <ele>2308.3</ele>
        <time>2014-07-13T10:51:20Z</time>
      </trkpt>
      <trkpt lat="44.68872" lon="6.80618">
        <ele>2293.3</ele>
        <time>2014-07-13T12:35:21Z</time>
      </trkpt>
      <trkpt lat="44.68829" lon="6.806">
        <ele>2283.8</ele>
        <time>2014-07-13T12:37:36Z</time>
      </trkpt>
      <trkpt lat="44.68795" lon="6.80635">
        <ele>2267.8</ele>
        <time>2014-07-13T12:39:36Z</time>
      </trkpt>
      <trkpt lat="44.68755" lon="6.80619">
        <ele>2247.3</ele>
        <time>2014-07-13T12:41:12Z</time>
      </trkpt>
      <trkpt lat="44.68713" lon="6.80632">
        <ele>2219.6</ele>
        <time>2014-07-13T12:43:13Z</time>
      </trkpt>
      <trkpt lat="44.68648" lon="6.80554">
        <ele>2197.3</ele>
        <time>2014-07-13T12:44:52Z</time>
      </trkpt>
      <trkpt lat="44.68646" lon="6.80552">
        <ele>2196.6</ele>
        <time>2014-07-13T12:44:53Z</time>
      </trkpt>
      <trkpt lat="44.68578" lon="6.80483">
        <ele>2178.8</ele>
        <time>2014-07-13T12:46:25Z</time>
      </trkpt>
      <trkpt lat="44.68576" lon="6.80481">
        <ele>2178.1</ele>
        <time>2014-07-13T12:46:26Z</time>
      </trkpt>
      <trkpt lat="44.68506" lon="6.80413">
        <ele>2160.8</ele>
        <time>2014-07-13T12:47:48Z</time>
      </trkpt>
      <trkpt lat="44.68504" lon="6.80412">
        <ele>2160.1</ele>
        <time>2014-07-13T12:47:49Z</time>
      </trkpt>
      <trkpt lat="44.68465" lon="6.80382">
        <ele>2151.3</ele>
        <time>2014-07-13T12:49:38Z</time>
      </trkpt>
      <trkpt lat="44.68385" lon="6.80346">
        <ele>2123.3</ele>
        <time>2014-07-13T12:51:20Z</time>
      </trkpt>
      <trkpt lat="44.68382" lon="6.80343">
        <ele>2122.6</ele>
        <time>2014-07-13T12:51:21Z</time>
      </trkpt>
      <trkpt lat="44.6831" lon="6.80283">
        <ele>2107.1</ele>
        <time>2014-07-13T12:52:46Z</time>
      </trkpt>
      <trkpt lat="44.68307" lon="6.80281">
        <ele>2106.3</ele>
        <time>2014-07-13T12:52:47Z</time>
      </trkpt>
      <trkpt lat="44.68241" lon="6.80212">
        <ele>2086.6</ele>
        <time>2014-07-13T12:55:17Z</time>
      </trkpt>
      <trkpt lat="44.68238" lon="6.80209">
        <ele>2085.8</ele>
        <time>2014-07-13T12:55:18Z</time>
      </trkpt>
      <trkpt lat="44.68168" lon="6.80143">
        <ele>2069.3</ele>
        <time>2014-07-13T12:56:48Z</time>
      </trkpt>
      <trkpt lat="44.68165" lon="6.80141">
        <ele>2068.6</ele>
        <time>2014-07-13T12:56:49Z</time>
      </trkpt>
      <trkpt lat="44.68124" lon="6.80157">
        <ele>2038</ele>
        <time>2014-07-13T12:59:29Z</time>
      </trkpt>
      <trkpt lat="44.6808" lon="6.80141">
        <ele>2014.1</ele>
        <time>2014-07-13T13:00:36Z</time>
      </trkpt>
      <trkpt lat="44.68006" lon="6.80089">
        <ele>1990.6</ele>
        <time>2014-07-13T13:02:13Z</time>
      </trkpt>
      <trkpt lat="44.68002" lon="6.80088">
        <ele>1989.8</ele>
        <time>2014-07-13T13:02:14Z</time>
      </trkpt>
      <trkpt lat="44.67959" lon="6.80081">
        <ele>1973.4</ele>
        <time>2014-07-13T13:03:46Z</time>
      </trkpt>
      <trkpt lat="44.67914" lon="6.79994">
        <ele>1947.9</ele>
        <time>2014-07-13T13:05:07Z</time>
      </trkpt>
      <trkpt lat="44.67902" lon="6.79929">
        <ele>1937.9</ele>
        <time>2014-07-13T13:07:12Z</time>
      </trkpt>
      <trkpt lat="44.67901" lon="6.79925">
        <ele>1936.1</ele>
        <time>2014-07-13T13:07:13Z</time>
      </trkpt>
      <trkpt lat="44.67872" lon="6.79812">
        <ele>1907.3</ele>
        <time>2014-07-13T13:08:54Z</time>
      </trkpt>
      <trkpt lat="44.6787" lon="6.79807">
        <ele>1906.4</ele>
        <time>2014-07-13T13:08:55Z</time>
      </trkpt>
      <trkpt lat="44.67806" lon="6.79742">
        <ele>1882.9</ele>
        <time>2014-07-13T13:11:12Z</time>
      </trkpt>
      <trkpt lat="44.67803" lon="6.7974">
        <ele>1882.1</ele>
        <time>2014-07-13T13:11:13Z</time>
      </trkpt>
      <trkpt lat="44.67738" lon="6.79664">
        <ele>1862.3</ele>
        <time>2014-07-13T13:13:01Z</time>
      </trkpt>
      <trkpt lat="44.67735" lon="6.79661">
        <ele>1861.5</ele>
        <time>2014-07-13T13:13:02Z</time>
      </trkpt>
      <trkpt lat="44.67675" lon="6.79575">
        <ele>1835.8</ele>
        <time>2014-07-13T13:22:30Z</time>
      </trkpt>
      <trkpt lat="44.67673" lon="6.7957">
        <ele>1835.8</ele>
        <time>2014-07-13T13:22:31Z</time>
      </trkpt>
      <trkpt lat="44.6765" lon="6.79478">
        <ele>1832.6</ele>
        <time>2014-07-13T13:23:42Z</time>
      </trkpt>
      <trkpt lat="44.67614" lon="6.79452">
        <ele>1830.6</ele>
        <time>2014-07-13T13:24:49Z</time>
      </trkpt>
      <trkpt lat="44.67654" lon="6.79545">
        <ele>1835.8</ele>
        <time>2014-07-13T13:26:40Z</time>
      </trkpt>
      <trkpt lat="44.6766" lon="6.79602">
        <ele>1835.1</ele>
        <time>2014-07-13T13:28:10Z</time>
      </trkpt>
      <trkpt lat="44.67635" lon="6.79652">
        <ele>1827.5</ele>
        <time>2014-07-13T13:29:43Z</time>
      </trkpt>
      <trkpt lat="44.67612" lon="6.79706">
        <ele>1817.8</ele>
        <time>2014-07-13T13:30:48Z</time>
      </trkpt>
      <trkpt lat="44.67594" lon="6.79762">
        <ele>1810.1</ele>
        <time>2014-07-13T13:32:00Z</time>
      </trkpt>
      <trkpt lat="44.67553" lon="6.79744">
        <ele>1775.5</ele>
        <time>2014-07-13T13:34:30Z</time>
      </trkpt>
      <trkpt lat="44.67553" lon="6.79739">
        <ele>1775.1</ele>
        <time>2014-07-13T13:34:31Z</time>
      </trkpt>
      <trkpt lat="44.67557" lon="6.79624">
        <ele>1768</ele>
        <time>2014-07-13T13:35:40Z</time>
      </trkpt>
      <trkpt lat="44.67557" lon="6.79619">
        <ele>1767.8</ele>
        <time>2014-07-13T13:35:41Z</time>
      </trkpt>
      <trkpt lat="44.67536" lon="6.79504">
        <ele>1766.4</ele>
        <time>2014-07-13T13:36:53Z</time>
      </trkpt>
      <trkpt lat="44.67534" lon="6.79498">
        <ele>1766</ele>
        <time>2014-07-13T13:36:54Z</time>
      </trkpt>
      <trkpt lat="44.67498" lon="6.79468">
        <ele>1766.5</ele>
        <time>2014-07-13T13:38:23Z</time>
      </trkpt>
      <trkpt lat="44.67458" lon="6.79436">
        <ele>1765.6</ele>
        <time>2014-07-13T13:39:49Z</time>
      </trkpt>
      <trkpt lat="44.67401" lon="6.79352">
        <ele>1766.1</ele>
        <time>2014-07-13T13:40:46Z</time>
      </trkpt>
      <trkpt lat="44.67369" lon="6.79308">
        <ele>1765.6</ele>
        <time>2014-07-13T13:41:25Z</time>
      </trkpt>
      <trkpt lat="44.67367" lon="6.79305">
        <ele>1765.4</ele>
        <time>2014-07-13T13:41:26Z</time>
      </trkpt>
      <trkpt lat="44.67332" lon="6.792">
        <ele>1763</ele>
        <time>2014-07-13T13:43:07Z</time>
      </trkpt>
      <trkpt lat="44.6733" lon="6.79197">
        <ele>1762.9</ele>
        <time>2014-07-13T13:43:08Z</time>
      </trkpt>
      <trkpt lat="44.67285" lon="6.791">
        <ele>1767.1</ele>
        <time>2014-07-13T13:44:18Z</time>
      </trkpt>
      <trkpt lat="44.67283" lon="6.79095">
        <ele>1766.9</ele>
        <time>2014-07-13T13:44:19Z</time>
      </trkpt>
      <trkpt lat="44.67233" lon="6.79005">
        <ele>1761.1</ele>
        <time>2014-07-13T13:45:19Z</time>
      </trkpt>
      <trkpt lat="44.67221" lon="6.78945">
        <ele>1760.6</ele>
        <time>2014-07-13T13:45:42Z</time>
      </trkpt>
      <trkpt lat="44.67221" lon="6.78941">
        <ele>1760.8</ele>
        <time>2014-07-13T13:45:43Z</time>
      </trkpt>
      <trkpt lat="44.67179" lon="6.78841">
        <ele>1762.1</ele>
        <time>2014-07-13T13:46:57Z</time>
      </trkpt>
      <trkpt lat="44.67176" lon="6.78837">
        <ele>1762.5</ele>
        <time>2014-07-13T13:46:58Z</time>
      </trkpt>
      <trkpt lat="44.67116" lon="6.78755">
        <ele>1761.5</ele>
        <time>2014-07-13T13:48:12Z</time>
      </trkpt>
      <trkpt lat="44.67113" lon="6.78752">
        <ele>1761.5</ele>
        <time>2014-07-13T13:48:13Z</time>
      </trkpt>
      <trkpt lat="44.67057" lon="6.78668">
        <ele>1764.1</ele>
        <time>2014-07-13T13:49:21Z</time>
      </trkpt>
      <trkpt lat="44.67055" lon="6.78663">
        <ele>1764.3</ele>
        <time>2014-07-13T13:49:22Z</time>
      </trkpt>
      <trkpt lat="44.66991" lon="6.7859">
        <ele>1768.3</ele>
        <time>2014-07-13T13:50:09Z</time>
      </trkpt>
      <trkpt lat="44.66971" lon="6.78538">
        <ele>1764.3</ele>
        <time>2014-07-13T13:50:54Z</time>
      </trkpt>
      <trkpt lat="44.66969" lon="6.78534">
        <ele>1764</ele>
        <time>2014-07-13T13:50:55Z</time>
      </trkpt>
      <trkpt lat="44.66908" lon="6.78459">
        <ele>1767.4</ele>
        <time>2014-07-13T13:51:45Z</time>
      </trkpt>
      <trkpt lat="44.66866" lon="6.78456">
        <ele>1769.1</ele>
        <time>2014-07-13T13:52:28Z</time>
      </trkpt>
      <trkpt lat="44.66862" lon="6.78458">
        <ele>1768.5</ele>
        <time>2014-07-13T13:52:29Z</time>
      </trkpt>
      <trkpt lat="44.66793" lon="6.78521">
        <ele>1760.3</ele>
        <time>2014-07-13T13:53:39Z</time>
      </trkpt>
      <trkpt lat="44.6679" lon="6.78525">
        <ele>1760.1</ele>
        <time>2014-07-13T13:53:40Z</time>
      </trkpt>
      <trkpt lat="44.66719" lon="6.78584">
        <ele>1760</ele>
        <time>2014-07-13T13:54:47Z</time>
      </trkpt>
      <trkpt lat="44.66715" lon="6.78586">
        <ele>1760.5</ele>
        <time>2014-07-13T13:54:48Z</time>
      </trkpt>
      <trkpt lat="44.66643" lon="6.78646">
        <ele>1771.4</ele>
        <time>2014-07-13T13:55:49Z</time>
      </trkpt>
      <trkpt lat="44.66641" lon="6.78649">
        <ele>1771.6</ele>
        <time>2014-07-13T13:55:50Z</time>
      </trkpt>
      <trkpt lat="44.66583" lon="6.78732">
        <ele>1770.8</ele>
        <time>2014-07-13T13:57:10Z</time>
      </trkpt>
      <trkpt lat="44.6658" lon="6.78736">
        <ele>1770.6</ele>
        <time>2014-07-13T13:57:11Z</time>
      </trkpt>
      <trkpt lat="44.66547" lon="6.78783">
        <ele>1774</ele>
        <time>2014-07-13T13:57:50Z</time>
      </trkpt>
      <trkpt lat="44.66517" lon="6.78828">
        <ele>1777</ele>
        <time>2014-07-13T13:57:55Z</time>
      </trkpt>
      <trkpt lat="44.66502" lon="6.78884">
        <ele>1778.6</ele>
        <time>2014-07-13T13:58:59Z</time>
      </trkpt>
      <trkpt lat="44.6647" lon="6.78906">
        <ele>1782</ele>
        <time>2014-07-13T13:59:00Z</time>
      </trkpt>
      <trkpt lat="44.66428" lon="6.78927">
        <ele>1782.4</ele>
        <time>2014-07-13T13:59:50Z</time>
      </trkpt>
      <trkpt lat="44.66406" lon="6.78946">
        <ele>1784</ele>
        <time>2014-07-13T14:00:23Z</time>
      </trkpt>
      <trkpt lat="44.6639" lon="6.78992">
        <ele>1787.8</ele>
        <time>2014-07-13T14:00:24Z</time>
      </trkpt>
      <trkpt lat="44.66349" lon="6.79022">
        <ele>1786</ele>
        <time>2014-07-13T14:01:15Z</time>
      </trkpt>
      <trkpt lat="44.6631" lon="6.79052">
        <ele>1795.1</ele>
        <time>2014-07-13T14:01:31Z</time>
      </trkpt>
      <trkpt lat="44.66308" lon="6.79053">
        <ele>1795.9</ele>
        <time>2014-07-13T14:01:32Z</time>
      </trkpt>
      <trkpt lat="44.66266" lon="6.79073">
        <ele>1800.4</ele>
        <time>2014-07-13T14:02:37Z</time>
      </trkpt>
      <trkpt lat="44.662" lon="6.79134">
        <ele>1821</ele>
        <time>2014-07-13T14:04:25Z</time>
      </trkpt>
      <trkpt lat="44.66196" lon="6.79135">
        <ele>1821.9</ele>
        <time>2014-07-13T14:04:26Z</time>
      </trkpt>
      <trkpt lat="44.66116" lon="6.79163">
        <ele>1823.6</ele>
        <time>2014-07-13T14:05:37Z</time>
      </trkpt>
      <trkpt lat="44.66113" lon="6.79166">
        <ele>1822.5</ele>
        <time>2014-07-13T14:05:38Z</time>
      </trkpt>
      <trkpt lat="44.66056" lon="6.79248">
        <ele>1816.1</ele>
        <time>2014-07-13T14:06:39Z</time>
      </trkpt>
      <trkpt lat="44.66053" lon="6.79251">
        <ele>1816.8</ele>
        <time>2014-07-13T14:06:40Z</time>
      </trkpt>
      <trkpt lat="44.66001" lon="6.79338">
        <ele>1825</ele>
        <time>2014-07-13T14:07:49Z</time>
      </trkpt>
      <trkpt lat="44.65999" lon="6.79342">
        <ele>1824.5</ele>
        <time>2014-07-13T14:07:50Z</time>
      </trkpt>
      <trkpt lat="44.65942" lon="6.7942">
        <ele>1852.1</ele>
        <time>2014-07-13T14:08:57Z</time>
      </trkpt>
      <trkpt lat="44.65938" lon="6.79421">
        <ele>1854</ele>
        <time>2014-07-13T14:08:58Z</time>
      </trkpt>
      <trkpt lat="44.65871" lon="6.79421">
        <ele>1845.8</ele>
        <time>2014-07-13T14:09:55Z</time>
      </trkpt>
      <trkpt lat="44.65547" lon="6.79639">
        <ele>1968.3</ele>
        <time>2014-07-13T14:15:15Z</time>
      </trkpt>
      <trkpt lat="44.65534" lon="6.79647">
        <ele>1965.1</ele>
        <time>2014-07-13T14:15:40Z</time>
      </trkpt>
      <trkpt lat="44.64984" lon="6.80191">
        <ele>1925.6</ele>
        <time>2014-07-13T14:27:58Z</time>
      </trkpt>
      <trkpt lat="44.64951" lon="6.80228">
        <ele>1922.8</ele>
        <time>2014-07-13T14:28:44Z</time>
      </trkpt>
      <trkpt lat="44.64912" lon="6.80258">
        <ele>1921.6</ele>
        <time>2014-07-13T14:29:21Z</time>
      </trkpt>
      <trkpt lat="44.64909" lon="6.8026">
        <ele>1921.3</ele>
        <time>2014-07-13T14:29:22Z</time>
      </trkpt>
      <trkpt lat="44.64863" lon="6.80358">
        <ele>1916</ele>
        <time>2014-07-13T14:30:49Z</time>
      </trkpt>
      <trkpt lat="44.64861" lon="6.8036">
        <ele>1918.4</ele>
        <time>2014-07-13T14:30:50Z</time>
      </trkpt>
      <trkpt lat="44.64775" lon="6.80374">
        <ele>1911.5</ele>
        <time>2014-07-13T14:32:18Z</time>
      </trkpt>
      <trkpt lat="44.64772" lon="6.80377">
        <ele>1911</ele>
        <time>2014-07-13T14:32:19Z</time>
      </trkpt>
      <trkpt lat="44.64715" lon="6.80462">
        <ele>1899.1</ele>
        <time>2014-07-13T14:33:34Z</time>
      </trkpt>
      <trkpt lat="44.64714" lon="6.80466">
        <ele>1899.1</ele>
        <time>2014-07-13T14:33:35Z</time>
      </trkpt>
      <trkpt lat="44.64649" lon="6.80539">
        <ele>1902.5</ele>
        <time>2014-07-13T14:34:52Z</time>
      </trkpt>
      <trkpt lat="44.64646" lon="6.80542">
        <ele>1901.8</ele>
        <time>2014-07-13T14:34:53Z</time>
      </trkpt>
      <trkpt lat="44.64584" lon="6.80621">
        <ele>1889</ele>
        <time>2014-07-13T14:35:56Z</time>
      </trkpt>
      <trkpt lat="44.64582" lon="6.80625">
        <ele>1889</ele>
        <time>2014-07-13T14:35:57Z</time>
      </trkpt>
      <trkpt lat="44.6451" lon="6.80683">
        <ele>1886.3</ele>
        <time>2014-07-13T14:37:58Z</time>
      </trkpt>
      <trkpt lat="44.64507" lon="6.80679">
        <ele>1884.6</ele>
        <time>2014-07-13T14:37:59Z</time>
      </trkpt>
      <trkpt lat="44.64462" lon="6.80581">
        <ele>1857.9</ele>
        <time>2014-07-13T14:39:25Z</time>
      </trkpt>
      <trkpt lat="44.6446" lon="6.80577">
        <ele>1857.1</ele>
        <time>2014-07-13T14:39:26Z</time>
      </trkpt>
      <trkpt lat="44.64426" lon="6.80473">
        <ele>1843.6</ele>
        <time>2014-07-13T14:40:39Z</time>
      </trkpt>
      <trkpt lat="44.64425" lon="6.80469">
        <ele>1843.1</ele>
        <time>2014-07-13T14:40:40Z</time>
      </trkpt>
      <trkpt lat="44.64382" lon="6.80364">
        <ele>1826.1</ele>
        <time>2014-07-13T14:43:01Z</time>
      </trkpt>
      <trkpt lat="44.64378" lon="6.80364">
        <ele>1825.4</ele>
        <time>2014-07-13T14:43:02Z</time>
      </trkpt>
      <trkpt lat="44.6434" lon="6.80339">
        <ele>1819.5</ele>
        <time>2014-07-13T14:44:06Z</time>
      </trkpt>
      <trkpt lat="44.64333" lon="6.80275">
        <ele>1821.3</ele>
        <time>2014-07-13T14:45:12Z</time>
      </trkpt>
      <trkpt lat="44.64336" lon="6.80159">
        <ele>1832</ele>
        <time>2014-07-13T14:46:16Z</time>
      </trkpt>
      <trkpt lat="44.64337" lon="6.80154">
        <ele>1832.3</ele>
        <time>2014-07-13T14:46:17Z</time>
      </trkpt>
      <trkpt lat="44.64352" lon="6.80039">
        <ele>1847.5</ele>
        <time>2014-07-13T14:47:33Z</time>
      </trkpt>
      <trkpt lat="44.64353" lon="6.80035">
        <ele>1847.5</ele>
        <time>2014-07-13T14:47:34Z</time>
      </trkpt>
      <trkpt lat="44.64342" lon="6.79921">
        <ele>1866.4</ele>
        <time>2014-07-13T14:48:41Z</time>
      </trkpt>
      <trkpt lat="44.64341" lon="6.79917">
        <ele>1867</ele>
        <time>2014-07-13T14:48:42Z</time>
      </trkpt>
      <trkpt lat="44.64295" lon="6.7993">
        <ele>1880</ele>
        <time>2014-07-13T14:50:59Z</time>
      </trkpt>
      <trkpt lat="44.64289" lon="6.79967">
        <ele>1889</ele>
        <time>2014-07-13T14:51:21Z</time>
      </trkpt>
      <trkpt lat="44.64187" lon="6.79885">
        <ele>1925.5</ele>
        <time>2014-07-13T14:54:14Z</time>
      </trkpt>
      <trkpt lat="44.64164" lon="6.79833">
        <ele>1937.8</ele>
        <time>2014-07-13T14:55:28Z</time>
      </trkpt>
      <trkpt lat="44.64161" lon="6.7983">
        <ele>1938.4</ele>
        <time>2014-07-13T14:55:29Z</time>
      </trkpt>
      <trkpt lat="44.64087" lon="6.79777">
        <ele>1973.6</ele>
        <time>2014-07-13T14:57:10Z</time>
      </trkpt>
      <trkpt lat="44.64086" lon="6.79774">
        <ele>1976.6</ele>
        <time>2014-07-13T14:57:11Z</time>
      </trkpt>
      <trkpt lat="44.64047" lon="6.79808">
        <ele>2024</ele>
        <time>2014-07-13T14:59:41Z</time>
      </trkpt>
      <trkpt lat="44.63995" lon="6.79863">
        <ele>2028.3</ele>
        <time>2014-07-13T15:01:26Z</time>
      </trkpt>
      <trkpt lat="44.63992" lon="6.7986">
        <ele>2029</ele>
        <time>2014-07-13T15:01:27Z</time>
      </trkpt>
      <trkpt lat="44.63945" lon="6.79764">
        <ele>2044.3</ele>
        <time>2014-07-13T15:03:22Z</time>
      </trkpt>
      <trkpt lat="44.63943" lon="6.79761">
        <ele>2044.9</ele>
        <time>2014-07-13T15:03:23Z</time>
      </trkpt>
      <trkpt lat="44.63865" lon="6.79732">
        <ele>2056.6</ele>
        <time>2014-07-13T15:04:42Z</time>
      </trkpt>
      <trkpt lat="44.63861" lon="6.79733">
        <ele>2057.6</ele>
        <time>2014-07-13T15:04:43Z</time>
      </trkpt>
      <trkpt lat="44.63782" lon="6.79769">
        <ele>2068.6</ele>
        <time>2014-07-13T15:05:45Z</time>
      </trkpt>
      <trkpt lat="44.63778" lon="6.79771">
        <ele>2068.8</ele>
        <time>2014-07-13T15:05:46Z</time>
      </trkpt>
      <trkpt lat="44.63757" lon="6.79847">
        <ele>2089.8</ele>
        <time>2014-07-13T15:08:25Z</time>
      </trkpt>
      <trkpt lat="44.63754" lon="6.7985">
        <ele>2090.6</ele>
        <time>2014-07-13T15:08:26Z</time>
      </trkpt>
      <trkpt lat="44.63678" lon="6.79895">
        <ele>2113.3</ele>
        <time>2014-07-13T15:09:42Z</time>
      </trkpt>
      <trkpt lat="44.63675" lon="6.79896">
        <ele>2114.3</ele>
        <time>2014-07-13T15:09:43Z</time>
      </trkpt>
      <trkpt lat="44.63595" lon="6.79931">
        <ele>2131.8</ele>
        <time>2014-07-13T15:10:43Z</time>
      </trkpt>
      <trkpt lat="44.63556" lon="6.79952">
        <ele>2132.6</ele>
        <time>2014-07-13T15:11:08Z</time>
      </trkpt>
      <trkpt lat="44.63553" lon="6.79953">
        <ele>2132.5</ele>
        <time>2014-07-13T15:11:09Z</time>
      </trkpt>
      <trkpt lat="44.63473" lon="6.79991">
        <ele>2126.8</ele>
        <time>2014-07-13T15:12:14Z</time>
      </trkpt>
      <trkpt lat="44.6347" lon="6.79993">
        <ele>2126.8</ele>
        <time>2014-07-13T15:12:15Z</time>
      </trkpt>
      <trkpt lat="44.63405" lon="6.80007">
        <ele>2136.6</ele>
        <time>2014-07-13T15:16:01Z</time>
      </trkpt>
      <trkpt lat="44.63371" lon="6.8">
        <ele>2147.5</ele>
        <time>2014-07-13T15:16:02Z</time>
      </trkpt>
      <trkpt lat="44.63358" lon="6.79937">
        <ele>2152.1</ele>
        <time>2014-07-13T15:17:29Z</time>
      </trkpt>
      <trkpt lat="44.63332" lon="6.79903">
        <ele>2160.8</ele>
        <time>2014-07-13T15:17:30Z</time>
      </trkpt>
      <trkpt lat="44.63301" lon="6.79865">
        <ele>2173.3</ele>
        <time>2014-07-13T15:18:46Z</time>
      </trkpt>
      <trkpt lat="44.63283" lon="6.7982">
        <ele>2179.5</ele>
        <time>2014-07-13T15:18:47Z</time>
      </trkpt>
      <trkpt lat="44.63271" lon="6.79759">
        <ele>2182.6</ele>
        <time>2014-07-13T15:20:09Z</time>
      </trkpt>
      <trkpt lat="44.63271" lon="6.79755">
        <ele>2182.8</ele>
        <time>2014-07-13T15:20:10Z</time>
      </trkpt>
      <trkpt lat="44.63261" lon="6.79637">
        <ele>2194.8</ele>
        <time>2014-07-13T15:21:39Z</time>
      </trkpt>
      <trkpt lat="44.63262" lon="6.79632">
        <ele>2195.1</ele>
        <time>2014-07-13T15:21:40Z</time>
      </trkpt>
      <trkpt lat="44.63258" lon="6.79521">
        <ele>2214.3</ele>
        <time>2014-07-13T15:23:05Z</time>
      </trkpt>
      <trkpt lat="44.63258" lon="6.79516">
        <ele>2215.3</ele>
        <time>2014-07-13T15:23:06Z</time>
      </trkpt>
      <trkpt lat="44.63273" lon="6.79403">
        <ele>2230</ele>
        <time>2014-07-13T15:24:25Z</time>
      </trkpt>
      <trkpt lat="44.63275" lon="6.79399">
        <ele>2230.3</ele>
        <time>2014-07-13T15:24:26Z</time>
      </trkpt>
      <trkpt lat="44.6332" lon="6.79329">
        <ele>2230.6</ele>
        <time>2014-07-13T15:25:44Z</time>
      </trkpt>
      <trkpt lat="44.63343" lon="6.79294">
        <ele>2232.6</ele>
        <time>2014-07-13T15:25:45Z</time>
      </trkpt>
      <trkpt lat="44.63372" lon="6.79265">
        <ele>2240.8</ele>
        <time>2014-07-13T15:28:03Z</time>
      </trkpt>
      <trkpt lat="44.63409" lon="6.79237">
        <ele>2235</ele>
        <time>2014-07-13T15:29:20Z</time>
      </trkpt>
      <trkpt lat="44.63442" lon="6.79217">
        <ele>2237</ele>
        <time>2014-07-13T15:29:21Z</time>
      </trkpt>
      <trkpt lat="44.63467" lon="6.79182">
        <ele>2238</ele>
        <time>2014-07-13T15:31:21Z</time>
      </trkpt>
      <trkpt lat="44.63277" lon="6.79301">
        <ele>2196.5</ele>
        <time>2014-07-14T05:46:03Z</time>
      </trkpt>
      <trkpt lat="44.63277" lon="6.79302">
        <ele>2198.4</ele>
        <time>2014-07-14T05:46:04Z</time>
      </trkpt>
      <trkpt lat="44.63275" lon="6.79368">
        <ele>2223.8</ele>
        <time>2014-07-14T05:49:54Z</time>
      </trkpt>
      <trkpt lat="44.63258" lon="6.79484">
        <ele>2214.6</ele>
        <time>2014-07-14T05:51:54Z</time>
      </trkpt>
      <trkpt lat="44.63257" lon="6.79489">
        <ele>2214</ele>
        <time>2014-07-14T05:51:55Z</time>
      </trkpt>
      <trkpt lat="44.63255" lon="6.79604">
        <ele>2199.8</ele>
        <time>2014-07-14T05:53:28Z</time>
      </trkpt>
      <trkpt lat="44.63254" lon="6.79609">
        <ele>2198.8</ele>
        <time>2014-07-14T05:53:29Z</time>
      </trkpt>
      <trkpt lat="44.63263" lon="6.79727">
        <ele>2174.5</ele>
        <time>2014-07-14T05:55:19Z</time>
      </trkpt>
      <trkpt lat="44.63264" lon="6.79732">
        <ele>2173.8</ele>
        <time>2014-07-14T05:55:20Z</time>
      </trkpt>
      <trkpt lat="44.63296" lon="6.79836">
        <ele>2167.6</ele>
        <time>2014-07-14T05:56:38Z</time>
      </trkpt>
      <trkpt lat="44.63298" lon="6.7984">
        <ele>2167.3</ele>
        <time>2014-07-14T05:56:39Z</time>
      </trkpt>
      <trkpt lat="44.6335" lon="6.7993">
        <ele>2152.1</ele>
        <time>2014-07-14T05:58:20Z</time>
      </trkpt>
      <trkpt lat="44.63351" lon="6.79933">
        <ele>2151.3</ele>
        <time>2014-07-14T05:58:21Z</time>
      </trkpt>
      <trkpt lat="44.63371" lon="6.79986">
        <ele>2144.6</ele>
        <time>2014-07-14T06:00:59Z</time>
      </trkpt>
      <trkpt lat="44.63453" lon="6.79994">
        <ele>2136.3</ele>
        <time>2014-07-14T06:02:31Z</time>
      </trkpt>
      <trkpt lat="44.63457" lon="6.79993">
        <ele>2136</ele>
        <time>2014-07-14T06:02:32Z</time>
      </trkpt>
      <trkpt lat="44.63537" lon="6.79964">
        <ele>2137.1</ele>
        <time>2014-07-14T06:03:44Z</time>
      </trkpt>
      <trkpt lat="44.6354" lon="6.79962">
        <ele>2137.3</ele>
        <time>2014-07-14T06:03:45Z</time>
      </trkpt>
      <trkpt lat="44.63619" lon="6.79924">
        <ele>2135</ele>
        <time>2014-07-14T06:04:55Z</time>
      </trkpt>
      <trkpt lat="44.63622" lon="6.79922">
        <ele>2134.8</ele>
        <time>2014-07-14T06:04:56Z</time>
      </trkpt>
      <trkpt lat="44.63701" lon="6.79894">
        <ele>2118.6</ele>
        <time>2014-07-14T06:05:55Z</time>
      </trkpt>
      <trkpt lat="44.63744" lon="6.79879">
        <ele>2109.6</ele>
        <time>2014-07-14T06:06:30Z</time>
      </trkpt>
      <trkpt lat="44.63746" lon="6.79876">
        <ele>2109</ele>
        <time>2014-07-14T06:06:31Z</time>
      </trkpt>
      <trkpt lat="44.63733" lon="6.79816">
        <ele>2087.1</ele>
        <time>2014-07-14T06:08:47Z</time>
      </trkpt>
      <trkpt lat="44.63805" lon="6.7976">
        <ele>2076.3</ele>
        <time>2014-07-14T06:10:01Z</time>
      </trkpt>
      <trkpt lat="44.63809" lon="6.79759">
        <ele>2076.1</ele>
        <time>2014-07-14T06:10:02Z</time>
      </trkpt>
      <trkpt lat="44.63892" lon="6.79733">
        <ele>2067</ele>
        <time>2014-07-14T06:11:16Z</time>
      </trkpt>
      <trkpt lat="44.63895" lon="6.79734">
        <ele>2066.3</ele>
        <time>2014-07-14T06:11:17Z</time>
      </trkpt>
      <trkpt lat="44.63953" lon="6.79812">
        <ele>2052.5</ele>
        <time>2014-07-14T06:12:52Z</time>
      </trkpt>
      <trkpt lat="44.63955" lon="6.79817">
        <ele>2051.8</ele>
        <time>2014-07-14T06:12:53Z</time>
      </trkpt>
      <trkpt lat="44.64023" lon="6.79856">
        <ele>2032</ele>
        <time>2014-07-14T06:15:08Z</time>
      </trkpt>
      <trkpt lat="44.64024" lon="6.79852">
        <ele>2031.3</ele>
        <time>2014-07-14T06:15:09Z</time>
      </trkpt>
      <trkpt lat="44.64073" lon="6.79781">
        <ele>2000.6</ele>
        <time>2014-07-14T06:17:45Z</time>
      </trkpt>
      <trkpt lat="44.64076" lon="6.79783">
        <ele>1998.9</ele>
        <time>2014-07-14T06:17:46Z</time>
      </trkpt>
      <trkpt lat="44.64151" lon="6.79829">
        <ele>1961.3</ele>
        <time>2014-07-14T06:19:53Z</time>
      </trkpt>
      <trkpt lat="44.64153" lon="6.79833">
        <ele>1960.4</ele>
        <time>2014-07-14T06:19:54Z</time>
      </trkpt>
      <trkpt lat="44.64201" lon="6.79899">
        <ele>1939.3</ele>
        <time>2014-07-14T06:20:58Z</time>
      </trkpt>
      <trkpt lat="44.6423" lon="6.7992">
        <ele>1929.9</ele>
        <time>2014-07-14T06:22:01Z</time>
      </trkpt>
      <trkpt lat="44.64266" lon="6.79988">
        <ele>1923.8</ele>
        <time>2014-07-14T06:23:18Z</time>
      </trkpt>
      <trkpt lat="44.64285" lon="6.79933">
        <ele>1902</ele>
        <time>2014-07-14T06:31:50Z</time>
      </trkpt>
      <trkpt lat="44.64286" lon="6.79928">
        <ele>1901.1</ele>
        <time>2014-07-14T06:31:51Z</time>
      </trkpt>
      <trkpt lat="44.64332" lon="6.79922">
        <ele>1883.3</ele>
        <time>2014-07-14T06:33:24Z</time>
      </trkpt>
      <trkpt lat="44.64355" lon="6.79975">
        <ele>1868.5</ele>
        <time>2014-07-14T06:34:36Z</time>
      </trkpt>
      <trkpt lat="44.64342" lon="6.80093">
        <ele>1840.5</ele>
        <time>2014-07-14T06:35:31Z</time>
      </trkpt>
      <trkpt lat="44.64335" lon="6.80155">
        <ele>1837.6</ele>
        <time>2014-07-14T06:36:35Z</time>
      </trkpt>
      <trkpt lat="44.64334" lon="6.8016">
        <ele>1837</ele>
        <time>2014-07-14T06:36:36Z</time>
      </trkpt>
      <trkpt lat="44.64375" lon="6.80205">
        <ele>1827.5</ele>
        <time>2014-07-14T06:39:13Z</time>
      </trkpt>
      <trkpt lat="44.64376" lon="6.80202">
        <ele>1827.4</ele>
        <time>2014-07-14T06:39:14Z</time>
      </trkpt>
      <trkpt lat="44.64429" lon="6.80109">
        <ele>1836.9</ele>
        <time>2014-07-14T06:40:18Z</time>
      </trkpt>
      <trkpt lat="44.6443" lon="6.80107">
        <ele>1837</ele>
        <time>2014-07-14T06:40:19Z</time>
      </trkpt>
      <trkpt lat="44.64491" lon="6.80027">
        <ele>1803</ele>
        <time>2014-07-14T06:42:34Z</time>
      </trkpt>
      <trkpt lat="44.64494" lon="6.80026">
        <ele>1802</ele>
        <time>2014-07-14T06:42:35Z</time>
      </trkpt>
      <trkpt lat="44.64572" lon="6.7999">
        <ele>1789.1</ele>
        <time>2014-07-14T06:44:04Z</time>
      </trkpt>
      <trkpt lat="44.64575" lon="6.79986">
        <ele>1788.4</ele>
        <time>2014-07-14T06:44:05Z</time>
      </trkpt>
      <trkpt lat="44.64624" lon="6.79891">
        <ele>1769.9</ele>
        <time>2014-07-14T06:45:20Z</time>
      </trkpt>
      <trkpt lat="44.64625" lon="6.79887">
        <ele>1769.3</ele>
        <time>2014-07-14T06:45:21Z</time>
      </trkpt>
      <trkpt lat="44.64658" lon="6.79784">
        <ele>1755.6</ele>
        <time>2014-07-14T06:46:36Z</time>
      </trkpt>
      <trkpt lat="44.64659" lon="6.79779">
        <ele>1755.3</ele>
        <time>2014-07-14T06:46:37Z</time>
      </trkpt>
      <trkpt lat="44.64667" lon="6.79665">
        <ele>1743.9</ele>
        <time>2014-07-14T06:47:49Z</time>
      </trkpt>
      <trkpt lat="44.64667" lon="6.7966">
        <ele>1743.5</ele>
        <time>2014-07-14T06:47:50Z</time>
      </trkpt>
      <trkpt lat="44.64685" lon="6.7955">
        <ele>1738.8</ele>
        <time>2014-07-14T06:49:06Z</time>
      </trkpt>
      <trkpt lat="44.64686" lon="6.79546">
        <ele>1738.5</ele>
        <time>2014-07-14T06:49:07Z</time>
      </trkpt>
      <trkpt lat="44.64706" lon="6.79434">
        <ele>1725</ele>
        <time>2014-07-14T06:50:20Z</time>
      </trkpt>
      <trkpt lat="44.64707" lon="6.79429">
        <ele>1723.9</ele>
        <time>2014-07-14T06:50:21Z</time>
      </trkpt>
      <trkpt lat="44.64756" lon="6.79334">
        <ele>1716.6</ele>
        <time>2014-07-14T06:51:30Z</time>
      </trkpt>
      <trkpt lat="44.64758" lon="6.7933">
        <ele>1716.1</ele>
        <time>2014-07-14T06:51:31Z</time>
      </trkpt>
      <trkpt lat="44.64815" lon="6.7924">
        <ele>1705.6</ele>
        <time>2014-07-14T06:53:29Z</time>
      </trkpt>
      <trkpt lat="44.64818" lon="6.79237">
        <ele>1705.4</ele>
        <time>2014-07-14T06:53:30Z</time>
      </trkpt>
      <trkpt lat="44.64891" lon="6.79186">
        <ele>1708.9</ele>
        <time>2014-07-14T06:54:33Z</time>
      </trkpt>
      <trkpt lat="44.64895" lon="6.79184">
        <ele>1709.6</ele>
        <time>2014-07-14T06:54:34Z</time>
      </trkpt>
      <trkpt lat="44.64971" lon="6.7915">
        <ele>1717</ele>
        <time>2014-07-14T06:55:43Z</time>
      </trkpt>
      <trkpt lat="44.64975" lon="6.79149">
        <ele>1716.5</ele>
        <time>2014-07-14T06:55:44Z</time>
      </trkpt>
      <trkpt lat="44.6505" lon="6.79099">
        <ele>1693.4</ele>
        <time>2014-07-14T06:56:57Z</time>
      </trkpt>
      <trkpt lat="44.65053" lon="6.79096">
        <ele>1692.8</ele>
        <time>2014-07-14T06:56:58Z</time>
      </trkpt>
      <trkpt lat="44.65124" lon="6.79037">
        <ele>1692</ele>
        <time>2014-07-14T06:57:58Z</time>
      </trkpt>
      <trkpt lat="44.65162" lon="6.79011">
        <ele>1694.5</ele>
        <time>2014-07-14T06:58:17Z</time>
      </trkpt>
      <trkpt lat="44.65166" lon="6.79008">
        <ele>1695</ele>
        <time>2014-07-14T06:58:18Z</time>
      </trkpt>
      <trkpt lat="44.65236" lon="6.78957">
        <ele>1690.5</ele>
        <time>2014-07-14T06:58:55Z</time>
      </trkpt>
      <trkpt lat="44.65278" lon="6.78938">
        <ele>1685.1</ele>
        <time>2014-07-14T06:59:35Z</time>
      </trkpt>
      <trkpt lat="44.65281" lon="6.78936">
        <ele>1684.8</ele>
        <time>2014-07-14T06:59:36Z</time>
      </trkpt>
      <trkpt lat="44.65307" lon="6.78889">
        <ele>1685.1</ele>
        <time>2014-07-14T07:01:04Z</time>
      </trkpt>
      <trkpt lat="44.65369" lon="6.7882">
        <ele>1682.6</ele>
        <time>2014-07-14T07:02:22Z</time>
      </trkpt>
      <trkpt lat="44.65371" lon="6.78818">
        <ele>1682.6</ele>
        <time>2014-07-14T07:02:23Z</time>
      </trkpt>
      <trkpt lat="44.65455" lon="6.78796">
        <ele>1679.5</ele>
        <time>2014-07-14T07:03:35Z</time>
      </trkpt>
      <trkpt lat="44.65458" lon="6.78794">
        <ele>1679.4</ele>
        <time>2014-07-14T07:03:36Z</time>
      </trkpt>
      <trkpt lat="44.65528" lon="6.78734">
        <ele>1675.8</ele>
        <time>2014-07-14T07:04:33Z</time>
      </trkpt>
      <trkpt lat="44.65564" lon="6.78697">
        <ele>1674.8</ele>
        <time>2014-07-14T07:05:09Z</time>
      </trkpt>
      <trkpt lat="44.65567" lon="6.78694">
        <ele>1674.6</ele>
        <time>2014-07-14T07:05:10Z</time>
      </trkpt>
      <trkpt lat="44.65635" lon="6.78628">
        <ele>1678.3</ele>
        <time>2014-07-14T07:05:59Z</time>
      </trkpt>
      <trkpt lat="44.6567" lon="6.7859">
        <ele>1676.5</ele>
        <time>2014-07-14T07:06:47Z</time>
      </trkpt>
      <trkpt lat="44.65673" lon="6.78587">
        <ele>1676.4</ele>
        <time>2014-07-14T07:06:48Z</time>
      </trkpt>
      <trkpt lat="44.65739" lon="6.78518">
        <ele>1675.1</ele>
        <time>2014-07-14T07:07:52Z</time>
      </trkpt>
      <trkpt lat="44.65742" lon="6.78516">
        <ele>1675</ele>
        <time>2014-07-14T07:07:53Z</time>
      </trkpt>
      <trkpt lat="44.65815" lon="6.78461">
        <ele>1671</ele>
        <time>2014-07-14T07:08:39Z</time>
      </trkpt>
      <trkpt lat="44.65846" lon="6.78416">
        <ele>1669.1</ele>
        <time>2014-07-14T07:09:25Z</time>
      </trkpt>
      <trkpt lat="44.65848" lon="6.78413">
        <ele>1669</ele>
        <time>2014-07-14T07:09:26Z</time>
      </trkpt>
      <trkpt lat="44.65901" lon="6.78324">
        <ele>1665.5</ele>
        <time>2014-07-14T07:10:32Z</time>
      </trkpt>
      <trkpt lat="44.65903" lon="6.78321">
        <ele>1665.3</ele>
        <time>2014-07-14T07:10:33Z</time>
      </trkpt>
      <trkpt lat="44.65969" lon="6.78254">
        <ele>1668</ele>
        <time>2014-07-14T07:11:40Z</time>
      </trkpt>
      <trkpt lat="44.65972" lon="6.78252">
        <ele>1668</ele>
        <time>2014-07-14T07:11:41Z</time>
      </trkpt>
      <trkpt lat="44.66036" lon="6.78178">
        <ele>1662.3</ele>
        <time>2014-07-14T07:12:52Z</time>
      </trkpt>
      <trkpt lat="44.66037" lon="6.78173">
        <ele>1662.1</ele>
        <time>2014-07-14T07:12:53Z</time>
      </trkpt>
      <trkpt lat="44.6609" lon="6.78085">
        <ele>1660</ele>
        <time>2014-07-14T07:14:00Z</time>
      </trkpt>
      <trkpt lat="44.66092" lon="6.7808">
        <ele>1659.9</ele>
        <time>2014-07-14T07:14:01Z</time>
      </trkpt>
      <trkpt lat="44.66154" lon="6.78001">
        <ele>1661.9</ele>
        <time>2014-07-14T07:15:08Z</time>
      </trkpt>
      <trkpt lat="44.66158" lon="6.77998">
        <ele>1662</ele>
        <time>2014-07-14T07:15:09Z</time>
      </trkpt>
      <trkpt lat="44.66219" lon="6.77924">
        <ele>1663</ele>
        <time>2014-07-14T07:16:11Z</time>
      </trkpt>
      <trkpt lat="44.66221" lon="6.7792">
        <ele>1662.8</ele>
        <time>2014-07-14T07:16:12Z</time>
      </trkpt>
      <trkpt lat="44.66284" lon="6.77841">
        <ele>1663.9</ele>
        <time>2014-07-14T07:17:21Z</time>
      </trkpt>
      <trkpt lat="44.66288" lon="6.77838">
        <ele>1663.8</ele>
        <time>2014-07-14T07:17:22Z</time>
      </trkpt>
      <trkpt lat="44.66346" lon="6.77756">
        <ele>1654.9</ele>
        <time>2014-07-14T07:18:33Z</time>
      </trkpt>
      <trkpt lat="44.66348" lon="6.77751">
        <ele>1654.4</ele>
        <time>2014-07-14T07:18:34Z</time>
      </trkpt>
      <trkpt lat="44.66397" lon="6.77656">
        <ele>1653.8</ele>
        <time>2014-07-14T07:19:08Z</time>
      </trkpt>
      <trkpt lat="44.66426" lon="6.77617">
        <ele>1655</ele>
        <time>2014-07-14T07:19:16Z</time>
      </trkpt>
      <trkpt lat="44.66459" lon="6.77574">
        <ele>1655.4</ele>
        <time>2014-07-14T07:19:26Z</time>
      </trkpt>
      <trkpt lat="44.66495" lon="6.77541">
        <ele>1652.5</ele>
        <time>2014-07-14T07:22:45Z</time>
      </trkpt>
      <trkpt lat="44.66498" lon="6.77538">
        <ele>1652.4</ele>
        <time>2014-07-14T07:22:46Z</time>
      </trkpt>
      <trkpt lat="44.66546" lon="6.77438">
        <ele>1647.3</ele>
        <time>2014-07-14T07:23:51Z</time>
      </trkpt>
      <trkpt lat="44.66547" lon="6.77435">
        <ele>1647.1</ele>
        <time>2014-07-14T07:23:52Z</time>
      </trkpt>
      <trkpt lat="44.66595" lon="6.77336">
        <ele>1646.6</ele>
        <time>2014-07-14T07:25:13Z</time>
      </trkpt>
      <trkpt lat="44.66598" lon="6.77336">
        <ele>1646.6</ele>
        <time>2014-07-14T07:25:14Z</time>
      </trkpt>
      <trkpt lat="44.66665" lon="6.77285">
        <ele>1643.1</ele>
        <time>2014-07-14T07:26:11Z</time>
      </trkpt>
      <trkpt lat="44.6669" lon="6.77235">
        <ele>1641.9</ele>
        <time>2014-07-14T07:26:29Z</time>
      </trkpt>
      <trkpt lat="44.66692" lon="6.77229">
        <ele>1641.8</ele>
        <time>2014-07-14T07:26:30Z</time>
      </trkpt>
      <trkpt lat="44.66741" lon="6.77138">
        <ele>1643</ele>
        <time>2014-07-14T07:26:44Z</time>
      </trkpt>
      <trkpt lat="44.66771" lon="6.77095">
        <ele>1645</ele>
        <time>2014-07-14T07:26:57Z</time>
      </trkpt>
      <trkpt lat="44.66782" lon="6.77057">
        <ele>1650.4</ele>
        <time>2014-07-14T07:28:40Z</time>
      </trkpt>
      <trkpt lat="44.66786" lon="6.77001">
        <ele>1640.3</ele>
        <time>2014-07-14T07:29:44Z</time>
      </trkpt>
      <trkpt lat="44.66784" lon="6.76918">
        <ele>1632.5</ele>
        <time>2014-07-14T07:30:24Z</time>
      </trkpt>
      <trkpt lat="44.66783" lon="6.76875">
        <ele>1630</ele>
        <time>2014-07-14T07:30:53Z</time>
      </trkpt>
      <trkpt lat="44.66769" lon="6.76851">
        <ele>1626.8</ele>
        <time>2014-07-14T07:30:54Z</time>
      </trkpt>
      <trkpt lat="44.66713" lon="6.76925">
        <ele>1629.1</ele>
        <time>2014-07-14T07:31:52Z</time>
      </trkpt>
      <trkpt lat="44.66686" lon="6.76878">
        <ele>1630.9</ele>
        <time>2014-07-14T07:33:00Z</time>
      </trkpt>
      <trkpt lat="44.66686" lon="6.76874">
        <ele>1630.9</ele>
        <time>2014-07-14T07:33:01Z</time>
      </trkpt>
      <trkpt lat="44.6666" lon="6.76758">
        <ele>1627.8</ele>
        <time>2014-07-14T07:33:57Z</time>
      </trkpt>
      <trkpt lat="44.66668" lon="6.76698">
        <ele>1628.4</ele>
        <time>2014-07-14T07:34:42Z</time>
      </trkpt>
      <trkpt lat="44.66669" lon="6.76694">
        <ele>1628.5</ele>
        <time>2014-07-14T07:34:43Z</time>
      </trkpt>
      <trkpt lat="44.6667" lon="6.76601">
        <ele>1628.4</ele>
        <time>2014-07-14T07:35:38Z</time>
      </trkpt>
      <trkpt lat="44.6667" lon="6.7654">
        <ele>1628.6</ele>
        <time>2014-07-14T07:36:09Z</time>
      </trkpt>
      <trkpt lat="44.66669" lon="6.76535">
        <ele>1628.5</ele>
        <time>2014-07-14T07:36:10Z</time>
      </trkpt>
      <trkpt lat="44.66684" lon="6.76423">
        <ele>1632</ele>
        <time>2014-07-14T07:37:15Z</time>
      </trkpt>
      <trkpt lat="44.66685" lon="6.76419">
        <ele>1632.3</ele>
        <time>2014-07-14T07:37:16Z</time>
      </trkpt>
      <trkpt lat="44.6671" lon="6.76306">
        <ele>1632.5</ele>
        <time>2014-07-14T07:38:26Z</time>
      </trkpt>
      <trkpt lat="44.66712" lon="6.76301">
        <ele>1632.5</ele>
        <time>2014-07-14T07:38:27Z</time>
      </trkpt>
      <trkpt lat="44.66744" lon="6.76198">
        <ele>1630</ele>
        <time>2014-07-14T07:39:24Z</time>
      </trkpt>
      <trkpt lat="44.66759" lon="6.7614">
        <ele>1627.9</ele>
        <time>2014-07-14T07:40:00Z</time>
      </trkpt>
      <trkpt lat="44.6676" lon="6.76135">
        <ele>1627.6</ele>
        <time>2014-07-14T07:40:01Z</time>
      </trkpt>
      <trkpt lat="44.66741" lon="6.76023">
        <ele>1621.8</ele>
        <time>2014-07-14T07:41:09Z</time>
      </trkpt>
      <trkpt lat="44.66739" lon="6.76019">
        <ele>1621.5</ele>
        <time>2014-07-14T07:41:10Z</time>
      </trkpt>
      <trkpt lat="44.66711" lon="6.75915">
        <ele>1614.5</ele>
        <time>2014-07-14T07:42:21Z</time>
      </trkpt>
      <trkpt lat="44.66711" lon="6.7591">
        <ele>1614.3</ele>
        <time>2014-07-14T07:42:22Z</time>
      </trkpt>
      <trkpt lat="44.66711" lon="6.75794">
        <ele>1618.6</ele>
        <time>2014-07-14T07:43:23Z</time>
      </trkpt>
      <trkpt lat="44.6671" lon="6.75731">
        <ele>1618.5</ele>
        <time>2014-07-14T07:44:01Z</time>
      </trkpt>
      <trkpt lat="44.6671" lon="6.75726">
        <ele>1619.1</ele>
        <time>2014-07-14T07:44:02Z</time>
      </trkpt>
      <trkpt lat="44.66711" lon="6.75607">
        <ele>1624</ele>
        <time>2014-07-14T07:45:04Z</time>
      </trkpt>
      <trkpt lat="44.66711" lon="6.75602">
        <ele>1624.5</ele>
        <time>2014-07-14T07:45:05Z</time>
      </trkpt>
      <trkpt lat="44.66743" lon="6.75494">
        <ele>1620.6</ele>
        <time>2014-07-14T07:46:33Z</time>
      </trkpt>
      <trkpt lat="44.66744" lon="6.7549">
        <ele>1620.5</ele>
        <time>2014-07-14T07:46:34Z</time>
      </trkpt>
      <trkpt lat="44.66791" lon="6.75389">
        <ele>1622.5</ele>
        <time>2014-07-14T07:47:50Z</time>
      </trkpt>
      <trkpt lat="44.66792" lon="6.75384">
        <ele>1622.1</ele>
        <time>2014-07-14T07:47:51Z</time>
      </trkpt>
      <trkpt lat="44.66814" lon="6.75333">
        <ele>1623.8</ele>
        <time>2014-07-14T07:52:33Z</time>
      </trkpt>
      <trkpt lat="44.6681" lon="6.75217">
        <ele>1620.4</ele>
        <time>2014-07-14T07:53:56Z</time>
      </trkpt>
      <trkpt lat="44.66809" lon="6.75213">
        <ele>1619.9</ele>
        <time>2014-07-14T07:53:57Z</time>
      </trkpt>
      <trkpt lat="44.66814" lon="6.75099">
        <ele>1605.9</ele>
        <time>2014-07-14T07:55:16Z</time>
      </trkpt>
      <trkpt lat="44.66815" lon="6.75095">
        <ele>1605.8</ele>
        <time>2014-07-14T07:55:17Z</time>
      </trkpt>
      <trkpt lat="44.668" lon="6.7498">
        <ele>1598.5</ele>
        <time>2014-07-14T07:57:00Z</time>
      </trkpt>
      <trkpt lat="44.66798" lon="6.74977">
        <ele>1598</ele>
        <time>2014-07-14T07:57:01Z</time>
      </trkpt>
      <trkpt lat="44.66729" lon="6.74907">
        <ele>1587.3</ele>
        <time>2014-07-14T07:58:34Z</time>
      </trkpt>
      <trkpt lat="44.66726" lon="6.74904">
        <ele>1586.5</ele>
        <time>2014-07-14T07:58:35Z</time>
      </trkpt>
      <trkpt lat="44.66731" lon="6.74842">
        <ele>1572.3</ele>
        <time>2014-07-14T07:59:59Z</time>
      </trkpt>
      <trkpt lat="44.66795" lon="6.74776">
        <ele>1555</ele>
        <time>2014-07-14T08:02:01Z</time>
      </trkpt>
      <trkpt lat="44.66798" lon="6.74777">
        <ele>1554.6</ele>
        <time>2014-07-14T08:02:02Z</time>
      </trkpt>
      <trkpt lat="44.66794" lon="6.74712">
        <ele>1557</ele>
        <time>2014-07-14T08:06:55Z</time>
      </trkpt>
      <trkpt lat="44.66796" lon="6.74598">
        <ele>1551</ele>
        <time>2014-07-14T08:08:07Z</time>
      </trkpt>
      <trkpt lat="44.66796" lon="6.74593">
        <ele>1551.5</ele>
        <time>2014-07-14T08:08:08Z</time>
      </trkpt>
      <trkpt lat="44.66791" lon="6.74474">
        <ele>1550.6</ele>
        <time>2014-07-14T08:09:23Z</time>
      </trkpt>
      <trkpt lat="44.66791" lon="6.74469">
        <ele>1550.6</ele>
        <time>2014-07-14T08:09:24Z</time>
      </trkpt>
      <trkpt lat="44.66782" lon="6.74352">
        <ele>1547.1</ele>
        <time>2014-07-14T08:10:47Z</time>
      </trkpt>
      <trkpt lat="44.66782" lon="6.74348">
        <ele>1547.4</ele>
        <time>2014-07-14T08:10:48Z</time>
      </trkpt>
      <trkpt lat="44.66767" lon="6.74292">
        <ele>1553.5</ele>
        <time>2014-07-14T08:12:15Z</time>
      </trkpt>
      <trkpt lat="44.66739" lon="6.74183">
        <ele>1560</ele>
        <time>2014-07-14T08:13:52Z</time>
      </trkpt>
      <trkpt lat="44.66739" lon="6.74178">
        <ele>1560</ele>
        <time>2014-07-14T08:13:53Z</time>
      </trkpt>
      <trkpt lat="44.66745" lon="6.7406">
        <ele>1561.4</ele>
        <time>2014-07-14T08:15:11Z</time>
      </trkpt>
      <trkpt lat="44.66745" lon="6.74055">
        <ele>1561.6</ele>
        <time>2014-07-14T08:15:12Z</time>
      </trkpt>
      <trkpt lat="44.66769" lon="6.73943">
        <ele>1572.9</ele>
        <time>2014-07-14T08:16:29Z</time>
      </trkpt>
      <trkpt lat="44.66771" lon="6.73939">
        <ele>1572.8</ele>
        <time>2014-07-14T08:16:30Z</time>
      </trkpt>
      <trkpt lat="44.66768" lon="6.73823">
        <ele>1571.4</ele>
        <time>2014-07-14T08:17:52Z</time>
      </trkpt>
      <trkpt lat="44.66766" lon="6.73819">
        <ele>1571.5</ele>
        <time>2014-07-14T08:17:53Z</time>
      </trkpt>
      <trkpt lat="44.66688" lon="6.73783">
        <ele>1578</ele>
        <time>2014-07-14T08:19:10Z</time>
      </trkpt>
      <trkpt lat="44.66686" lon="6.73783">
        <ele>1578.1</ele>
        <time>2014-07-14T08:19:11Z</time>
      </trkpt>
      <trkpt lat="44.66644" lon="6.73768">
        <ele>1582.8</ele>
        <time>2014-07-14T08:20:36Z</time>
      </trkpt>
      <trkpt lat="44.66658" lon="6.73705">
        <ele>1576.5</ele>
        <time>2014-07-14T08:22:47Z</time>
      </trkpt>
      <trkpt lat="44.66667" lon="6.73592">
        <ele>1563.5</ele>
        <time>2014-07-14T08:28:28Z</time>
      </trkpt>
      <trkpt lat="44.66664" lon="6.7359">
        <ele>1563.5</ele>
        <time>2014-07-14T08:28:29Z</time>
      </trkpt>
      <trkpt lat="44.66583" lon="6.73565">
        <ele>1573.5</ele>
        <time>2014-07-14T08:29:51Z</time>
      </trkpt>
      <trkpt lat="44.66579" lon="6.73564">
        <ele>1574.4</ele>
        <time>2014-07-14T08:29:52Z</time>
      </trkpt>
      <trkpt lat="44.66523" lon="6.7354">
        <ele>1594.5</ele>
        <time>2014-07-14T08:31:17Z</time>
      </trkpt>
      <trkpt lat="44.66487" lon="6.73535">
        <ele>1602.1</ele>
        <time>2014-07-14T08:31:18Z</time>
      </trkpt>
      <trkpt lat="44.66504" lon="6.7348">
        <ele>1605.8</ele>
        <time>2014-07-14T08:34:33Z</time>
      </trkpt>
      <trkpt lat="44.66472" lon="6.73379">
        <ele>1615</ele>
        <time>2014-07-14T08:35:49Z</time>
      </trkpt>
      <trkpt lat="44.66469" lon="6.73376">
        <ele>1615.4</ele>
        <time>2014-07-14T08:35:50Z</time>
      </trkpt>
      <trkpt lat="44.66403" lon="6.73312">
        <ele>1632.6</ele>
        <time>2014-07-14T08:37:00Z</time>
      </trkpt>
      <trkpt lat="44.664" lon="6.7331">
        <ele>1633.3</ele>
        <time>2014-07-14T08:37:01Z</time>
      </trkpt>
      <trkpt lat="44.66331" lon="6.73249">
        <ele>1648</ele>
        <time>2014-07-14T08:38:07Z</time>
      </trkpt>
      <trkpt lat="44.66328" lon="6.73246">
        <ele>1648.5</ele>
        <time>2014-07-14T08:38:08Z</time>
      </trkpt>
      <trkpt lat="44.66226" lon="6.73148">
        <ele>1669.6</ele>
        <time>2014-07-14T08:40:56Z</time>
      </trkpt>
      <trkpt lat="44.6626" lon="6.73121">
        <ele>1662.1</ele>
        <time>2014-07-14T08:41:35Z</time>
      </trkpt>
      <trkpt lat="44.66304" lon="6.7311">
        <ele>1647.3</ele>
        <time>2014-07-14T08:42:15Z</time>
      </trkpt>
      <trkpt lat="44.66307" lon="6.7311">
        <ele>1646.9</ele>
        <time>2014-07-14T08:42:16Z</time>
      </trkpt>
      <trkpt lat="44.66362" lon="6.73104">
        <ele>1644.8</ele>
        <time>2014-07-14T08:43:16Z</time>
      </trkpt>
      <trkpt lat="44.66551" lon="6.73093">
        <ele>1610.8</ele>
        <time>2014-07-14T08:47:27Z</time>
      </trkpt>
      <trkpt lat="44.66582" lon="6.73134">
        <ele>1584.4</ele>
        <time>2014-07-14T08:50:25Z</time>
      </trkpt>
      <trkpt lat="44.66583" lon="6.73144">
        <ele>1583.9</ele>
        <time>2014-07-14T08:50:27Z</time>
      </trkpt>
      <trkpt lat="44.66624" lon="6.73159">
        <ele>1569.9</ele>
        <time>2014-07-14T08:51:34Z</time>
      </trkpt>
      <trkpt lat="44.667" lon="6.73109">
        <ele>1550.5</ele>
        <time>2014-07-14T08:53:16Z</time>
      </trkpt>
      <trkpt lat="44.66703" lon="6.73106">
        <ele>1550.5</ele>
        <time>2014-07-14T08:53:17Z</time>
      </trkpt>
      <trkpt lat="44.6677" lon="6.73042">
        <ele>1532</ele>
        <time>2014-07-14T08:54:45Z</time>
      </trkpt>
      <trkpt lat="44.66772" lon="6.73039">
        <ele>1531.5</ele>
        <time>2014-07-14T08:54:46Z</time>
      </trkpt>
      <trkpt lat="44.668" lon="6.72928">
        <ele>1530.6</ele>
        <time>2014-07-14T08:55:59Z</time>
      </trkpt>
      <trkpt lat="44.66801" lon="6.72923">
        <ele>1530.9</ele>
        <time>2014-07-14T08:56:00Z</time>
      </trkpt>
      <trkpt lat="44.66814" lon="6.72815">
        <ele>1515</ele>
        <time>2014-07-14T08:57:06Z</time>
      </trkpt>
      <trkpt lat="44.66831" lon="6.72803">
        <ele>1506.1</ele>
        <time>2014-07-14T09:03:03Z</time>
      </trkpt>
      <trkpt lat="44.66805" lon="6.72693">
        <ele>1528</ele>
        <time>2014-07-14T09:04:15Z</time>
      </trkpt>
      <trkpt lat="44.66804" lon="6.72688">
        <ele>1528.5</ele>
        <time>2014-07-14T09:04:16Z</time>
      </trkpt>
      <trkpt lat="44.66811" lon="6.72575">
        <ele>1541.3</ele>
        <time>2014-07-14T09:05:40Z</time>
      </trkpt>
      <trkpt lat="44.66812" lon="6.7257">
        <ele>1541.8</ele>
        <time>2014-07-14T09:05:41Z</time>
      </trkpt>
      <trkpt lat="44.66835" lon="6.72458">
        <ele>1553.1</ele>
        <time>2014-07-14T09:06:35Z</time>
      </trkpt>
      <trkpt lat="44.66841" lon="6.72399">
        <ele>1555.1</ele>
        <time>2014-07-14T09:07:18Z</time>
      </trkpt>
      <trkpt lat="44.66841" lon="6.72393">
        <ele>1555.6</ele>
        <time>2014-07-14T09:07:19Z</time>
      </trkpt>
      <trkpt lat="44.6684" lon="6.7228">
        <ele>1565.6</ele>
        <time>2014-07-14T09:08:10Z</time>
      </trkpt>
      <trkpt lat="44.66823" lon="6.72225">
        <ele>1590.3</ele>
        <time>2014-07-14T09:11:05Z</time>
      </trkpt>
      <trkpt lat="44.66824" lon="6.7222">
        <ele>1591.4</ele>
        <time>2014-07-14T09:11:06Z</time>
      </trkpt>
      <trkpt lat="44.66855" lon="6.7211">
        <ele>1606.1</ele>
        <time>2014-07-14T09:12:27Z</time>
      </trkpt>
      <trkpt lat="44.66856" lon="6.72107">
        <ele>1606.5</ele>
        <time>2014-07-14T09:12:28Z</time>
      </trkpt>
      <trkpt lat="44.6686" lon="6.72044">
        <ele>1610.9</ele>
        <time>2014-07-14T09:14:55Z</time>
      </trkpt>
      <trkpt lat="44.66824" lon="6.71942">
        <ele>1620.9</ele>
        <time>2014-07-14T09:15:59Z</time>
      </trkpt>
      <trkpt lat="44.66822" lon="6.71938">
        <ele>1621.1</ele>
        <time>2014-07-14T09:16:00Z</time>
      </trkpt>
      <trkpt lat="44.66761" lon="6.71856">
        <ele>1630.6</ele>
        <time>2014-07-14T09:17:17Z</time>
      </trkpt>
      <trkpt lat="44.66759" lon="6.71852">
        <ele>1631</ele>
        <time>2014-07-14T09:17:18Z</time>
      </trkpt>
      <trkpt lat="44.66735" lon="6.71737">
        <ele>1645.5</ele>
        <time>2014-07-14T09:18:28Z</time>
      </trkpt>
      <trkpt lat="44.66734" lon="6.71734">
        <ele>1645.6</ele>
        <time>2014-07-14T09:18:29Z</time>
      </trkpt>
      <trkpt lat="44.66661" lon="6.71671">
        <ele>1653.5</ele>
        <time>2014-07-14T09:19:43Z</time>
      </trkpt>
      <trkpt lat="44.66658" lon="6.71668">
        <ele>1654.6</ele>
        <time>2014-07-14T09:19:44Z</time>
      </trkpt>
      <trkpt lat="44.66588" lon="6.71606">
        <ele>1658</ele>
        <time>2014-07-14T09:20:52Z</time>
      </trkpt>
      <trkpt lat="44.66585" lon="6.71602">
        <ele>1657.9</ele>
        <time>2014-07-14T09:20:53Z</time>
      </trkpt>
      <trkpt lat="44.66513" lon="6.71545">
        <ele>1653.6</ele>
        <time>2014-07-14T09:21:54Z</time>
      </trkpt>
      <trkpt lat="44.66468" lon="6.71549">
        <ele>1646</ele>
        <time>2014-07-14T09:22:36Z</time>
      </trkpt>
      <trkpt lat="44.66465" lon="6.71549">
        <ele>1645.5</ele>
        <time>2014-07-14T09:22:37Z</time>
      </trkpt>
      <trkpt lat="44.66386" lon="6.71584">
        <ele>1641.3</ele>
        <time>2014-07-14T09:23:40Z</time>
      </trkpt>
      <trkpt lat="44.66382" lon="6.71585">
        <ele>1641.5</ele>
        <time>2014-07-14T09:23:41Z</time>
      </trkpt>
      <trkpt lat="44.663" lon="6.71603">
        <ele>1651.8</ele>
        <time>2014-07-14T09:24:42Z</time>
      </trkpt>
      <trkpt lat="44.66297" lon="6.71604">
        <ele>1652</ele>
        <time>2014-07-14T09:24:43Z</time>
      </trkpt>
      <trkpt lat="44.66234" lon="6.71553">
        <ele>1678.5</ele>
        <time>2014-07-14T09:26:06Z</time>
      </trkpt>
      <trkpt lat="44.66233" lon="6.71549">
        <ele>1677.8</ele>
        <time>2014-07-14T09:26:07Z</time>
      </trkpt>
      <trkpt lat="44.66195" lon="6.7145">
        <ele>1653</ele>
        <time>2014-07-14T09:27:39Z</time>
      </trkpt>
      <trkpt lat="44.66196" lon="6.71441">
        <ele>1651.8</ele>
        <time>2014-07-14T09:27:41Z</time>
      </trkpt>
      <trkpt lat="44.66185" lon="6.71328">
        <ele>1636.3</ele>
        <time>2014-07-14T09:29:00Z</time>
      </trkpt>
      <trkpt lat="44.66183" lon="6.71323">
        <ele>1635.6</ele>
        <time>2014-07-14T09:29:01Z</time>
      </trkpt>
      <trkpt lat="44.66184" lon="6.71265">
        <ele>1638.4</ele>
        <time>2014-07-14T09:32:08Z</time>
      </trkpt>
      <trkpt lat="44.66261" lon="6.71279">
        <ele>1628.6</ele>
        <time>2014-07-14T09:33:32Z</time>
      </trkpt>
      <trkpt lat="44.66264" lon="6.71282">
        <ele>1628</ele>
        <time>2014-07-14T09:33:33Z</time>
      </trkpt>
      <trkpt lat="44.66312" lon="6.71209">
        <ele>1611.8</ele>
        <time>2014-07-14T09:35:05Z</time>
      </trkpt>
      <trkpt lat="44.66314" lon="6.71205">
        <ele>1612.4</ele>
        <time>2014-07-14T09:35:06Z</time>
      </trkpt>
      <trkpt lat="44.66374" lon="6.71124">
        <ele>1613.3</ele>
        <time>2014-07-14T09:36:18Z</time>
      </trkpt>
      <trkpt lat="44.66377" lon="6.71122">
        <ele>1613.3</ele>
        <time>2014-07-14T09:36:19Z</time>
      </trkpt>
      <trkpt lat="44.66452" lon="6.71079">
        <ele>1609.5</ele>
        <time>2014-07-14T09:37:39Z</time>
      </trkpt>
      <trkpt lat="44.66456" lon="6.71077">
        <ele>1609.1</ele>
        <time>2014-07-14T09:37:40Z</time>
      </trkpt>
      <trkpt lat="44.66538" lon="6.71051">
        <ele>1599</ele>
        <time>2014-07-14T09:38:53Z</time>
      </trkpt>
      <trkpt lat="44.6654" lon="6.71049">
        <ele>1596.8</ele>
        <time>2014-07-14T09:38:54Z</time>
      </trkpt>
      <trkpt lat="44.66598" lon="6.70964">
        <ele>1579.1</ele>
        <time>2014-07-14T09:40:04Z</time>
      </trkpt>
      <trkpt lat="44.66601" lon="6.70961">
        <ele>1579</ele>
        <time>2014-07-14T09:40:05Z</time>
      </trkpt>
      <trkpt lat="44.66671" lon="6.70897">
        <ele>1577.9</ele>
        <time>2014-07-14T09:41:13Z</time>
      </trkpt>
      <trkpt lat="44.66674" lon="6.70895">
        <ele>1577.9</ele>
        <time>2014-07-14T09:41:14Z</time>
      </trkpt>
      <trkpt lat="44.66713" lon="6.70873">
        <ele>1583.5</ele>
        <time>2014-07-14T09:42:22Z</time>
      </trkpt>
      <trkpt lat="44.66791" lon="6.70836">
        <ele>1552.6</ele>
        <time>2014-07-14T09:47:32Z</time>
      </trkpt>
      <trkpt lat="44.66794" lon="6.70833">
        <ele>1552.9</ele>
        <time>2014-07-14T09:47:33Z</time>
      </trkpt>
      <trkpt lat="44.66848" lon="6.70791">
        <ele>1553</ele>
        <time>2014-07-14T09:48:10Z</time>
      </trkpt>
      <trkpt lat="44.66879" lon="6.70749">
        <ele>1549.3</ele>
        <time>2014-07-14T09:48:53Z</time>
      </trkpt>
      <trkpt lat="44.66905" lon="6.70699">
        <ele>1551.9</ele>
        <time>2014-07-14T09:49:23Z</time>
      </trkpt>
      <trkpt lat="44.66923" lon="6.70646">
        <ele>1548</ele>
        <time>2014-07-14T09:50:03Z</time>
      </trkpt>
      <trkpt lat="44.66925" lon="6.70641">
        <ele>1548</ele>
        <time>2014-07-14T09:50:04Z</time>
      </trkpt>
      <trkpt lat="44.6698" lon="6.70549">
        <ele>1557</ele>
        <time>2014-07-14T09:51:04Z</time>
      </trkpt>
      <trkpt lat="44.67002" lon="6.70497">
        <ele>1557.4</ele>
        <time>2014-07-14T09:51:40Z</time>
      </trkpt>
      <trkpt lat="44.67004" lon="6.70493">
        <ele>1557.4</ele>
        <time>2014-07-14T09:51:41Z</time>
      </trkpt>
      <trkpt lat="44.67001" lon="6.70378">
        <ele>1552.5</ele>
        <time>2014-07-14T09:53:05Z</time>
      </trkpt>
      <trkpt lat="44.67" lon="6.70373">
        <ele>1552</ele>
        <time>2014-07-14T09:53:06Z</time>
      </trkpt>
      <trkpt lat="44.66943" lon="6.7029">
        <ele>1539.6</ele>
        <time>2014-07-14T09:54:19Z</time>
      </trkpt>
      <trkpt lat="44.6694" lon="6.70288">
        <ele>1539.3</ele>
        <time>2014-07-14T09:54:20Z</time>
      </trkpt>
      <trkpt lat="44.66879" lon="6.7022">
        <ele>1527.9</ele>
        <time>2014-07-14T09:55:21Z</time>
      </trkpt>
      <trkpt lat="44.66879" lon="6.70218">
        <ele>1527.6</ele>
        <time>2014-07-14T09:55:22Z</time>
      </trkpt>
      <trkpt lat="44.66848" lon="6.70114">
        <ele>1515.6</ele>
        <time>2014-07-14T09:56:54Z</time>
      </trkpt>
      <trkpt lat="44.66845" lon="6.7011">
        <ele>1515.1</ele>
        <time>2014-07-14T09:56:55Z</time>
      </trkpt>
      <trkpt lat="44.66789" lon="6.70026">
        <ele>1506.3</ele>
        <time>2014-07-14T09:57:55Z</time>
      </trkpt>
      <trkpt lat="44.66763" lon="6.69975">
        <ele>1504</ele>
        <time>2014-07-14T09:58:30Z</time>
      </trkpt>
      <trkpt lat="44.66761" lon="6.69971">
        <ele>1503.8</ele>
        <time>2014-07-14T09:58:31Z</time>
      </trkpt>
      <trkpt lat="44.66737" lon="6.69857">
        <ele>1498.6</ele>
        <time>2014-07-14T09:59:43Z</time>
      </trkpt>
      <trkpt lat="44.66736" lon="6.69852">
        <ele>1498.6</ele>
        <time>2014-07-14T09:59:44Z</time>
      </trkpt>
      <trkpt lat="44.66732" lon="6.69742">
        <ele>1504.3</ele>
        <time>2014-07-14T10:01:06Z</time>
      </trkpt>
      <trkpt lat="44.6677" lon="6.69713">
        <ele>1483.8</ele>
        <time>2014-07-14T10:05:14Z</time>
      </trkpt>
      <trkpt lat="44.66773" lon="6.69708">
        <ele>1482.9</ele>
        <time>2014-07-14T10:05:15Z</time>
      </trkpt>
      <trkpt lat="44.66761" lon="6.69596">
        <ele>1472.9</ele>
        <time>2014-07-14T10:06:27Z</time>
      </trkpt>
      <trkpt lat="44.66758" lon="6.69592">
        <ele>1472.4</ele>
        <time>2014-07-14T10:06:28Z</time>
      </trkpt>
      <trkpt lat="44.6672" lon="6.69504">
        <ele>1474.8</ele>
        <time>2014-07-14T10:07:06Z</time>
      </trkpt>
      <trkpt lat="44.66724" lon="6.69443">
        <ele>1479.4</ele>
        <time>2014-07-14T10:07:46Z</time>
      </trkpt>
      <trkpt lat="44.66724" lon="6.69439">
        <ele>1479.4</ele>
        <time>2014-07-14T10:07:47Z</time>
      </trkpt>
      <trkpt lat="44.66729" lon="6.69326">
        <ele>1462.5</ele>
        <time>2014-07-14T10:09:00Z</time>
      </trkpt>
      <trkpt lat="44.66728" lon="6.69321">
        <ele>1461.9</ele>
        <time>2014-07-14T10:09:01Z</time>
      </trkpt>
      <trkpt lat="44.66693" lon="6.69216">
        <ele>1467.4</ele>
        <time>2014-07-14T10:10:00Z</time>
      </trkpt>
      <trkpt lat="44.66678" lon="6.69162">
        <ele>1469.8</ele>
        <time>2014-07-14T10:10:30Z</time>
      </trkpt>
      <trkpt lat="44.66677" lon="6.69156">
        <ele>1470</ele>
        <time>2014-07-14T10:10:31Z</time>
      </trkpt>
      <trkpt lat="44.66648" lon="6.69044">
        <ele>1470.4</ele>
        <time>2014-07-14T10:11:27Z</time>
      </trkpt>
      <trkpt lat="44.66626" lon="6.68994">
        <ele>1476.8</ele>
        <time>2014-07-14T10:11:56Z</time>
      </trkpt>
      <trkpt lat="44.66624" lon="6.6899">
        <ele>1477.5</ele>
        <time>2014-07-14T10:11:57Z</time>
      </trkpt>
      <trkpt lat="44.66636" lon="6.68897">
        <ele>1494.9</ele>
        <time>2014-07-14T10:12:58Z</time>
      </trkpt>
      <trkpt lat="44.66637" lon="6.68897">
        <ele>1494.8</ele>
        <time>2014-07-14T10:12:59Z</time>
      </trkpt>
      <trkpt lat="44.66596" lon="6.68862">
        <ele>1482.4</ele>
        <time>2014-07-14T10:14:15Z</time>
      </trkpt>
      <trkpt lat="44.6654" lon="6.68777">
        <ele>1480.6</ele>
        <time>2014-07-14T10:15:20Z</time>
      </trkpt>
      <trkpt lat="44.66538" lon="6.68772">
        <ele>1481.5</ele>
        <time>2014-07-14T10:15:21Z</time>
      </trkpt>
      <trkpt lat="44.665" lon="6.68667">
        <ele>1481.8</ele>
        <time>2014-07-14T10:16:23Z</time>
      </trkpt>
      <trkpt lat="44.66499" lon="6.68663">
        <ele>1481.9</ele>
        <time>2014-07-14T10:16:24Z</time>
      </trkpt>
      <trkpt lat="44.66447" lon="6.68573">
        <ele>1503.3</ele>
        <time>2014-07-14T10:17:58Z</time>
      </trkpt>
      <trkpt lat="44.66447" lon="6.68571">
        <ele>1503</ele>
        <time>2014-07-14T10:17:59Z</time>
      </trkpt>
      <trkpt lat="44.6644" lon="6.68508">
        <ele>1485.5</ele>
        <time>2014-07-14T10:19:00Z</time>
      </trkpt>
      <trkpt lat="44.6638" lon="6.68427">
        <ele>1473.3</ele>
        <time>2014-07-14T10:20:07Z</time>
      </trkpt>
      <trkpt lat="44.66378" lon="6.68424">
        <ele>1473</ele>
        <time>2014-07-14T10:20:08Z</time>
      </trkpt>
      <trkpt lat="44.66345" lon="6.68316">
        <ele>1482.8</ele>
        <time>2014-07-14T10:21:00Z</time>
      </trkpt>
      <trkpt lat="44.66322" lon="6.68264">
        <ele>1472.5</ele>
        <time>2014-07-14T10:21:36Z</time>
      </trkpt>
      <trkpt lat="44.66321" lon="6.68261">
        <ele>1471.8</ele>
        <time>2014-07-14T10:21:37Z</time>
      </trkpt>
      <trkpt lat="44.6627" lon="6.68168">
        <ele>1461.5</ele>
        <time>2014-07-14T10:22:40Z</time>
      </trkpt>
      <trkpt lat="44.66269" lon="6.68163">
        <ele>1461.3</ele>
        <time>2014-07-14T10:22:41Z</time>
      </trkpt>
      <trkpt lat="44.66225" lon="6.68064">
        <ele>1458.4</ele>
        <time>2014-07-14T10:23:40Z</time>
      </trkpt>
      <trkpt lat="44.66201" lon="6.68014">
        <ele>1456.3</ele>
        <time>2014-07-14T10:24:18Z</time>
      </trkpt>
      <trkpt lat="44.662" lon="6.68009">
        <ele>1456.5</ele>
        <time>2014-07-14T10:24:19Z</time>
      </trkpt>
      <trkpt lat="44.66169" lon="6.67901">
        <ele>1454.9</ele>
        <time>2014-07-14T10:25:22Z</time>
      </trkpt>
      <trkpt lat="44.66168" lon="6.67895">
        <ele>1454.4</ele>
        <time>2014-07-14T10:25:23Z</time>
      </trkpt>
      <trkpt lat="44.66143" lon="6.67785">
        <ele>1451.1</ele>
        <time>2014-07-14T10:26:25Z</time>
      </trkpt>
      <trkpt lat="44.66141" lon="6.6778">
        <ele>1451.1</ele>
        <time>2014-07-14T10:26:26Z</time>
      </trkpt>
      <trkpt lat="44.66106" lon="6.67672">
        <ele>1451.6</ele>
        <time>2014-07-14T10:27:30Z</time>
      </trkpt>
      <trkpt lat="44.66104" lon="6.67667">
        <ele>1451.4</ele>
        <time>2014-07-14T10:27:31Z</time>
      </trkpt>
      <trkpt lat="44.66055" lon="6.67577">
        <ele>1449.1</ele>
        <time>2014-07-14T10:28:33Z</time>
      </trkpt>
      <trkpt lat="44.6605" lon="6.67569">
        <ele>1449</ele>
        <time>2014-07-14T10:28:35Z</time>
      </trkpt>
      <trkpt lat="44.65974" lon="6.67452">
        <ele>1439.4</ele>
        <time>2014-07-14T10:30:23Z</time>
      </trkpt>
      <trkpt lat="44.6594" lon="6.6741">
        <ele>1443</ele>
        <time>2014-07-14T10:30:49Z</time>
      </trkpt>
      <trkpt lat="44.65901" lon="6.67378">
        <ele>1445.5</ele>
        <time>2014-07-14T10:31:09Z</time>
      </trkpt>
      <trkpt lat="44.65862" lon="6.67371">
        <ele>1446.8</ele>
        <time>2014-07-14T10:31:32Z</time>
      </trkpt>
      <trkpt lat="44.6585" lon="6.67375">
        <ele>1446.5</ele>
        <time>2014-07-14T10:31:41Z</time>
      </trkpt>
      <trkpt lat="44.65785" lon="6.67393">
        <ele>1446</ele>
        <time>2014-07-14T10:32:34Z</time>
      </trkpt>
      <trkpt lat="44.65722" lon="6.67597">
        <ele>1447.1</ele>
        <time>2014-07-14T10:32:49Z</time>
      </trkpt>
      <trkpt lat="44.65496" lon="6.6777">
        <ele>1443.6</ele>
        <time>2014-07-14T10:39:19Z</time>
      </trkpt>
      <trkpt lat="44.65472" lon="6.6768">
        <ele>1413.5</ele>
        <time>2014-07-14T10:41:51Z</time>
      </trkpt>
      <trkpt lat="44.65393" lon="6.6758">
        <ele>1413.5</ele>
        <time>2014-07-14T10:41:52Z</time>
      </trkpt>
      <trkpt lat="44.65456" lon="6.67444">
        <ele>1409.9</ele>
        <time>2014-07-14T10:43:28Z</time>
      </trkpt>
      <trkpt lat="44.65363" lon="6.67313">
        <ele>1405.1</ele>
        <time>2014-07-14T10:43:58Z</time>
      </trkpt>
      <trkpt lat="44.65381" lon="6.67216">
        <ele>1401.5</ele>
        <time>2014-07-14T10:44:33Z</time>
      </trkpt>
      <trkpt lat="44.6536" lon="6.67221">
        <ele>1401.3</ele>
        <time>2014-07-14T10:44:34Z</time>
      </trkpt>
      <trkpt lat="44.65352" lon="6.67104">
        <ele>1393.9</ele>
        <time>2014-07-14T10:45:49Z</time>
      </trkpt>
      <trkpt lat="44.65352" lon="6.67099">
        <ele>1393</ele>
        <time>2014-07-14T10:45:50Z</time>
      </trkpt>
      <trkpt lat="44.65334" lon="6.66983">
        <ele>1373.6</ele>
        <time>2014-07-14T10:47:02Z</time>
      </trkpt>
      <trkpt lat="44.65334" lon="6.66978">
        <ele>1373</ele>
        <time>2014-07-14T10:47:03Z</time>
      </trkpt>
      <trkpt lat="44.65319" lon="6.66865">
        <ele>1362.1</ele>
        <time>2014-07-14T10:48:10Z</time>
      </trkpt>
      <trkpt lat="44.65318" lon="6.6686">
        <ele>1361.9</ele>
        <time>2014-07-14T10:48:11Z</time>
      </trkpt>
      <trkpt lat="44.65324" lon="6.66767">
        <ele>1345.4</ele>
        <time>2014-07-14T10:51:05Z</time>
      </trkpt>
      <trkpt lat="44.65328" lon="6.66767">
        <ele>1344.5</ele>
        <time>2014-07-14T10:51:06Z</time>
      </trkpt>
      <trkpt lat="44.6537" lon="6.66763">
        <ele>1336.5</ele>
        <time>2014-07-14T10:52:15Z</time>
      </trkpt>
      <trkpt lat="44.65414" lon="6.66753">
        <ele>1321.5</ele>
        <time>2014-07-14T10:53:16Z</time>
      </trkpt>
      <trkpt lat="44.65454" lon="6.66779">
        <ele>1303.6</ele>
        <time>2014-07-14T10:56:52Z</time>
      </trkpt>
      <trkpt lat="44.65491" lon="6.66811">
        <ele>1289.6</ele>
        <time>2014-07-14T10:58:01Z</time>
      </trkpt>
      <trkpt lat="44.65566" lon="6.66754">
        <ele>1267.1</ele>
        <time>2014-07-14T10:59:22Z</time>
      </trkpt>
      <trkpt lat="44.65569" lon="6.66752">
        <ele>1266.5</ele>
        <time>2014-07-14T10:59:23Z</time>
      </trkpt>
      <trkpt lat="44.65613" lon="6.66758">
        <ele>1242.6</ele>
        <time>2014-07-14T11:02:09Z</time>
      </trkpt>
      <trkpt lat="44.65694" lon="6.66731">
        <ele>1219.9</ele>
        <time>2014-07-14T11:03:44Z</time>
      </trkpt>
      <trkpt lat="44.65698" lon="6.66729">
        <ele>1219.1</ele>
        <time>2014-07-14T11:03:45Z</time>
      </trkpt>
      <trkpt lat="44.65762" lon="6.6666">
        <ele>1203.5</ele>
        <time>2014-07-14T11:05:03Z</time>
      </trkpt>
      <trkpt lat="44.65764" lon="6.66657">
        <ele>1203.1</ele>
        <time>2014-07-14T11:05:04Z</time>
      </trkpt>
      <trkpt lat="44.65807" lon="6.66556">
        <ele>1182.9</ele>
        <time>2014-07-14T11:06:15Z</time>
      </trkpt>
      <trkpt lat="44.65809" lon="6.66553">
        <ele>1181.5</ele>
        <time>2014-07-14T11:06:16Z</time>
      </trkpt>
      <trkpt lat="44.65832" lon="6.66444">
        <ele>1164.5</ele>
        <time>2014-07-14T11:07:30Z</time>
      </trkpt>
      <trkpt lat="44.65833" lon="6.66439">
        <ele>1164</ele>
        <time>2014-07-14T11:07:31Z</time>
      </trkpt>
      <trkpt lat="44.65847" lon="6.66326">
        <ele>1148.6</ele>
        <time>2014-07-14T11:08:43Z</time>
      </trkpt>
      <trkpt lat="44.65848" lon="6.66321">
        <ele>1148</ele>
        <time>2014-07-14T11:08:44Z</time>
      </trkpt>
      <trkpt lat="44.65872" lon="6.66207">
        <ele>1133.3</ele>
        <time>2014-07-14T11:09:54Z</time>
      </trkpt>
      <trkpt lat="44.65873" lon="6.66203">
        <ele>1132.8</ele>
        <time>2014-07-14T11:09:55Z</time>
      </trkpt>
      <trkpt lat="44.65925" lon="6.66111">
        <ele>1119.1</ele>
        <time>2014-07-14T11:11:08Z</time>
      </trkpt>
      <trkpt lat="44.65927" lon="6.66107">
        <ele>1118.6</ele>
        <time>2014-07-14T11:11:09Z</time>
      </trkpt>
      <trkpt lat="44.65975" lon="6.66008">
        <ele>1106.5</ele>
        <time>2014-07-14T11:12:19Z</time>
      </trkpt>
      <trkpt lat="44.65977" lon="6.66004">
        <ele>1106</ele>
        <time>2014-07-14T11:12:20Z</time>
      </trkpt>
      <trkpt lat="44.66018" lon="6.65913">
        <ele>1096.4</ele>
        <time>2014-07-14T11:13:21Z</time>
      </trkpt>
      <trkpt lat="44.66033" lon="6.65881">
        <ele>1091.9</ele>
        <time>2014-07-14T11:13:22Z</time>
      </trkpt>
      <trkpt lat="44.66054" lon="6.65832">
        <ele>1086</ele>
        <time>2014-07-14T11:14:23Z</time>
      </trkpt>
      <trkpt lat="44.66066" lon="6.65784">
        <ele>1081.9</ele>
        <time>2014-07-14T11:14:24Z</time>
      </trkpt>
      <trkpt lat="44.66067" lon="6.65724">
        <ele>1082.3</ele>
        <time>2014-07-14T11:15:25Z</time>
      </trkpt>
      <trkpt lat="44.66057" lon="6.65677">
        <ele>1073.3</ele>
        <time>2014-07-14T11:15:26Z</time>
      </trkpt>
      <trkpt lat="44.66059" lon="6.6561">
        <ele>1065.5</ele>
        <time>2014-07-14T11:16:02Z</time>
      </trkpt>
      <trkpt lat="44.66056" lon="6.65595">
        <ele>1063.9</ele>
        <time>2014-07-14T11:16:36Z</time>
      </trkpt>
      <trkpt lat="44.66049" lon="6.65545">
        <ele>1060.1</ele>
        <time>2014-07-14T11:16:37Z</time>
      </trkpt>
      <trkpt lat="44.66046" lon="6.65471">
        <ele>1052.5</ele>
        <time>2014-07-14T11:17:18Z</time>
      </trkpt>
      <trkpt lat="44.66041" lon="6.65413">
        <ele>1048.8</ele>
        <time>2014-07-14T11:18:19Z</time>
      </trkpt>
      <trkpt lat="44.66041" lon="6.65407">
        <ele>1048.4</ele>
        <time>2014-07-14T11:18:20Z</time>
      </trkpt>
      <trkpt lat="44.6607" lon="6.65348">
        <ele>1043.1</ele>
        <time>2014-07-14T11:18:49Z</time>
      </trkpt>
      <trkpt lat="44.66096" lon="6.65299">
        <ele>1040.8</ele>
        <time>2014-07-14T11:19:47Z</time>
      </trkpt>
      <trkpt lat="44.66097" lon="6.65294">
        <ele>1040</ele>
        <time>2014-07-14T11:19:48Z</time>
      </trkpt>
      <trkpt lat="44.66107" lon="6.6518">
        <ele>1039.1</ele>
        <time>2014-07-14T11:21:03Z</time>
      </trkpt>
      <trkpt lat="44.66107" lon="6.65176">
        <ele>1038.9</ele>
        <time>2014-07-14T11:21:04Z</time>
      </trkpt>
      <trkpt lat="44.6615" lon="6.65161">
        <ele>1039.1</ele>
        <time>2014-07-14T11:23:08Z</time>
      </trkpt>
      <trkpt lat="44.66188" lon="6.65266">
        <ele>1045.9</ele>
        <time>2014-07-14T11:24:24Z</time>
      </trkpt>
      <trkpt lat="44.66189" lon="6.65271">
        <ele>1046.4</ele>
        <time>2014-07-14T11:24:25Z</time>
      </trkpt>
      <trkpt lat="44.66234" lon="6.65264">
        <ele>1050</ele>
        <time>2014-07-14T11:29:24Z</time>
      </trkpt>
      <trkpt lat="44.66308" lon="6.65316">
        <ele>1062</ele>
        <time>2014-07-14T11:30:33Z</time>
      </trkpt>
      <trkpt lat="44.6631" lon="6.65319">
        <ele>1062.5</ele>
        <time>2014-07-14T11:30:34Z</time>
      </trkpt>
      <trkpt lat="44.66356" lon="6.65419">
        <ele>1072.9</ele>
        <time>2014-07-14T11:31:54Z</time>
      </trkpt>
      <trkpt lat="44.66358" lon="6.65423">
        <ele>1073.5</ele>
        <time>2014-07-14T11:31:55Z</time>
      </trkpt>
      <trkpt lat="44.66391" lon="6.6553">
        <ele>1083.5</ele>
        <time>2014-07-14T11:32:41Z</time>
      </trkpt>
      <trkpt lat="44.6641" lon="6.65586">
        <ele>1087.9</ele>
        <time>2014-07-14T11:33:21Z</time>
      </trkpt>
      <trkpt lat="44.66411" lon="6.65589">
        <ele>1088.1</ele>
        <time>2014-07-14T11:33:22Z</time>
      </trkpt>
      <trkpt lat="44.6645" lon="6.65556">
        <ele>1091</ele>
        <time>2014-07-14T11:34:45Z</time>
      </trkpt>
      <trkpt lat="44.66465" lon="6.65446">
        <ele>1091.3</ele>
        <time>2014-07-14T11:36:06Z</time>
      </trkpt>
      <trkpt lat="44.66468" lon="6.65442">
        <ele>1091.1</ele>
        <time>2014-07-14T11:36:07Z</time>
      </trkpt>
      <trkpt lat="44.66509" lon="6.65343">
        <ele>1091.1</ele>
        <time>2014-07-14T11:37:14Z</time>
      </trkpt>
      <trkpt lat="44.66509" lon="6.65338">
        <ele>1091</ele>
        <time>2014-07-14T11:37:15Z</time>
      </trkpt>
      <trkpt lat="44.66516" lon="6.65293">
        <ele>1097</ele>
        <time>2014-07-09T07:15:26Z</time>
      </trkpt>
      <trkpt lat="44.66516" lon="6.65295">
        <ele>1096.7</ele>
        <time>2014-07-09T07:15:27Z</time>
      </trkpt>
      <trkpt lat="44.66505" lon="6.65389">
        <ele>1095.4</ele>
        <time>2014-07-09T07:18:13Z</time>
      </trkpt>
      <trkpt lat="44.66469" lon="6.65425">
        <ele>1095.8</ele>
        <time>2014-07-09T07:19:18Z</time>
      </trkpt>
      <trkpt lat="44.66443" lon="6.65461">
        <ele>1096.8</ele>
        <time>2014-07-09T07:19:19Z</time>
      </trkpt>
      <trkpt lat="44.66456" lon="6.65538">
        <ele>1097.6</ele>
        <time>2014-07-09T07:21:02Z</time>
      </trkpt>
      <trkpt lat="44.66456" lon="6.65543">
        <ele>1097.6</ele>
        <time>2014-07-09T07:21:03Z</time>
      </trkpt>
      <trkpt lat="44.66458" lon="6.65605">
        <ele>1098</ele>
        <time>2014-07-09T07:23:08Z</time>
      </trkpt>
      <trkpt lat="44.66479" lon="6.6572">
        <ele>1103.5</ele>
        <time>2014-07-09T07:24:05Z</time>
      </trkpt>
      <trkpt lat="44.66499" lon="6.65772">
        <ele>1104</ele>
        <time>2014-07-09T07:24:42Z</time>
      </trkpt>
      <trkpt lat="44.66501" lon="6.65775">
        <ele>1104</ele>
        <time>2014-07-09T07:24:43Z</time>
      </trkpt>
      <trkpt lat="44.66564" lon="6.65846">
        <ele>1102.5</ele>
        <time>2014-07-09T07:25:56Z</time>
      </trkpt>
      <trkpt lat="44.66567" lon="6.65848">
        <ele>1102.1</ele>
        <time>2014-07-09T07:25:57Z</time>
      </trkpt>
      <trkpt lat="44.6665" lon="6.65864">
        <ele>1100</ele>
        <time>2014-07-09T07:27:48Z</time>
      </trkpt>
      <trkpt lat="44.66652" lon="6.6586">
        <ele>1099.9</ele>
        <time>2014-07-09T07:27:49Z</time>
      </trkpt>
      <trkpt lat="44.66666" lon="6.6587">
        <ele>1099.9</ele>
        <time>2014-07-09T07:30:48Z</time>
      </trkpt>
      <trkpt lat="44.66671" lon="6.6592">
        <ele>1099.3</ele>
        <time>2014-07-09T07:30:49Z</time>
      </trkpt>
      <trkpt lat="44.66726" lon="6.65862">
        <ele>1085.3</ele>
        <time>2014-07-09T07:38:18Z</time>
      </trkpt>
      <trkpt lat="44.66785" lon="6.65781">
        <ele>1074.5</ele>
        <time>2014-07-09T07:39:30Z</time>
      </trkpt>
      <trkpt lat="44.66788" lon="6.65778">
        <ele>1074.5</ele>
        <time>2014-07-09T07:39:31Z</time>
      </trkpt>
      <trkpt lat="44.66858" lon="6.65719">
        <ele>1060</ele>
        <time>2014-07-09T07:40:39Z</time>
      </trkpt>
      <trkpt lat="44.66861" lon="6.65716">
        <ele>1059.5</ele>
        <time>2014-07-09T07:40:40Z</time>
      </trkpt>
      <trkpt lat="44.66903" lon="6.65619">
        <ele>1063</ele>
        <time>2014-07-09T07:41:41Z</time>
      </trkpt>
      <trkpt lat="44.66904" lon="6.65615">
        <ele>1063.3</ele>
        <time>2014-07-09T07:41:42Z</time>
      </trkpt>
      <trkpt lat="44.66908" lon="6.65499">
        <ele>1066.9</ele>
        <time>2014-07-09T07:42:52Z</time>
      </trkpt>
      <trkpt lat="44.66908" lon="6.65494">
        <ele>1066.8</ele>
        <time>2014-07-09T07:42:53Z</time>
      </trkpt>
      <trkpt lat="44.66945" lon="6.65391">
        <ele>1053</ele>
        <time>2014-07-09T07:44:16Z</time>
      </trkpt>
      <trkpt lat="44.66947" lon="6.65386">
        <ele>1052.8</ele>
        <time>2014-07-09T07:44:17Z</time>
      </trkpt>
      <trkpt lat="44.66978" lon="6.65277">
        <ele>1039.1</ele>
        <time>2014-07-09T07:45:20Z</time>
      </trkpt>
      <trkpt lat="44.66978" lon="6.65273">
        <ele>1038.5</ele>
        <time>2014-07-09T07:45:21Z</time>
      </trkpt>
      <trkpt lat="44.66967" lon="6.65157">
        <ele>1027.6</ele>
        <time>2014-07-09T07:46:33Z</time>
      </trkpt>
      <trkpt lat="44.66966" lon="6.65152">
        <ele>1026.8</ele>
        <time>2014-07-09T07:46:34Z</time>
      </trkpt>
      <trkpt lat="44.66974" lon="6.65092">
        <ele>1019.2</ele>
        <time>2014-07-09T07:52:42Z</time>
      </trkpt>
      <trkpt lat="44.66974" lon="6.64975">
        <ele>1010.5</ele>
        <time>2014-07-09T07:54:05Z</time>
      </trkpt>
      <trkpt lat="44.66973" lon="6.64971">
        <ele>1010.2</ele>
        <time>2014-07-09T07:54:06Z</time>
      </trkpt>
      <trkpt lat="44.66969" lon="6.64854">
        <ele>993.2</ele>
        <time>2014-07-09T07:55:02Z</time>
      </trkpt>
      <trkpt lat="44.66985" lon="6.64797">
        <ele>989.7</ele>
        <time>2014-07-09T07:55:31Z</time>
      </trkpt>
      <trkpt lat="44.66986" lon="6.64794">
        <ele>989.7</ele>
        <time>2014-07-09T07:55:32Z</time>
      </trkpt>
      <trkpt lat="44.66992" lon="6.64679">
        <ele>984.5</ele>
        <time>2014-07-09T07:56:43Z</time>
      </trkpt>
      <trkpt lat="44.66992" lon="6.64675">
        <ele>984</ele>
        <time>2014-07-09T07:56:44Z</time>
      </trkpt>
      <trkpt lat="44.66992" lon="6.64554">
        <ele>967.5</ele>
        <time>2014-07-09T07:57:43Z</time>
      </trkpt>
      <trkpt lat="44.66992" lon="6.64496">
        <ele>965.7</ele>
        <time>2014-07-09T07:58:17Z</time>
      </trkpt>
      <trkpt lat="44.66992" lon="6.64491">
        <ele>965.9</ele>
        <time>2014-07-09T07:58:18Z</time>
      </trkpt>
      <trkpt lat="44.67014" lon="6.64384">
        <ele>963.7</ele>
        <time>2014-07-09T07:59:29Z</time>
      </trkpt>
      <trkpt lat="44.67016" lon="6.6438">
        <ele>964.4</ele>
        <time>2014-07-09T07:59:30Z</time>
      </trkpt>
      <trkpt lat="44.67057" lon="6.64279">
        <ele>954.7</ele>
        <time>2014-07-09T08:00:31Z</time>
      </trkpt>
      <trkpt lat="44.67058" lon="6.64275">
        <ele>954.5</ele>
        <time>2014-07-09T08:00:32Z</time>
      </trkpt>
      <trkpt lat="44.67058" lon="6.64344">
        <ele>937</ele>
        <time>2014-07-09T08:02:13Z</time>
      </trkpt>
      <trkpt lat="44.67091" lon="6.64453">
        <ele>932.5</ele>
        <time>2014-07-09T08:03:21Z</time>
      </trkpt>
      <trkpt lat="44.67092" lon="6.64457">
        <ele>931.5</ele>
        <time>2014-07-09T08:03:22Z</time>
      </trkpt>
      <trkpt lat="44.67159" lon="6.64523">
        <ele>931.2</ele>
        <time>2014-07-09T08:04:08Z</time>
      </trkpt>
      <trkpt lat="44.67202" lon="6.64534">
        <ele>928.9</ele>
        <time>2014-07-09T08:04:59Z</time>
      </trkpt>
      <trkpt lat="44.67205" lon="6.64531">
        <ele>929</ele>
        <time>2014-07-09T08:05:00Z</time>
      </trkpt>
      <trkpt lat="44.6727" lon="6.64459">
        <ele>938.4</ele>
        <time>2014-07-09T08:06:06Z</time>
      </trkpt>
      <trkpt lat="44.67273" lon="6.64459">
        <ele>938.7</ele>
        <time>2014-07-09T08:06:07Z</time>
      </trkpt>
      <trkpt lat="44.67358" lon="6.64463">
        <ele>951.2</ele>
        <time>2014-07-09T08:07:26Z</time>
      </trkpt>
      <trkpt lat="44.67362" lon="6.64465">
        <ele>951.9</ele>
        <time>2014-07-09T08:07:27Z</time>
      </trkpt>
      <trkpt lat="44.67442" lon="6.64488">
        <ele>964.9</ele>
        <time>2014-07-09T08:08:33Z</time>
      </trkpt>
      <trkpt lat="44.67444" lon="6.64491">
        <ele>965.2</ele>
        <time>2014-07-09T08:08:34Z</time>
      </trkpt>
      <trkpt lat="44.67524" lon="6.64533">
        <ele>980.7</ele>
        <time>2014-07-09T08:09:49Z</time>
      </trkpt>
      <trkpt lat="44.67528" lon="6.64533">
        <ele>981.4</ele>
        <time>2014-07-09T08:09:50Z</time>
      </trkpt>
      <trkpt lat="44.67562" lon="6.6457">
        <ele>996.7</ele>
        <time>2014-07-09T08:11:26Z</time>
      </trkpt>
      <trkpt lat="44.67636" lon="6.64628">
        <ele>1010.5</ele>
        <time>2014-07-09T08:12:37Z</time>
      </trkpt>
      <trkpt lat="44.67639" lon="6.6463">
        <ele>1010.5</ele>
        <time>2014-07-09T08:12:38Z</time>
      </trkpt>
      <trkpt lat="44.67681" lon="6.64613">
        <ele>1010.4</ele>
        <time>2014-07-09T08:13:39Z</time>
      </trkpt>
      <trkpt lat="44.67652" lon="6.64499">
        <ele>1019</ele>
        <time>2014-07-09T08:15:06Z</time>
      </trkpt>
      <trkpt lat="44.67651" lon="6.64494">
        <ele>1019</ele>
        <time>2014-07-09T08:15:07Z</time>
      </trkpt>
      <trkpt lat="44.67613" lon="6.64403">
        <ele>1021.2</ele>
        <time>2014-07-09T08:16:02Z</time>
      </trkpt>
      <trkpt lat="44.67604" lon="6.64354">
        <ele>1023.2</ele>
        <time>2014-07-09T08:16:30Z</time>
      </trkpt>
      <trkpt lat="44.67593" lon="6.64309">
        <ele>1025.8</ele>
        <time>2014-07-09T08:16:31Z</time>
      </trkpt>
      <trkpt lat="44.67586" lon="6.64233">
        <ele>1030.1</ele>
        <time>2014-07-09T08:17:10Z</time>
      </trkpt>
      <trkpt lat="44.67611" lon="6.64181">
        <ele>1033.9</ele>
        <time>2014-07-09T08:17:41Z</time>
      </trkpt>
      <trkpt lat="44.67612" lon="6.64179">
        <ele>1034</ele>
        <time>2014-07-09T08:17:42Z</time>
      </trkpt>
      <trkpt lat="44.67613" lon="6.64058">
        <ele>1035.1</ele>
        <time>2014-07-09T08:18:42Z</time>
      </trkpt>
      <trkpt lat="44.67613" lon="6.64056">
        <ele>1035.4</ele>
        <time>2014-07-09T08:18:43Z</time>
      </trkpt>
      <trkpt lat="44.67596" lon="6.63936">
        <ele>1033.3</ele>
        <time>2014-07-09T08:19:43Z</time>
      </trkpt>
      <trkpt lat="44.67596" lon="6.63934">
        <ele>1033.3</ele>
        <time>2014-07-09T08:19:44Z</time>
      </trkpt>
      <trkpt lat="44.67618" lon="6.63815">
        <ele>1032.1</ele>
        <time>2014-07-09T08:20:46Z</time>
      </trkpt>
      <trkpt lat="44.67618" lon="6.63813">
        <ele>1032.5</ele>
        <time>2014-07-09T08:20:47Z</time>
      </trkpt>
      <trkpt lat="44.67603" lon="6.63737">
        <ele>1036.3</ele>
        <time>2014-07-09T08:21:27Z</time>
      </trkpt>
      <trkpt lat="44.67596" lon="6.63721">
        <ele>1037</ele>
        <time>2014-07-09T08:22:03Z</time>
      </trkpt>
      <trkpt lat="44.67594" lon="6.63669">
        <ele>1038</ele>
        <time>2014-07-09T08:22:04Z</time>
      </trkpt>
      <trkpt lat="44.67581" lon="6.63601">
        <ele>1038.5</ele>
        <time>2014-07-09T08:22:39Z</time>
      </trkpt>
      <trkpt lat="44.67608" lon="6.63651">
        <ele>1045.1</ele>
        <time>2014-07-09T08:24:08Z</time>
      </trkpt>
      <trkpt lat="44.67609" lon="6.63653">
        <ele>1045.3</ele>
        <time>2014-07-09T08:24:09Z</time>
      </trkpt>
      <trkpt lat="44.67633" lon="6.63746">
        <ele>1050.1</ele>
        <time>2014-07-09T08:25:28Z</time>
      </trkpt>
      <trkpt lat="44.6765" lon="6.63793">
        <ele>1053.9</ele>
        <time>2014-07-09T08:25:29Z</time>
      </trkpt>
      <trkpt lat="44.6767" lon="6.63856">
        <ele>1056.4</ele>
        <time>2014-07-09T08:26:05Z</time>
      </trkpt>
      <trkpt lat="44.67671" lon="6.63881">
        <ele>1057.5</ele>
        <time>2014-07-09T08:26:43Z</time>
      </trkpt>
      <trkpt lat="44.67675" lon="6.63932">
        <ele>1058.9</ele>
        <time>2014-07-09T08:26:44Z</time>
      </trkpt>
      <trkpt lat="44.6768" lon="6.63965">
        <ele>1057.1</ele>
        <time>2014-07-09T08:27:25Z</time>
      </trkpt>
      <trkpt lat="44.67691" lon="6.64019">
        <ele>1063.5</ele>
        <time>2014-07-09T08:27:56Z</time>
      </trkpt>
      <trkpt lat="44.67702" lon="6.64068">
        <ele>1068.9</ele>
        <time>2014-07-09T08:27:57Z</time>
      </trkpt>
      <trkpt lat="44.67721" lon="6.64124">
        <ele>1074</ele>
        <time>2014-07-09T08:28:56Z</time>
      </trkpt>
      <trkpt lat="44.67745" lon="6.64176">
        <ele>1074</ele>
        <time>2014-07-09T08:29:27Z</time>
      </trkpt>
      <trkpt lat="44.67747" lon="6.64181">
        <ele>1073.4</ele>
        <time>2014-07-09T08:29:28Z</time>
      </trkpt>
      <trkpt lat="44.67753" lon="6.64187">
        <ele>1073</ele>
        <time>2014-07-09T08:31:52Z</time>
      </trkpt>
      <trkpt lat="44.67761" lon="6.64138">
        <ele>1077.5</ele>
        <time>2014-07-09T08:31:53Z</time>
      </trkpt>
      <trkpt lat="44.67765" lon="6.64065">
        <ele>1083.5</ele>
        <time>2014-07-09T08:32:30Z</time>
      </trkpt>
      <trkpt lat="44.67807" lon="6.64075">
        <ele>1092.8</ele>
        <time>2014-07-09T08:34:23Z</time>
      </trkpt>
      <trkpt lat="44.67809" lon="6.64079">
        <ele>1093</ele>
        <time>2014-07-09T08:34:24Z</time>
      </trkpt>
      <trkpt lat="44.67834" lon="6.64129">
        <ele>1094</ele>
        <time>2014-07-09T08:35:25Z</time>
      </trkpt>
      <trkpt lat="44.67871" lon="6.64234">
        <ele>1102.5</ele>
        <time>2014-07-09T08:36:21Z</time>
      </trkpt>
      <trkpt lat="44.67891" lon="6.6429">
        <ele>1103.8</ele>
        <time>2014-07-09T08:37:03Z</time>
      </trkpt>
      <trkpt lat="44.67893" lon="6.64294">
        <ele>1103.8</ele>
        <time>2014-07-09T08:37:04Z</time>
      </trkpt>
      <trkpt lat="44.67919" lon="6.64401">
        <ele>1112.6</ele>
        <time>2014-07-09T08:38:11Z</time>
      </trkpt>
      <trkpt lat="44.67907" lon="6.64442">
        <ele>1101.5</ele>
        <time>2014-07-09T08:38:12Z</time>
      </trkpt>
      <trkpt lat="44.67906" lon="6.64517">
        <ele>1087.3</ele>
        <time>2014-07-09T08:39:34Z</time>
      </trkpt>
      <trkpt lat="44.67907" lon="6.64522">
        <ele>1086.1</ele>
        <time>2014-07-09T08:39:35Z</time>
      </trkpt>
      <trkpt lat="44.67929" lon="6.64634">
        <ele>1085.3</ele>
        <time>2014-07-09T08:40:42Z</time>
      </trkpt>
      <trkpt lat="44.67931" lon="6.64639">
        <ele>1085.9</ele>
        <time>2014-07-09T08:40:43Z</time>
      </trkpt>
      <trkpt lat="44.67968" lon="6.64743">
        <ele>1100.1</ele>
        <time>2014-07-09T08:42:14Z</time>
      </trkpt>
      <trkpt lat="44.67966" lon="6.64747">
        <ele>1100.6</ele>
        <time>2014-07-09T08:42:15Z</time>
      </trkpt>
      <trkpt lat="44.67946" lon="6.64854">
        <ele>1105.8</ele>
        <time>2014-07-09T08:43:37Z</time>
      </trkpt>
      <trkpt lat="44.67948" lon="6.64859">
        <ele>1106.5</ele>
        <time>2014-07-09T08:43:38Z</time>
      </trkpt>
      <trkpt lat="44.67922" lon="6.64908">
        <ele>1115.1</ele>
        <time>2014-07-09T08:45:02Z</time>
      </trkpt>
      <trkpt lat="44.67844" lon="6.64948">
        <ele>1116.6</ele>
        <time>2014-07-09T08:45:48Z</time>
      </trkpt>
      <trkpt lat="44.67825" lon="6.65002">
        <ele>1112.6</ele>
        <time>2014-07-09T08:46:21Z</time>
      </trkpt>
      <trkpt lat="44.67826" lon="6.65006">
        <ele>1113</ele>
        <time>2014-07-09T08:46:22Z</time>
      </trkpt>
      <trkpt lat="44.67808" lon="6.65109">
        <ele>1121.1</ele>
        <time>2014-07-09T08:48:13Z</time>
      </trkpt>
      <trkpt lat="44.67805" lon="6.65114">
        <ele>1121.8</ele>
        <time>2014-07-09T08:48:14Z</time>
      </trkpt>
      <trkpt lat="44.67815" lon="6.65173">
        <ele>1130.9</ele>
        <time>2014-07-09T08:49:21Z</time>
      </trkpt>
      <trkpt lat="44.67897" lon="6.65161">
        <ele>1153.5</ele>
        <time>2014-07-09T08:51:52Z</time>
      </trkpt>
      <trkpt lat="44.67901" lon="6.65163">
        <ele>1154.6</ele>
        <time>2014-07-09T08:51:53Z</time>
      </trkpt>
      <trkpt lat="44.67985" lon="6.65149">
        <ele>1173.3</ele>
        <time>2014-07-09T08:53:09Z</time>
      </trkpt>
      <trkpt lat="44.67989" lon="6.65148">
        <ele>1173.9</ele>
        <time>2014-07-09T08:53:10Z</time>
      </trkpt>
      <trkpt lat="44.68054" lon="6.65187">
        <ele>1204.4</ele>
        <time>2014-07-09T08:55:48Z</time>
      </trkpt>
      <trkpt lat="44.68057" lon="6.65187">
        <ele>1205.4</ele>
        <time>2014-07-09T08:55:49Z</time>
      </trkpt>
      <trkpt lat="44.68099" lon="6.65201">
        <ele>1222</ele>
        <time>2014-07-09T08:57:27Z</time>
      </trkpt>
      <trkpt lat="44.6814" lon="6.65223">
        <ele>1248.4</ele>
        <time>2014-07-09T08:58:56Z</time>
      </trkpt>
      <trkpt lat="44.68114" lon="6.65281">
        <ele>1272</ele>
        <time>2014-07-09T09:00:32Z</time>
      </trkpt>
      <trkpt lat="44.68036" lon="6.65331">
        <ele>1281.9</ele>
        <time>2014-07-09T09:01:38Z</time>
      </trkpt>
      <trkpt lat="44.68033" lon="6.65332">
        <ele>1282.3</ele>
        <time>2014-07-09T09:01:39Z</time>
      </trkpt>
      <trkpt lat="44.67973" lon="6.65413">
        <ele>1293</ele>
        <time>2014-07-09T09:02:47Z</time>
      </trkpt>
      <trkpt lat="44.67971" lon="6.65416">
        <ele>1293.8</ele>
        <time>2014-07-09T09:02:48Z</time>
      </trkpt>
      <trkpt lat="44.67898" lon="6.65478">
        <ele>1300.5</ele>
        <time>2014-07-09T09:04:06Z</time>
      </trkpt>
      <trkpt lat="44.67894" lon="6.6548">
        <ele>1300.5</ele>
        <time>2014-07-09T09:04:07Z</time>
      </trkpt>
      <trkpt lat="44.67815" lon="6.65513">
        <ele>1307.5</ele>
        <time>2014-07-09T09:05:16Z</time>
      </trkpt>
      <trkpt lat="44.67811" lon="6.65513">
        <ele>1308.5</ele>
        <time>2014-07-09T09:05:17Z</time>
      </trkpt>
      <trkpt lat="44.67741" lon="6.65566">
        <ele>1317.3</ele>
        <time>2014-07-09T09:06:31Z</time>
      </trkpt>
      <trkpt lat="44.6774" lon="6.65569">
        <ele>1317.4</ele>
        <time>2014-07-09T09:06:32Z</time>
      </trkpt>
      <trkpt lat="44.67687" lon="6.6566">
        <ele>1321.9</ele>
        <time>2014-07-09T09:07:45Z</time>
      </trkpt>
      <trkpt lat="44.67651" lon="6.65655">
        <ele>1328.5</ele>
        <time>2014-07-09T09:07:46Z</time>
      </trkpt>
      <trkpt lat="44.67621" lon="6.65698">
        <ele>1333.1</ele>
        <time>2014-07-09T09:08:32Z</time>
      </trkpt>
      <trkpt lat="44.67594" lon="6.65722">
        <ele>1336.5</ele>
        <time>2014-07-09T09:09:10Z</time>
      </trkpt>
      <trkpt lat="44.67558" lon="6.6573">
        <ele>1340.5</ele>
        <time>2014-07-09T09:09:11Z</time>
      </trkpt>
      <trkpt lat="44.67539" lon="6.65792">
        <ele>1344.6</ele>
        <time>2014-07-09T09:09:57Z</time>
      </trkpt>
      <trkpt lat="44.67521" lon="6.65843">
        <ele>1349.8</ele>
        <time>2014-07-09T09:10:59Z</time>
      </trkpt>
      <trkpt lat="44.6749" lon="6.65872">
        <ele>1351.4</ele>
        <time>2014-07-09T09:11:00Z</time>
      </trkpt>
      <trkpt lat="44.67482" lon="6.65928">
        <ele>1351.3</ele>
        <time>2014-07-09T09:12:10Z</time>
      </trkpt>
      <trkpt lat="44.67476" lon="6.65979">
        <ele>1351.4</ele>
        <time>2014-07-09T09:12:11Z</time>
      </trkpt>
      <trkpt lat="44.67482" lon="6.66041">
        <ele>1353</ele>
        <time>2014-07-09T09:13:07Z</time>
      </trkpt>
      <trkpt lat="44.67509" lon="6.66079">
        <ele>1355.5</ele>
        <time>2014-07-09T09:13:14Z</time>
      </trkpt>
      <trkpt lat="44.67521" lon="6.66107">
        <ele>1362.3</ele>
        <time>2014-07-09T09:13:58Z</time>
      </trkpt>
      <trkpt lat="44.67536" lon="6.66166">
        <ele>1361.5</ele>
        <time>2014-07-09T09:14:06Z</time>
      </trkpt>
      <trkpt lat="44.67537" lon="6.66167">
        <ele>1361.5</ele>
        <time>2014-07-09T09:14:33Z</time>
      </trkpt>
      <trkpt lat="44.67596" lon="6.66231">
        <ele>1364.4</ele>
        <time>2014-07-09T09:15:15Z</time>
      </trkpt>
      <trkpt lat="44.67574" lon="6.66269">
        <ele>1364.4</ele>
        <time>2014-07-09T09:15:52Z</time>
      </trkpt>
      <trkpt lat="44.67573" lon="6.66331">
        <ele>1365</ele>
        <time>2014-07-09T09:16:04Z</time>
      </trkpt>
      <trkpt lat="44.67574" lon="6.66367">
        <ele>1365.1</ele>
        <time>2014-07-09T09:16:42Z</time>
      </trkpt>
      <trkpt lat="44.67567" lon="6.66416">
        <ele>1369.5</ele>
        <time>2014-07-09T09:16:43Z</time>
      </trkpt>
      <trkpt lat="44.67535" lon="6.66473">
        <ele>1372</ele>
        <time>2014-07-09T09:17:20Z</time>
      </trkpt>
      <trkpt lat="44.67519" lon="6.66524">
        <ele>1371.3</ele>
        <time>2014-07-09T09:18:14Z</time>
      </trkpt>
      <trkpt lat="44.6753" lon="6.66573">
        <ele>1375.5</ele>
        <time>2014-07-09T09:18:15Z</time>
      </trkpt>
      <trkpt lat="44.67551" lon="6.6664">
        <ele>1378.5</ele>
        <time>2014-07-09T09:18:52Z</time>
      </trkpt>
      <trkpt lat="44.67577" lon="6.66691">
        <ele>1380</ele>
        <time>2014-07-09T09:19:24Z</time>
      </trkpt>
      <trkpt lat="44.67578" lon="6.66693">
        <ele>1380</ele>
        <time>2014-07-09T09:19:25Z</time>
      </trkpt>
      <trkpt lat="44.67601" lon="6.66809">
        <ele>1386.5</ele>
        <time>2014-07-09T09:20:36Z</time>
      </trkpt>
      <trkpt lat="44.67602" lon="6.66812">
        <ele>1386.8</ele>
        <time>2014-07-09T09:20:37Z</time>
      </trkpt>
      <trkpt lat="44.67644" lon="6.66918">
        <ele>1389</ele>
        <time>2014-07-09T09:21:34Z</time>
      </trkpt>
      <trkpt lat="44.6767" lon="6.66966">
        <ele>1392.4</ele>
        <time>2014-07-09T09:22:48Z</time>
      </trkpt>
      <trkpt lat="44.67671" lon="6.66969">
        <ele>1392.5</ele>
        <time>2014-07-09T09:22:49Z</time>
      </trkpt>
      <trkpt lat="44.67709" lon="6.67077">
        <ele>1391.3</ele>
        <time>2014-07-09T09:24:07Z</time>
      </trkpt>
      <trkpt lat="44.6771" lon="6.67081">
        <ele>1391</ele>
        <time>2014-07-09T09:24:08Z</time>
      </trkpt>
      <trkpt lat="44.67719" lon="6.67199">
        <ele>1392</ele>
        <time>2014-07-09T09:25:13Z</time>
      </trkpt>
      <trkpt lat="44.67719" lon="6.67204">
        <ele>1392.1</ele>
        <time>2014-07-09T09:25:14Z</time>
      </trkpt>
      <trkpt lat="44.67701" lon="6.67322">
        <ele>1391.6</ele>
        <time>2014-07-09T09:26:20Z</time>
      </trkpt>
      <trkpt lat="44.677" lon="6.67326">
        <ele>1391.9</ele>
        <time>2014-07-09T09:26:21Z</time>
      </trkpt>
      <trkpt lat="44.67719" lon="6.67438">
        <ele>1397.9</ele>
        <time>2014-07-09T09:27:27Z</time>
      </trkpt>
      <trkpt lat="44.6772" lon="6.67443">
        <ele>1398.4</ele>
        <time>2014-07-09T09:27:28Z</time>
      </trkpt>
      <trkpt lat="44.67773" lon="6.67534">
        <ele>1409</ele>
        <time>2014-07-09T09:28:39Z</time>
      </trkpt>
      <trkpt lat="44.67776" lon="6.67537">
        <ele>1409.5</ele>
        <time>2014-07-09T09:28:40Z</time>
      </trkpt>
      <trkpt lat="44.67842" lon="6.67606">
        <ele>1424</ele>
        <time>2014-07-09T09:29:45Z</time>
      </trkpt>
      <trkpt lat="44.67845" lon="6.67609">
        <ele>1424.4</ele>
        <time>2014-07-09T09:29:46Z</time>
      </trkpt>
      <trkpt lat="44.67903" lon="6.6769">
        <ele>1424.6</ele>
        <time>2014-07-09T09:30:52Z</time>
      </trkpt>
      <trkpt lat="44.67905" lon="6.67694">
        <ele>1424.6</ele>
        <time>2014-07-09T09:30:53Z</time>
      </trkpt>
      <trkpt lat="44.67944" lon="6.67799">
        <ele>1426.5</ele>
        <time>2014-07-09T09:32:18Z</time>
      </trkpt>
      <trkpt lat="44.67946" lon="6.67801">
        <ele>1427</ele>
        <time>2014-07-09T09:32:19Z</time>
      </trkpt>
      <trkpt lat="44.68002" lon="6.6789">
        <ele>1438.6</ele>
        <time>2014-07-09T09:33:36Z</time>
      </trkpt>
      <trkpt lat="44.68004" lon="6.67893">
        <ele>1439.4</ele>
        <time>2014-07-09T09:33:37Z</time>
      </trkpt>
      <trkpt lat="44.68072" lon="6.67955">
        <ele>1450.5</ele>
        <time>2014-07-09T09:34:46Z</time>
      </trkpt>
      <trkpt lat="44.68075" lon="6.67958">
        <ele>1451</ele>
        <time>2014-07-09T09:34:47Z</time>
      </trkpt>
      <trkpt lat="44.6813" lon="6.68044">
        <ele>1456.3</ele>
        <time>2014-07-09T09:35:59Z</time>
      </trkpt>
      <trkpt lat="44.68132" lon="6.68048">
        <ele>1456.6</ele>
        <time>2014-07-09T09:36:00Z</time>
      </trkpt>
      <trkpt lat="44.68177" lon="6.68149">
        <ele>1441.5</ele>
        <time>2014-07-09T09:36:46Z</time>
      </trkpt>
      <trkpt lat="44.68183" lon="6.6821">
        <ele>1434.4</ele>
        <time>2014-07-09T09:37:42Z</time>
      </trkpt>
      <trkpt lat="44.68183" lon="6.68215">
        <ele>1434</ele>
        <time>2014-07-09T09:37:43Z</time>
      </trkpt>
      <trkpt lat="44.68174" lon="6.68333">
        <ele>1437.1</ele>
        <time>2014-07-09T09:38:48Z</time>
      </trkpt>
      <trkpt lat="44.68174" lon="6.68337">
        <ele>1437</ele>
        <time>2014-07-09T09:38:49Z</time>
      </trkpt>
      <trkpt lat="44.68157" lon="6.68452">
        <ele>1484</ele>
        <time>2014-07-09T09:40:17Z</time>
      </trkpt>
      <trkpt lat="44.68158" lon="6.68457">
        <ele>1485.1</ele>
        <time>2014-07-09T09:40:18Z</time>
      </trkpt>
      <trkpt lat="44.68234" lon="6.68501">
        <ele>1514.4</ele>
        <time>2014-07-09T09:41:27Z</time>
      </trkpt>
      <trkpt lat="44.68238" lon="6.68503">
        <ele>1515.1</ele>
        <time>2014-07-09T09:41:28Z</time>
      </trkpt>
      <trkpt lat="44.68316" lon="6.68523">
        <ele>1528.5</ele>
        <time>2014-07-09T09:42:22Z</time>
      </trkpt>
      <trkpt lat="44.68351" lon="6.6855">
        <ele>1545.5</ele>
        <time>2014-07-09T09:43:18Z</time>
      </trkpt>
      <trkpt lat="44.68364" lon="6.68569">
        <ele>1542</ele>
        <time>2014-07-09T09:43:25Z</time>
      </trkpt>
      <trkpt lat="44.68379" lon="6.68486">
        <ele>1582.1</ele>
        <time>2014-07-09T09:44:39Z</time>
      </trkpt>
      <trkpt lat="44.68423" lon="6.68486">
        <ele>1562</ele>
        <time>2014-07-09T09:46:49Z</time>
      </trkpt>
      <trkpt lat="44.68424" lon="6.68489">
        <ele>1560.6</ele>
        <time>2014-07-09T09:46:50Z</time>
      </trkpt>
      <trkpt lat="44.68436" lon="6.68599">
        <ele>1548.4</ele>
        <time>2014-07-09T09:48:08Z</time>
      </trkpt>
      <trkpt lat="44.68435" lon="6.68603">
        <ele>1548.1</ele>
        <time>2014-07-09T09:48:09Z</time>
      </trkpt>
      <trkpt lat="44.68428" lon="6.68717">
        <ele>1570.5</ele>
        <time>2014-07-09T09:49:28Z</time>
      </trkpt>
      <trkpt lat="44.6843" lon="6.68722">
        <ele>1570.8</ele>
        <time>2014-07-09T09:49:29Z</time>
      </trkpt>
      <trkpt lat="44.68486" lon="6.68805">
        <ele>1576.5</ele>
        <time>2014-07-09T09:50:31Z</time>
      </trkpt>
      <trkpt lat="44.68489" lon="6.68809">
        <ele>1577</ele>
        <time>2014-07-09T09:50:32Z</time>
      </trkpt>
      <trkpt lat="44.68557" lon="6.6887">
        <ele>1587</ele>
        <time>2014-07-09T09:51:32Z</time>
      </trkpt>
      <trkpt lat="44.6856" lon="6.68873">
        <ele>1587.3</ele>
        <time>2014-07-09T09:51:33Z</time>
      </trkpt>
      <trkpt lat="44.68641" lon="6.68899">
        <ele>1591.4</ele>
        <time>2014-07-09T09:52:54Z</time>
      </trkpt>
      <trkpt lat="44.68644" lon="6.68897">
        <ele>1591.1</ele>
        <time>2014-07-09T09:52:55Z</time>
      </trkpt>
      <trkpt lat="44.68725" lon="6.68862">
        <ele>1586.4</ele>
        <time>2014-07-09T09:54:07Z</time>
      </trkpt>
      <trkpt lat="44.68728" lon="6.68862">
        <ele>1586.1</ele>
        <time>2014-07-09T09:54:08Z</time>
      </trkpt>
      <trkpt lat="44.68809" lon="6.68847">
        <ele>1579.1</ele>
        <time>2014-07-09T09:55:34Z</time>
      </trkpt>
      <trkpt lat="44.68813" lon="6.68846">
        <ele>1579</ele>
        <time>2014-07-09T09:55:35Z</time>
      </trkpt>
      <trkpt lat="44.68879" lon="6.68777">
        <ele>1557</ele>
        <time>2014-07-09T09:57:14Z</time>
      </trkpt>
      <trkpt lat="44.68881" lon="6.68773">
        <ele>1556.5</ele>
        <time>2014-07-09T09:57:15Z</time>
      </trkpt>
      <trkpt lat="44.68958" lon="6.68727">
        <ele>1560.1</ele>
        <time>2014-07-09T09:58:51Z</time>
      </trkpt>
      <trkpt lat="44.68961" lon="6.68724">
        <ele>1558.9</ele>
        <time>2014-07-09T09:58:52Z</time>
      </trkpt>
      <trkpt lat="44.69026" lon="6.68649">
        <ele>1533.4</ele>
        <time>2014-07-09T10:00:27Z</time>
      </trkpt>
      <trkpt lat="44.69029" lon="6.68647">
        <ele>1532.5</ele>
        <time>2014-07-09T10:00:28Z</time>
      </trkpt>
      <trkpt lat="44.69098" lon="6.6858">
        <ele>1513.1</ele>
        <time>2014-07-09T10:01:56Z</time>
      </trkpt>
      <trkpt lat="44.69101" lon="6.68577">
        <ele>1512.4</ele>
        <time>2014-07-09T10:01:57Z</time>
      </trkpt>
      <trkpt lat="44.69166" lon="6.68505">
        <ele>1502</ele>
        <time>2014-07-09T10:03:18Z</time>
      </trkpt>
      <trkpt lat="44.69168" lon="6.68502">
        <ele>1500</ele>
        <time>2014-07-09T10:03:19Z</time>
      </trkpt>
      <trkpt lat="44.69228" lon="6.68417">
        <ele>1418.8</ele>
        <time>2014-07-09T10:05:01Z</time>
      </trkpt>
      <trkpt lat="44.6923" lon="6.68415">
        <ele>1416.5</ele>
        <time>2014-07-09T10:05:02Z</time>
      </trkpt>
      <trkpt lat="44.69303" lon="6.68353">
        <ele>1400.9</ele>
        <time>2014-07-09T10:05:55Z</time>
      </trkpt>
      <trkpt lat="44.69344" lon="6.68333">
        <ele>1419.5</ele>
        <time>2014-07-09T10:06:10Z</time>
      </trkpt>
      <trkpt lat="44.69347" lon="6.68332">
        <ele>1421.6</ele>
        <time>2014-07-09T10:06:11Z</time>
      </trkpt>
      <trkpt lat="44.69429" lon="6.68321">
        <ele>1499.9</ele>
        <time>2014-07-09T10:06:52Z</time>
      </trkpt>
      <trkpt lat="44.69461" lon="6.68288">
        <ele>1533.4</ele>
        <time>2014-07-09T10:10:06Z</time>
      </trkpt>
      <trkpt lat="44.69647" lon="6.6801">
        <ele>1586.1</ele>
        <time>2014-07-09T10:14:12Z</time>
      </trkpt>
      <trkpt lat="44.69686" lon="6.6798">
        <ele>1586.1</ele>
        <time>2014-07-09T10:15:12Z</time>
      </trkpt>
      <trkpt lat="44.69688" lon="6.67977">
        <ele>1588.3</ele>
        <time>2014-07-09T10:15:15Z</time>
      </trkpt>
      <trkpt lat="44.69694" lon="6.67985">
        <ele>1601.3</ele>
        <time>2014-07-09T10:18:46Z</time>
      </trkpt>
      <trkpt lat="44.69682" lon="6.68003">
        <ele>1600.8</ele>
        <time>2014-07-09T10:19:58Z</time>
      </trkpt>
      <trkpt lat="44.69647" lon="6.68067">
        <ele>1586.6</ele>
        <time>2014-07-09T10:21:54Z</time>
      </trkpt>
      <trkpt lat="44.69631" lon="6.68094">
        <ele>1583</ele>
        <time>2014-07-09T10:22:20Z</time>
      </trkpt>
      <trkpt lat="44.69611" lon="6.68119">
        <ele>1587.5</ele>
        <time>2014-07-09T10:23:14Z</time>
      </trkpt>
      <trkpt lat="44.69583" lon="6.68171">
        <ele>1580.8</ele>
        <time>2014-07-09T10:24:20Z</time>
      </trkpt>
      <trkpt lat="44.69571" lon="6.68232">
        <ele>1587.9</ele>
        <time>2014-07-09T10:28:14Z</time>
      </trkpt>
      <trkpt lat="44.6957" lon="6.68234">
        <ele>1588.1</ele>
        <time>2014-07-09T10:28:15Z</time>
      </trkpt>
      <trkpt lat="44.69552" lon="6.68293">
        <ele>1592.8</ele>
        <time>2014-07-09T10:31:49Z</time>
      </trkpt>
      <trkpt lat="44.69537" lon="6.68351">
        <ele>1597.6</ele>
        <time>2014-07-09T10:33:30Z</time>
      </trkpt>
      <trkpt lat="44.69519" lon="6.68466">
        <ele>1603.1</ele>
        <time>2014-07-09T10:35:27Z</time>
      </trkpt>
      <trkpt lat="44.69519" lon="6.6847">
        <ele>1604</ele>
        <time>2014-07-09T10:35:28Z</time>
      </trkpt>
      <trkpt lat="44.69504" lon="6.68529">
        <ele>1602.1</ele>
        <time>2014-07-09T10:37:55Z</time>
      </trkpt>
      <trkpt lat="44.69477" lon="6.68578">
        <ele>1605.4</ele>
        <time>2014-07-09T10:39:20Z</time>
      </trkpt>
      <trkpt lat="44.69469" lon="6.68687">
        <ele>1601.3</ele>
        <time>2014-07-09T10:40:45Z</time>
      </trkpt>
      <trkpt lat="44.69469" lon="6.68691">
        <ele>1601.4</ele>
        <time>2014-07-09T10:40:46Z</time>
      </trkpt>
      <trkpt lat="44.6945" lon="6.68803">
        <ele>1610</ele>
        <time>2014-07-09T10:42:22Z</time>
      </trkpt>
      <trkpt lat="44.69449" lon="6.68809">
        <ele>1610.3</ele>
        <time>2014-07-09T10:42:23Z</time>
      </trkpt>
      <trkpt lat="44.6941" lon="6.68909">
        <ele>1619.8</ele>
        <time>2014-07-09T10:43:32Z</time>
      </trkpt>
      <trkpt lat="44.69408" lon="6.68914">
        <ele>1619.9</ele>
        <time>2014-07-09T10:43:33Z</time>
      </trkpt>
      <trkpt lat="44.69381" lon="6.69023">
        <ele>1626.4</ele>
        <time>2014-07-09T10:44:47Z</time>
      </trkpt>
      <trkpt lat="44.69381" lon="6.69028">
        <ele>1627.3</ele>
        <time>2014-07-09T10:44:48Z</time>
      </trkpt>
      <trkpt lat="44.69388" lon="6.69145">
        <ele>1644</ele>
        <time>2014-07-09T10:45:46Z</time>
      </trkpt>
      <trkpt lat="44.69388" lon="6.69208">
        <ele>1655.4</ele>
        <time>2014-07-09T10:46:37Z</time>
      </trkpt>
      <trkpt lat="44.69388" lon="6.69212">
        <ele>1655.3</ele>
        <time>2014-07-09T10:46:38Z</time>
      </trkpt>
      <trkpt lat="44.69429" lon="6.69312">
        <ele>1664</ele>
        <time>2014-07-09T10:47:38Z</time>
      </trkpt>
      <trkpt lat="44.6943" lon="6.69314">
        <ele>1664.1</ele>
        <time>2014-07-09T10:47:39Z</time>
      </trkpt>
      <trkpt lat="44.69497" lon="6.6939">
        <ele>1678</ele>
        <time>2014-07-09T10:53:28Z</time>
      </trkpt>
      <trkpt lat="44.69499" lon="6.69392">
        <ele>1677.6</ele>
        <time>2014-07-09T10:53:29Z</time>
      </trkpt>
      <trkpt lat="44.69542" lon="6.69375">
        <ele>1677.9</ele>
        <time>2014-07-09T11:34:28Z</time>
      </trkpt>
      <trkpt lat="44.69625" lon="6.69346">
        <ele>1684.6</ele>
        <time>2014-07-09T11:35:44Z</time>
      </trkpt>
      <trkpt lat="44.69628" lon="6.69345">
        <ele>1685.1</ele>
        <time>2014-07-09T11:35:45Z</time>
      </trkpt>
      <trkpt lat="44.69708" lon="6.69315">
        <ele>1701.5</ele>
        <time>2014-07-09T11:36:55Z</time>
      </trkpt>
      <trkpt lat="44.69711" lon="6.69313">
        <ele>1701.9</ele>
        <time>2014-07-09T11:36:56Z</time>
      </trkpt>
      <trkpt lat="44.69784" lon="6.69257">
        <ele>1716.6</ele>
        <time>2014-07-09T11:38:14Z</time>
      </trkpt>
      <trkpt lat="44.69787" lon="6.69255">
        <ele>1717.6</ele>
        <time>2014-07-09T11:38:15Z</time>
      </trkpt>
      <trkpt lat="44.69863" lon="6.69208">
        <ele>1734.5</ele>
        <time>2014-07-09T11:39:52Z</time>
      </trkpt>
      <trkpt lat="44.69867" lon="6.69206">
        <ele>1735.3</ele>
        <time>2014-07-09T11:39:53Z</time>
      </trkpt>
      <trkpt lat="44.69904" lon="6.69173">
        <ele>1753.5</ele>
        <time>2014-07-09T11:41:57Z</time>
      </trkpt>
      <trkpt lat="44.69939" lon="6.69139">
        <ele>1774.8</ele>
        <time>2014-07-09T11:43:06Z</time>
      </trkpt>
      <trkpt lat="44.69957" lon="6.6905">
        <ele>1812.3</ele>
        <time>2014-07-09T11:45:07Z</time>
      </trkpt>
      <trkpt lat="44.69955" lon="6.69047">
        <ele>1812.8</ele>
        <time>2014-07-09T11:45:08Z</time>
      </trkpt>
      <trkpt lat="44.69926" lon="6.69004">
        <ele>1827.5</ele>
        <time>2014-07-09T11:46:23Z</time>
      </trkpt>
      <trkpt lat="44.69903" lon="6.68902">
        <ele>1862.5</ele>
        <time>2014-07-09T11:48:26Z</time>
      </trkpt>
      <trkpt lat="44.69904" lon="6.68898">
        <ele>1863.6</ele>
        <time>2014-07-09T11:48:27Z</time>
      </trkpt>
      <trkpt lat="44.69939" lon="6.68791">
        <ele>1886.8</ele>
        <time>2014-07-09T11:49:45Z</time>
      </trkpt>
      <trkpt lat="44.69941" lon="6.68786">
        <ele>1887</ele>
        <time>2014-07-09T11:49:46Z</time>
      </trkpt>
      <trkpt lat="44.69975" lon="6.68751">
        <ele>1910.4</ele>
        <time>2014-07-09T11:50:48Z</time>
      </trkpt>
      <trkpt lat="44.70015" lon="6.68723">
        <ele>1928.6</ele>
        <time>2014-07-09T11:53:41Z</time>
      </trkpt>
      <trkpt lat="44.70059" lon="6.68727">
        <ele>1941.1</ele>
        <time>2014-07-09T11:54:52Z</time>
      </trkpt>
      <trkpt lat="44.70134" lon="6.68681">
        <ele>1969</ele>
        <time>2014-07-09T11:56:34Z</time>
      </trkpt>
      <trkpt lat="44.70137" lon="6.6868">
        <ele>1970</ele>
        <time>2014-07-09T11:56:35Z</time>
      </trkpt>
      <trkpt lat="44.70173" lon="6.68649">
        <ele>1986.5</ele>
        <time>2014-07-09T11:57:39Z</time>
      </trkpt>
      <trkpt lat="44.70246" lon="6.68594">
        <ele>2014.3</ele>
        <time>2014-07-09T11:59:05Z</time>
      </trkpt>
      <trkpt lat="44.70249" lon="6.68591">
        <ele>2015.4</ele>
        <time>2014-07-09T11:59:06Z</time>
      </trkpt>
      <trkpt lat="44.7029" lon="6.68569">
        <ele>2024.1</ele>
        <time>2014-07-09T12:00:08Z</time>
      </trkpt>
      <trkpt lat="44.70359" lon="6.68502">
        <ele>2032.5</ele>
        <time>2014-07-09T12:01:08Z</time>
      </trkpt>
      <trkpt lat="44.70361" lon="6.68499">
        <ele>2032.6</ele>
        <time>2014-07-09T12:01:09Z</time>
      </trkpt>
      <trkpt lat="44.70437" lon="6.68456">
        <ele>2043.6</ele>
        <time>2014-07-09T12:02:35Z</time>
      </trkpt>
      <trkpt lat="44.7044" lon="6.68455">
        <ele>2044.3</ele>
        <time>2014-07-09T12:02:36Z</time>
      </trkpt>
      <trkpt lat="44.7052" lon="6.68442">
        <ele>2062.5</ele>
        <time>2014-07-09T12:04:08Z</time>
      </trkpt>
      <trkpt lat="44.70524" lon="6.68442">
        <ele>2063.3</ele>
        <time>2014-07-09T12:04:09Z</time>
      </trkpt>
      <trkpt lat="44.70606" lon="6.68433">
        <ele>2081.3</ele>
        <time>2014-07-09T12:05:48Z</time>
      </trkpt>
      <trkpt lat="44.70609" lon="6.68432">
        <ele>2082.3</ele>
        <time>2014-07-09T12:05:49Z</time>
      </trkpt>
      <trkpt lat="44.70645" lon="6.68402">
        <ele>2092.1</ele>
        <time>2014-07-09T12:07:19Z</time>
      </trkpt>
      <trkpt lat="44.70719" lon="6.68365">
        <ele>2106.8</ele>
        <time>2014-07-09T12:08:37Z</time>
      </trkpt>
      <trkpt lat="44.70723" lon="6.68365">
        <ele>2107.6</ele>
        <time>2014-07-09T12:08:38Z</time>
      </trkpt>
      <trkpt lat="44.70801" lon="6.68392">
        <ele>2121.1</ele>
        <time>2014-07-09T12:10:20Z</time>
      </trkpt>
      <trkpt lat="44.70804" lon="6.68395">
        <ele>2122.3</ele>
        <time>2014-07-09T12:10:21Z</time>
      </trkpt>
      <trkpt lat="44.70844" lon="6.68492">
        <ele>2132.8</ele>
        <time>2014-07-09T12:12:08Z</time>
      </trkpt>
      <trkpt lat="44.70846" lon="6.68497">
        <ele>2133.6</ele>
        <time>2014-07-09T12:12:09Z</time>
      </trkpt>
      <trkpt lat="44.70888" lon="6.68596">
        <ele>2139.3</ele>
        <time>2014-07-09T12:13:25Z</time>
      </trkpt>
      <trkpt lat="44.70891" lon="6.686">
        <ele>2139.6</ele>
        <time>2014-07-09T12:13:26Z</time>
      </trkpt>
      <trkpt lat="44.70961" lon="6.68664">
        <ele>2147.1</ele>
        <time>2014-07-09T12:14:50Z</time>
      </trkpt>
      <trkpt lat="44.70963" lon="6.68665">
        <ele>2148</ele>
        <time>2014-07-09T12:14:51Z</time>
      </trkpt>
      <trkpt lat="44.71" lon="6.68699">
        <ele>2157.6</ele>
        <time>2014-07-09T12:17:01Z</time>
      </trkpt>
      <trkpt lat="44.7106" lon="6.68777">
        <ele>2160.3</ele>
        <time>2014-07-09T12:18:34Z</time>
      </trkpt>
      <trkpt lat="44.71064" lon="6.6878">
        <ele>2160.6</ele>
        <time>2014-07-09T12:18:35Z</time>
      </trkpt>
      <trkpt lat="44.71136" lon="6.68836">
        <ele>2170.6</ele>
        <time>2014-07-09T12:19:50Z</time>
      </trkpt>
      <trkpt lat="44.71139" lon="6.68838">
        <ele>2171.1</ele>
        <time>2014-07-09T12:19:51Z</time>
      </trkpt>
      <trkpt lat="44.71221" lon="6.68867">
        <ele>2178</ele>
        <time>2014-07-09T12:21:12Z</time>
      </trkpt>
      <trkpt lat="44.71225" lon="6.68868">
        <ele>2178.3</ele>
        <time>2014-07-09T12:21:13Z</time>
      </trkpt>
      <trkpt lat="44.71308" lon="6.68861">
        <ele>2185</ele>
        <time>2014-07-09T12:22:28Z</time>
      </trkpt>
      <trkpt lat="44.71312" lon="6.68861">
        <ele>2185.5</ele>
        <time>2014-07-09T12:22:29Z</time>
      </trkpt>
      <trkpt lat="44.71396" lon="6.68859">
        <ele>2205.8</ele>
        <time>2014-07-09T12:23:30Z</time>
      </trkpt>
      <trkpt lat="44.71398" lon="6.68861">
        <ele>2206.5</ele>
        <time>2014-07-09T12:23:31Z</time>
      </trkpt>
      <trkpt lat="44.71416" lon="6.68916">
        <ele>2217.6</ele>
        <time>2014-07-09T12:24:46Z</time>
      </trkpt>
      <trkpt lat="44.71456" lon="6.6894">
        <ele>2230.8</ele>
        <time>2014-07-09T12:25:52Z</time>
      </trkpt>
      <trkpt lat="44.71535" lon="6.68961">
        <ele>2251.3</ele>
        <time>2014-07-09T12:27:08Z</time>
      </trkpt>
      <trkpt lat="44.71538" lon="6.6896">
        <ele>2252.1</ele>
        <time>2014-07-09T12:27:09Z</time>
      </trkpt>
      <trkpt lat="44.71614" lon="6.68923">
        <ele>2272.3</ele>
        <time>2014-07-09T12:28:25Z</time>
      </trkpt>
      <trkpt lat="44.71617" lon="6.68921">
        <ele>2273.1</ele>
        <time>2014-07-09T12:28:26Z</time>
      </trkpt>
      <trkpt lat="44.71662" lon="6.68916">
        <ele>2274.1</ele>
        <time>2014-07-09T12:35:02Z</time>
      </trkpt>
      <trkpt lat="44.71745" lon="6.68894">
        <ele>2252.6</ele>
        <time>2014-07-09T12:36:34Z</time>
      </trkpt>
      <trkpt lat="44.71748" lon="6.68893">
        <ele>2251.6</ele>
        <time>2014-07-09T12:36:35Z</time>
      </trkpt>
      <trkpt lat="44.71829" lon="6.68901">
        <ele>2232.5</ele>
        <time>2014-07-09T12:37:51Z</time>
      </trkpt>
      <trkpt lat="44.71832" lon="6.68901">
        <ele>2231.8</ele>
        <time>2014-07-09T12:37:52Z</time>
      </trkpt>
      <trkpt lat="44.71914" lon="6.68917">
        <ele>2211.5</ele>
        <time>2014-07-09T12:39:47Z</time>
      </trkpt>
      <trkpt lat="44.71918" lon="6.68918">
        <ele>2211</ele>
        <time>2014-07-09T12:39:48Z</time>
      </trkpt>
      <trkpt lat="44.71961" lon="6.6893">
        <ele>2204.6</ele>
        <time>2014-07-09T12:41:11Z</time>
      </trkpt>
      <trkpt lat="44.72017" lon="6.69018">
        <ele>2200.3</ele>
        <time>2014-07-09T12:42:26Z</time>
      </trkpt>
      <trkpt lat="44.7202" lon="6.69023">
        <ele>2200.6</ele>
        <time>2014-07-09T12:42:27Z</time>
      </trkpt>
      <trkpt lat="44.72081" lon="6.69106">
        <ele>2203.8</ele>
        <time>2014-07-09T12:44:07Z</time>
      </trkpt>
      <trkpt lat="44.72084" lon="6.69109">
        <ele>2203.5</ele>
        <time>2014-07-09T12:44:08Z</time>
      </trkpt>
      <trkpt lat="44.72115" lon="6.69148">
        <ele>2198.8</ele>
        <time>2014-07-09T12:45:36Z</time>
      </trkpt>
      <trkpt lat="44.72192" lon="6.69197">
        <ele>2188.5</ele>
        <time>2014-07-09T12:46:56Z</time>
      </trkpt>
      <trkpt lat="44.72195" lon="6.69198">
        <ele>2188.1</ele>
        <time>2014-07-09T12:46:57Z</time>
      </trkpt>
      <trkpt lat="44.72267" lon="6.69254">
        <ele>2175.8</ele>
        <time>2014-07-09T12:48:33Z</time>
      </trkpt>
      <trkpt lat="44.72271" lon="6.69257">
        <ele>2175.1</ele>
        <time>2014-07-09T12:48:34Z</time>
      </trkpt>
      <trkpt lat="44.72348" lon="6.69299">
        <ele>2169.8</ele>
        <time>2014-07-09T12:49:46Z</time>
      </trkpt>
      <trkpt lat="44.72352" lon="6.693">
        <ele>2170</ele>
        <time>2014-07-09T12:49:47Z</time>
      </trkpt>
      <trkpt lat="44.72433" lon="6.69334">
        <ele>2173.6</ele>
        <time>2014-07-09T12:50:56Z</time>
      </trkpt>
      <trkpt lat="44.72436" lon="6.69335">
        <ele>2173.5</ele>
        <time>2014-07-09T12:50:57Z</time>
      </trkpt>
      <trkpt lat="44.72518" lon="6.69359">
        <ele>2175.8</ele>
        <time>2014-07-09T12:52:00Z</time>
      </trkpt>
      <trkpt lat="44.7252" lon="6.69361">
        <ele>2176</ele>
        <time>2014-07-09T12:52:01Z</time>
      </trkpt>
      <trkpt lat="44.726" lon="6.69386">
        <ele>2183.3</ele>
        <time>2014-07-09T12:53:24Z</time>
      </trkpt>
      <trkpt lat="44.72603" lon="6.69387">
        <ele>2183.1</ele>
        <time>2014-07-09T12:53:25Z</time>
      </trkpt>
      <trkpt lat="44.72686" lon="6.6939">
        <ele>2182.6</ele>
        <time>2014-07-09T12:54:38Z</time>
      </trkpt>
      <trkpt lat="44.7269" lon="6.6939">
        <ele>2182.6</ele>
        <time>2014-07-09T12:54:39Z</time>
      </trkpt>
      <trkpt lat="44.72773" lon="6.69391">
        <ele>2185.8</ele>
        <time>2014-07-09T12:55:49Z</time>
      </trkpt>
      <trkpt lat="44.72775" lon="6.69391">
        <ele>2186.1</ele>
        <time>2014-07-09T12:55:50Z</time>
      </trkpt>
      <trkpt lat="44.72847" lon="6.69447">
        <ele>2193.1</ele>
        <time>2014-07-09T12:57:09Z</time>
      </trkpt>
      <trkpt lat="44.72849" lon="6.6945">
        <ele>2193.3</ele>
        <time>2014-07-09T12:57:10Z</time>
      </trkpt>
      <trkpt lat="44.72921" lon="6.69498">
        <ele>2206.1</ele>
        <time>2014-07-09T12:58:41Z</time>
      </trkpt>
      <trkpt lat="44.72924" lon="6.69497">
        <ele>2206.3</ele>
        <time>2014-07-09T12:58:42Z</time>
      </trkpt>
      <trkpt lat="44.73005" lon="6.69464">
        <ele>2215.8</ele>
        <time>2014-07-09T12:59:52Z</time>
      </trkpt>
      <trkpt lat="44.73008" lon="6.69462">
        <ele>2216.1</ele>
        <time>2014-07-09T12:59:53Z</time>
      </trkpt>
      <trkpt lat="44.73087" lon="6.69497">
        <ele>2236.5</ele>
        <time>2014-07-09T13:01:16Z</time>
      </trkpt>
      <trkpt lat="44.7309" lon="6.695">
        <ele>2237.3</ele>
        <time>2014-07-09T13:01:17Z</time>
      </trkpt>
      <trkpt lat="44.73132" lon="6.69595">
        <ele>2254.1</ele>
        <time>2014-07-09T13:02:39Z</time>
      </trkpt>
      <trkpt lat="44.73133" lon="6.69601">
        <ele>2254.6</ele>
        <time>2014-07-09T13:02:40Z</time>
      </trkpt>
      <trkpt lat="44.73144" lon="6.6972">
        <ele>2269</ele>
        <time>2014-07-09T13:04:53Z</time>
      </trkpt>
      <trkpt lat="44.73144" lon="6.69725">
        <ele>2270</ele>
        <time>2014-07-09T13:04:54Z</time>
      </trkpt>
      <trkpt lat="44.73134" lon="6.69837">
        <ele>2284.1</ele>
        <time>2014-07-09T13:06:08Z</time>
      </trkpt>
      <trkpt lat="44.73135" lon="6.69843">
        <ele>2284.6</ele>
        <time>2014-07-09T13:06:09Z</time>
      </trkpt>
      <trkpt lat="44.73116" lon="6.69947">
        <ele>2298.3</ele>
        <time>2014-07-09T13:09:35Z</time>
      </trkpt>
      <trkpt lat="44.73117" lon="6.69952">
        <ele>2298.3</ele>
        <time>2014-07-09T13:09:36Z</time>
      </trkpt>
      <trkpt lat="44.73071" lon="6.70049">
        <ele>2298.8</ele>
        <time>2014-07-09T13:11:06Z</time>
      </trkpt>
      <trkpt lat="44.7307" lon="6.70053">
        <ele>2298.6</ele>
        <time>2014-07-09T13:11:07Z</time>
      </trkpt>
      <trkpt lat="44.73037" lon="6.70159">
        <ele>2299.3</ele>
        <time>2014-07-09T13:12:25Z</time>
      </trkpt>
      <trkpt lat="44.73035" lon="6.70163">
        <ele>2299.6</ele>
        <time>2014-07-09T13:12:26Z</time>
      </trkpt>
      <trkpt lat="44.72975" lon="6.70249">
        <ele>2301.1</ele>
        <time>2014-07-09T13:13:17Z</time>
      </trkpt>
      <trkpt lat="44.72961" lon="6.70274">
        <ele>2300.6</ele>
        <time>2014-07-09T13:14:15Z</time>
      </trkpt>
      <trkpt lat="44.72946" lon="6.70321">
        <ele>2299.1</ele>
        <time>2014-07-09T13:14:16Z</time>
      </trkpt>
      <trkpt lat="44.72923" lon="6.70384">
        <ele>2289.8</ele>
        <time>2014-07-09T13:15:19Z</time>
      </trkpt>
      <trkpt lat="44.72924" lon="6.70388">
        <ele>2289.1</ele>
        <time>2014-07-09T13:15:20Z</time>
      </trkpt>
      <trkpt lat="44.72931" lon="6.70508">
        <ele>2284.1</ele>
        <time>2014-07-09T13:16:06Z</time>
      </trkpt>
      <trkpt lat="44.72942" lon="6.70568">
        <ele>2284.6</ele>
        <time>2014-07-09T13:16:43Z</time>
      </trkpt>
      <trkpt lat="44.72941" lon="6.7057">
        <ele>2284.8</ele>
        <time>2014-07-09T13:16:44Z</time>
      </trkpt>
      <trkpt lat="44.72928" lon="6.7063">
        <ele>2286.1</ele>
        <time>2014-07-09T13:17:49Z</time>
      </trkpt>
      <trkpt lat="44.72885" lon="6.70695">
        <ele>2286.5</ele>
        <time>2014-07-09T13:18:52Z</time>
      </trkpt>
      <trkpt lat="44.72857" lon="6.70728">
        <ele>2289.1</ele>
        <time>2014-07-09T13:18:53Z</time>
      </trkpt>
      <trkpt lat="44.72846" lon="6.70793">
        <ele>2292.3</ele>
        <time>2014-07-09T13:19:51Z</time>
      </trkpt>
      <trkpt lat="44.72841" lon="6.70855">
        <ele>2290.8</ele>
        <time>2014-07-09T13:20:39Z</time>
      </trkpt>
      <trkpt lat="44.7284" lon="6.70859">
        <ele>2291</ele>
        <time>2014-07-09T13:20:40Z</time>
      </trkpt>
      <trkpt lat="44.72823" lon="6.70953">
        <ele>2292.8</ele>
        <time>2014-07-09T13:21:53Z</time>
      </trkpt>
      <trkpt lat="44.72821" lon="6.70998">
        <ele>2290.3</ele>
        <time>2014-07-09T13:21:54Z</time>
      </trkpt>
      <trkpt lat="44.7282" lon="6.71065">
        <ele>2293</ele>
        <time>2014-07-09T13:23:04Z</time>
      </trkpt>
      <trkpt lat="44.72811" lon="6.71115">
        <ele>2297.5</ele>
        <time>2014-07-09T13:23:05Z</time>
      </trkpt>
      <trkpt lat="44.72796" lon="6.7118">
        <ele>2299.6</ele>
        <time>2014-07-09T13:23:56Z</time>
      </trkpt>
      <trkpt lat="44.72829" lon="6.71221">
        <ele>2302.6</ele>
        <time>2014-07-09T13:25:47Z</time>
      </trkpt>
      <trkpt lat="44.72833" lon="6.7122">
        <ele>2302.8</ele>
        <time>2014-07-09T13:25:48Z</time>
      </trkpt>
      <trkpt lat="44.72877" lon="6.71221">
        <ele>2309.8</ele>
        <time>2014-07-09T13:26:52Z</time>
      </trkpt>
      <trkpt lat="44.72917" lon="6.71241">
        <ele>2319.1</ele>
        <time>2014-07-09T13:27:41Z</time>
      </trkpt>
      <trkpt lat="44.7328" lon="6.71213">
        <ele>2390.6</ele>
        <time>2014-07-09T13:34:42Z</time>
      </trkpt>
      <trkpt lat="44.73318" lon="6.71246">
        <ele>2409.8</ele>
        <time>2014-07-09T13:36:03Z</time>
      </trkpt>
      <trkpt lat="44.7332" lon="6.71243">
        <ele>2411.1</ele>
        <time>2014-07-09T13:36:04Z</time>
      </trkpt>
      <trkpt lat="44.73385" lon="6.71225">
        <ele>2433.1</ele>
        <time>2014-07-09T13:38:21Z</time>
      </trkpt>
      <trkpt lat="44.73401" lon="6.71204">
        <ele>2432.6</ele>
        <time>2014-07-09T13:39:16Z</time>
      </trkpt>
      <trkpt lat="44.73434" lon="6.71162">
        <ele>2454.1</ele>
        <time>2014-07-09T13:39:31Z</time>
      </trkpt>
      <trkpt lat="44.73435" lon="6.7116">
        <ele>2454.8</ele>
        <time>2014-07-09T13:39:32Z</time>
      </trkpt>
      <trkpt lat="44.73455" lon="6.7109">
        <ele>2476.6</ele>
        <time>2014-07-09T13:41:09Z</time>
      </trkpt>
      <trkpt lat="44.73435" lon="6.71046">
        <ele>2481.6</ele>
        <time>2014-07-09T13:41:10Z</time>
      </trkpt>
      <trkpt lat="44.73496" lon="6.71057">
        <ele>2500.6</ele>
        <time>2014-07-09T13:45:27Z</time>
      </trkpt>
      <trkpt lat="44.73539" lon="6.71062">
        <ele>2495.6</ele>
        <time>2014-07-09T13:46:48Z</time>
      </trkpt>
      <trkpt lat="44.73571" lon="6.71106">
        <ele>2482.8</ele>
        <time>2014-07-09T13:47:59Z</time>
      </trkpt>
      <trkpt lat="44.73615" lon="6.711">
        <ele>2467.6</ele>
        <time>2014-07-09T13:49:02Z</time>
      </trkpt>
      <trkpt lat="44.7369" lon="6.71052">
        <ele>2449.6</ele>
        <time>2014-07-09T13:50:21Z</time>
      </trkpt>
      <trkpt lat="44.73693" lon="6.7105">
        <ele>2448.8</ele>
        <time>2014-07-09T13:50:22Z</time>
      </trkpt>
      <trkpt lat="44.73776" lon="6.71041">
        <ele>2431</ele>
        <time>2014-07-09T13:51:56Z</time>
      </trkpt>
      <trkpt lat="44.73779" lon="6.71043">
        <ele>2430.3</ele>
        <time>2014-07-09T13:51:57Z</time>
      </trkpt>
      <trkpt lat="44.73854" lon="6.71084">
        <ele>2417.8</ele>
        <time>2014-07-09T13:53:13Z</time>
      </trkpt>
      <trkpt lat="44.73857" lon="6.71088">
        <ele>2417.3</ele>
        <time>2014-07-09T13:53:14Z</time>
      </trkpt>
      <trkpt lat="44.73911" lon="6.71176">
        <ele>2407.6</ele>
        <time>2014-07-09T13:54:30Z</time>
      </trkpt>
      <trkpt lat="44.73912" lon="6.71181">
        <ele>2407.1</ele>
        <time>2014-07-09T13:54:31Z</time>
      </trkpt>
      <trkpt lat="44.73867" lon="6.71204">
        <ele>2397.8</ele>
        <time>2014-07-09T13:56:26Z</time>
      </trkpt>
      <trkpt lat="44.73879" lon="6.71264">
        <ele>2385</ele>
        <time>2014-07-09T13:58:02Z</time>
      </trkpt>
      <trkpt lat="44.7395" lon="6.7133">
        <ele>2380.8</ele>
        <time>2014-07-09T13:59:14Z</time>
      </trkpt>
      <trkpt lat="44.73951" lon="6.71333">
        <ele>2380.8</ele>
        <time>2014-07-09T13:59:15Z</time>
      </trkpt>
      <trkpt lat="44.74" lon="6.71422">
        <ele>2380.1</ele>
        <time>2014-07-09T14:00:40Z</time>
      </trkpt>
      <trkpt lat="44.74003" lon="6.71424">
        <ele>2380.1</ele>
        <time>2014-07-09T14:00:41Z</time>
      </trkpt>
      <trkpt lat="44.74079" lon="6.71397">
        <ele>2380</ele>
        <time>2014-07-09T14:02:21Z</time>
      </trkpt>
      <trkpt lat="44.74081" lon="6.71392">
        <ele>2380</ele>
        <time>2014-07-09T14:02:22Z</time>
      </trkpt>
      <trkpt lat="44.74134" lon="6.71305">
        <ele>2380.5</ele>
        <time>2014-07-09T14:03:32Z</time>
      </trkpt>
      <trkpt lat="44.74137" lon="6.71303">
        <ele>2380.5</ele>
        <time>2014-07-09T14:03:33Z</time>
      </trkpt>
      <trkpt lat="44.74209" lon="6.71249">
        <ele>2377.1</ele>
        <time>2014-07-09T14:04:40Z</time>
      </trkpt>
      <trkpt lat="44.74211" lon="6.71246">
        <ele>2376.8</ele>
        <time>2014-07-09T14:04:41Z</time>
      </trkpt>
      <trkpt lat="44.74277" lon="6.7117">
        <ele>2324.6</ele>
        <time>2014-07-09T14:05:43Z</time>
      </trkpt>
      <trkpt lat="44.74279" lon="6.71167">
        <ele>2322.8</ele>
        <time>2014-07-09T14:05:44Z</time>
      </trkpt>
      <trkpt lat="44.74333" lon="6.7119">
        <ele>2309</ele>
        <time>2014-07-09T14:08:44Z</time>
      </trkpt>
      <trkpt lat="44.74331" lon="6.71194">
        <ele>2308.8</ele>
        <time>2014-07-09T14:08:45Z</time>
      </trkpt>
      <trkpt lat="44.74297" lon="6.713">
        <ele>2307.5</ele>
        <time>2014-07-09T14:09:59Z</time>
      </trkpt>
      <trkpt lat="44.74296" lon="6.71304">
        <ele>2307.3</ele>
        <time>2014-07-09T14:10:00Z</time>
      </trkpt>
      <trkpt lat="44.74341" lon="6.71321">
        <ele>2305.5</ele>
        <time>2014-07-09T14:11:16Z</time>
      </trkpt>
      <trkpt lat="44.7442" lon="6.71315">
        <ele>2306.6</ele>
        <time>2014-07-09T14:12:52Z</time>
      </trkpt>
      <trkpt lat="44.74423" lon="6.71314">
        <ele>2306.6</ele>
        <time>2014-07-09T14:12:53Z</time>
      </trkpt>
      <trkpt lat="44.74506" lon="6.71301">
        <ele>2303.1</ele>
        <time>2014-07-09T14:14:11Z</time>
      </trkpt>
      <trkpt lat="44.7451" lon="6.71301">
        <ele>2302.6</ele>
        <time>2014-07-09T14:14:12Z</time>
      </trkpt>
      <trkpt lat="44.74593" lon="6.71284">
        <ele>2295</ele>
        <time>2014-07-09T14:15:31Z</time>
      </trkpt>
      <trkpt lat="44.74597" lon="6.71284">
        <ele>2294.5</ele>
        <time>2014-07-09T14:15:32Z</time>
      </trkpt>
      <trkpt lat="44.74678" lon="6.71282">
        <ele>2291.1</ele>
        <time>2014-07-09T14:16:52Z</time>
      </trkpt>
      <trkpt lat="44.74681" lon="6.71282">
        <ele>2292.1</ele>
        <time>2014-07-09T14:16:53Z</time>
      </trkpt>
      <trkpt lat="44.74754" lon="6.71332">
        <ele>2295.5</ele>
        <time>2014-07-09T14:18:51Z</time>
      </trkpt>
      <trkpt lat="44.74757" lon="6.71334">
        <ele>2295.6</ele>
        <time>2014-07-09T14:18:52Z</time>
      </trkpt>
      <trkpt lat="44.74832" lon="6.71378">
        <ele>2288.1</ele>
        <time>2014-07-09T14:20:05Z</time>
      </trkpt>
      <trkpt lat="44.74836" lon="6.71379">
        <ele>2288.1</ele>
        <time>2014-07-09T14:20:06Z</time>
      </trkpt>
      <trkpt lat="44.74919" lon="6.71388">
        <ele>2282.6</ele>
        <time>2014-07-09T14:20:58Z</time>
      </trkpt>
      <trkpt lat="44.74958" lon="6.71356">
        <ele>2281</ele>
        <time>2014-07-09T14:21:51Z</time>
      </trkpt>
      <trkpt lat="44.74961" lon="6.71353">
        <ele>2281.1</ele>
        <time>2014-07-09T14:21:52Z</time>
      </trkpt>
      <trkpt lat="44.75035" lon="6.71309">
        <ele>2246</ele>
        <time>2014-07-09T14:22:45Z</time>
      </trkpt>
      <trkpt lat="44.7508" lon="6.71311">
        <ele>2180.6</ele>
        <time>2014-07-09T14:23:21Z</time>
      </trkpt>
      <trkpt lat="44.75082" lon="6.71312">
        <ele>2178.1</ele>
        <time>2014-07-09T14:23:22Z</time>
      </trkpt>
      <trkpt lat="44.7516" lon="6.7135">
        <ele>2112.8</ele>
        <time>2014-07-09T14:25:36Z</time>
      </trkpt>
      <trkpt lat="44.75163" lon="6.71352">
        <ele>2112.1</ele>
        <time>2014-07-09T14:25:37Z</time>
      </trkpt>
      <trkpt lat="44.75211" lon="6.71377">
        <ele>2102.1</ele>
        <time>2014-07-09T14:26:31Z</time>
      </trkpt>
      <trkpt lat="44.75253" lon="6.71389">
        <ele>2084.8</ele>
        <time>2014-07-09T14:26:59Z</time>
      </trkpt>
      <trkpt lat="44.75278" lon="6.71394">
        <ele>2069</ele>
        <time>2014-07-09T14:27:10Z</time>
      </trkpt>
      <trkpt lat="44.75422" lon="6.71391">
        <ele>2037</ele>
        <time>2014-07-09T14:28:57Z</time>
      </trkpt>
      <trkpt lat="44.75455" lon="6.71355">
        <ele>2037.8</ele>
        <time>2014-07-09T14:29:52Z</time>
      </trkpt>
      <trkpt lat="44.75482" lon="6.71306">
        <ele>2029.5</ele>
        <time>2014-07-09T14:30:45Z</time>
      </trkpt>
      <trkpt lat="44.75485" lon="6.71303">
        <ele>2029.4</ele>
        <time>2014-07-09T14:30:46Z</time>
      </trkpt>
      <trkpt lat="44.75562" lon="6.71255">
        <ele>2018.1</ele>
        <time>2014-07-09T14:33:05Z</time>
      </trkpt>
      <trkpt lat="44.75566" lon="6.71255">
        <ele>2016.9</ele>
        <time>2014-07-09T14:33:06Z</time>
      </trkpt>
      <trkpt lat="44.75649" lon="6.71224">
        <ele>2000</ele>
        <time>2014-07-09T14:34:11Z</time>
      </trkpt>
      <trkpt lat="44.75651" lon="6.71224">
        <ele>1999.5</ele>
        <time>2014-07-09T14:34:12Z</time>
      </trkpt>
      <trkpt lat="44.7573" lon="6.71257">
        <ele>1991.3</ele>
        <time>2014-07-09T14:35:31Z</time>
      </trkpt>
      <trkpt lat="44.75733" lon="6.71259">
        <ele>1991.1</ele>
        <time>2014-07-09T14:35:32Z</time>
      </trkpt>
      <trkpt lat="44.75775" lon="6.71273">
        <ele>1972.8</ele>
        <time>2014-07-09T14:36:49Z</time>
      </trkpt>
      <trkpt lat="44.75817" lon="6.71281">
        <ele>1961.1</ele>
        <time>2014-07-09T14:37:51Z</time>
      </trkpt>
      <trkpt lat="44.75862" lon="6.71284">
        <ele>1952.5</ele>
        <time>2014-07-09T14:38:53Z</time>
      </trkpt>
      <trkpt lat="44.75941" lon="6.71313">
        <ele>1944</ele>
        <time>2014-07-09T14:40:26Z</time>
      </trkpt>
      <trkpt lat="44.75944" lon="6.71315">
        <ele>1943.5</ele>
        <time>2014-07-09T14:40:27Z</time>
      </trkpt>
      <trkpt lat="44.76007" lon="6.71396">
        <ele>1924.4</ele>
        <time>2014-07-09T14:42:52Z</time>
      </trkpt>
      <trkpt lat="44.76005" lon="6.714">
        <ele>1923</ele>
        <time>2014-07-09T14:42:53Z</time>
      </trkpt>
      <trkpt lat="44.75963" lon="6.715">
        <ele>1901</ele>
        <time>2014-07-09T14:44:00Z</time>
      </trkpt>
      <trkpt lat="44.7596" lon="6.71503">
        <ele>1900.4</ele>
        <time>2014-07-09T14:44:01Z</time>
      </trkpt>
      <trkpt lat="44.76009" lon="6.71509">
        <ele>1877.3</ele>
        <time>2014-07-09T14:45:47Z</time>
      </trkpt>
      <trkpt lat="44.76089" lon="6.71482">
        <ele>1862.8</ele>
        <time>2014-07-09T14:46:53Z</time>
      </trkpt>
      <trkpt lat="44.76092" lon="6.7148">
        <ele>1862.3</ele>
        <time>2014-07-09T14:46:54Z</time>
      </trkpt>
      <trkpt lat="44.76121" lon="6.71527">
        <ele>1846.9</ele>
        <time>2014-07-09T14:48:29Z</time>
      </trkpt>
      <trkpt lat="44.76112" lon="6.7164">
        <ele>1830.5</ele>
        <time>2014-07-09T14:49:55Z</time>
      </trkpt>
      <trkpt lat="44.76112" lon="6.71645">
        <ele>1829.9</ele>
        <time>2014-07-09T14:49:56Z</time>
      </trkpt>
      <trkpt lat="44.76144" lon="6.71748">
        <ele>1819</ele>
        <time>2014-07-09T14:51:16Z</time>
      </trkpt>
      <trkpt lat="44.76147" lon="6.71751">
        <ele>1819</ele>
        <time>2014-07-09T14:51:17Z</time>
      </trkpt>
      <trkpt lat="44.76192" lon="6.71839">
        <ele>1815.9</ele>
        <time>2014-07-09T14:52:31Z</time>
      </trkpt>
      <trkpt lat="44.76216" lon="6.71891">
        <ele>1805.4</ele>
        <time>2014-07-09T14:53:21Z</time>
      </trkpt>
      <trkpt lat="44.76223" lon="6.71952">
        <ele>1797.8</ele>
        <time>2014-07-09T14:53:50Z</time>
      </trkpt>
      <trkpt lat="44.76223" lon="6.71956">
        <ele>1797.5</ele>
        <time>2014-07-09T14:53:51Z</time>
      </trkpt>
      <trkpt lat="44.76255" lon="6.72027">
        <ele>1802.3</ele>
        <time>2014-07-09T14:54:52Z</time>
      </trkpt>
      <trkpt lat="44.76279" lon="6.72121">
        <ele>1776.5</ele>
        <time>2014-07-09T14:56:03Z</time>
      </trkpt>
      <trkpt lat="44.76302" lon="6.72172">
        <ele>1761</ele>
        <time>2014-07-09T14:56:44Z</time>
      </trkpt>
      <trkpt lat="44.76336" lon="6.72213">
        <ele>1750.1</ele>
        <time>2014-07-09T14:57:22Z</time>
      </trkpt>
      <trkpt lat="44.76338" lon="6.72216">
        <ele>1749.5</ele>
        <time>2014-07-09T14:57:23Z</time>
      </trkpt>
      <trkpt lat="44.76423" lon="6.72296">
        <ele>1736.4</ele>
        <time>2014-07-09T14:58:47Z</time>
      </trkpt>
      <trkpt lat="44.76468" lon="6.72289">
        <ele>1760.8</ele>
        <time>2014-07-09T14:59:04Z</time>
      </trkpt>
      <trkpt lat="44.7651" lon="6.72307">
        <ele>1776.4</ele>
        <time>2014-07-09T14:59:44Z</time>
      </trkpt>
      <trkpt lat="44.76551" lon="6.72326">
        <ele>1790</ele>
        <time>2014-07-09T15:00:19Z</time>
      </trkpt>
      <trkpt lat="44.76555" lon="6.72326">
        <ele>1791.8</ele>
        <time>2014-07-09T15:00:20Z</time>
      </trkpt>
      <trkpt lat="44.76624" lon="6.72391">
        <ele>1801.5</ele>
        <time>2014-07-09T15:01:33Z</time>
      </trkpt>
      <trkpt lat="44.76627" lon="6.72393">
        <ele>1802</ele>
        <time>2014-07-09T15:01:34Z</time>
      </trkpt>
      <trkpt lat="44.76669" lon="6.72428">
        <ele>1800</ele>
        <time>2014-07-09T15:02:14Z</time>
      </trkpt>
      <trkpt lat="44.76824" lon="6.72578">
        <ele>1804.5</ele>
        <time>2014-07-09T15:05:34Z</time>
      </trkpt>
      <trkpt lat="44.7682" lon="6.72639">
        <ele>1772</ele>
        <time>2014-07-09T15:06:13Z</time>
      </trkpt>
      <trkpt lat="44.76812" lon="6.727">
        <ele>1743</ele>
        <time>2014-07-09T15:06:28Z</time>
      </trkpt>
      <trkpt lat="44.76796" lon="6.72759">
        <ele>1707</ele>
        <time>2014-07-09T15:06:44Z</time>
      </trkpt>
      <trkpt lat="44.76794" lon="6.72764">
        <ele>1704.1</ele>
        <time>2014-07-09T15:06:45Z</time>
      </trkpt>
      <trkpt lat="44.76761" lon="6.72868">
        <ele>1647.5</ele>
        <time>2014-07-09T15:07:22Z</time>
      </trkpt>
      <trkpt lat="44.76761" lon="6.72932">
        <ele>1627</ele>
        <time>2014-07-09T15:07:54Z</time>
      </trkpt>
      <trkpt lat="44.76761" lon="6.72937">
        <ele>1626</ele>
        <time>2014-07-09T15:07:55Z</time>
      </trkpt>
      <trkpt lat="44.76731" lon="6.73025">
        <ele>1613.3</ele>
        <time>2014-07-09T15:18:53Z</time>
      </trkpt>
      <trkpt lat="44.76722" lon="6.73058">
        <ele>1629.4</ele>
        <time>2014-07-10T07:01:20Z</time>
      </trkpt>
      <trkpt lat="44.76723" lon="6.73055">
        <ele>1627</ele>
        <time>2014-07-10T07:01:21Z</time>
      </trkpt>
      <trkpt lat="44.76741" lon="6.7312">
        <ele>1614</ele>
        <time>2014-07-10T07:06:23Z</time>
      </trkpt>
      <trkpt lat="44.76729" lon="6.73238">
        <ele>1602.1</ele>
        <time>2014-07-10T07:07:35Z</time>
      </trkpt>
      <trkpt lat="44.76728" lon="6.73244">
        <ele>1601.6</ele>
        <time>2014-07-10T07:07:36Z</time>
      </trkpt>
      <trkpt lat="44.76718" lon="6.73343">
        <ele>1592.3</ele>
        <time>2014-07-10T07:08:28Z</time>
      </trkpt>
      <trkpt lat="44.76713" lon="6.73383">
        <ele>1587</ele>
        <time>2014-07-10T07:09:00Z</time>
      </trkpt>
      <trkpt lat="44.76706" lon="6.73433">
        <ele>1582.6</ele>
        <time>2014-07-10T07:09:01Z</time>
      </trkpt>
      <trkpt lat="44.76696" lon="6.73495">
        <ele>1578.4</ele>
        <time>2014-07-10T07:10:04Z</time>
      </trkpt>
      <trkpt lat="44.76699" lon="6.73545">
        <ele>1574.8</ele>
        <time>2014-07-10T07:10:05Z</time>
      </trkpt>
      <trkpt lat="44.76746" lon="6.73571">
        <ele>1575.3</ele>
        <time>2014-07-10T07:11:08Z</time>
      </trkpt>
      <trkpt lat="44.76749" lon="6.73573">
        <ele>1575.3</ele>
        <time>2014-07-10T07:11:09Z</time>
      </trkpt>
      <trkpt lat="44.7678" lon="6.73643">
        <ele>1577.5</ele>
        <time>2014-07-10T07:12:17Z</time>
      </trkpt>
      <trkpt lat="44.76792" lon="6.73692">
        <ele>1578.1</ele>
        <time>2014-07-10T07:12:18Z</time>
      </trkpt>
      <trkpt lat="44.76803" lon="6.7375">
        <ele>1581.6</ele>
        <time>2014-07-10T07:12:58Z</time>
      </trkpt>
      <trkpt lat="44.76792" lon="6.73811">
        <ele>1573.3</ele>
        <time>2014-07-10T07:16:51Z</time>
      </trkpt>
      <trkpt lat="44.76791" lon="6.73811">
        <ele>1573.3</ele>
        <time>2014-07-10T07:16:52Z</time>
      </trkpt>
      <trkpt lat="44.76749" lon="6.73837">
        <ele>1569</ele>
        <time>2014-07-10T07:21:46Z</time>
      </trkpt>
      <trkpt lat="44.76676" lon="6.7389">
        <ele>1563.9</ele>
        <time>2014-07-10T07:22:42Z</time>
      </trkpt>
      <trkpt lat="44.76644" lon="6.73934">
        <ele>1556.6</ele>
        <time>2014-07-10T07:23:00Z</time>
      </trkpt>
      <trkpt lat="44.76643" lon="6.73935">
        <ele>1556.5</ele>
        <time>2014-07-10T07:23:01Z</time>
      </trkpt>
      <trkpt lat="44.76616" lon="6.74045">
        <ele>1562.3</ele>
        <time>2014-07-10T07:24:29Z</time>
      </trkpt>
      <trkpt lat="44.76615" lon="6.7405">
        <ele>1562.5</ele>
        <time>2014-07-10T07:24:30Z</time>
      </trkpt>
      <trkpt lat="44.76571" lon="6.74151">
        <ele>1568</ele>
        <time>2014-07-10T07:25:34Z</time>
      </trkpt>
      <trkpt lat="44.76569" lon="6.74154">
        <ele>1569.4</ele>
        <time>2014-07-10T07:25:35Z</time>
      </trkpt>
      <trkpt lat="44.76513" lon="6.74244">
        <ele>1590.6</ele>
        <time>2014-07-10T07:26:54Z</time>
      </trkpt>
      <trkpt lat="44.76511" lon="6.74248">
        <ele>1591</ele>
        <time>2014-07-10T07:26:55Z</time>
      </trkpt>
      <trkpt lat="44.76474" lon="6.74352">
        <ele>1598.6</ele>
        <time>2014-07-10T07:28:29Z</time>
      </trkpt>
      <trkpt lat="44.76472" lon="6.74357">
        <ele>1598.9</ele>
        <time>2014-07-10T07:28:30Z</time>
      </trkpt>
      <trkpt lat="44.76442" lon="6.74439">
        <ele>1604.6</ele>
        <time>2014-07-10T07:29:20Z</time>
      </trkpt>
      <trkpt lat="44.76417" lon="6.74483">
        <ele>1609.6</ele>
        <time>2014-07-10T07:29:45Z</time>
      </trkpt>
      <trkpt lat="44.76484" lon="6.74413">
        <ele>1621.8</ele>
        <time>2014-07-10T07:31:07Z</time>
      </trkpt>
      <trkpt lat="44.7654" lon="6.74338">
        <ele>1631.5</ele>
        <time>2014-07-10T07:32:16Z</time>
      </trkpt>
      <trkpt lat="44.7657" lon="6.7431">
        <ele>1636</ele>
        <time>2014-07-10T07:32:17Z</time>
      </trkpt>
      <trkpt lat="44.76535" lon="6.74406">
        <ele>1649</ele>
        <time>2014-07-10T07:34:17Z</time>
      </trkpt>
      <trkpt lat="44.76503" lon="6.74515">
        <ele>1660</ele>
        <time>2014-07-10T07:35:30Z</time>
      </trkpt>
      <trkpt lat="44.76501" lon="6.74519">
        <ele>1660.4</ele>
        <time>2014-07-10T07:35:31Z</time>
      </trkpt>
      <trkpt lat="44.76465" lon="6.7462">
        <ele>1675.1</ele>
        <time>2014-07-10T07:36:48Z</time>
      </trkpt>
      <trkpt lat="44.76462" lon="6.74624">
        <ele>1675.6</ele>
        <time>2014-07-10T07:36:49Z</time>
      </trkpt>
      <trkpt lat="44.76426" lon="6.74728">
        <ele>1683.6</ele>
        <time>2014-07-10T07:37:40Z</time>
      </trkpt>
      <trkpt lat="44.76416" lon="6.74761">
        <ele>1687</ele>
        <time>2014-07-10T07:38:12Z</time>
      </trkpt>
      <trkpt lat="44.76401" lon="6.74799">
        <ele>1691</ele>
        <time>2014-07-10T07:38:13Z</time>
      </trkpt>
      <trkpt lat="44.7637" lon="6.74846">
        <ele>1696.6</ele>
        <time>2014-07-10T07:39:20Z</time>
      </trkpt>
      <trkpt lat="44.76367" lon="6.74849">
        <ele>1697.1</ele>
        <time>2014-07-10T07:39:21Z</time>
      </trkpt>
      <trkpt lat="44.76302" lon="6.74922">
        <ele>1699.5</ele>
        <time>2014-07-10T07:40:58Z</time>
      </trkpt>
      <trkpt lat="44.76301" lon="6.74927">
        <ele>1700.5</ele>
        <time>2014-07-10T07:40:59Z</time>
      </trkpt>
      <trkpt lat="44.76301" lon="6.75041">
        <ele>1713</ele>
        <time>2014-07-10T07:42:17Z</time>
      </trkpt>
      <trkpt lat="44.76302" lon="6.75046">
        <ele>1713.8</ele>
        <time>2014-07-10T07:42:18Z</time>
      </trkpt>
      <trkpt lat="44.76321" lon="6.75129">
        <ele>1721</ele>
        <time>2014-07-10T07:43:07Z</time>
      </trkpt>
      <trkpt lat="44.76328" lon="6.75182">
        <ele>1724.6</ele>
        <time>2014-07-10T07:43:32Z</time>
      </trkpt>
      <trkpt lat="44.76321" lon="6.75238">
        <ele>1728</ele>
        <time>2014-07-10T07:44:17Z</time>
      </trkpt>
      <trkpt lat="44.76315" lon="6.75294">
        <ele>1734.5</ele>
        <time>2014-07-10T07:44:51Z</time>
      </trkpt>
      <trkpt lat="44.76302" lon="6.75346">
        <ele>1741.9</ele>
        <time>2014-07-10T07:45:24Z</time>
      </trkpt>
      <trkpt lat="44.7628" lon="6.75386">
        <ele>1739</ele>
        <time>2014-07-10T07:45:25Z</time>
      </trkpt>
      <trkpt lat="44.76269" lon="6.75452">
        <ele>1744</ele>
        <time>2014-07-10T07:45:57Z</time>
      </trkpt>
      <trkpt lat="44.76258" lon="6.75513">
        <ele>1743.9</ele>
        <time>2014-07-10T07:46:24Z</time>
      </trkpt>
      <trkpt lat="44.76243" lon="6.75549">
        <ele>1745.8</ele>
        <time>2014-07-10T07:47:11Z</time>
      </trkpt>
      <trkpt lat="44.76215" lon="6.7558">
        <ele>1750.8</ele>
        <time>2014-07-10T07:47:12Z</time>
      </trkpt>
      <trkpt lat="44.76191" lon="6.75639">
        <ele>1758.8</ele>
        <time>2014-07-10T07:47:50Z</time>
      </trkpt>
      <trkpt lat="44.76169" lon="6.75693">
        <ele>1763.9</ele>
        <time>2014-07-10T07:48:26Z</time>
      </trkpt>
      <trkpt lat="44.76168" lon="6.75694">
        <ele>1764</ele>
        <time>2014-07-10T07:48:27Z</time>
      </trkpt>
      <trkpt lat="44.7616" lon="6.75813">
        <ele>1769.8</ele>
        <time>2014-07-10T07:49:57Z</time>
      </trkpt>
      <trkpt lat="44.76159" lon="6.75818">
        <ele>1770.5</ele>
        <time>2014-07-10T07:49:58Z</time>
      </trkpt>
      <trkpt lat="44.76192" lon="6.75886">
        <ele>1796.5</ele>
        <time>2014-07-10T07:52:21Z</time>
      </trkpt>
      <trkpt lat="44.76195" lon="6.75884">
        <ele>1797</ele>
        <time>2014-07-10T07:52:22Z</time>
      </trkpt>
      <trkpt lat="44.76262" lon="6.75813">
        <ele>1811.1</ele>
        <time>2014-07-10T07:53:35Z</time>
      </trkpt>
      <trkpt lat="44.76265" lon="6.7581">
        <ele>1811.9</ele>
        <time>2014-07-10T07:53:36Z</time>
      </trkpt>
      <trkpt lat="44.76342" lon="6.75771">
        <ele>1825.5</ele>
        <time>2014-07-10T07:54:54Z</time>
      </trkpt>
      <trkpt lat="44.76345" lon="6.75768">
        <ele>1826</ele>
        <time>2014-07-10T07:54:55Z</time>
      </trkpt>
      <trkpt lat="44.76357" lon="6.75831">
        <ele>1840</ele>
        <time>2014-07-10T07:56:08Z</time>
      </trkpt>
      <trkpt lat="44.76324" lon="6.75943">
        <ele>1846.6</ele>
        <time>2014-07-10T07:57:21Z</time>
      </trkpt>
      <trkpt lat="44.76322" lon="6.75948">
        <ele>1846.8</ele>
        <time>2014-07-10T07:57:22Z</time>
      </trkpt>
      <trkpt lat="44.76286" lon="6.76056">
        <ele>1851</ele>
        <time>2014-07-10T07:58:20Z</time>
      </trkpt>
      <trkpt lat="44.76266" lon="6.76111">
        <ele>1853.8</ele>
        <time>2014-07-10T07:58:37Z</time>
      </trkpt>
      <trkpt lat="44.76265" lon="6.76114">
        <ele>1853.9</ele>
        <time>2014-07-10T07:58:38Z</time>
      </trkpt>
      <trkpt lat="44.76226" lon="6.76195">
        <ele>1855</ele>
        <time>2014-07-10T07:59:25Z</time>
      </trkpt>
      <trkpt lat="44.76202" lon="6.76225">
        <ele>1859.1</ele>
        <time>2014-07-10T08:00:04Z</time>
      </trkpt>
      <trkpt lat="44.76185" lon="6.76246">
        <ele>1862.4</ele>
        <time>2014-07-10T08:00:05Z</time>
      </trkpt>
      <trkpt lat="44.76161" lon="6.7631">
        <ele>1861.1</ele>
        <time>2014-07-10T08:01:17Z</time>
      </trkpt>
      <trkpt lat="44.76158" lon="6.76314">
        <ele>1860.6</ele>
        <time>2014-07-10T08:01:18Z</time>
      </trkpt>
      <trkpt lat="44.76129" lon="6.7642">
        <ele>1854.8</ele>
        <time>2014-07-10T08:02:43Z</time>
      </trkpt>
      <trkpt lat="44.76128" lon="6.76424">
        <ele>1855.3</ele>
        <time>2014-07-10T08:02:44Z</time>
      </trkpt>
      <trkpt lat="44.76106" lon="6.76536">
        <ele>1871</ele>
        <time>2014-07-10T08:05:06Z</time>
      </trkpt>
      <trkpt lat="44.76108" lon="6.7654">
        <ele>1870.8</ele>
        <time>2014-07-10T08:05:07Z</time>
      </trkpt>
      <trkpt lat="44.76178" lon="6.76603">
        <ele>1857.9</ele>
        <time>2014-07-10T08:06:23Z</time>
      </trkpt>
      <trkpt lat="44.76181" lon="6.76605">
        <ele>1857.4</ele>
        <time>2014-07-10T08:06:24Z</time>
      </trkpt>
      <trkpt lat="44.76257" lon="6.76652">
        <ele>1856.3</ele>
        <time>2014-07-10T08:07:10Z</time>
      </trkpt>
      <trkpt lat="44.76296" lon="6.76674">
        <ele>1854.5</ele>
        <time>2014-07-10T08:07:51Z</time>
      </trkpt>
      <trkpt lat="44.763" lon="6.76675">
        <ele>1854</ele>
        <time>2014-07-10T08:07:52Z</time>
      </trkpt>
      <trkpt lat="44.76382" lon="6.7668">
        <ele>1849.8</ele>
        <time>2014-07-10T08:08:56Z</time>
      </trkpt>
      <trkpt lat="44.76386" lon="6.7668">
        <ele>1849.9</ele>
        <time>2014-07-10T08:08:57Z</time>
      </trkpt>
      <trkpt lat="44.76431" lon="6.76756">
        <ele>1847.1</ele>
        <time>2014-07-10T08:11:39Z</time>
      </trkpt>
      <trkpt lat="44.76435" lon="6.76756">
        <ele>1846.1</ele>
        <time>2014-07-10T08:11:40Z</time>
      </trkpt>
      <trkpt lat="44.76518" lon="6.76748">
        <ele>1833.8</ele>
        <time>2014-07-10T08:12:50Z</time>
      </trkpt>
      <trkpt lat="44.76522" lon="6.76748">
        <ele>1833.5</ele>
        <time>2014-07-10T08:12:51Z</time>
      </trkpt>
      <trkpt lat="44.76602" lon="6.76759">
        <ele>1835.8</ele>
        <time>2014-07-10T08:13:48Z</time>
      </trkpt>
      <trkpt lat="44.76645" lon="6.76776">
        <ele>1834.8</ele>
        <time>2014-07-10T08:14:27Z</time>
      </trkpt>
      <trkpt lat="44.76648" lon="6.76777">
        <ele>1834.5</ele>
        <time>2014-07-10T08:14:28Z</time>
      </trkpt>
      <trkpt lat="44.76727" lon="6.76778">
        <ele>1827.5</ele>
        <time>2014-07-10T08:15:33Z</time>
      </trkpt>
      <trkpt lat="44.76731" lon="6.76776">
        <ele>1827.3</ele>
        <time>2014-07-10T08:15:34Z</time>
      </trkpt>
      <trkpt lat="44.76806" lon="6.76725">
        <ele>1823.8</ele>
        <time>2014-07-10T08:16:49Z</time>
      </trkpt>
      <trkpt lat="44.76809" lon="6.76721">
        <ele>1823.6</ele>
        <time>2014-07-10T08:16:50Z</time>
      </trkpt>
      <trkpt lat="44.76869" lon="6.76637">
        <ele>1848</ele>
        <time>2014-07-10T08:18:06Z</time>
      </trkpt>
      <trkpt lat="44.76872" lon="6.76635">
        <ele>1847.5</ele>
        <time>2014-07-10T08:18:07Z</time>
      </trkpt>
      <trkpt lat="44.76952" lon="6.76602">
        <ele>1831.5</ele>
        <time>2014-07-10T08:19:28Z</time>
      </trkpt>
      <trkpt lat="44.76955" lon="6.766">
        <ele>1831.9</ele>
        <time>2014-07-10T08:19:29Z</time>
      </trkpt>
      <trkpt lat="44.7703" lon="6.76545">
        <ele>1838</ele>
        <time>2014-07-10T08:20:36Z</time>
      </trkpt>
      <trkpt lat="44.77033" lon="6.76543">
        <ele>1837.6</ele>
        <time>2014-07-10T08:20:37Z</time>
      </trkpt>
      <trkpt lat="44.77107" lon="6.76489">
        <ele>1837.5</ele>
        <time>2014-07-10T08:21:44Z</time>
      </trkpt>
      <trkpt lat="44.7711" lon="6.76488">
        <ele>1837.5</ele>
        <time>2014-07-10T08:21:45Z</time>
      </trkpt>
      <trkpt lat="44.77194" lon="6.7647">
        <ele>1837.9</ele>
        <time>2014-07-10T08:22:54Z</time>
      </trkpt>
      <trkpt lat="44.77198" lon="6.7647">
        <ele>1837.9</ele>
        <time>2014-07-10T08:22:55Z</time>
      </trkpt>
      <trkpt lat="44.77283" lon="6.7647">
        <ele>1835.8</ele>
        <time>2014-07-10T08:24:02Z</time>
      </trkpt>
      <trkpt lat="44.77287" lon="6.7647">
        <ele>1835.6</ele>
        <time>2014-07-10T08:24:03Z</time>
      </trkpt>
      <trkpt lat="44.77363" lon="6.76511">
        <ele>1830.5</ele>
        <time>2014-07-10T08:25:15Z</time>
      </trkpt>
      <trkpt lat="44.77366" lon="6.76515">
        <ele>1830.4</ele>
        <time>2014-07-10T08:25:16Z</time>
      </trkpt>
      <trkpt lat="44.77441" lon="6.76558">
        <ele>1823.8</ele>
        <time>2014-07-10T08:26:30Z</time>
      </trkpt>
      <trkpt lat="44.77445" lon="6.76557">
        <ele>1823.5</ele>
        <time>2014-07-10T08:26:31Z</time>
      </trkpt>
      <trkpt lat="44.77523" lon="6.76518">
        <ele>1814.1</ele>
        <time>2014-07-10T08:27:41Z</time>
      </trkpt>
      <trkpt lat="44.77526" lon="6.76516">
        <ele>1814.5</ele>
        <time>2014-07-10T08:27:42Z</time>
      </trkpt>
      <trkpt lat="44.77604" lon="6.76542">
        <ele>1850</ele>
        <time>2014-07-10T08:28:58Z</time>
      </trkpt>
      <trkpt lat="44.77607" lon="6.76544">
        <ele>1848</ele>
        <time>2014-07-10T08:28:59Z</time>
      </trkpt>
      <trkpt lat="44.77648" lon="6.76588">
        <ele>1829.5</ele>
        <time>2014-07-10T08:29:49Z</time>
      </trkpt>
      <trkpt lat="44.7762" lon="6.76637">
        <ele>1826</ele>
        <time>2014-07-10T08:30:31Z</time>
      </trkpt>
      <trkpt lat="44.77618" lon="6.76637">
        <ele>1825.9</ele>
        <time>2014-07-10T08:30:32Z</time>
      </trkpt>
      <trkpt lat="44.77593" lon="6.76704">
        <ele>1831</ele>
        <time>2014-07-10T08:31:36Z</time>
      </trkpt>
      <trkpt lat="44.77592" lon="6.76741">
        <ele>1834.3</ele>
        <time>2014-07-10T08:31:37Z</time>
      </trkpt>
      <trkpt lat="44.77593" lon="6.76769">
        <ele>1842</ele>
        <time>2014-07-10T08:33:24Z</time>
      </trkpt>
      <trkpt lat="44.7753" lon="6.76848">
        <ele>1849.1</ele>
        <time>2014-07-10T08:35:30Z</time>
      </trkpt>
      <trkpt lat="44.77527" lon="6.76852">
        <ele>1848.8</ele>
        <time>2014-07-10T08:35:31Z</time>
      </trkpt>
      <trkpt lat="44.77456" lon="6.76897">
        <ele>1837.5</ele>
        <time>2014-07-10T08:37:26Z</time>
      </trkpt>
      <trkpt lat="44.77452" lon="6.76896">
        <ele>1836.8</ele>
        <time>2014-07-10T08:37:27Z</time>
      </trkpt>
      <trkpt lat="44.77402" lon="6.76896">
        <ele>1835</ele>
        <time>2014-07-10T08:39:00Z</time>
      </trkpt>
      <trkpt lat="44.77399" lon="6.76899">
        <ele>1834.6</ele>
        <time>2014-07-10T08:39:01Z</time>
      </trkpt>
      <trkpt lat="44.77336" lon="6.76955">
        <ele>1816.4</ele>
        <time>2014-07-10T08:40:55Z</time>
      </trkpt>
      <trkpt lat="44.77333" lon="6.76954">
        <ele>1815.6</ele>
        <time>2014-07-10T08:40:56Z</time>
      </trkpt>
      <trkpt lat="44.7728" lon="6.76938">
        <ele>1804.6</ele>
        <time>2014-07-10T08:41:49Z</time>
      </trkpt>
      <trkpt lat="44.77238" lon="6.76937">
        <ele>1798.8</ele>
        <time>2014-07-10T08:42:24Z</time>
      </trkpt>
      <trkpt lat="44.77211" lon="6.76972">
        <ele>1797.8</ele>
        <time>2014-07-10T08:42:25Z</time>
      </trkpt>
      <trkpt lat="44.77181" lon="6.77016">
        <ele>1792.4</ele>
        <time>2014-07-10T08:43:29Z</time>
      </trkpt>
      <trkpt lat="44.77158" lon="6.77056">
        <ele>1792.6</ele>
        <time>2014-07-10T08:43:30Z</time>
      </trkpt>
      <trkpt lat="44.77118" lon="6.77081">
        <ele>1787.9</ele>
        <time>2014-07-10T08:44:33Z</time>
      </trkpt>
      <trkpt lat="44.77082" lon="6.7708">
        <ele>1781.1</ele>
        <time>2014-07-10T08:44:34Z</time>
      </trkpt>
      <trkpt lat="44.77054" lon="6.77141">
        <ele>1782.1</ele>
        <time>2014-07-10T08:45:43Z</time>
      </trkpt>
      <trkpt lat="44.77044" lon="6.77191">
        <ele>1778.1</ele>
        <time>2014-07-10T08:45:44Z</time>
      </trkpt>
      <trkpt lat="44.77005" lon="6.7718">
        <ele>1766.4</ele>
        <time>2014-07-10T08:47:14Z</time>
      </trkpt>
      <trkpt lat="44.76974" lon="6.77205">
        <ele>1760.6</ele>
        <time>2014-07-10T08:47:15Z</time>
      </trkpt>
      <trkpt lat="44.76961" lon="6.77264">
        <ele>1761</ele>
        <time>2014-07-10T08:48:17Z</time>
      </trkpt>
      <trkpt lat="44.76941" lon="6.77306">
        <ele>1759.6</ele>
        <time>2014-07-10T08:48:18Z</time>
      </trkpt>
      <trkpt lat="44.7691" lon="6.77357">
        <ele>1749.1</ele>
        <time>2014-07-10T08:49:40Z</time>
      </trkpt>
      <trkpt lat="44.7691" lon="6.77362">
        <ele>1748.3</ele>
        <time>2014-07-10T08:49:41Z</time>
      </trkpt>
      <trkpt lat="44.76898" lon="6.77452">
        <ele>1748.3</ele>
        <time>2014-07-10T09:00:52Z</time>
      </trkpt>
      <trkpt lat="44.76859" lon="6.77487">
        <ele>1743.9</ele>
        <time>2014-07-10T09:01:59Z</time>
      </trkpt>
      <trkpt lat="44.76856" lon="6.77489">
        <ele>1742</ele>
        <time>2014-07-10T09:02:00Z</time>
      </trkpt>
      <trkpt lat="44.76832" lon="6.77558">
        <ele>1717.5</ele>
        <time>2014-07-10T09:02:59Z</time>
      </trkpt>
      <trkpt lat="44.76832" lon="6.7762">
        <ele>1718.8</ele>
        <time>2014-07-10T09:03:38Z</time>
      </trkpt>
      <trkpt lat="44.76834" lon="6.77624">
        <ele>1718</ele>
        <time>2014-07-10T09:03:39Z</time>
      </trkpt>
      <trkpt lat="44.76869" lon="6.77727">
        <ele>1712.4</ele>
        <time>2014-07-10T09:04:48Z</time>
      </trkpt>
      <trkpt lat="44.76871" lon="6.77731">
        <ele>1712.5</ele>
        <time>2014-07-10T09:04:49Z</time>
      </trkpt>
      <trkpt lat="44.76903" lon="6.7777">
        <ele>1710.8</ele>
        <time>2014-07-10T09:05:51Z</time>
      </trkpt>
      <trkpt lat="44.76993" lon="6.77884">
        <ele>1686.8</ele>
        <time>2014-07-10T09:08:01Z</time>
      </trkpt>
      <trkpt lat="44.77003" lon="6.77897">
        <ele>1682.8</ele>
        <time>2014-07-10T09:08:21Z</time>
      </trkpt>
      <trkpt lat="44.7703" lon="6.77939">
        <ele>1679.5</ele>
        <time>2014-07-10T09:09:05Z</time>
      </trkpt>
      <trkpt lat="44.77044" lon="6.7796">
        <ele>1672.5</ele>
        <time>2014-07-10T09:09:24Z</time>
      </trkpt>
      <trkpt lat="44.7708" lon="6.78041">
        <ele>1668.5</ele>
        <time>2014-07-10T09:11:02Z</time>
      </trkpt>
      <trkpt lat="44.77045" lon="6.78076">
        <ele>1687.9</ele>
        <time>2014-07-10T09:11:50Z</time>
      </trkpt>
      <trkpt lat="44.77007" lon="6.78108">
        <ele>1693.5</ele>
        <time>2014-07-10T09:12:47Z</time>
      </trkpt>
      <trkpt lat="44.77004" lon="6.78112">
        <ele>1694</ele>
        <time>2014-07-10T09:12:48Z</time>
      </trkpt>
      <trkpt lat="44.76934" lon="6.78162">
        <ele>1703</ele>
        <time>2014-07-10T09:13:58Z</time>
      </trkpt>
      <trkpt lat="44.7693" lon="6.78162">
        <ele>1703</ele>
        <time>2014-07-10T09:13:59Z</time>
      </trkpt>
      <trkpt lat="44.76846" lon="6.78174">
        <ele>1707.5</ele>
        <time>2014-07-10T09:15:12Z</time>
      </trkpt>
      <trkpt lat="44.76843" lon="6.78174">
        <ele>1707.9</ele>
        <time>2014-07-10T09:15:13Z</time>
      </trkpt>
      <trkpt lat="44.76803" lon="6.782">
        <ele>1701.5</ele>
        <time>2014-07-10T09:16:15Z</time>
      </trkpt>
      <trkpt lat="44.76738" lon="6.78274">
        <ele>1702.4</ele>
        <time>2014-07-10T09:17:21Z</time>
      </trkpt>
      <trkpt lat="44.76735" lon="6.78276">
        <ele>1702.8</ele>
        <time>2014-07-10T09:17:22Z</time>
      </trkpt>
      <trkpt lat="44.76659" lon="6.78314">
        <ele>1700.1</ele>
        <time>2014-07-10T09:18:34Z</time>
      </trkpt>
      <trkpt lat="44.76656" lon="6.78315">
        <ele>1700.3</ele>
        <time>2014-07-10T09:18:35Z</time>
      </trkpt>
      <trkpt lat="44.76573" lon="6.78338">
        <ele>1701.1</ele>
        <time>2014-07-10T09:19:43Z</time>
      </trkpt>
      <trkpt lat="44.7657" lon="6.78339">
        <ele>1701.4</ele>
        <time>2014-07-10T09:19:44Z</time>
      </trkpt>
      <trkpt lat="44.7649" lon="6.78374">
        <ele>1695.1</ele>
        <time>2014-07-10T09:21:02Z</time>
      </trkpt>
      <trkpt lat="44.76487" lon="6.78376">
        <ele>1694.9</ele>
        <time>2014-07-10T09:21:03Z</time>
      </trkpt>
      <trkpt lat="44.76418" lon="6.78437">
        <ele>1690.3</ele>
        <time>2014-07-10T09:22:13Z</time>
      </trkpt>
      <trkpt lat="44.76415" lon="6.7844">
        <ele>1690.4</ele>
        <time>2014-07-10T09:22:14Z</time>
      </trkpt>
      <trkpt lat="44.76349" lon="6.78507">
        <ele>1687.8</ele>
        <time>2014-07-10T09:23:19Z</time>
      </trkpt>
      <trkpt lat="44.76347" lon="6.78509">
        <ele>1687.6</ele>
        <time>2014-07-10T09:23:20Z</time>
      </trkpt>
      <trkpt lat="44.76293" lon="6.786">
        <ele>1690.1</ele>
        <time>2014-07-10T09:24:31Z</time>
      </trkpt>
      <trkpt lat="44.76291" lon="6.78603">
        <ele>1690</ele>
        <time>2014-07-10T09:24:32Z</time>
      </trkpt>
      <trkpt lat="44.76246" lon="6.78705">
        <ele>1687</ele>
        <time>2014-07-10T09:25:37Z</time>
      </trkpt>
      <trkpt lat="44.76245" lon="6.78709">
        <ele>1686.9</ele>
        <time>2014-07-10T09:25:38Z</time>
      </trkpt>
      <trkpt lat="44.76208" lon="6.78816">
        <ele>1681.4</ele>
        <time>2014-07-10T09:26:51Z</time>
      </trkpt>
      <trkpt lat="44.76208" lon="6.78821">
        <ele>1680.9</ele>
        <time>2014-07-10T09:26:52Z</time>
      </trkpt>
      <trkpt lat="44.7618" lon="6.78928">
        <ele>1681.5</ele>
        <time>2014-07-10T09:29:54Z</time>
      </trkpt>
      <trkpt lat="44.76179" lon="6.78932">
        <ele>1681</ele>
        <time>2014-07-10T09:29:55Z</time>
      </trkpt>
      <trkpt lat="44.76167" lon="6.79049">
        <ele>1668.6</ele>
        <time>2014-07-10T09:31:20Z</time>
      </trkpt>
      <trkpt lat="44.76168" lon="6.79053">
        <ele>1668.4</ele>
        <time>2014-07-10T09:31:21Z</time>
      </trkpt>
      <trkpt lat="44.76189" lon="6.79168">
        <ele>1662.8</ele>
        <time>2014-07-10T09:32:26Z</time>
      </trkpt>
      <trkpt lat="44.76191" lon="6.79172">
        <ele>1662.8</ele>
        <time>2014-07-10T09:32:27Z</time>
      </trkpt>
      <trkpt lat="44.76232" lon="6.79273">
        <ele>1662</ele>
        <time>2014-07-10T09:33:36Z</time>
      </trkpt>
      <trkpt lat="44.76234" lon="6.79277">
        <ele>1661.6</ele>
        <time>2014-07-10T09:33:37Z</time>
      </trkpt>
      <trkpt lat="44.76256" lon="6.79373">
        <ele>1658.6</ele>
        <time>2014-07-10T09:37:14Z</time>
      </trkpt>
      <trkpt lat="44.76273" lon="6.79417">
        <ele>1652</ele>
        <time>2014-07-10T09:37:15Z</time>
      </trkpt>
      <trkpt lat="44.76304" lon="6.79468">
        <ele>1648</ele>
        <time>2014-07-10T09:38:21Z</time>
      </trkpt>
      <trkpt lat="44.76307" lon="6.79471">
        <ele>1648</ele>
        <time>2014-07-10T09:38:22Z</time>
      </trkpt>
      <trkpt lat="44.76366" lon="6.79554">
        <ele>1642.1</ele>
        <time>2014-07-10T09:39:26Z</time>
      </trkpt>
      <trkpt lat="44.76369" lon="6.79557">
        <ele>1642.1</ele>
        <time>2014-07-10T09:39:27Z</time>
      </trkpt>
      <trkpt lat="44.76416" lon="6.79652">
        <ele>1649.9</ele>
        <time>2014-07-10T09:40:34Z</time>
      </trkpt>
      <trkpt lat="44.76417" lon="6.79657">
        <ele>1650.3</ele>
        <time>2014-07-10T09:40:35Z</time>
      </trkpt>
      <trkpt lat="44.76421" lon="6.79751">
        <ele>1662.5</ele>
        <time>2014-07-10T09:41:41Z</time>
      </trkpt>
      <trkpt lat="44.76427" lon="6.79802">
        <ele>1659.1</ele>
        <time>2014-07-10T09:41:42Z</time>
      </trkpt>
      <trkpt lat="44.76441" lon="6.79872">
        <ele>1661.1</ele>
        <time>2014-07-10T09:42:48Z</time>
      </trkpt>
      <trkpt lat="44.76442" lon="6.79877">
        <ele>1661.3</ele>
        <time>2014-07-10T09:42:49Z</time>
      </trkpt>
      <trkpt lat="44.76458" lon="6.79946">
        <ele>1661.6</ele>
        <time>2014-07-10T09:43:31Z</time>
      </trkpt>
      <trkpt lat="44.76478" lon="6.79995">
        <ele>1661.4</ele>
        <time>2014-07-10T09:44:03Z</time>
      </trkpt>
      <trkpt lat="44.765" lon="6.80035">
        <ele>1662.4</ele>
        <time>2014-07-10T09:44:04Z</time>
      </trkpt>
      <trkpt lat="44.76527" lon="6.80098">
        <ele>1666.3</ele>
        <time>2014-07-10T09:45:08Z</time>
      </trkpt>
      <trkpt lat="44.7653" lon="6.80102">
        <ele>1666.6</ele>
        <time>2014-07-10T09:45:09Z</time>
      </trkpt>
      <trkpt lat="44.76564" lon="6.80209">
        <ele>1677.9</ele>
        <time>2014-07-10T09:46:09Z</time>
      </trkpt>
      <trkpt lat="44.76565" lon="6.80213">
        <ele>1678.4</ele>
        <time>2014-07-10T09:46:10Z</time>
      </trkpt>
      <trkpt lat="44.76582" lon="6.80328">
        <ele>1690.9</ele>
        <time>2014-07-10T09:46:43Z</time>
      </trkpt>
      <trkpt lat="44.76591" lon="6.80357">
        <ele>1689.8</ele>
        <time>2014-07-10T09:47:23Z</time>
      </trkpt>
      <trkpt lat="44.76602" lon="6.80405">
        <ele>1689.6</ele>
        <time>2014-07-10T09:47:24Z</time>
      </trkpt>
      <trkpt lat="44.76615" lon="6.80468">
        <ele>1703.5</ele>
        <time>2014-07-10T09:49:05Z</time>
      </trkpt>
      <trkpt lat="44.76615" lon="6.80473">
        <ele>1704.3</ele>
        <time>2014-07-10T09:49:06Z</time>
      </trkpt>
      <trkpt lat="44.76651" lon="6.80513">
        <ele>1713.5</ele>
        <time>2014-07-10T09:51:33Z</time>
      </trkpt>
      <trkpt lat="44.76669" lon="6.80621">
        <ele>1720</ele>
        <time>2014-07-10T09:52:38Z</time>
      </trkpt>
      <trkpt lat="44.7667" lon="6.80627">
        <ele>1720.3</ele>
        <time>2014-07-10T09:52:39Z</time>
      </trkpt>
      <trkpt lat="44.76709" lon="6.8072">
        <ele>1725.8</ele>
        <time>2014-07-10T09:53:52Z</time>
      </trkpt>
      <trkpt lat="44.76712" lon="6.80723">
        <ele>1726.3</ele>
        <time>2014-07-10T09:53:53Z</time>
      </trkpt>
      <trkpt lat="44.76744" lon="6.80809">
        <ele>1754.5</ele>
        <time>2014-07-10T09:55:43Z</time>
      </trkpt>
      <trkpt lat="44.76742" lon="6.80813">
        <ele>1752.5</ele>
        <time>2014-07-10T09:55:44Z</time>
      </trkpt>
      <trkpt lat="44.76709" lon="6.80914">
        <ele>1731.5</ele>
        <time>2014-07-10T09:57:08Z</time>
      </trkpt>
      <trkpt lat="44.76712" lon="6.80917">
        <ele>1731.5</ele>
        <time>2014-07-10T09:57:09Z</time>
      </trkpt>
      <trkpt lat="44.76757" lon="6.81019">
        <ele>1733.4</ele>
        <time>2014-07-10T09:58:19Z</time>
      </trkpt>
      <trkpt lat="44.76758" lon="6.81024">
        <ele>1733.9</ele>
        <time>2014-07-10T09:58:20Z</time>
      </trkpt>
      <trkpt lat="44.76776" lon="6.8114">
        <ele>1740.5</ele>
        <time>2014-07-10T09:59:05Z</time>
      </trkpt>
      <trkpt lat="44.76782" lon="6.81201">
        <ele>1740.5</ele>
        <time>2014-07-10T09:59:55Z</time>
      </trkpt>
      <trkpt lat="44.76782" lon="6.81207">
        <ele>1740.1</ele>
        <time>2014-07-10T09:59:56Z</time>
      </trkpt>
      <trkpt lat="44.76762" lon="6.81319">
        <ele>1743.5</ele>
        <time>2014-07-10T10:00:51Z</time>
      </trkpt>
      <trkpt lat="44.76763" lon="6.81378">
        <ele>1748.1</ele>
        <time>2014-07-10T10:01:21Z</time>
      </trkpt>
      <trkpt lat="44.76764" lon="6.81382">
        <ele>1748.5</ele>
        <time>2014-07-10T10:01:22Z</time>
      </trkpt>
      <trkpt lat="44.76798" lon="6.81492">
        <ele>1755.8</ele>
        <time>2014-07-10T10:02:37Z</time>
      </trkpt>
      <trkpt lat="44.76799" lon="6.81497">
        <ele>1756.3</ele>
        <time>2014-07-10T10:02:38Z</time>
      </trkpt>
      <trkpt lat="44.76828" lon="6.81608">
        <ele>1765.3</ele>
        <time>2014-07-10T10:03:48Z</time>
      </trkpt>
      <trkpt lat="44.7683" lon="6.81613">
        <ele>1765.5</ele>
        <time>2014-07-10T10:03:49Z</time>
      </trkpt>
      <trkpt lat="44.76857" lon="6.81707">
        <ele>1770</ele>
        <time>2014-07-10T10:04:50Z</time>
      </trkpt>
      <trkpt lat="44.76875" lon="6.81752">
        <ele>1772.3</ele>
        <time>2014-07-10T10:04:51Z</time>
      </trkpt>
      <trkpt lat="44.76907" lon="6.81808">
        <ele>1775.3</ele>
        <time>2014-07-10T10:05:55Z</time>
      </trkpt>
      <trkpt lat="44.76909" lon="6.81812">
        <ele>1775.5</ele>
        <time>2014-07-10T10:05:56Z</time>
      </trkpt>
      <trkpt lat="44.76973" lon="6.81887">
        <ele>1775.5</ele>
        <time>2014-07-10T10:07:08Z</time>
      </trkpt>
      <trkpt lat="44.76976" lon="6.8189">
        <ele>1775.1</ele>
        <time>2014-07-10T10:07:09Z</time>
      </trkpt>
      <trkpt lat="44.77035" lon="6.81972">
        <ele>1777.3</ele>
        <time>2014-07-10T10:08:17Z</time>
      </trkpt>
      <trkpt lat="44.77038" lon="6.81976">
        <ele>1777.1</ele>
        <time>2014-07-10T10:08:18Z</time>
      </trkpt>
      <trkpt lat="44.771" lon="6.82055">
        <ele>1779.1</ele>
        <time>2014-07-10T10:09:24Z</time>
      </trkpt>
      <trkpt lat="44.77103" lon="6.82058">
        <ele>1779.1</ele>
        <time>2014-07-10T10:09:25Z</time>
      </trkpt>
      <trkpt lat="44.77159" lon="6.82141">
        <ele>1776.4</ele>
        <time>2014-07-10T10:10:35Z</time>
      </trkpt>
      <trkpt lat="44.77161" lon="6.82145">
        <ele>1776.3</ele>
        <time>2014-07-10T10:10:36Z</time>
      </trkpt>
      <trkpt lat="44.77211" lon="6.82233">
        <ele>1775</ele>
        <time>2014-07-10T10:11:43Z</time>
      </trkpt>
      <trkpt lat="44.77213" lon="6.82237">
        <ele>1775</ele>
        <time>2014-07-10T10:11:44Z</time>
      </trkpt>
      <trkpt lat="44.7726" lon="6.82331">
        <ele>1777.1</ele>
        <time>2014-07-10T10:12:48Z</time>
      </trkpt>
      <trkpt lat="44.77262" lon="6.82335">
        <ele>1777</ele>
        <time>2014-07-10T10:12:49Z</time>
      </trkpt>
      <trkpt lat="44.7732" lon="6.82419">
        <ele>1769.8</ele>
        <time>2014-07-10T10:14:06Z</time>
      </trkpt>
      <trkpt lat="44.77322" lon="6.82422">
        <ele>1769.4</ele>
        <time>2014-07-10T10:14:07Z</time>
      </trkpt>
      <trkpt lat="44.77366" lon="6.82426">
        <ele>1776.9</ele>
        <time>2014-07-10T10:26:56Z</time>
      </trkpt>
      <trkpt lat="44.77382" lon="6.82482">
        <ele>1778.6</ele>
        <time>2014-07-10T11:35:39Z</time>
      </trkpt>
      <trkpt lat="44.77459" lon="6.8251">
        <ele>1762.4</ele>
        <time>2014-07-10T11:37:17Z</time>
      </trkpt>
      <trkpt lat="44.77463" lon="6.8251">
        <ele>1762</ele>
        <time>2014-07-10T11:37:18Z</time>
      </trkpt>
      <trkpt lat="44.77543" lon="6.82549">
        <ele>1755.5</ele>
        <time>2014-07-10T11:38:45Z</time>
      </trkpt>
      <trkpt lat="44.77546" lon="6.82551">
        <ele>1755.5</ele>
        <time>2014-07-10T11:38:46Z</time>
      </trkpt>
      <trkpt lat="44.77609" lon="6.82576">
        <ele>1783.3</ele>
        <time>2014-07-10T11:41:33Z</time>
      </trkpt>
      <trkpt lat="44.77605" lon="6.82627">
        <ele>1782.9</ele>
        <time>2014-07-10T11:41:34Z</time>
      </trkpt>
      <trkpt lat="44.77565" lon="6.82664">
        <ele>1786.6</ele>
        <time>2014-07-10T11:42:38Z</time>
      </trkpt>
      <trkpt lat="44.77564" lon="6.82666">
        <ele>1786.5</ele>
        <time>2014-07-10T11:42:39Z</time>
      </trkpt>
      <trkpt lat="44.77537" lon="6.82776">
        <ele>1770.6</ele>
        <time>2014-07-10T11:44:24Z</time>
      </trkpt>
      <trkpt lat="44.77551" lon="6.82823">
        <ele>1771</ele>
        <time>2014-07-10T11:44:25Z</time>
      </trkpt>
      <trkpt lat="44.77572" lon="6.82882">
        <ele>1772.5</ele>
        <time>2014-07-10T11:45:18Z</time>
      </trkpt>
      <trkpt lat="44.77582" lon="6.82944">
        <ele>1772.4</ele>
        <time>2014-07-10T11:45:30Z</time>
      </trkpt>
      <trkpt lat="44.77582" lon="6.82946">
        <ele>1772.4</ele>
        <time>2014-07-10T11:45:31Z</time>
      </trkpt>
      <trkpt lat="44.77614" lon="6.83033">
        <ele>1774.6</ele>
        <time>2014-07-10T11:46:49Z</time>
      </trkpt>
      <trkpt lat="44.77637" lon="6.83072">
        <ele>1774.3</ele>
        <time>2014-07-10T11:46:50Z</time>
      </trkpt>
      <trkpt lat="44.77681" lon="6.83109">
        <ele>1768.9</ele>
        <time>2014-07-10T11:47:41Z</time>
      </trkpt>
      <trkpt lat="44.77711" lon="6.83152">
        <ele>1768.9</ele>
        <time>2014-07-10T11:48:26Z</time>
      </trkpt>
      <trkpt lat="44.77713" lon="6.83155">
        <ele>1769.1</ele>
        <time>2014-07-10T11:48:27Z</time>
      </trkpt>
      <trkpt lat="44.77765" lon="6.83242">
        <ele>1787.8</ele>
        <time>2014-07-10T11:49:32Z</time>
      </trkpt>
      <trkpt lat="44.77767" lon="6.83247">
        <ele>1787.5</ele>
        <time>2014-07-10T11:49:33Z</time>
      </trkpt>
      <trkpt lat="44.77825" lon="6.83329">
        <ele>1783.5</ele>
        <time>2014-07-10T11:50:38Z</time>
      </trkpt>
      <trkpt lat="44.77829" lon="6.83331">
        <ele>1783</ele>
        <time>2014-07-10T11:50:39Z</time>
      </trkpt>
      <trkpt lat="44.7791" lon="6.8336">
        <ele>1779.5</ele>
        <time>2014-07-10T11:51:46Z</time>
      </trkpt>
      <trkpt lat="44.77913" lon="6.83362">
        <ele>1779.5</ele>
        <time>2014-07-10T11:51:47Z</time>
      </trkpt>
      <trkpt lat="44.77991" lon="6.83395">
        <ele>1810.5</ele>
        <time>2014-07-10T11:53:00Z</time>
      </trkpt>
      <trkpt lat="44.77991" lon="6.83398">
        <ele>1813.1</ele>
        <time>2014-07-10T11:53:01Z</time>
      </trkpt>
      <trkpt lat="44.77981" lon="6.8346">
        <ele>1813.1</ele>
        <time>2014-07-10T11:54:12Z</time>
      </trkpt>
      <trkpt lat="44.77953" lon="6.83564">
        <ele>1794</ele>
        <time>2014-07-10T11:55:38Z</time>
      </trkpt>
      <trkpt lat="44.77953" lon="6.8357">
        <ele>1793.3</ele>
        <time>2014-07-10T11:55:39Z</time>
      </trkpt>
      <trkpt lat="44.77906" lon="6.83667">
        <ele>1777</ele>
        <time>2014-07-10T11:56:59Z</time>
      </trkpt>
      <trkpt lat="44.77903" lon="6.8367">
        <ele>1776.5</ele>
        <time>2014-07-10T11:57:00Z</time>
      </trkpt>
      <trkpt lat="44.77853" lon="6.8376">
        <ele>1762</ele>
        <time>2014-07-10T11:58:35Z</time>
      </trkpt>
      <trkpt lat="44.77851" lon="6.83764">
        <ele>1761.1</ele>
        <time>2014-07-10T11:58:36Z</time>
      </trkpt>
      <trkpt lat="44.77823" lon="6.83872">
        <ele>1752.9</ele>
        <time>2014-07-10T11:59:50Z</time>
      </trkpt>
      <trkpt lat="44.77823" lon="6.83877">
        <ele>1752.1</ele>
        <time>2014-07-10T11:59:51Z</time>
      </trkpt>
      <trkpt lat="44.77786" lon="6.83978">
        <ele>1752.1</ele>
        <time>2014-07-10T12:01:07Z</time>
      </trkpt>
      <trkpt lat="44.77785" lon="6.83983">
        <ele>1752.9</ele>
        <time>2014-07-10T12:01:08Z</time>
      </trkpt>
      <trkpt lat="44.77801" lon="6.8409">
        <ele>1747</ele>
        <time>2014-07-10T12:02:41Z</time>
      </trkpt>
      <trkpt lat="44.77802" lon="6.84094">
        <ele>1745.9</ele>
        <time>2014-07-10T12:02:42Z</time>
      </trkpt>
      <trkpt lat="44.77822" lon="6.84209">
        <ele>1731.1</ele>
        <time>2014-07-10T12:04:06Z</time>
      </trkpt>
      <trkpt lat="44.77822" lon="6.84215">
        <ele>1731.4</ele>
        <time>2014-07-10T12:04:07Z</time>
      </trkpt>
      <trkpt lat="44.77867" lon="6.84315">
        <ele>1734.5</ele>
        <time>2014-07-10T12:07:35Z</time>
      </trkpt>
      <trkpt lat="44.77868" lon="6.8432">
        <ele>1733.9</ele>
        <time>2014-07-10T12:07:36Z</time>
      </trkpt>
      <trkpt lat="44.7784" lon="6.8443">
        <ele>1718.5</ele>
        <time>2014-07-10T12:08:57Z</time>
      </trkpt>
      <trkpt lat="44.77839" lon="6.84433">
        <ele>1718</ele>
        <time>2014-07-10T12:08:58Z</time>
      </trkpt>
      <trkpt lat="44.77833" lon="6.84493">
        <ele>1709.4</ele>
        <time>2014-07-10T12:10:19Z</time>
      </trkpt>
      <trkpt lat="44.77806" lon="6.84605">
        <ele>1680.4</ele>
        <time>2014-07-10T12:12:32Z</time>
      </trkpt>
      <trkpt lat="44.77803" lon="6.84604">
        <ele>1679.1</ele>
        <time>2014-07-10T12:12:33Z</time>
      </trkpt>
      <trkpt lat="44.77775" lon="6.84656">
        <ele>1663.8</ele>
        <time>2014-07-10T12:13:48Z</time>
      </trkpt>
      <trkpt lat="44.77752" lon="6.84768">
        <ele>1651.8</ele>
        <time>2014-07-10T12:15:13Z</time>
      </trkpt>
      <trkpt lat="44.77752" lon="6.84772">
        <ele>1651.4</ele>
        <time>2014-07-10T12:15:14Z</time>
      </trkpt>
      <trkpt lat="44.77755" lon="6.84889">
        <ele>1640.5</ele>
        <time>2014-07-10T12:16:30Z</time>
      </trkpt>
      <trkpt lat="44.77755" lon="6.84893">
        <ele>1640</ele>
        <time>2014-07-10T12:16:31Z</time>
      </trkpt>
      <trkpt lat="44.77767" lon="6.84969">
        <ele>1629.5</ele>
        <time>2014-07-10T12:17:28Z</time>
      </trkpt>
      <trkpt lat="44.77776" lon="6.85027">
        <ele>1622.9</ele>
        <time>2014-07-10T12:18:30Z</time>
      </trkpt>
      <trkpt lat="44.77777" lon="6.85032">
        <ele>1622</ele>
        <time>2014-07-10T12:18:31Z</time>
      </trkpt>
      <trkpt lat="44.77801" lon="6.85145">
        <ele>1606.5</ele>
        <time>2014-07-10T12:19:44Z</time>
      </trkpt>
      <trkpt lat="44.77802" lon="6.8515">
        <ele>1606.4</ele>
        <time>2014-07-10T12:19:45Z</time>
      </trkpt>
      <trkpt lat="44.77797" lon="6.85269">
        <ele>1594.5</ele>
        <time>2014-07-10T12:21:22Z</time>
      </trkpt>
      <trkpt lat="44.77798" lon="6.85274">
        <ele>1593.9</ele>
        <time>2014-07-10T12:21:23Z</time>
      </trkpt>
      <trkpt lat="44.77832" lon="6.85379">
        <ele>1581.9</ele>
        <time>2014-07-10T12:22:30Z</time>
      </trkpt>
      <trkpt lat="44.77833" lon="6.85384">
        <ele>1581.4</ele>
        <time>2014-07-10T12:22:31Z</time>
      </trkpt>
      <trkpt lat="44.77876" lon="6.85488">
        <ele>1571</ele>
        <time>2014-07-10T12:23:56Z</time>
      </trkpt>
      <trkpt lat="44.77877" lon="6.85493">
        <ele>1570.5</ele>
        <time>2014-07-10T12:23:57Z</time>
      </trkpt>
      <trkpt lat="44.77891" lon="6.85609">
        <ele>1565.5</ele>
        <time>2014-07-10T12:24:50Z</time>
      </trkpt>
      <trkpt lat="44.77907" lon="6.85668">
        <ele>1556.9</ele>
        <time>2014-07-10T12:25:57Z</time>
      </trkpt>
      <trkpt lat="44.77908" lon="6.85673">
        <ele>1556</ele>
        <time>2014-07-10T12:25:58Z</time>
      </trkpt>
      <trkpt lat="44.77904" lon="6.85731">
        <ele>1543</ele>
        <time>2014-07-10T12:27:09Z</time>
      </trkpt>
      <trkpt lat="44.77913" lon="6.85849">
        <ele>1527.6</ele>
        <time>2014-07-10T12:28:14Z</time>
      </trkpt>
      <trkpt lat="44.77913" lon="6.85853">
        <ele>1527.1</ele>
        <time>2014-07-10T12:28:15Z</time>
      </trkpt>
      <trkpt lat="44.77919" lon="6.85972">
        <ele>1514.9</ele>
        <time>2014-07-10T12:29:32Z</time>
      </trkpt>
      <trkpt lat="44.77919" lon="6.85977">
        <ele>1514.5</ele>
        <time>2014-07-10T12:29:33Z</time>
      </trkpt>
      <trkpt lat="44.77947" lon="6.8609">
        <ele>1503.1</ele>
        <time>2014-07-10T12:30:45Z</time>
      </trkpt>
      <trkpt lat="44.77948" lon="6.86095">
        <ele>1502.8</ele>
        <time>2014-07-10T12:30:46Z</time>
      </trkpt>
      <trkpt lat="44.7797" lon="6.8621">
        <ele>1496.5</ele>
        <time>2014-07-10T12:32:19Z</time>
      </trkpt>
      <trkpt lat="44.77971" lon="6.86216">
        <ele>1496.3</ele>
        <time>2014-07-10T12:32:20Z</time>
      </trkpt>
      <trkpt lat="44.7801" lon="6.86322">
        <ele>1489.5</ele>
        <time>2014-07-10T12:33:16Z</time>
      </trkpt>
      <trkpt lat="44.78046" lon="6.86357">
        <ele>1489</ele>
        <time>2014-07-10T12:33:47Z</time>
      </trkpt>
      <trkpt lat="44.78048" lon="6.86359">
        <ele>1489</ele>
        <time>2014-07-10T12:33:48Z</time>
      </trkpt>
      <trkpt lat="44.78102" lon="6.86453">
        <ele>1483.8</ele>
        <time>2014-07-10T12:35:07Z</time>
      </trkpt>
      <trkpt lat="44.78102" lon="6.86458">
        <ele>1483.5</ele>
        <time>2014-07-10T12:35:08Z</time>
      </trkpt>
      <trkpt lat="44.78127" lon="6.8657">
        <ele>1486</ele>
        <time>2014-07-10T12:36:09Z</time>
      </trkpt>
      <trkpt lat="44.78128" lon="6.86575">
        <ele>1486</ele>
        <time>2014-07-10T12:36:10Z</time>
      </trkpt>
      <trkpt lat="44.78161" lon="6.86683">
        <ele>1484.8</ele>
        <time>2014-07-10T12:37:12Z</time>
      </trkpt>
      <trkpt lat="44.78162" lon="6.86688">
        <ele>1484.6</ele>
        <time>2014-07-10T12:37:13Z</time>
      </trkpt>
      <trkpt lat="44.78175" lon="6.86746">
        <ele>1484.8</ele>
        <time>2014-07-10T12:38:47Z</time>
      </trkpt>
      <trkpt lat="44.7819" lon="6.86857">
        <ele>1485.1</ele>
        <time>2014-07-10T12:39:55Z</time>
      </trkpt>
      <trkpt lat="44.7819" lon="6.86862">
        <ele>1485.5</ele>
        <time>2014-07-10T12:39:56Z</time>
      </trkpt>
      <trkpt lat="44.78197" lon="6.86923">
        <ele>1485.1</ele>
        <time>2014-07-10T12:41:33Z</time>
      </trkpt>
      <trkpt lat="44.7824" lon="6.87026">
        <ele>1482.6</ele>
        <time>2014-07-10T12:42:19Z</time>
      </trkpt>
      <trkpt lat="44.78268" lon="6.87072">
        <ele>1482</ele>
        <time>2014-07-10T12:42:46Z</time>
      </trkpt>
      <trkpt lat="44.78269" lon="6.87073">
        <ele>1482</ele>
        <time>2014-07-10T12:42:47Z</time>
      </trkpt>
      <trkpt lat="44.78303" lon="6.87114">
        <ele>1477.5</ele>
        <time>2014-07-10T12:44:01Z</time>
      </trkpt>
      <trkpt lat="44.78292" lon="6.87231">
        <ele>1471.4</ele>
        <time>2014-07-10T12:44:56Z</time>
      </trkpt>
      <trkpt lat="44.78323" lon="6.87273">
        <ele>1471.4</ele>
        <time>2014-07-10T12:45:35Z</time>
      </trkpt>
      <trkpt lat="44.78326" lon="6.87276">
        <ele>1471.4</ele>
        <time>2014-07-10T12:45:36Z</time>
      </trkpt>
      <trkpt lat="44.78392" lon="6.87348">
        <ele>1475.5</ele>
        <time>2014-07-10T12:46:49Z</time>
      </trkpt>
      <trkpt lat="44.78394" lon="6.87351">
        <ele>1475.6</ele>
        <time>2014-07-10T12:46:50Z</time>
      </trkpt>
      <trkpt lat="44.78392" lon="6.87444">
        <ele>1481.3</ele>
        <time>2014-07-10T12:49:02Z</time>
      </trkpt>
      <trkpt lat="44.7839" lon="6.87444">
        <ele>1481.3</ele>
        <time>2014-07-10T12:49:03Z</time>
      </trkpt>
      <trkpt lat="44.78307" lon="6.87448">
        <ele>1497.6</ele>
        <time>2014-07-10T12:51:35Z</time>
      </trkpt>
      <trkpt lat="44.78304" lon="6.87451">
        <ele>1498.8</ele>
        <time>2014-07-10T12:51:36Z</time>
      </trkpt>
      <trkpt lat="44.78292" lon="6.87565">
        <ele>1519.5</ele>
        <time>2014-07-10T12:52:44Z</time>
      </trkpt>
      <trkpt lat="44.78292" lon="6.87568">
        <ele>1519.9</ele>
        <time>2014-07-10T12:52:45Z</time>
      </trkpt>
      <trkpt lat="44.78349" lon="6.8766">
        <ele>1522.9</ele>
        <time>2014-07-10T12:54:16Z</time>
      </trkpt>
      <trkpt lat="44.78351" lon="6.87664">
        <ele>1523.3</ele>
        <time>2014-07-10T12:54:17Z</time>
      </trkpt>
      <trkpt lat="44.78396" lon="6.87762">
        <ele>1529.5</ele>
        <time>2014-07-10T12:55:21Z</time>
      </trkpt>
      <trkpt lat="44.78399" lon="6.87766">
        <ele>1529.6</ele>
        <time>2014-07-10T12:55:22Z</time>
      </trkpt>
      <trkpt lat="44.78449" lon="6.87858">
        <ele>1536.9</ele>
        <time>2014-07-10T12:56:29Z</time>
      </trkpt>
      <trkpt lat="44.78451" lon="6.87863">
        <ele>1537.1</ele>
        <time>2014-07-10T12:56:30Z</time>
      </trkpt>
      <trkpt lat="44.78506" lon="6.87954">
        <ele>1544.5</ele>
        <time>2014-07-10T12:57:22Z</time>
      </trkpt>
      <trkpt lat="44.78538" lon="6.87999">
        <ele>1542.4</ele>
        <time>2014-07-10T12:58:03Z</time>
      </trkpt>
      <trkpt lat="44.7854" lon="6.88002">
        <ele>1542</ele>
        <time>2014-07-10T12:58:04Z</time>
      </trkpt>
      <trkpt lat="44.78603" lon="6.88082">
        <ele>1535.3</ele>
        <time>2014-07-10T12:58:58Z</time>
      </trkpt>
      <trkpt lat="44.78634" lon="6.88123">
        <ele>1533.8</ele>
        <time>2014-07-10T12:59:50Z</time>
      </trkpt>
      <trkpt lat="44.78637" lon="6.88127">
        <ele>1533.3</ele>
        <time>2014-07-10T12:59:51Z</time>
      </trkpt>
      <trkpt lat="44.78688" lon="6.8822">
        <ele>1535.4</ele>
        <time>2014-07-10T13:00:57Z</time>
      </trkpt>
      <trkpt lat="44.7869" lon="6.88224">
        <ele>1535.4</ele>
        <time>2014-07-10T13:00:58Z</time>
      </trkpt>
      <trkpt lat="44.78724" lon="6.8833">
        <ele>1539.6</ele>
        <time>2014-07-10T13:01:51Z</time>
      </trkpt>
      <trkpt lat="44.78732" lon="6.88388">
        <ele>1537.5</ele>
        <time>2014-07-10T13:02:33Z</time>
      </trkpt>
      <trkpt lat="44.78733" lon="6.88393">
        <ele>1537.3</ele>
        <time>2014-07-10T13:02:34Z</time>
      </trkpt>
      <trkpt lat="44.78753" lon="6.88505">
        <ele>1530.6</ele>
        <time>2014-07-10T13:03:23Z</time>
      </trkpt>
      <trkpt lat="44.78766" lon="6.88565">
        <ele>1523.1</ele>
        <time>2014-07-10T13:03:59Z</time>
      </trkpt>
      <trkpt lat="44.78766" lon="6.88568">
        <ele>1523</ele>
        <time>2014-07-10T13:04:00Z</time>
      </trkpt>
      <trkpt lat="44.78769" lon="6.88689">
        <ele>1510.5</ele>
        <time>2014-07-10T13:04:55Z</time>
      </trkpt>
      <trkpt lat="44.7877" lon="6.88749">
        <ele>1506.5</ele>
        <time>2014-07-10T13:05:16Z</time>
      </trkpt>
      <trkpt lat="44.78771" lon="6.88754">
        <ele>1506.3</ele>
        <time>2014-07-10T13:05:17Z</time>
      </trkpt>
      <trkpt lat="44.78795" lon="6.88868">
        <ele>1508.4</ele>
        <time>2014-07-10T13:06:35Z</time>
      </trkpt>
      <trkpt lat="44.78794" lon="6.88872">
        <ele>1508.3</ele>
        <time>2014-07-10T13:06:36Z</time>
      </trkpt>
      <trkpt lat="44.78811" lon="6.88988">
        <ele>1517.5</ele>
        <time>2014-07-10T13:07:19Z</time>
      </trkpt>
      <trkpt lat="44.78821" lon="6.89047">
        <ele>1520.5</ele>
        <time>2014-07-10T13:07:55Z</time>
      </trkpt>
      <trkpt lat="44.78822" lon="6.8905">
        <ele>1520.6</ele>
        <time>2014-07-10T13:07:56Z</time>
      </trkpt>
      <trkpt lat="44.78852" lon="6.89165">
        <ele>1530.9</ele>
        <time>2014-07-10T13:08:49Z</time>
      </trkpt>
      <trkpt lat="44.78865" lon="6.89224">
        <ele>1528</ele>
        <time>2014-07-10T13:09:19Z</time>
      </trkpt>
      <trkpt lat="44.78865" lon="6.89226">
        <ele>1528</ele>
        <time>2014-07-10T13:09:20Z</time>
      </trkpt>
      <trkpt lat="44.78876" lon="6.89337">
        <ele>1523.6</ele>
        <time>2014-07-10T13:10:05Z</time>
      </trkpt>
      <trkpt lat="44.78874" lon="6.89398">
        <ele>1528.5</ele>
        <time>2014-07-10T13:10:13Z</time>
      </trkpt>
      <trkpt lat="44.78878" lon="6.8946">
        <ele>1529.1</ele>
        <time>2014-07-10T13:10:34Z</time>
      </trkpt>
      <trkpt lat="44.78878" lon="6.89461">
        <ele>1528.8</ele>
        <time>2014-07-10T13:10:35Z</time>
      </trkpt>
      <trkpt lat="44.78886" lon="6.89584">
        <ele>1518.9</ele>
        <time>2014-07-10T13:11:12Z</time>
      </trkpt>
      <trkpt lat="44.78897" lon="6.89645">
        <ele>1524.1</ele>
        <time>2014-07-10T13:11:22Z</time>
      </trkpt>
      <trkpt lat="44.78908" lon="6.89701">
        <ele>1523</ele>
        <time>2014-07-10T13:11:31Z</time>
      </trkpt>
      <trkpt lat="44.7892" lon="6.89762">
        <ele>1522.4</ele>
        <time>2014-07-10T13:11:49Z</time>
      </trkpt>
      <trkpt lat="44.7892" lon="6.89764">
        <ele>1522.3</ele>
        <time>2014-07-10T13:11:50Z</time>
      </trkpt>
      <trkpt lat="44.78987" lon="6.89834">
        <ele>1578</ele>
        <time>2014-07-10T13:12:27Z</time>
      </trkpt>
      <trkpt lat="44.79005" lon="6.8989">
        <ele>1544</ele>
        <time>2014-07-10T13:13:26Z</time>
      </trkpt>
      <trkpt lat="44.79006" lon="6.89893">
        <ele>1543.5</ele>
        <time>2014-07-10T13:13:27Z</time>
      </trkpt>
      <trkpt lat="44.79073" lon="6.89965">
        <ele>1558.4</ele>
        <time>2014-07-10T13:14:07Z</time>
      </trkpt>
      <trkpt lat="44.79102" lon="6.90012">
        <ele>1561.3</ele>
        <time>2014-07-10T13:14:36Z</time>
      </trkpt>
      <trkpt lat="44.79103" lon="6.90014">
        <ele>1561.5</ele>
        <time>2014-07-10T13:14:37Z</time>
      </trkpt>
      <trkpt lat="44.79129" lon="6.9013">
        <ele>1551.4</ele>
        <time>2014-07-10T13:15:43Z</time>
      </trkpt>
      <trkpt lat="44.7913" lon="6.90132">
        <ele>1551.5</ele>
        <time>2014-07-10T13:15:44Z</time>
      </trkpt>
      <trkpt lat="44.79166" lon="6.90241">
        <ele>1551</ele>
        <time>2014-07-10T13:16:46Z</time>
      </trkpt>
      <trkpt lat="44.79167" lon="6.90243">
        <ele>1551.8</ele>
        <time>2014-07-10T13:16:47Z</time>
      </trkpt>
      <trkpt lat="44.79208" lon="6.90346">
        <ele>1562</ele>
        <time>2014-07-10T13:17:50Z</time>
      </trkpt>
      <trkpt lat="44.79209" lon="6.90349">
        <ele>1562.9</ele>
        <time>2014-07-10T13:17:51Z</time>
      </trkpt>
      <trkpt lat="44.7922" lon="6.90462">
        <ele>1554.8</ele>
        <time>2014-07-10T13:19:17Z</time>
      </trkpt>
      <trkpt lat="44.79219" lon="6.90467">
        <ele>1553.1</ele>
        <time>2014-07-10T13:19:18Z</time>
      </trkpt>
      <trkpt lat="44.79234" lon="6.90574">
        <ele>1556.4</ele>
        <time>2014-07-10T13:20:15Z</time>
      </trkpt>
      <trkpt lat="44.79262" lon="6.90623">
        <ele>1575.1</ele>
        <time>2014-07-10T13:20:51Z</time>
      </trkpt>
      <trkpt lat="44.79263" lon="6.90627">
        <ele>1575.5</ele>
        <time>2014-07-10T13:20:52Z</time>
      </trkpt>
      <trkpt lat="44.79276" lon="6.90735">
        <ele>1561.1</ele>
        <time>2014-07-10T13:21:51Z</time>
      </trkpt>
      <trkpt lat="44.79239" lon="6.90704">
        <ele>1554.5</ele>
        <time>2014-07-10T13:24:51Z</time>
      </trkpt>
      <trkpt lat="44.79238" lon="6.90701">
        <ele>1554.8</ele>
        <time>2014-07-10T13:24:52Z</time>
      </trkpt>
      <trkpt lat="44.79202" lon="6.90595">
        <ele>1558.1</ele>
        <time>2014-07-10T13:25:58Z</time>
      </trkpt>
      <trkpt lat="44.792" lon="6.90591">
        <ele>1558.1</ele>
        <time>2014-07-10T13:25:59Z</time>
      </trkpt>
      <trkpt lat="44.79174" lon="6.90486">
        <ele>1559</ele>
        <time>2014-07-10T13:26:41Z</time>
      </trkpt>
      <trkpt lat="44.79169" lon="6.90424">
        <ele>1561.5</ele>
        <time>2014-07-10T13:27:12Z</time>
      </trkpt>
      <trkpt lat="44.79169" lon="6.90422">
        <ele>1561.5</ele>
        <time>2014-07-10T13:27:13Z</time>
      </trkpt>
      <trkpt lat="44.79133" lon="6.90374">
        <ele>1569.5</ele>
        <time>2014-07-10T13:28:30Z</time>
      </trkpt>
      <trkpt lat="44.79111" lon="6.9043">
        <ele>1600</ele>
        <time>2014-07-10T13:30:17Z</time>
      </trkpt>
      <trkpt lat="44.79118" lon="6.90501">
        <ele>1596.3</ele>
        <time>2014-07-10T13:31:16Z</time>
      </trkpt>
      <trkpt lat="44.79127" lon="6.90519">
        <ele>1596.8</ele>
        <time>2014-07-10T13:31:20Z</time>
      </trkpt>
      <trkpt lat="44.79132" lon="6.90622">
        <ele>1599.5</ele>
        <time>2014-07-10T13:32:10Z</time>
      </trkpt>
      <trkpt lat="44.79131" lon="6.90682">
        <ele>1609.8</ele>
        <time>2014-07-10T13:33:04Z</time>
      </trkpt>
      <trkpt lat="44.79132" lon="6.90687">
        <ele>1610.4</ele>
        <time>2014-07-10T13:33:05Z</time>
      </trkpt>
      <trkpt lat="44.79266" lon="6.91576">
        <ele>1609.6</ele>
        <time>2014-07-10T13:40:54Z</time>
      </trkpt>
      <trkpt lat="44.79256" lon="6.91619">
        <ele>1607</ele>
        <time>2014-07-10T13:41:15Z</time>
      </trkpt>
      <trkpt lat="44.79246" lon="6.91678">
        <ele>1604</ele>
        <time>2014-07-10T13:41:50Z</time>
      </trkpt>
      <trkpt lat="44.79236" lon="6.91739">
        <ele>1605.5</ele>
        <time>2014-07-10T13:42:17Z</time>
      </trkpt>
      <trkpt lat="44.79236" lon="6.91741">
        <ele>1605.6</ele>
        <time>2014-07-10T13:42:18Z</time>
      </trkpt>
      <trkpt lat="44.79207" lon="6.91851">
        <ele>1587.8</ele>
        <time>2014-07-10T13:43:50Z</time>
      </trkpt>
      <trkpt lat="44.79206" lon="6.91855">
        <ele>1587.1</ele>
        <time>2014-07-10T13:43:51Z</time>
      </trkpt>
      <trkpt lat="44.79169" lon="6.9196">
        <ele>1578.8</ele>
        <time>2014-07-10T13:44:55Z</time>
      </trkpt>
      <trkpt lat="44.79169" lon="6.91964">
        <ele>1578.8</ele>
        <time>2014-07-10T13:44:56Z</time>
      </trkpt>
      <trkpt lat="44.79155" lon="6.92081">
        <ele>1581.5</ele>
        <time>2014-07-10T13:46:05Z</time>
      </trkpt>
      <trkpt lat="44.79155" lon="6.92085">
        <ele>1581.3</ele>
        <time>2014-07-10T13:46:06Z</time>
      </trkpt>
      <trkpt lat="44.79148" lon="6.92202">
        <ele>1575.3</ele>
        <time>2014-07-10T13:47:06Z</time>
      </trkpt>
      <trkpt lat="44.79148" lon="6.92262">
        <ele>1576</ele>
        <time>2014-07-10T13:47:33Z</time>
      </trkpt>
      <trkpt lat="44.79148" lon="6.92266">
        <ele>1576.3</ele>
        <time>2014-07-10T13:47:34Z</time>
      </trkpt>
      <trkpt lat="44.79105" lon="6.92702">
        <ele>1579.5</ele>
        <time>2014-07-10T13:51:30Z</time>
      </trkpt>
      <trkpt lat="44.7914" lon="6.92739">
        <ele>1586</ele>
        <time>2014-07-10T13:52:23Z</time>
      </trkpt>
      <trkpt lat="44.79183" lon="6.92725">
        <ele>1582.9</ele>
        <time>2014-07-10T13:52:42Z</time>
      </trkpt>
      <trkpt lat="44.79185" lon="6.92726">
        <ele>1582.9</ele>
        <time>2014-07-10T13:52:43Z</time>
      </trkpt>
      <trkpt lat="44.79258" lon="6.92789">
        <ele>1579</ele>
        <time>2014-07-10T13:54:00Z</time>
      </trkpt>
      <trkpt lat="44.79261" lon="6.92789">
        <ele>1579</ele>
        <time>2014-07-10T13:54:01Z</time>
      </trkpt>
      <trkpt lat="44.79304" lon="6.92791">
        <ele>1580.5</ele>
        <time>2014-07-10T13:55:11Z</time>
      </trkpt>
      <trkpt lat="44.79371" lon="6.92792">
        <ele>1577.1</ele>
        <time>2014-07-10T14:07:00Z</time>
      </trkpt>
      <trkpt lat="44.79403" lon="6.92808">
        <ele>1566</ele>
        <time>2014-07-10T14:07:01Z</time>
      </trkpt>
      <trkpt lat="44.79326" lon="6.9278">
        <ele>1564</ele>
        <time>2014-07-10T14:31:18Z</time>
      </trkpt>
      <trkpt lat="44.79244" lon="6.92769">
        <ele>1554.1</ele>
        <time>2014-07-10T14:34:43Z</time>
      </trkpt>
      <trkpt lat="44.79242" lon="6.92766">
        <ele>1553.9</ele>
        <time>2014-07-10T14:34:44Z</time>
      </trkpt>
      <trkpt lat="44.79167" lon="6.92724">
        <ele>1548</ele>
        <time>2014-07-10T14:36:01Z</time>
      </trkpt>
      <trkpt lat="44.79164" lon="6.92725">
        <ele>1548.5</ele>
        <time>2014-07-10T14:36:02Z</time>
      </trkpt>
      <trkpt lat="44.79083" lon="6.9273">
        <ele>1545.3</ele>
        <time>2014-07-10T14:38:03Z</time>
      </trkpt>
      <trkpt lat="44.7908" lon="6.92733">
        <ele>1544.9</ele>
        <time>2014-07-10T14:38:04Z</time>
      </trkpt>
      <trkpt lat="44.79014" lon="6.92802">
        <ele>1549.9</ele>
        <time>2014-07-10T14:39:15Z</time>
      </trkpt>
      <trkpt lat="44.79012" lon="6.92806">
        <ele>1550.5</ele>
        <time>2014-07-10T14:39:16Z</time>
      </trkpt>
      <trkpt lat="44.78947" lon="6.92876">
        <ele>1553.5</ele>
        <time>2014-07-10T14:40:23Z</time>
      </trkpt>
      <trkpt lat="44.78944" lon="6.92879">
        <ele>1553.3</ele>
        <time>2014-07-10T14:40:24Z</time>
      </trkpt>
      <trkpt lat="44.78883" lon="6.92955">
        <ele>1550</ele>
        <time>2014-07-10T14:41:32Z</time>
      </trkpt>
      <trkpt lat="44.7888" lon="6.92958">
        <ele>1549.6</ele>
        <time>2014-07-10T14:41:33Z</time>
      </trkpt>
      <trkpt lat="44.78815" lon="6.93011">
        <ele>1548.4</ele>
        <time>2014-07-10T14:42:14Z</time>
      </trkpt>
      <trkpt lat="44.78778" lon="6.93041">
        <ele>1551</ele>
        <time>2014-07-10T14:42:49Z</time>
      </trkpt>
      <trkpt lat="44.78775" lon="6.93044">
        <ele>1552</ele>
        <time>2014-07-10T14:42:50Z</time>
      </trkpt>
      <trkpt lat="44.787" lon="6.931">
        <ele>1563.9</ele>
        <time>2014-07-10T14:43:58Z</time>
      </trkpt>
      <trkpt lat="44.78696" lon="6.93103">
        <ele>1563.5</ele>
        <time>2014-07-10T14:43:59Z</time>
      </trkpt>
      <trkpt lat="44.78634" lon="6.93159">
        <ele>1565.5</ele>
        <time>2014-07-10T14:44:56Z</time>
      </trkpt>
      <trkpt lat="44.78598" lon="6.93194">
        <ele>1562.8</ele>
        <time>2014-07-10T14:45:25Z</time>
      </trkpt>
      <trkpt lat="44.78595" lon="6.93197">
        <ele>1563</ele>
        <time>2014-07-10T14:45:26Z</time>
      </trkpt>
      <trkpt lat="44.78528" lon="6.93266">
        <ele>1565</ele>
        <time>2014-07-10T14:46:29Z</time>
      </trkpt>
      <trkpt lat="44.78526" lon="6.9327">
        <ele>1564.8</ele>
        <time>2014-07-10T14:46:30Z</time>
      </trkpt>
      <trkpt lat="44.78462" lon="6.93343">
        <ele>1568.9</ele>
        <time>2014-07-10T14:47:27Z</time>
      </trkpt>
      <trkpt lat="44.78427" lon="6.93381">
        <ele>1572.3</ele>
        <time>2014-07-10T14:47:45Z</time>
      </trkpt>
      <trkpt lat="44.78424" lon="6.93384">
        <ele>1572.1</ele>
        <time>2014-07-10T14:47:46Z</time>
      </trkpt>
      <trkpt lat="44.78366" lon="6.93467">
        <ele>1578.8</ele>
        <time>2014-07-10T14:48:58Z</time>
      </trkpt>
      <trkpt lat="44.78364" lon="6.9347">
        <ele>1579.1</ele>
        <time>2014-07-10T14:48:59Z</time>
      </trkpt>
      <trkpt lat="44.78304" lon="6.93553">
        <ele>1581.5</ele>
        <time>2014-07-10T14:50:07Z</time>
      </trkpt>
      <trkpt lat="44.78302" lon="6.93557">
        <ele>1581.1</ele>
        <time>2014-07-10T14:50:08Z</time>
      </trkpt>
      <trkpt lat="44.78246" lon="6.93644">
        <ele>1575.4</ele>
        <time>2014-07-10T14:50:49Z</time>
      </trkpt>
      <trkpt lat="44.7823" lon="6.93703">
        <ele>1575</ele>
        <time>2014-07-10T14:51:31Z</time>
      </trkpt>
      <trkpt lat="44.78229" lon="6.93708">
        <ele>1575.3</ele>
        <time>2014-07-10T14:51:32Z</time>
      </trkpt>
      <trkpt lat="44.78185" lon="6.93801">
        <ele>1577.1</ele>
        <time>2014-07-10T14:52:43Z</time>
      </trkpt>
      <trkpt lat="44.78182" lon="6.93804">
        <ele>1577.1</ele>
        <time>2014-07-10T14:52:44Z</time>
      </trkpt>
      <trkpt lat="44.78118" lon="6.93875">
        <ele>1579.3</ele>
        <time>2014-07-10T14:54:15Z</time>
      </trkpt>
      <trkpt lat="44.78116" lon="6.93878">
        <ele>1579.3</ele>
        <time>2014-07-10T14:54:16Z</time>
      </trkpt>
      <trkpt lat="44.78056" lon="6.93957">
        <ele>1581.8</ele>
        <time>2014-07-10T14:55:12Z</time>
      </trkpt>
      <trkpt lat="44.78092" lon="6.9392">
        <ele>1561</ele>
        <time>2014-07-10T14:58:02Z</time>
      </trkpt>
      <trkpt lat="44.78094" lon="6.93919">
        <ele>1562</ele>
        <time>2014-07-10T14:58:03Z</time>
      </trkpt>
      <trkpt lat="44.78122" lon="6.93905">
        <ele>1580.2</ele>
        <time>2014-07-11T07:07:07Z</time>
      </trkpt>
      <trkpt lat="44.78125" lon="6.93889">
        <ele>1593.9</ele>
        <time>2014-07-11T07:25:11Z</time>
      </trkpt>
      <trkpt lat="44.78178" lon="6.93797">
        <ele>1597.9</ele>
        <time>2014-07-11T07:27:37Z</time>
      </trkpt>
      <trkpt lat="44.78177" lon="6.93792">
        <ele>1598.3</ele>
        <time>2014-07-11T07:27:38Z</time>
      </trkpt>
      <trkpt lat="44.78131" lon="6.93798">
        <ele>1602.5</ele>
        <time>2014-07-11T07:28:49Z</time>
      </trkpt>
      <trkpt lat="44.78096" lon="6.93839">
        <ele>1605</ele>
        <time>2014-07-11T07:32:28Z</time>
      </trkpt>
      <trkpt lat="44.78034" lon="6.93912">
        <ele>1602.3</ele>
        <time>2014-07-11T07:33:25Z</time>
      </trkpt>
      <trkpt lat="44.78004" lon="6.93954">
        <ele>1609.6</ele>
        <time>2014-07-11T07:33:57Z</time>
      </trkpt>
      <trkpt lat="44.78002" lon="6.93958">
        <ele>1609.9</ele>
        <time>2014-07-11T07:33:58Z</time>
      </trkpt>
      <trkpt lat="44.77946" lon="6.94044">
        <ele>1619.3</ele>
        <time>2014-07-11T07:35:11Z</time>
      </trkpt>
      <trkpt lat="44.77943" lon="6.94047">
        <ele>1619</ele>
        <time>2014-07-11T07:35:12Z</time>
      </trkpt>
      <trkpt lat="44.77878" lon="6.94121">
        <ele>1633.9</ele>
        <time>2014-07-11T07:36:58Z</time>
      </trkpt>
      <trkpt lat="44.77877" lon="6.94126">
        <ele>1633.6</ele>
        <time>2014-07-11T07:36:59Z</time>
      </trkpt>
      <trkpt lat="44.77825" lon="6.94219">
        <ele>1619.4</ele>
        <time>2014-07-11T07:38:04Z</time>
      </trkpt>
      <trkpt lat="44.77824" lon="6.94223">
        <ele>1619.5</ele>
        <time>2014-07-11T07:38:05Z</time>
      </trkpt>
      <trkpt lat="44.77778" lon="6.94318">
        <ele>1616.4</ele>
        <time>2014-07-11T07:39:11Z</time>
      </trkpt>
      <trkpt lat="44.77776" lon="6.94322">
        <ele>1616.9</ele>
        <time>2014-07-11T07:39:12Z</time>
      </trkpt>
      <trkpt lat="44.77723" lon="6.94412">
        <ele>1624</ele>
        <time>2014-07-11T07:40:21Z</time>
      </trkpt>
      <trkpt lat="44.77721" lon="6.94416">
        <ele>1623.9</ele>
        <time>2014-07-11T07:40:22Z</time>
      </trkpt>
      <trkpt lat="44.77671" lon="6.94507">
        <ele>1626</ele>
        <time>2014-07-11T07:41:25Z</time>
      </trkpt>
      <trkpt lat="44.77668" lon="6.94511">
        <ele>1626.4</ele>
        <time>2014-07-11T07:41:26Z</time>
      </trkpt>
      <trkpt lat="44.77616" lon="6.94599">
        <ele>1630.9</ele>
        <time>2014-07-11T07:42:34Z</time>
      </trkpt>
      <trkpt lat="44.77613" lon="6.94603">
        <ele>1630.6</ele>
        <time>2014-07-11T07:42:35Z</time>
      </trkpt>
      <trkpt lat="44.7757" lon="6.94701">
        <ele>1623.5</ele>
        <time>2014-07-11T07:43:39Z</time>
      </trkpt>
      <trkpt lat="44.77568" lon="6.94705">
        <ele>1623.8</ele>
        <time>2014-07-11T07:43:40Z</time>
      </trkpt>
      <trkpt lat="44.77528" lon="6.94804">
        <ele>1630.5</ele>
        <time>2014-07-11T07:44:44Z</time>
      </trkpt>
      <trkpt lat="44.77526" lon="6.94809">
        <ele>1630.4</ele>
        <time>2014-07-11T07:44:45Z</time>
      </trkpt>
      <trkpt lat="44.77471" lon="6.94895">
        <ele>1638.4</ele>
        <time>2014-07-11T07:45:35Z</time>
      </trkpt>
      <trkpt lat="44.77445" lon="6.94947">
        <ele>1650.8</ele>
        <time>2014-07-11T07:46:18Z</time>
      </trkpt>
      <trkpt lat="44.77443" lon="6.94951">
        <ele>1649.9</ele>
        <time>2014-07-11T07:46:19Z</time>
      </trkpt>
      <trkpt lat="44.77388" lon="6.95036">
        <ele>1637</ele>
        <time>2014-07-11T07:47:25Z</time>
      </trkpt>
      <trkpt lat="44.77386" lon="6.9504">
        <ele>1637</ele>
        <time>2014-07-11T07:47:26Z</time>
      </trkpt>
      <trkpt lat="44.77335" lon="6.95131">
        <ele>1656</ele>
        <time>2014-07-11T07:48:31Z</time>
      </trkpt>
      <trkpt lat="44.77333" lon="6.95135">
        <ele>1656.6</ele>
        <time>2014-07-11T07:48:32Z</time>
      </trkpt>
      <trkpt lat="44.77283" lon="6.95229">
        <ele>1649.4</ele>
        <time>2014-07-11T07:49:34Z</time>
      </trkpt>
      <trkpt lat="44.77281" lon="6.95232">
        <ele>1648.5</ele>
        <time>2014-07-11T07:49:35Z</time>
      </trkpt>
      <trkpt lat="44.77255" lon="6.95342">
        <ele>1645.5</ele>
        <time>2014-07-11T07:51:07Z</time>
      </trkpt>
      <trkpt lat="44.77258" lon="6.95344">
        <ele>1645.6</ele>
        <time>2014-07-11T07:51:08Z</time>
      </trkpt>
      <trkpt lat="44.77299" lon="6.95361">
        <ele>1641.9</ele>
        <time>2014-07-11T07:52:11Z</time>
      </trkpt>
      <trkpt lat="44.77375" lon="6.95313">
        <ele>1634.6</ele>
        <time>2014-07-11T07:53:12Z</time>
      </trkpt>
      <trkpt lat="44.77378" lon="6.9531">
        <ele>1634.5</ele>
        <time>2014-07-11T07:53:13Z</time>
      </trkpt>
      <trkpt lat="44.7742" lon="6.95331">
        <ele>1628.4</ele>
        <time>2014-07-11T07:54:33Z</time>
      </trkpt>
      <trkpt lat="44.77443" lon="6.95408">
        <ele>1630</ele>
        <time>2014-07-11T08:06:48Z</time>
      </trkpt>
      <trkpt lat="44.77439" lon="6.95423">
        <ele>1629.5</ele>
        <time>2014-07-11T08:07:50Z</time>
      </trkpt>
      <trkpt lat="44.77417" lon="6.9551">
        <ele>1629.9</ele>
        <time>2014-07-11T08:09:12Z</time>
      </trkpt>
      <trkpt lat="44.77403" lon="6.95558">
        <ele>1630</ele>
        <time>2014-07-11T08:09:13Z</time>
      </trkpt>
      <trkpt lat="44.7737" lon="6.95616">
        <ele>1626</ele>
        <time>2014-07-11T08:10:20Z</time>
      </trkpt>
      <trkpt lat="44.77368" lon="6.9562">
        <ele>1625.5</ele>
        <time>2014-07-11T08:10:21Z</time>
      </trkpt>
      <trkpt lat="44.77331" lon="6.95728">
        <ele>1631.6</ele>
        <time>2014-07-11T08:11:26Z</time>
      </trkpt>
      <trkpt lat="44.7733" lon="6.95733">
        <ele>1631</ele>
        <time>2014-07-11T08:11:27Z</time>
      </trkpt>
      <trkpt lat="44.77294" lon="6.95842">
        <ele>1627</ele>
        <time>2014-07-11T08:12:09Z</time>
      </trkpt>
      <trkpt lat="44.77287" lon="6.95904">
        <ele>1627.1</ele>
        <time>2014-07-11T08:13:09Z</time>
      </trkpt>
      <trkpt lat="44.77287" lon="6.9591">
        <ele>1627</ele>
        <time>2014-07-11T08:13:10Z</time>
      </trkpt>
      <trkpt lat="44.77272" lon="6.96026">
        <ele>1622.5</ele>
        <time>2014-07-11T08:13:56Z</time>
      </trkpt>
      <trkpt lat="44.77268" lon="6.96088">
        <ele>1626</ele>
        <time>2014-07-11T08:14:19Z</time>
      </trkpt>
      <trkpt lat="44.77268" lon="6.9609">
        <ele>1626.3</ele>
        <time>2014-07-11T08:14:20Z</time>
      </trkpt>
      <trkpt lat="44.77261" lon="6.96213">
        <ele>1630.8</ele>
        <time>2014-07-11T08:15:18Z</time>
      </trkpt>
      <trkpt lat="44.77257" lon="6.96243">
        <ele>1630</ele>
        <time>2014-07-11T08:16:00Z</time>
      </trkpt>
      <trkpt lat="44.77251" lon="6.96295">
        <ele>1627.9</ele>
        <time>2014-07-11T08:16:01Z</time>
      </trkpt>
      <trkpt lat="44.77229" lon="6.9636">
        <ele>1628</ele>
        <time>2014-07-11T08:16:36Z</time>
      </trkpt>
      <trkpt lat="44.7722" lon="6.96419">
        <ele>1624.8</ele>
        <time>2014-07-11T08:17:30Z</time>
      </trkpt>
      <trkpt lat="44.77214" lon="6.9646">
        <ele>1625.8</ele>
        <time>2014-07-11T08:17:31Z</time>
      </trkpt>
      <trkpt lat="44.77215" lon="6.96519">
        <ele>1632.9</ele>
        <time>2014-07-11T08:19:17Z</time>
      </trkpt>
      <trkpt lat="44.77202" lon="6.96566">
        <ele>1642.5</ele>
        <time>2014-07-11T08:19:18Z</time>
      </trkpt>
      <trkpt lat="44.77184" lon="6.96611">
        <ele>1639.1</ele>
        <time>2014-07-11T08:20:11Z</time>
      </trkpt>
      <trkpt lat="44.7716" lon="6.96662">
        <ele>1633</ele>
        <time>2014-07-11T08:20:45Z</time>
      </trkpt>
      <trkpt lat="44.77158" lon="6.96666">
        <ele>1632.6</ele>
        <time>2014-07-11T08:20:46Z</time>
      </trkpt>
      <trkpt lat="44.77127" lon="6.96777">
        <ele>1636.3</ele>
        <time>2014-07-11T08:21:31Z</time>
      </trkpt>
      <trkpt lat="44.77121" lon="6.96838">
        <ele>1637.5</ele>
        <time>2014-07-11T08:21:57Z</time>
      </trkpt>
      <trkpt lat="44.7712" lon="6.9684">
        <ele>1637.5</ele>
        <time>2014-07-11T08:21:58Z</time>
      </trkpt>
      <trkpt lat="44.77116" lon="6.96961">
        <ele>1633</ele>
        <time>2014-07-11T08:23:32Z</time>
      </trkpt>
      <trkpt lat="44.77109" lon="6.9701">
        <ele>1637.4</ele>
        <time>2014-07-11T08:23:33Z</time>
      </trkpt>
      <trkpt lat="44.77102" lon="6.97077">
        <ele>1634.8</ele>
        <time>2014-07-11T08:24:37Z</time>
      </trkpt>
      <trkpt lat="44.77101" lon="6.97082">
        <ele>1634.8</ele>
        <time>2014-07-11T08:24:38Z</time>
      </trkpt>
      <trkpt lat="44.77069" lon="6.97189">
        <ele>1645.5</ele>
        <time>2014-07-11T08:29:21Z</time>
      </trkpt>
      <trkpt lat="44.77066" lon="6.97191">
        <ele>1645.9</ele>
        <time>2014-07-11T08:29:22Z</time>
      </trkpt>
      <trkpt lat="44.77007" lon="6.97275">
        <ele>1653.8</ele>
        <time>2014-07-11T08:30:42Z</time>
      </trkpt>
      <trkpt lat="44.77004" lon="6.97278">
        <ele>1654.4</ele>
        <time>2014-07-11T08:30:43Z</time>
      </trkpt>
      <trkpt lat="44.76943" lon="6.97354">
        <ele>1664.1</ele>
        <time>2014-07-11T08:31:49Z</time>
      </trkpt>
      <trkpt lat="44.7694" lon="6.97357">
        <ele>1664.8</ele>
        <time>2014-07-11T08:31:50Z</time>
      </trkpt>
      <trkpt lat="44.76873" lon="6.97428">
        <ele>1664.5</ele>
        <time>2014-07-11T08:33:02Z</time>
      </trkpt>
      <trkpt lat="44.76869" lon="6.97431">
        <ele>1663.4</ele>
        <time>2014-07-11T08:33:03Z</time>
      </trkpt>
      <trkpt lat="44.76832" lon="6.97528">
        <ele>1658</ele>
        <time>2014-07-11T08:34:08Z</time>
      </trkpt>
      <trkpt lat="44.76831" lon="6.97532">
        <ele>1658.4</ele>
        <time>2014-07-11T08:34:09Z</time>
      </trkpt>
      <trkpt lat="44.76796" lon="6.97631">
        <ele>1669.3</ele>
        <time>2014-07-11T08:35:18Z</time>
      </trkpt>
      <trkpt lat="44.7678" lon="6.97678">
        <ele>1668.6</ele>
        <time>2014-07-11T08:35:19Z</time>
      </trkpt>
      <trkpt lat="44.76747" lon="6.97736">
        <ele>1670.5</ele>
        <time>2014-07-11T08:35:59Z</time>
      </trkpt>
      <trkpt lat="44.76727" lon="6.9778">
        <ele>1671</ele>
        <time>2014-07-11T08:36:52Z</time>
      </trkpt>
      <trkpt lat="44.76699" lon="6.97814">
        <ele>1673</ele>
        <time>2014-07-11T08:36:53Z</time>
      </trkpt>
      <trkpt lat="44.76665" lon="6.9786">
        <ele>1669.8</ele>
        <time>2014-07-11T08:37:54Z</time>
      </trkpt>
      <trkpt lat="44.76644" lon="6.97915">
        <ele>1676.1</ele>
        <time>2014-07-11T08:38:02Z</time>
      </trkpt>
      <trkpt lat="44.76643" lon="6.97917">
        <ele>1676.3</ele>
        <time>2014-07-11T08:38:03Z</time>
      </trkpt>
      <trkpt lat="44.76596" lon="6.97977">
        <ele>1683</ele>
        <time>2014-07-11T08:39:02Z</time>
      </trkpt>
      <trkpt lat="44.76571" lon="6.98028">
        <ele>1682.5</ele>
        <time>2014-07-11T08:39:59Z</time>
      </trkpt>
      <trkpt lat="44.7657" lon="6.98033">
        <ele>1682.5</ele>
        <time>2014-07-11T08:40:00Z</time>
      </trkpt>
      <trkpt lat="44.7654" lon="6.98145">
        <ele>1682.4</ele>
        <time>2014-07-11T08:41:13Z</time>
      </trkpt>
      <trkpt lat="44.76538" lon="6.9815">
        <ele>1681.5</ele>
        <time>2014-07-11T08:41:14Z</time>
      </trkpt>
      <trkpt lat="44.7649" lon="6.98247">
        <ele>1690</ele>
        <time>2014-07-11T08:42:00Z</time>
      </trkpt>
      <trkpt lat="44.76464" lon="6.98294">
        <ele>1694</ele>
        <time>2014-07-11T08:42:35Z</time>
      </trkpt>
      <trkpt lat="44.76462" lon="6.98297">
        <ele>1694.1</ele>
        <time>2014-07-11T08:42:36Z</time>
      </trkpt>
      <trkpt lat="44.7645" lon="6.98358">
        <ele>1686.4</ele>
        <time>2014-07-11T08:47:16Z</time>
      </trkpt>
      <trkpt lat="44.76398" lon="6.98449">
        <ele>1686.8</ele>
        <time>2014-07-11T08:48:27Z</time>
      </trkpt>
      <trkpt lat="44.76396" lon="6.98453">
        <ele>1686.5</ele>
        <time>2014-07-11T08:48:28Z</time>
      </trkpt>
      <trkpt lat="44.76344" lon="6.9854">
        <ele>1684.6</ele>
        <time>2014-07-11T08:49:32Z</time>
      </trkpt>
      <trkpt lat="44.76341" lon="6.98544">
        <ele>1684.8</ele>
        <time>2014-07-11T08:49:33Z</time>
      </trkpt>
      <trkpt lat="44.76285" lon="6.9863">
        <ele>1691</ele>
        <time>2014-07-11T08:50:23Z</time>
      </trkpt>
      <trkpt lat="44.7626" lon="6.98682">
        <ele>1690.3</ele>
        <time>2014-07-11T08:50:49Z</time>
      </trkpt>
      <trkpt lat="44.76259" lon="6.98684">
        <ele>1690.3</ele>
        <time>2014-07-11T08:50:50Z</time>
      </trkpt>
      <trkpt lat="44.76215" lon="6.98788">
        <ele>1689.5</ele>
        <time>2014-07-11T08:51:51Z</time>
      </trkpt>
      <trkpt lat="44.76214" lon="6.98791">
        <ele>1690.1</ele>
        <time>2014-07-11T08:51:52Z</time>
      </trkpt>
      <trkpt lat="44.76182" lon="6.98899">
        <ele>1688.9</ele>
        <time>2014-07-11T08:53:20Z</time>
      </trkpt>
      <trkpt lat="44.7618" lon="6.98903">
        <ele>1688.5</ele>
        <time>2014-07-11T08:53:21Z</time>
      </trkpt>
      <trkpt lat="44.7614" lon="6.99005">
        <ele>1688.1</ele>
        <time>2014-07-11T08:54:25Z</time>
      </trkpt>
      <trkpt lat="44.76138" lon="6.9901">
        <ele>1688.8</ele>
        <time>2014-07-11T08:54:26Z</time>
      </trkpt>
      <trkpt lat="44.76084" lon="6.991">
        <ele>1700.9</ele>
        <time>2014-07-11T08:55:21Z</time>
      </trkpt>
      <trkpt lat="44.76043" lon="6.99121">
        <ele>1701.6</ele>
        <time>2014-07-11T08:55:59Z</time>
      </trkpt>
      <trkpt lat="44.76039" lon="6.99123">
        <ele>1701.6</ele>
        <time>2014-07-11T08:56:00Z</time>
      </trkpt>
      <trkpt lat="44.7599" lon="6.99144">
        <ele>1702.9</ele>
        <time>2014-07-11T08:56:51Z</time>
      </trkpt>
      <trkpt lat="44.75947" lon="6.99141">
        <ele>1703.9</ele>
        <time>2014-07-11T08:57:30Z</time>
      </trkpt>
      <trkpt lat="44.75943" lon="6.99143">
        <ele>1703.8</ele>
        <time>2014-07-11T08:57:31Z</time>
      </trkpt>
      <trkpt lat="44.75862" lon="6.99159">
        <ele>1709.1</ele>
        <time>2014-07-11T08:58:11Z</time>
      </trkpt>
      <trkpt lat="44.75822" lon="6.99143">
        <ele>1710.5</ele>
        <time>2014-07-11T08:59:03Z</time>
      </trkpt>
      <trkpt lat="44.75819" lon="6.99141">
        <ele>1710.5</ele>
        <time>2014-07-11T08:59:04Z</time>
      </trkpt>
      <trkpt lat="44.75766" lon="6.99114">
        <ele>1715.4</ele>
        <time>2014-07-11T08:59:51Z</time>
      </trkpt>
      <trkpt lat="44.75724" lon="6.99091">
        <ele>1715</ele>
        <time>2014-07-11T09:01:56Z</time>
      </trkpt>
      <trkpt lat="44.75411" lon="6.99154">
        <ele>1730.3</ele>
        <time>2014-07-11T09:06:28Z</time>
      </trkpt>
      <trkpt lat="44.75411" lon="6.99154">
        <ele>1730.3</ele>
        <time>2014-07-11T09:06:33Z</time>
      </trkpt>
      <trkpt lat="44.75238" lon="6.99213">
        <ele>1754.3</ele>
        <time>2014-07-11T09:11:43Z</time>
      </trkpt>
      <trkpt lat="44.75201" lon="6.99027">
        <ele>1824.9</ele>
        <time>2014-07-11T09:17:47Z</time>
      </trkpt>
      <trkpt lat="44.75196" lon="6.99023">
        <ele>1827.5</ele>
        <time>2014-07-11T09:17:49Z</time>
      </trkpt>
      <trkpt lat="44.75009" lon="6.98706">
        <ele>1903.5</ele>
        <time>2014-07-11T09:26:31Z</time>
      </trkpt>
      <trkpt lat="44.74954" lon="6.98689">
        <ele>1913.5</ele>
        <time>2014-07-11T09:27:25Z</time>
      </trkpt>
      <trkpt lat="44.74916" lon="6.98664">
        <ele>1927</ele>
        <time>2014-07-11T09:28:15Z</time>
      </trkpt>
      <trkpt lat="44.74913" lon="6.98661">
        <ele>1927.5</ele>
        <time>2014-07-11T09:28:16Z</time>
      </trkpt>
      <trkpt lat="44.74876" lon="6.98628">
        <ele>1952.5</ele>
        <time>2014-07-11T09:29:47Z</time>
      </trkpt>
      <trkpt lat="44.74831" lon="6.98533">
        <ele>1961.8</ele>
        <time>2014-07-11T09:31:13Z</time>
      </trkpt>
      <trkpt lat="44.7483" lon="6.98529">
        <ele>1962.6</ele>
        <time>2014-07-11T09:31:14Z</time>
      </trkpt>
      <trkpt lat="44.74763" lon="6.98474">
        <ele>1981.5</ele>
        <time>2014-07-11T09:32:58Z</time>
      </trkpt>
      <trkpt lat="44.7476" lon="6.98476">
        <ele>1982.1</ele>
        <time>2014-07-11T09:32:59Z</time>
      </trkpt>
      <trkpt lat="44.74678" lon="6.98496">
        <ele>1991.4</ele>
        <time>2014-07-11T09:34:18Z</time>
      </trkpt>
      <trkpt lat="44.74674" lon="6.98497">
        <ele>1991.9</ele>
        <time>2014-07-11T09:34:19Z</time>
      </trkpt>
      <trkpt lat="44.74632" lon="6.98476">
        <ele>1998.8</ele>
        <time>2014-07-11T09:35:48Z</time>
      </trkpt>
      <trkpt lat="44.74552" lon="6.98448">
        <ele>2003.1</ele>
        <time>2014-07-11T09:37:23Z</time>
      </trkpt>
      <trkpt lat="44.74549" lon="6.98446">
        <ele>2003.8</ele>
        <time>2014-07-11T09:37:24Z</time>
      </trkpt>
      <trkpt lat="44.74469" lon="6.98404">
        <ele>2022</ele>
        <time>2014-07-11T09:38:57Z</time>
      </trkpt>
      <trkpt lat="44.74466" lon="6.98403">
        <ele>2022.9</ele>
        <time>2014-07-11T09:38:58Z</time>
      </trkpt>
      <trkpt lat="44.74424" lon="6.98397">
        <ele>2035.4</ele>
        <time>2014-07-11T09:40:01Z</time>
      </trkpt>
      <trkpt lat="44.74345" lon="6.98418">
        <ele>2047.6</ele>
        <time>2014-07-11T09:41:18Z</time>
      </trkpt>
      <trkpt lat="44.74341" lon="6.98419">
        <ele>2047.9</ele>
        <time>2014-07-11T09:41:19Z</time>
      </trkpt>
      <trkpt lat="44.74261" lon="6.98442">
        <ele>2052.8</ele>
        <time>2014-07-11T09:42:51Z</time>
      </trkpt>
      <trkpt lat="44.74257" lon="6.98443">
        <ele>2052.6</ele>
        <time>2014-07-11T09:42:52Z</time>
      </trkpt>
      <trkpt lat="44.74175" lon="6.98431">
        <ele>2038.1</ele>
        <time>2014-07-11T09:44:10Z</time>
      </trkpt>
      <trkpt lat="44.74172" lon="6.9843">
        <ele>2037.5</ele>
        <time>2014-07-11T09:44:11Z</time>
      </trkpt>
      <trkpt lat="44.74091" lon="6.98423">
        <ele>2024</ele>
        <time>2014-07-11T09:45:32Z</time>
      </trkpt>
      <trkpt lat="44.74088" lon="6.98422">
        <ele>2023.5</ele>
        <time>2014-07-11T09:45:33Z</time>
      </trkpt>
      <trkpt lat="44.74009" lon="6.98403">
        <ele>2023.9</ele>
        <time>2014-07-11T09:47:16Z</time>
      </trkpt>
      <trkpt lat="44.74006" lon="6.98404">
        <ele>2024.4</ele>
        <time>2014-07-11T09:47:17Z</time>
      </trkpt>
      <trkpt lat="44.73965" lon="6.98387">
        <ele>2028</ele>
        <time>2014-07-11T09:48:37Z</time>
      </trkpt>
      <trkpt lat="44.73885" lon="6.9837">
        <ele>2043</ele>
        <time>2014-07-11T09:50:04Z</time>
      </trkpt>
      <trkpt lat="44.73881" lon="6.98371">
        <ele>2043.6</ele>
        <time>2014-07-11T09:50:05Z</time>
      </trkpt>
      <trkpt lat="44.73798" lon="6.98364">
        <ele>2049.8</ele>
        <time>2014-07-11T09:51:28Z</time>
      </trkpt>
      <trkpt lat="44.73795" lon="6.98364">
        <ele>2050.5</ele>
        <time>2014-07-11T09:51:29Z</time>
      </trkpt>
      <trkpt lat="44.73752" lon="6.98363">
        <ele>2060.5</ele>
        <time>2014-07-11T09:53:07Z</time>
      </trkpt>
      <trkpt lat="44.7369" lon="6.98316">
        <ele>2080.8</ele>
        <time>2014-07-11T09:54:42Z</time>
      </trkpt>
      <trkpt lat="44.73661" lon="6.98288">
        <ele>2093.1</ele>
        <time>2014-07-11T09:54:43Z</time>
      </trkpt>
      <trkpt lat="44.73644" lon="6.98244">
        <ele>2110</ele>
        <time>2014-07-11T09:55:49Z</time>
      </trkpt>
      <trkpt lat="44.73641" lon="6.98226">
        <ele>2113.3</ele>
        <time>2014-07-11T09:57:01Z</time>
      </trkpt>
      <trkpt lat="44.73613" lon="6.9818">
        <ele>2123.6</ele>
        <time>2014-07-11T09:58:08Z</time>
      </trkpt>
      <trkpt lat="44.7353" lon="6.9818">
        <ele>2158.1</ele>
        <time>2014-07-11T10:00:29Z</time>
      </trkpt>
      <trkpt lat="44.73527" lon="6.9818">
        <ele>2159.3</ele>
        <time>2014-07-11T10:00:30Z</time>
      </trkpt>
      <trkpt lat="44.73452" lon="6.98231">
        <ele>2178</ele>
        <time>2014-07-11T10:02:32Z</time>
      </trkpt>
      <trkpt lat="44.73449" lon="6.98233">
        <ele>2178.5</ele>
        <time>2014-07-11T10:02:33Z</time>
      </trkpt>
      <trkpt lat="44.73379" lon="6.98294">
        <ele>2194.6</ele>
        <time>2014-07-11T10:03:46Z</time>
      </trkpt>
      <trkpt lat="44.73376" lon="6.98297">
        <ele>2195.3</ele>
        <time>2014-07-11T10:03:47Z</time>
      </trkpt>
      <trkpt lat="44.73299" lon="6.98304">
        <ele>2211.1</ele>
        <time>2014-07-11T10:05:20Z</time>
      </trkpt>
      <trkpt lat="44.73296" lon="6.98302">
        <ele>2211.6</ele>
        <time>2014-07-11T10:05:21Z</time>
      </trkpt>
      <trkpt lat="44.73227" lon="6.98286">
        <ele>2223.1</ele>
        <time>2014-07-11T10:06:47Z</time>
      </trkpt>
      <trkpt lat="44.73192" lon="6.98288">
        <ele>2233.8</ele>
        <time>2014-07-11T10:06:48Z</time>
      </trkpt>
      <trkpt lat="44.73162" lon="6.98329">
        <ele>2241.6</ele>
        <time>2014-07-11T10:08:07Z</time>
      </trkpt>
      <trkpt lat="44.73128" lon="6.98342">
        <ele>2250.8</ele>
        <time>2014-07-11T10:08:08Z</time>
      </trkpt>
      <trkpt lat="44.7309" lon="6.98357">
        <ele>2258.5</ele>
        <time>2014-07-11T10:10:00Z</time>
      </trkpt>
      <trkpt lat="44.73065" lon="6.98393">
        <ele>2268.1</ele>
        <time>2014-07-11T10:10:01Z</time>
      </trkpt>
      <trkpt lat="44.73034" lon="6.9842">
        <ele>2280.1</ele>
        <time>2014-07-11T10:11:07Z</time>
      </trkpt>
      <trkpt lat="44.73" lon="6.98384">
        <ele>2287.3</ele>
        <time>2014-07-11T10:12:28Z</time>
      </trkpt>
      <trkpt lat="44.72985" lon="6.98339">
        <ele>2297</ele>
        <time>2014-07-11T10:12:29Z</time>
      </trkpt>
      <trkpt lat="44.72968" lon="6.98287">
        <ele>2308.3</ele>
        <time>2014-07-11T10:14:09Z</time>
      </trkpt>
      <trkpt lat="44.7295" lon="6.98248">
        <ele>2324.6</ele>
        <time>2014-07-11T10:14:10Z</time>
      </trkpt>
      <trkpt lat="44.72934" lon="6.98245">
        <ele>2331.6</ele>
        <time>2014-07-11T10:15:20Z</time>
      </trkpt>
      <trkpt lat="44.72885" lon="6.9826">
        <ele>2344.6</ele>
        <time>2014-07-11T10:16:21Z</time>
      </trkpt>
      <trkpt lat="44.7285" lon="6.98294">
        <ele>2356</ele>
        <time>2014-07-11T10:17:32Z</time>
      </trkpt>
      <trkpt lat="44.72847" lon="6.98296">
        <ele>2356.8</ele>
        <time>2014-07-11T10:17:33Z</time>
      </trkpt>
      <trkpt lat="44.72792" lon="6.98318">
        <ele>2369.6</ele>
        <time>2014-07-11T10:18:42Z</time>
      </trkpt>
      <trkpt lat="44.72761" lon="6.98299">
        <ele>2382</ele>
        <time>2014-07-11T10:18:43Z</time>
      </trkpt>
      <trkpt lat="44.72725" lon="6.9828">
        <ele>2390.6</ele>
        <time>2014-07-11T10:20:37Z</time>
      </trkpt>
      <trkpt lat="44.72732" lon="6.98231">
        <ele>2400.8</ele>
        <time>2014-07-11T10:20:38Z</time>
      </trkpt>
      <trkpt lat="44.72712" lon="6.98179">
        <ele>2407</ele>
        <time>2014-07-11T10:22:07Z</time>
      </trkpt>
      <trkpt lat="44.72686" lon="6.98142">
        <ele>2409.8</ele>
        <time>2014-07-11T10:22:08Z</time>
      </trkpt>
      <trkpt lat="44.72649" lon="6.98111">
        <ele>2412</ele>
        <time>2014-07-11T10:23:29Z</time>
      </trkpt>
      <trkpt lat="44.7262" lon="6.9808">
        <ele>2414.6</ele>
        <time>2014-07-11T10:23:30Z</time>
      </trkpt>
      <trkpt lat="44.7258" lon="6.98095">
        <ele>2412.6</ele>
        <time>2014-07-11T10:24:48Z</time>
      </trkpt>
      <trkpt lat="44.72555" lon="6.98118">
        <ele>2410.5</ele>
        <time>2014-07-11T10:24:49Z</time>
      </trkpt>
      <trkpt lat="44.72549" lon="6.98173">
        <ele>2410.3</ele>
        <time>2014-07-11T10:27:42Z</time>
      </trkpt>
      <trkpt lat="44.72552" lon="6.98154">
        <ele>2405.6</ele>
        <time>2014-07-11T11:45:08Z</time>
      </trkpt>
      <trkpt lat="44.72541" lon="6.98104">
        <ele>2404.6</ele>
        <time>2014-07-11T11:45:09Z</time>
      </trkpt>
      <trkpt lat="44.72511" lon="6.98071">
        <ele>2407.1</ele>
        <time>2014-07-11T11:46:11Z</time>
      </trkpt>
      <trkpt lat="44.72473" lon="6.98044">
        <ele>2403.6</ele>
        <time>2014-07-11T11:47:25Z</time>
      </trkpt>
      <trkpt lat="44.72443" lon="6.98014">
        <ele>2401.8</ele>
        <time>2014-07-11T11:47:26Z</time>
      </trkpt>
      <trkpt lat="44.72406" lon="6.97975">
        <ele>2400.1</ele>
        <time>2014-07-11T11:48:46Z</time>
      </trkpt>
      <trkpt lat="44.72403" lon="6.97974">
        <ele>2400.3</ele>
        <time>2014-07-11T11:48:47Z</time>
      </trkpt>
      <trkpt lat="44.72318" lon="6.97961">
        <ele>2402.6</ele>
        <time>2014-07-11T11:49:58Z</time>
      </trkpt>
      <trkpt lat="44.72315" lon="6.97961">
        <ele>2402.6</ele>
        <time>2014-07-11T11:49:59Z</time>
      </trkpt>
      <trkpt lat="44.72235" lon="6.97926">
        <ele>2400.1</ele>
        <time>2014-07-11T11:51:18Z</time>
      </trkpt>
      <trkpt lat="44.72232" lon="6.97924">
        <ele>2400.1</ele>
        <time>2014-07-11T11:51:19Z</time>
      </trkpt>
      <trkpt lat="44.72149" lon="6.9792">
        <ele>2401.3</ele>
        <time>2014-07-11T11:52:15Z</time>
      </trkpt>
      <trkpt lat="44.72109" lon="6.97911">
        <ele>2401.1</ele>
        <time>2014-07-11T11:53:24Z</time>
      </trkpt>
      <trkpt lat="44.72072" lon="6.97904">
        <ele>2402</ele>
        <time>2014-07-11T11:53:25Z</time>
      </trkpt>
      <trkpt lat="44.72029" lon="6.97896">
        <ele>2401.3</ele>
        <time>2014-07-11T11:54:40Z</time>
      </trkpt>
      <trkpt lat="44.71993" lon="6.97885">
        <ele>2401.3</ele>
        <time>2014-07-11T11:54:41Z</time>
      </trkpt>
      <trkpt lat="44.7195" lon="6.97888">
        <ele>2402.8</ele>
        <time>2014-07-11T11:55:51Z</time>
      </trkpt>
      <trkpt lat="44.71913" lon="6.97884">
        <ele>2405.1</ele>
        <time>2014-07-11T11:55:52Z</time>
      </trkpt>
      <trkpt lat="44.7187" lon="6.97867">
        <ele>2409</ele>
        <time>2014-07-11T11:58:01Z</time>
      </trkpt>
      <trkpt lat="44.71837" lon="6.97849">
        <ele>2415.6</ele>
        <time>2014-07-11T11:58:02Z</time>
      </trkpt>
      <trkpt lat="44.71836" lon="6.97798">
        <ele>2432.8</ele>
        <time>2014-07-11T11:59:15Z</time>
      </trkpt>
      <trkpt lat="44.71805" lon="6.97798">
        <ele>2448.1</ele>
        <time>2014-07-11T12:01:31Z</time>
      </trkpt>
      <trkpt lat="44.71722" lon="6.97825">
        <ele>2478.1</ele>
        <time>2014-07-11T12:05:26Z</time>
      </trkpt>
      <trkpt lat="44.71691" lon="6.97845">
        <ele>2492.6</ele>
        <time>2014-07-11T12:05:27Z</time>
      </trkpt>
      <trkpt lat="44.71655" lon="6.97858">
        <ele>2501.5</ele>
        <time>2014-07-11T12:09:46Z</time>
      </trkpt>
      <trkpt lat="44.71614" lon="6.97867">
        <ele>2511.8</ele>
        <time>2014-07-11T12:11:06Z</time>
      </trkpt>
      <trkpt lat="44.71578" lon="6.97875">
        <ele>2519.1</ele>
        <time>2014-07-11T12:11:07Z</time>
      </trkpt>
      <trkpt lat="44.71539" lon="6.97863">
        <ele>2521.1</ele>
        <time>2014-07-11T12:12:24Z</time>
      </trkpt>
      <trkpt lat="44.71501" lon="6.97861">
        <ele>2524.6</ele>
        <time>2014-07-11T12:21:20Z</time>
      </trkpt>
      <trkpt lat="44.71459" lon="6.97873">
        <ele>2527.5</ele>
        <time>2014-07-11T12:22:39Z</time>
      </trkpt>
      <trkpt lat="44.71426" lon="6.9789">
        <ele>2535.8</ele>
        <time>2014-07-11T12:22:40Z</time>
      </trkpt>
      <trkpt lat="44.71382" lon="6.97926">
        <ele>2550.8</ele>
        <time>2014-07-11T12:24:04Z</time>
      </trkpt>
      <trkpt lat="44.7138" lon="6.97928">
        <ele>2551.6</ele>
        <time>2014-07-11T12:24:05Z</time>
      </trkpt>
      <trkpt lat="44.71311" lon="6.97992">
        <ele>2571</ele>
        <time>2014-07-11T12:26:21Z</time>
      </trkpt>
      <trkpt lat="44.71308" lon="6.97994">
        <ele>2572</ele>
        <time>2014-07-11T12:26:22Z</time>
      </trkpt>
      <trkpt lat="44.71266" lon="6.98015">
        <ele>2582.8</ele>
        <time>2014-07-11T12:27:36Z</time>
      </trkpt>
      <trkpt lat="44.71191" lon="6.98058">
        <ele>2595.5</ele>
        <time>2014-07-11T12:28:56Z</time>
      </trkpt>
      <trkpt lat="44.71187" lon="6.9806">
        <ele>2595.8</ele>
        <time>2014-07-11T12:28:57Z</time>
      </trkpt>
      <trkpt lat="44.71132" lon="6.98093">
        <ele>2603.3</ele>
        <time>2014-07-11T12:29:59Z</time>
      </trkpt>
      <trkpt lat="44.71097" lon="6.98106">
        <ele>2607.1</ele>
        <time>2014-07-11T12:30:00Z</time>
      </trkpt>
      <trkpt lat="44.71055" lon="6.98118">
        <ele>2614</ele>
        <time>2014-07-11T12:31:17Z</time>
      </trkpt>
      <trkpt lat="44.71019" lon="6.9812">
        <ele>2620.8</ele>
        <time>2014-07-11T12:31:18Z</time>
      </trkpt>
      <trkpt lat="44.7097" lon="6.98108">
        <ele>2620.3</ele>
        <time>2014-07-11T12:32:36Z</time>
      </trkpt>
      <trkpt lat="44.70966" lon="6.98108">
        <ele>2620.3</ele>
        <time>2014-07-11T12:32:37Z</time>
      </trkpt>
      <trkpt lat="44.70922" lon="6.98114">
        <ele>2619.5</ele>
        <time>2014-07-11T12:33:50Z</time>
      </trkpt>
      <trkpt lat="44.70848" lon="6.98162">
        <ele>2623.6</ele>
        <time>2014-07-11T12:35:02Z</time>
      </trkpt>
      <trkpt lat="44.70845" lon="6.98164">
        <ele>2623.8</ele>
        <time>2014-07-11T12:35:03Z</time>
      </trkpt>
      <trkpt lat="44.70767" lon="6.98203">
        <ele>2628.1</ele>
        <time>2014-07-11T12:36:23Z</time>
      </trkpt>
      <trkpt lat="44.70764" lon="6.98204">
        <ele>2628.1</ele>
        <time>2014-07-11T12:36:24Z</time>
      </trkpt>
      <trkpt lat="44.70683" lon="6.98226">
        <ele>2628.8</ele>
        <time>2014-07-11T12:39:51Z</time>
      </trkpt>
      <trkpt lat="44.70649" lon="6.98245">
        <ele>2628.1</ele>
        <time>2014-07-11T12:39:52Z</time>
      </trkpt>
      <trkpt lat="44.70608" lon="6.9825">
        <ele>2628.8</ele>
        <time>2014-07-11T12:41:01Z</time>
      </trkpt>
      <trkpt lat="44.70572" lon="6.98258">
        <ele>2629</ele>
        <time>2014-07-11T12:41:02Z</time>
      </trkpt>
      <trkpt lat="44.7053" lon="6.98269">
        <ele>2630.3</ele>
        <time>2014-07-11T12:42:13Z</time>
      </trkpt>
      <trkpt lat="44.70494" lon="6.98273">
        <ele>2630.8</ele>
        <time>2014-07-11T12:42:14Z</time>
      </trkpt>
      <trkpt lat="44.70451" lon="6.98284">
        <ele>2632.6</ele>
        <time>2014-07-11T12:43:13Z</time>
      </trkpt>
      <trkpt lat="44.7041" lon="6.98305">
        <ele>2634.6</ele>
        <time>2014-07-11T12:44:11Z</time>
      </trkpt>
      <trkpt lat="44.70407" lon="6.98307">
        <ele>2634.5</ele>
        <time>2014-07-11T12:44:12Z</time>
      </trkpt>
      <trkpt lat="44.7034" lon="6.98343">
        <ele>2632.3</ele>
        <time>2014-07-11T12:45:25Z</time>
      </trkpt>
      <trkpt lat="44.70308" lon="6.98365">
        <ele>2636.6</ele>
        <time>2014-07-11T12:45:26Z</time>
      </trkpt>
      <trkpt lat="44.70268" lon="6.98389">
        <ele>2641.3</ele>
        <time>2014-07-11T12:46:24Z</time>
      </trkpt>
      <trkpt lat="44.70226" lon="6.98404">
        <ele>2648.8</ele>
        <time>2014-07-11T12:47:16Z</time>
      </trkpt>
      <trkpt lat="44.70223" lon="6.98404">
        <ele>2648.8</ele>
        <time>2014-07-11T12:47:17Z</time>
      </trkpt>
      <trkpt lat="44.70178" lon="6.98419">
        <ele>2651.3</ele>
        <time>2014-07-11T12:48:03Z</time>
      </trkpt>
      <trkpt lat="44.70102" lon="6.98465">
        <ele>2667.1</ele>
        <time>2014-07-11T12:49:38Z</time>
      </trkpt>
      <trkpt lat="44.70066" lon="6.98488">
        <ele>2675.1</ele>
        <time>2014-07-11T12:50:25Z</time>
      </trkpt>
      <trkpt lat="44.70031" lon="6.98512">
        <ele>2685.1</ele>
        <time>2014-07-11T12:51:04Z</time>
      </trkpt>
      <trkpt lat="44.70005" lon="6.98529">
        <ele>2693.8</ele>
        <time>2014-07-11T12:51:05Z</time>
      </trkpt>
      <trkpt lat="44.69968" lon="6.98556">
        <ele>2703</ele>
        <time>2014-07-11T12:52:28Z</time>
      </trkpt>
      <trkpt lat="44.69947" lon="6.98596">
        <ele>2711.6</ele>
        <time>2014-07-11T12:52:29Z</time>
      </trkpt>
      <trkpt lat="44.69911" lon="6.98621">
        <ele>2717.8</ele>
        <time>2014-07-11T12:53:50Z</time>
      </trkpt>
      <trkpt lat="44.69875" lon="6.98625">
        <ele>2725.1</ele>
        <time>2014-07-11T12:53:51Z</time>
      </trkpt>
      <trkpt lat="44.69834" lon="6.98652">
        <ele>2734.1</ele>
        <time>2014-07-11T12:55:21Z</time>
      </trkpt>
      <trkpt lat="44.69801" lon="6.98667">
        <ele>2746.6</ele>
        <time>2014-07-11T12:55:22Z</time>
      </trkpt>
      <trkpt lat="44.69755" lon="6.98673">
        <ele>2763.5</ele>
        <time>2014-07-11T12:57:12Z</time>
      </trkpt>
      <trkpt lat="44.69753" lon="6.98672">
        <ele>2764.6</ele>
        <time>2014-07-11T12:57:13Z</time>
      </trkpt>
      <trkpt lat="44.6969" lon="6.98649">
        <ele>2791.3</ele>
        <time>2014-07-11T13:00:18Z</time>
      </trkpt>
      <trkpt lat="44.69632" lon="6.98661">
        <ele>2805.6</ele>
        <time>2014-07-11T13:02:12Z</time>
      </trkpt>
      <trkpt lat="44.69629" lon="6.98662">
        <ele>2806.5</ele>
        <time>2014-07-11T13:02:13Z</time>
      </trkpt>
      <trkpt lat="44.69587" lon="6.98665">
        <ele>2814.6</ele>
        <time>2014-07-11T13:08:48Z</time>
      </trkpt>
      <trkpt lat="44.69524" lon="6.98615">
        <ele>2805.8</ele>
        <time>2014-07-11T13:10:48Z</time>
      </trkpt>
      <trkpt lat="44.69495" lon="6.98577">
        <ele>2797</ele>
        <time>2014-07-11T13:12:12Z</time>
      </trkpt>
      <trkpt lat="44.69463" lon="6.98553">
        <ele>2793.5</ele>
        <time>2014-07-11T13:12:13Z</time>
      </trkpt>
      <trkpt lat="44.69441" lon="6.98484">
        <ele>2780.3</ele>
        <time>2014-07-11T13:13:46Z</time>
      </trkpt>
      <trkpt lat="44.6944" lon="6.9848">
        <ele>2779.6</ele>
        <time>2014-07-11T13:13:47Z</time>
      </trkpt>
      <trkpt lat="44.69396" lon="6.98389">
        <ele>2765.6</ele>
        <time>2014-07-11T13:15:21Z</time>
      </trkpt>
      <trkpt lat="44.69375" lon="6.9835">
        <ele>2759.6</ele>
        <time>2014-07-11T13:15:22Z</time>
      </trkpt>
      <trkpt lat="44.69334" lon="6.98316">
        <ele>2751.6</ele>
        <time>2014-07-11T13:16:51Z</time>
      </trkpt>
      <trkpt lat="44.6933" lon="6.98316">
        <ele>2751.3</ele>
        <time>2014-07-11T13:16:52Z</time>
      </trkpt>
      <trkpt lat="44.69259" lon="6.98309">
        <ele>2744.3</ele>
        <time>2014-07-11T13:18:31Z</time>
      </trkpt>
      <trkpt lat="44.69222" lon="6.98304">
        <ele>2739.5</ele>
        <time>2014-07-11T13:18:32Z</time>
      </trkpt>
      <trkpt lat="44.69182" lon="6.98288">
        <ele>2739.5</ele>
        <time>2014-07-11T13:19:52Z</time>
      </trkpt>
      <trkpt lat="44.69149" lon="6.98264">
        <ele>2741.1</ele>
        <time>2014-07-11T13:19:53Z</time>
      </trkpt>
      <trkpt lat="44.69107" lon="6.98256">
        <ele>2741.3</ele>
        <time>2014-07-11T13:21:09Z</time>
      </trkpt>
      <trkpt lat="44.69072" lon="6.98245">
        <ele>2742.6</ele>
        <time>2014-07-11T13:21:10Z</time>
      </trkpt>
      <trkpt lat="44.69034" lon="6.98248">
        <ele>2742.1</ele>
        <time>2014-07-11T13:22:46Z</time>
      </trkpt>
      <trkpt lat="44.69019" lon="6.98243">
        <ele>2743.1</ele>
        <time>2014-07-11T13:23:40Z</time>
      </trkpt>
      <trkpt lat="44.68982" lon="6.98216">
        <ele>2738.6</ele>
        <time>2014-07-11T13:24:39Z</time>
      </trkpt>
      <trkpt lat="44.68957" lon="6.98178">
        <ele>2741.3</ele>
        <time>2014-07-11T13:24:40Z</time>
      </trkpt>
      <trkpt lat="44.68923" lon="6.98141">
        <ele>2739</ele>
        <time>2014-07-11T13:25:54Z</time>
      </trkpt>
      <trkpt lat="44.68893" lon="6.9811">
        <ele>2737.6</ele>
        <time>2014-07-11T13:25:55Z</time>
      </trkpt>
      <trkpt lat="44.68858" lon="6.98076">
        <ele>2734.6</ele>
        <time>2014-07-11T13:26:57Z</time>
      </trkpt>
      <trkpt lat="44.68844" lon="6.98068">
        <ele>2731.6</ele>
        <time>2014-07-11T13:26:58Z</time>
      </trkpt>
      <trkpt lat="44.68804" lon="6.98049">
        <ele>2730.6</ele>
        <time>2014-07-11T13:28:26Z</time>
      </trkpt>
      <trkpt lat="44.68769" lon="6.98037">
        <ele>2728.1</ele>
        <time>2014-07-11T13:28:27Z</time>
      </trkpt>
      <trkpt lat="44.68731" lon="6.98011">
        <ele>2728.6</ele>
        <time>2014-07-11T13:29:48Z</time>
      </trkpt>
      <trkpt lat="44.68697" lon="6.9799">
        <ele>2726.6</ele>
        <time>2014-07-11T13:29:49Z</time>
      </trkpt>
      <trkpt lat="44.68656" lon="6.9796">
        <ele>2721.5</ele>
        <time>2014-07-11T13:30:54Z</time>
      </trkpt>
      <trkpt lat="44.68654" lon="6.97959">
        <ele>2722</ele>
        <time>2014-07-11T13:30:55Z</time>
      </trkpt>
      <trkpt lat="44.68615" lon="6.97983">
        <ele>2726</ele>
        <time>2014-07-11T13:32:19Z</time>
      </trkpt>
      <trkpt lat="44.68543" lon="6.98">
        <ele>2732.1</ele>
        <time>2014-07-11T13:33:34Z</time>
      </trkpt>
      <trkpt lat="44.68517" lon="6.98028">
        <ele>2736.6</ele>
        <time>2014-07-11T13:33:35Z</time>
      </trkpt>
      <trkpt lat="44.68491" lon="6.98042">
        <ele>2741.8</ele>
        <time>2014-07-11T13:34:04Z</time>
      </trkpt>
      <trkpt lat="44.68448" lon="6.98026">
        <ele>2745.6</ele>
        <time>2014-07-11T13:34:20Z</time>
      </trkpt>
      <trkpt lat="44.68413" lon="6.97987">
        <ele>2752.5</ele>
        <time>2014-07-11T13:35:25Z</time>
      </trkpt>
      <trkpt lat="44.68411" lon="6.97984">
        <ele>2752.8</ele>
        <time>2014-07-11T13:35:26Z</time>
      </trkpt>
      <trkpt lat="44.6838" lon="6.9803">
        <ele>2750.3</ele>
        <time>2014-07-11T13:40:04Z</time>
      </trkpt>
      <trkpt lat="44.68337" lon="6.98129">
        <ele>2741.6</ele>
        <time>2014-07-11T13:41:19Z</time>
      </trkpt>
      <trkpt lat="44.68335" lon="6.98134">
        <ele>2741.5</ele>
        <time>2014-07-11T13:41:20Z</time>
      </trkpt>
      <trkpt lat="44.68338" lon="6.98063">
        <ele>2724.6</ele>
        <time>2014-07-11T13:43:00Z</time>
      </trkpt>
      <trkpt lat="44.68305" lon="6.97962">
        <ele>2716.8</ele>
        <time>2014-07-11T13:44:23Z</time>
      </trkpt>
      <trkpt lat="44.68302" lon="6.97959">
        <ele>2716.6</ele>
        <time>2014-07-11T13:44:24Z</time>
      </trkpt>
      <trkpt lat="44.68229" lon="6.97903">
        <ele>2706</ele>
        <time>2014-07-11T13:45:53Z</time>
      </trkpt>
      <trkpt lat="44.68225" lon="6.97901">
        <ele>2705.3</ele>
        <time>2014-07-11T13:45:54Z</time>
      </trkpt>
      <trkpt lat="44.68219" lon="6.97965">
        <ele>2696.3</ele>
        <time>2014-07-11T13:47:34Z</time>
      </trkpt>
      <trkpt lat="44.68184" lon="6.98043">
        <ele>2683.6</ele>
        <time>2014-07-11T13:52:32Z</time>
      </trkpt>
      <trkpt lat="44.6818" lon="6.98043">
        <ele>2683.3</ele>
        <time>2014-07-11T13:52:33Z</time>
      </trkpt>
      <trkpt lat="44.68122" lon="6.98029">
        <ele>2685.6</ele>
        <time>2014-07-11T13:53:42Z</time>
      </trkpt>
      <trkpt lat="44.68088" lon="6.98021">
        <ele>2673.6</ele>
        <time>2014-07-11T13:53:43Z</time>
      </trkpt>
      <trkpt lat="44.68051" lon="6.98026">
        <ele>2654.6</ele>
        <time>2014-07-11T13:55:13Z</time>
      </trkpt>
      <trkpt lat="44.68017" lon="6.98033">
        <ele>2640.1</ele>
        <time>2014-07-11T13:55:14Z</time>
      </trkpt>
      <trkpt lat="44.67981" lon="6.98042">
        <ele>2626.3</ele>
        <time>2014-07-11T13:56:18Z</time>
      </trkpt>
      <trkpt lat="44.67936" lon="6.98053">
        <ele>2615</ele>
        <time>2014-07-11T13:58:28Z</time>
      </trkpt>
      <trkpt lat="44.67935" lon="6.98056">
        <ele>2614.8</ele>
        <time>2014-07-11T13:58:29Z</time>
      </trkpt>
      <trkpt lat="44.67956" lon="6.98114">
        <ele>2608.6</ele>
        <time>2014-07-11T13:59:44Z</time>
      </trkpt>
      <trkpt lat="44.6798" lon="6.98166">
        <ele>2606.6</ele>
        <time>2014-07-11T14:01:18Z</time>
      </trkpt>
      <trkpt lat="44.68032" lon="6.98255">
        <ele>2593.6</ele>
        <time>2014-07-11T14:02:38Z</time>
      </trkpt>
      <trkpt lat="44.68034" lon="6.98259">
        <ele>2593.3</ele>
        <time>2014-07-11T14:02:39Z</time>
      </trkpt>
      <trkpt lat="44.68033" lon="6.98372">
        <ele>2576.5</ele>
        <time>2014-07-11T14:04:01Z</time>
      </trkpt>
      <trkpt lat="44.68031" lon="6.98376">
        <ele>2576.3</ele>
        <time>2014-07-11T14:04:02Z</time>
      </trkpt>
      <trkpt lat="44.67998" lon="6.98416">
        <ele>2572.8</ele>
        <time>2014-07-11T14:05:45Z</time>
      </trkpt>
      <trkpt lat="44.67921" lon="6.98438">
        <ele>2567.1</ele>
        <time>2014-07-11T14:07:36Z</time>
      </trkpt>
      <trkpt lat="44.67919" lon="6.98436">
        <ele>2567.3</ele>
        <time>2014-07-11T14:07:37Z</time>
      </trkpt>
      <trkpt lat="44.67842" lon="6.98387">
        <ele>2559.8</ele>
        <time>2014-07-11T14:09:14Z</time>
      </trkpt>
      <trkpt lat="44.67838" lon="6.98386">
        <ele>2559.6</ele>
        <time>2014-07-11T14:09:15Z</time>
      </trkpt>
      <trkpt lat="44.67782" lon="6.98378">
        <ele>2557</ele>
        <time>2014-07-11T14:10:12Z</time>
      </trkpt>
      <trkpt lat="44.67737" lon="6.98374">
        <ele>2558.1</ele>
        <time>2014-07-11T14:11:08Z</time>
      </trkpt>
      <trkpt lat="44.67734" lon="6.98373">
        <ele>2557.8</ele>
        <time>2014-07-11T14:11:09Z</time>
      </trkpt>
      <trkpt lat="44.67662" lon="6.98357">
        <ele>2552</ele>
        <time>2014-07-11T14:12:47Z</time>
      </trkpt>
      <trkpt lat="44.67626" lon="6.98364">
        <ele>2551.3</ele>
        <time>2014-07-11T14:12:48Z</time>
      </trkpt>
      <trkpt lat="44.67586" lon="6.98383">
        <ele>2549.1</ele>
        <time>2014-07-11T14:14:07Z</time>
      </trkpt>
      <trkpt lat="44.6755" lon="6.98391">
        <ele>2549.8</ele>
        <time>2014-07-11T14:14:08Z</time>
      </trkpt>
      <trkpt lat="44.67515" lon="6.98409">
        <ele>2543</ele>
        <time>2014-07-11T14:15:14Z</time>
      </trkpt>
      <trkpt lat="44.67487" lon="6.98428">
        <ele>2541.1</ele>
        <time>2014-07-11T14:15:15Z</time>
      </trkpt>
      <trkpt lat="44.67451" lon="6.98449">
        <ele>2533.8</ele>
        <time>2014-07-11T14:16:44Z</time>
      </trkpt>
      <trkpt lat="44.67415" lon="6.98441">
        <ele>2525.3</ele>
        <time>2014-07-11T14:16:45Z</time>
      </trkpt>
      <trkpt lat="44.67376" lon="6.98426">
        <ele>2516.6</ele>
        <time>2014-07-11T14:18:07Z</time>
      </trkpt>
      <trkpt lat="44.6634" lon="6.98541">
        <ele>2179.3</ele>
        <time>2014-07-11T14:39:36Z</time>
      </trkpt>
      <trkpt lat="44.6633" lon="6.98602">
        <ele>2178.1</ele>
        <time>2014-07-11T14:42:06Z</time>
      </trkpt>
      <trkpt lat="44.66327" lon="6.98604">
        <ele>2178.1</ele>
        <time>2014-07-11T14:42:07Z</time>
      </trkpt>
      <trkpt lat="44.66264" lon="6.98623">
        <ele>2173.8</ele>
        <time>2014-07-11T14:43:32Z</time>
      </trkpt>
      <trkpt lat="44.66227" lon="6.98615">
        <ele>2170.6</ele>
        <time>2014-07-11T14:43:33Z</time>
      </trkpt>
      <trkpt lat="44.66185" lon="6.98597">
        <ele>2166.3</ele>
        <time>2014-07-11T14:44:36Z</time>
      </trkpt>
      <trkpt lat="44.66148" lon="6.98592">
        <ele>2161.3</ele>
        <time>2014-07-11T14:44:37Z</time>
      </trkpt>
      <trkpt lat="44.66105" lon="6.98601">
        <ele>2156.1</ele>
        <time>2014-07-11T14:45:39Z</time>
      </trkpt>
      <trkpt lat="44.66068" lon="6.98602">
        <ele>2149.6</ele>
        <time>2014-07-11T14:45:40Z</time>
      </trkpt>
      <trkpt lat="44.66018" lon="6.98607">
        <ele>2141.8</ele>
        <time>2014-07-11T14:46:47Z</time>
      </trkpt>
      <trkpt lat="44.65981" lon="6.98607">
        <ele>2136.3</ele>
        <time>2014-07-11T14:46:48Z</time>
      </trkpt>
      <trkpt lat="44.65937" lon="6.9861">
        <ele>2131</ele>
        <time>2014-07-11T14:47:51Z</time>
      </trkpt>
      <trkpt lat="44.65901" lon="6.98609">
        <ele>2128.6</ele>
        <time>2014-07-11T14:47:52Z</time>
      </trkpt>
      <trkpt lat="44.65853" lon="6.98618">
        <ele>2123.6</ele>
        <time>2014-07-11T14:48:56Z</time>
      </trkpt>
      <trkpt lat="44.65849" lon="6.98619">
        <ele>2123.1</ele>
        <time>2014-07-11T14:48:57Z</time>
      </trkpt>
      <trkpt lat="44.65767" lon="6.98651">
        <ele>2108.6</ele>
        <time>2014-07-11T14:50:06Z</time>
      </trkpt>
      <trkpt lat="44.65764" lon="6.98653">
        <ele>2108.1</ele>
        <time>2014-07-11T14:50:07Z</time>
      </trkpt>
      <trkpt lat="44.65697" lon="6.98716">
        <ele>2092.8</ele>
        <time>2014-07-11T14:51:31Z</time>
      </trkpt>
      <trkpt lat="44.65697" lon="6.9872">
        <ele>2092.3</ele>
        <time>2014-07-11T14:51:32Z</time>
      </trkpt>
      <trkpt lat="44.65742" lon="6.98724">
        <ele>2086.1</ele>
        <time>2014-07-11T14:52:40Z</time>
      </trkpt>
      <trkpt lat="44.65825" lon="6.9873">
        <ele>2078.8</ele>
        <time>2014-07-11T14:53:45Z</time>
      </trkpt>
      <trkpt lat="44.65829" lon="6.9873">
        <ele>2078.1</ele>
        <time>2014-07-11T14:53:46Z</time>
      </trkpt>
      <trkpt lat="44.65913" lon="6.98751">
        <ele>2063.1</ele>
        <time>2014-07-11T14:54:51Z</time>
      </trkpt>
      <trkpt lat="44.65916" lon="6.98753">
        <ele>2062.8</ele>
        <time>2014-07-11T14:54:52Z</time>
      </trkpt>
      <trkpt lat="44.6599" lon="6.98797">
        <ele>2059.3</ele>
        <time>2014-07-11T14:55:49Z</time>
      </trkpt>
      <trkpt lat="44.66021" lon="6.98839">
        <ele>2050.6</ele>
        <time>2014-07-11T14:56:31Z</time>
      </trkpt>
      <trkpt lat="44.66023" lon="6.98843">
        <ele>2050.1</ele>
        <time>2014-07-11T14:56:32Z</time>
      </trkpt>
      <trkpt lat="44.66059" lon="6.98948">
        <ele>2041.5</ele>
        <time>2014-07-11T14:57:35Z</time>
      </trkpt>
      <trkpt lat="44.66061" lon="6.98952">
        <ele>2040.8</ele>
        <time>2014-07-11T14:57:36Z</time>
      </trkpt>
      <trkpt lat="44.66113" lon="6.9904">
        <ele>2029.4</ele>
        <time>2014-07-11T14:58:39Z</time>
      </trkpt>
      <trkpt lat="44.66115" lon="6.99043">
        <ele>2029.4</ele>
        <time>2014-07-11T14:58:40Z</time>
      </trkpt>
      <trkpt lat="44.66164" lon="6.99143">
        <ele>2027.8</ele>
        <time>2014-07-11T14:59:28Z</time>
      </trkpt>
      <trkpt lat="44.6619" lon="6.99194">
        <ele>2024.1</ele>
        <time>2014-07-11T14:59:58Z</time>
      </trkpt>
      <trkpt lat="44.6619" lon="6.99196">
        <ele>2024</ele>
        <time>2014-07-11T14:59:59Z</time>
      </trkpt>
      <trkpt lat="44.66144" lon="6.99185">
        <ele>2011.9</ele>
        <time>2014-07-11T15:02:36Z</time>
      </trkpt>
      <trkpt lat="44.66078" lon="6.99137">
        <ele>2004.5</ele>
        <time>2014-07-11T15:03:42Z</time>
      </trkpt>
      <trkpt lat="44.66043" lon="6.99124">
        <ele>2002.1</ele>
        <time>2014-07-11T15:03:43Z</time>
      </trkpt>
      <trkpt lat="44.65998" lon="6.99116">
        <ele>2000.5</ele>
        <time>2014-07-11T15:04:44Z</time>
      </trkpt>
      <trkpt lat="44.65965" lon="6.99097">
        <ele>1996.3</ele>
        <time>2014-07-11T15:04:45Z</time>
      </trkpt>
      <trkpt lat="44.65926" lon="6.99057">
        <ele>1986.5</ele>
        <time>2014-07-11T15:05:22Z</time>
      </trkpt>
      <trkpt lat="44.65895" lon="6.99018">
        <ele>1981.5</ele>
        <time>2014-07-11T15:05:58Z</time>
      </trkpt>
      <trkpt lat="44.65889" lon="6.9901">
        <ele>1980.5</ele>
        <time>2014-07-11T15:05:59Z</time>
      </trkpt>
      <trkpt lat="44.65837" lon="6.98978">
        <ele>1973.8</ele>
        <time>2014-07-11T15:07:08Z</time>
      </trkpt>
      <trkpt lat="44.65801" lon="6.98977">
        <ele>1971.6</ele>
        <time>2014-07-11T15:07:09Z</time>
      </trkpt>
      <trkpt lat="44.65767" lon="6.98979">
        <ele>1969.8</ele>
        <time>2014-07-11T15:08:14Z</time>
      </trkpt>
      <trkpt lat="44.65742" lon="6.98976">
        <ele>1965.5</ele>
        <time>2014-07-11T15:08:15Z</time>
      </trkpt>
      <trkpt lat="44.65678" lon="6.98961">
        <ele>1956.1</ele>
        <time>2014-07-11T15:08:57Z</time>
      </trkpt>
      <trkpt lat="44.65635" lon="6.98949">
        <ele>1951.1</ele>
        <time>2014-07-11T15:09:27Z</time>
      </trkpt>
      <trkpt lat="44.65634" lon="6.98949">
        <ele>1951</ele>
        <time>2014-07-11T15:09:28Z</time>
      </trkpt>
      <trkpt lat="44.65549" lon="6.98918">
        <ele>1942.5</ele>
        <time>2014-07-11T15:10:27Z</time>
      </trkpt>
      <trkpt lat="44.65506" lon="6.98912">
        <ele>1937</ele>
        <time>2014-07-11T15:10:58Z</time>
      </trkpt>
      <trkpt lat="44.65504" lon="6.98912">
        <ele>1937</ele>
        <time>2014-07-11T15:10:59Z</time>
      </trkpt>
      <trkpt lat="44.65456" lon="6.98906">
        <ele>1930.1</ele>
        <time>2014-07-11T15:12:06Z</time>
      </trkpt>
      <trkpt lat="44.65421" lon="6.98892">
        <ele>1924</ele>
        <time>2014-07-11T15:12:07Z</time>
      </trkpt>
      <trkpt lat="44.65377" lon="6.98868">
        <ele>1915.9</ele>
        <time>2014-07-11T15:13:12Z</time>
      </trkpt>
      <trkpt lat="44.65352" lon="6.98832">
        <ele>1912</ele>
        <time>2014-07-11T15:13:13Z</time>
      </trkpt>
      <trkpt lat="44.65327" lon="6.9878">
        <ele>1906.8</ele>
        <time>2014-07-11T15:14:13Z</time>
      </trkpt>
      <trkpt lat="44.65306" lon="6.98736">
        <ele>1903.1</ele>
        <time>2014-07-11T15:14:14Z</time>
      </trkpt>
      <trkpt lat="44.65309" lon="6.98839">
        <ele>1890.6</ele>
        <time>2014-07-11T15:15:33Z</time>
      </trkpt>
      <trkpt lat="44.65316" lon="6.98959">
        <ele>1879.4</ele>
        <time>2014-07-11T15:16:41Z</time>
      </trkpt>
      <trkpt lat="44.65316" lon="6.98962">
        <ele>1879</ele>
        <time>2014-07-11T15:16:42Z</time>
      </trkpt>
      <trkpt lat="44.65373" lon="6.99043">
        <ele>1867.1</ele>
        <time>2014-07-11T15:18:02Z</time>
      </trkpt>
      <trkpt lat="44.65376" lon="6.99045">
        <ele>1866.5</ele>
        <time>2014-07-11T15:18:03Z</time>
      </trkpt>
      <trkpt lat="44.65384" lon="6.99093">
        <ele>1850</ele>
        <time>2014-07-11T15:20:44Z</time>
      </trkpt>
      <trkpt lat="44.65382" lon="6.99093">
        <ele>1849.6</ele>
        <time>2014-07-11T15:20:45Z</time>
      </trkpt>
      <trkpt lat="44.65297" lon="6.991">
        <ele>1844</ele>
        <time>2014-07-11T15:21:38Z</time>
      </trkpt>
      <trkpt lat="44.65256" lon="6.99116">
        <ele>1839.8</ele>
        <time>2014-07-11T15:22:32Z</time>
      </trkpt>
      <trkpt lat="44.65252" lon="6.99118">
        <ele>1839.6</ele>
        <time>2014-07-11T15:22:33Z</time>
      </trkpt>
      <trkpt lat="44.65183" lon="6.99168">
        <ele>1839.9</ele>
        <time>2014-07-11T15:24:37Z</time>
      </trkpt>
      <trkpt lat="44.65155" lon="6.992">
        <ele>1837.4</ele>
        <time>2014-07-11T15:24:38Z</time>
      </trkpt>
      <trkpt lat="44.65115" lon="6.99221">
        <ele>1831</ele>
        <time>2014-07-11T15:25:23Z</time>
      </trkpt>
      <trkpt lat="44.65073" lon="6.99244">
        <ele>1827.9</ele>
        <time>2014-07-11T15:38:11Z</time>
      </trkpt>
      <trkpt lat="44.65072" lon="6.99248">
        <ele>1827.8</ele>
        <time>2014-07-11T15:38:12Z</time>
      </trkpt>
      <trkpt lat="44.65114" lon="6.99214">
        <ele>1830.6</ele>
        <time>2014-07-11T15:44:36Z</time>
      </trkpt>
      <trkpt lat="44.65114" lon="6.99216">
        <ele>1829.9</ele>
        <time>2014-07-11T15:48:57Z</time>
      </trkpt>
      <trkpt lat="44.65112" lon="6.99217">
        <ele>1829.5</ele>
        <time>2014-07-11T15:48:58Z</time>
      </trkpt>
    </trkseg>
  </trk>
</gpx>